<?xml version="1.0" encoding="UTF-8" standalone="no" ?>
<gpx xmlns="http://www.topografix.com/GPX/1/1" xmlns:xsi="http://www.w3.org/2001/XMLSchema-instance" xsi:schemaLocation="http://www.topografix.com/GPX/1/1 http://www.topografix.com/GPX/1/1/gpx.xsd" version="1.1" creator="VisuGPX - https://www.visugpx.com">
  <metadata>
    <name>Rando VTT 20-05-2018</name>
    <desc><![CDATA[Rando VTT du dimanche avec Christian, Laurent et Georges]]></desc>
  </metadata>
  <trk>
    <name><![CDATA[20 mai 2018 8:13:46 AM]]></name>
    <trkseg>
      <trkpt lat="45.19106" lon="0.69418">
        <ele>169</ele>
        <time>2018-05-20T06:13:48.000Z</time>
      </trkpt>
      <trkpt lat="45.19106" lon="0.69432">
        <ele>155</ele>
        <time>2018-05-20T06:14:51.000Z</time>
      </trkpt>
      <trkpt lat="45.19109" lon="0.69446">
        <ele>150</ele>
        <time>2018-05-20T06:15:33.000Z</time>
      </trkpt>
      <trkpt lat="45.19116" lon="0.69459">
        <ele>153</ele>
        <time>2018-05-20T06:15:39.000Z</time>
      </trkpt>
      <trkpt lat="45.1912" lon="0.69475">
        <ele>150</ele>
        <time>2018-05-20T06:15:45.000Z</time>
      </trkpt>
      <trkpt lat="45.19117" lon="0.69488">
        <ele>149</ele>
        <time>2018-05-20T06:15:51.000Z</time>
      </trkpt>
      <trkpt lat="45.19115" lon="0.69503">
        <ele>148</ele>
        <time>2018-05-20T06:15:56.000Z</time>
      </trkpt>
      <trkpt lat="45.19108" lon="0.69519">
        <ele>148</ele>
        <time>2018-05-20T06:16:01.000Z</time>
      </trkpt>
      <trkpt lat="45.19099" lon="0.69528">
        <ele>150</ele>
        <time>2018-05-20T06:16:04.000Z</time>
      </trkpt>
      <trkpt lat="45.19091" lon="0.69536">
        <ele>151</ele>
        <time>2018-05-20T06:16:07.000Z</time>
      </trkpt>
      <trkpt lat="45.19075" lon="0.6955">
        <ele>151</ele>
        <time>2018-05-20T06:16:14.000Z</time>
      </trkpt>
      <trkpt lat="45.19067" lon="0.69559">
        <ele>152</ele>
        <time>2018-05-20T06:16:17.000Z</time>
      </trkpt>
      <trkpt lat="45.19057" lon="0.69569">
        <ele>153</ele>
        <time>2018-05-20T06:16:21.000Z</time>
      </trkpt>
      <trkpt lat="45.19049" lon="0.69575">
        <ele>152</ele>
        <time>2018-05-20T06:16:24.000Z</time>
      </trkpt>
      <trkpt lat="45.19039" lon="0.69579">
        <ele>152</ele>
        <time>2018-05-20T06:16:27.000Z</time>
      </trkpt>
      <trkpt lat="45.19028" lon="0.69587">
        <ele>151</ele>
        <time>2018-05-20T06:16:31.000Z</time>
      </trkpt>
      <trkpt lat="45.19019" lon="0.69592">
        <ele>151</ele>
        <time>2018-05-20T06:16:34.000Z</time>
      </trkpt>
      <trkpt lat="45.1901" lon="0.69596">
        <ele>151</ele>
        <time>2018-05-20T06:16:37.000Z</time>
      </trkpt>
      <trkpt lat="45.19002" lon="0.69602">
        <ele>152</ele>
        <time>2018-05-20T06:16:40.000Z</time>
      </trkpt>
      <trkpt lat="45.18997" lon="0.69617">
        <ele>152</ele>
        <time>2018-05-20T06:16:44.000Z</time>
      </trkpt>
      <trkpt lat="45.19008" lon="0.69636">
        <ele>151</ele>
        <time>2018-05-20T06:16:47.000Z</time>
      </trkpt>
      <trkpt lat="45.19024" lon="0.69638">
        <ele>150</ele>
        <time>2018-05-20T06:16:49.000Z</time>
      </trkpt>
      <trkpt lat="45.19033" lon="0.6964">
        <ele>148</ele>
        <time>2018-05-20T06:16:51.000Z</time>
      </trkpt>
      <trkpt lat="45.19054" lon="0.69645">
        <ele>147</ele>
        <time>2018-05-20T06:16:54.000Z</time>
      </trkpt>
      <trkpt lat="45.19074" lon="0.69648">
        <ele>147</ele>
        <time>2018-05-20T06:16:57.000Z</time>
      </trkpt>
      <trkpt lat="45.19093" lon="0.69644">
        <ele>145</ele>
        <time>2018-05-20T06:17:00.000Z</time>
      </trkpt>
      <trkpt lat="45.19105" lon="0.69641">
        <ele>143</ele>
        <time>2018-05-20T06:17:02.000Z</time>
      </trkpt>
      <trkpt lat="45.1912" lon="0.69636">
        <ele>142</ele>
        <time>2018-05-20T06:17:05.000Z</time>
      </trkpt>
      <trkpt lat="45.19133" lon="0.69632">
        <ele>139</ele>
        <time>2018-05-20T06:17:07.000Z</time>
      </trkpt>
      <trkpt lat="45.19153" lon="0.6963">
        <ele>140</ele>
        <time>2018-05-20T06:17:09.000Z</time>
      </trkpt>
      <trkpt lat="45.19167" lon="0.69629">
        <ele>141</ele>
        <time>2018-05-20T06:17:11.000Z</time>
      </trkpt>
      <trkpt lat="45.19178" lon="0.69636">
        <ele>139</ele>
        <time>2018-05-20T06:17:13.000Z</time>
      </trkpt>
      <trkpt lat="45.19188" lon="0.6964">
        <ele>138</ele>
        <time>2018-05-20T06:17:14.000Z</time>
      </trkpt>
      <trkpt lat="45.19199" lon="0.69657">
        <ele>136</ele>
        <time>2018-05-20T06:17:16.000Z</time>
      </trkpt>
      <trkpt lat="45.19224" lon="0.69678">
        <ele>132</ele>
        <time>2018-05-20T06:17:20.000Z</time>
      </trkpt>
      <trkpt lat="45.19234" lon="0.69694">
        <ele>130</ele>
        <time>2018-05-20T06:17:22.000Z</time>
      </trkpt>
      <trkpt lat="45.19238" lon="0.69713">
        <ele>141</ele>
        <time>2018-05-20T06:17:24.000Z</time>
      </trkpt>
      <trkpt lat="45.19244" lon="0.69733">
        <ele>135</ele>
        <time>2018-05-20T06:17:27.000Z</time>
      </trkpt>
      <trkpt lat="45.19245" lon="0.69746">
        <ele>133</ele>
        <time>2018-05-20T06:17:29.000Z</time>
      </trkpt>
      <trkpt lat="45.19247" lon="0.69762">
        <ele>133</ele>
        <time>2018-05-20T06:17:32.000Z</time>
      </trkpt>
      <trkpt lat="45.19248" lon="0.69779">
        <ele>134</ele>
        <time>2018-05-20T06:17:36.000Z</time>
      </trkpt>
      <trkpt lat="45.19251" lon="0.69797">
        <ele>134</ele>
        <time>2018-05-20T06:17:40.000Z</time>
      </trkpt>
      <trkpt lat="45.19254" lon="0.69812">
        <ele>131</ele>
        <time>2018-05-20T06:17:44.000Z</time>
      </trkpt>
      <trkpt lat="45.19251" lon="0.69829">
        <ele>133</ele>
        <time>2018-05-20T06:17:50.000Z</time>
      </trkpt>
      <trkpt lat="45.1924" lon="0.69832">
        <ele>132</ele>
        <time>2018-05-20T06:17:53.000Z</time>
      </trkpt>
      <trkpt lat="45.1923" lon="0.69835">
        <ele>130</ele>
        <time>2018-05-20T06:17:56.000Z</time>
      </trkpt>
      <trkpt lat="45.1922" lon="0.69837">
        <ele>127</ele>
        <time>2018-05-20T06:18:01.000Z</time>
      </trkpt>
      <trkpt lat="45.19211" lon="0.69834">
        <ele>128</ele>
        <time>2018-05-20T06:18:07.000Z</time>
      </trkpt>
      <trkpt lat="45.1922" lon="0.69832">
        <ele>130</ele>
        <time>2018-05-20T06:22:31.000Z</time>
      </trkpt>
      <trkpt lat="45.19232" lon="0.69824">
        <ele>131</ele>
        <time>2018-05-20T06:22:38.000Z</time>
      </trkpt>
      <trkpt lat="45.19241" lon="0.69816">
        <ele>131</ele>
        <time>2018-05-20T06:22:45.000Z</time>
      </trkpt>
      <trkpt lat="45.19256" lon="0.6982">
        <ele>130</ele>
        <time>2018-05-20T06:22:49.000Z</time>
      </trkpt>
      <trkpt lat="45.19267" lon="0.69819">
        <ele>130</ele>
        <time>2018-05-20T06:22:52.000Z</time>
      </trkpt>
      <trkpt lat="45.19276" lon="0.69811">
        <ele>130</ele>
        <time>2018-05-20T06:22:55.000Z</time>
      </trkpt>
      <trkpt lat="45.19286" lon="0.6981">
        <ele>132</ele>
        <time>2018-05-20T06:22:58.000Z</time>
      </trkpt>
      <trkpt lat="45.19297" lon="0.69813">
        <ele>136</ele>
        <time>2018-05-20T06:23:02.000Z</time>
      </trkpt>
      <trkpt lat="45.19307" lon="0.69803">
        <ele>133</ele>
        <time>2018-05-20T06:23:06.000Z</time>
      </trkpt>
      <trkpt lat="45.19321" lon="0.69794">
        <ele>133</ele>
        <time>2018-05-20T06:23:10.000Z</time>
      </trkpt>
      <trkpt lat="45.19331" lon="0.69789">
        <ele>133</ele>
        <time>2018-05-20T06:23:13.000Z</time>
      </trkpt>
      <trkpt lat="45.19342" lon="0.69786">
        <ele>133</ele>
        <time>2018-05-20T06:23:16.000Z</time>
      </trkpt>
      <trkpt lat="45.19355" lon="0.69782">
        <ele>133</ele>
        <time>2018-05-20T06:23:20.000Z</time>
      </trkpt>
      <trkpt lat="45.19364" lon="0.69777">
        <ele>133</ele>
        <time>2018-05-20T06:23:23.000Z</time>
      </trkpt>
      <trkpt lat="45.19375" lon="0.69774">
        <ele>134</ele>
        <time>2018-05-20T06:23:27.000Z</time>
      </trkpt>
      <trkpt lat="45.19385" lon="0.69772">
        <ele>132</ele>
        <time>2018-05-20T06:23:30.000Z</time>
      </trkpt>
      <trkpt lat="45.19396" lon="0.69771">
        <ele>130</ele>
        <time>2018-05-20T06:23:33.000Z</time>
      </trkpt>
      <trkpt lat="45.19412" lon="0.69765">
        <ele>133</ele>
        <time>2018-05-20T06:23:37.000Z</time>
      </trkpt>
      <trkpt lat="45.19424" lon="0.6976">
        <ele>141</ele>
        <time>2018-05-20T06:23:40.000Z</time>
      </trkpt>
      <trkpt lat="45.19439" lon="0.69751">
        <ele>135</ele>
        <time>2018-05-20T06:23:44.000Z</time>
      </trkpt>
      <trkpt lat="45.19453" lon="0.69744">
        <ele>134</ele>
        <time>2018-05-20T06:23:47.000Z</time>
      </trkpt>
      <trkpt lat="45.19464" lon="0.69741">
        <ele>131</ele>
        <time>2018-05-20T06:23:49.000Z</time>
      </trkpt>
      <trkpt lat="45.19477" lon="0.69732">
        <ele>127</ele>
        <time>2018-05-20T06:23:53.000Z</time>
      </trkpt>
      <trkpt lat="45.19487" lon="0.69726">
        <ele>125</ele>
        <time>2018-05-20T06:23:56.000Z</time>
      </trkpt>
      <trkpt lat="45.19498" lon="0.6972">
        <ele>126</ele>
        <time>2018-05-20T06:23:59.000Z</time>
      </trkpt>
      <trkpt lat="45.19508" lon="0.69713">
        <ele>127</ele>
        <time>2018-05-20T06:24:02.000Z</time>
      </trkpt>
      <trkpt lat="45.19521" lon="0.69706">
        <ele>126</ele>
        <time>2018-05-20T06:24:05.000Z</time>
      </trkpt>
      <trkpt lat="45.19532" lon="0.69698">
        <ele>126</ele>
        <time>2018-05-20T06:24:08.000Z</time>
      </trkpt>
      <trkpt lat="45.19541" lon="0.69694">
        <ele>127</ele>
        <time>2018-05-20T06:24:10.000Z</time>
      </trkpt>
      <trkpt lat="45.19553" lon="0.6969">
        <ele>126</ele>
        <time>2018-05-20T06:24:13.000Z</time>
      </trkpt>
      <trkpt lat="45.19565" lon="0.69685">
        <ele>124</ele>
        <time>2018-05-20T06:24:16.000Z</time>
      </trkpt>
      <trkpt lat="45.19578" lon="0.69681">
        <ele>126</ele>
        <time>2018-05-20T06:24:19.000Z</time>
      </trkpt>
      <trkpt lat="45.19589" lon="0.69678">
        <ele>130</ele>
        <time>2018-05-20T06:24:22.000Z</time>
      </trkpt>
      <trkpt lat="45.19601" lon="0.69673">
        <ele>131</ele>
        <time>2018-05-20T06:24:25.000Z</time>
      </trkpt>
      <trkpt lat="45.19612" lon="0.69666">
        <ele>131</ele>
        <time>2018-05-20T06:24:28.000Z</time>
      </trkpt>
      <trkpt lat="45.19621" lon="0.6966">
        <ele>129</ele>
        <time>2018-05-20T06:24:31.000Z</time>
      </trkpt>
      <trkpt lat="45.19631" lon="0.69654">
        <ele>133</ele>
        <time>2018-05-20T06:24:34.000Z</time>
      </trkpt>
      <trkpt lat="45.19641" lon="0.69647">
        <ele>132</ele>
        <time>2018-05-20T06:24:37.000Z</time>
      </trkpt>
      <trkpt lat="45.1965" lon="0.6964">
        <ele>132</ele>
        <time>2018-05-20T06:24:39.000Z</time>
      </trkpt>
      <trkpt lat="45.1966" lon="0.69634">
        <ele>132</ele>
        <time>2018-05-20T06:24:42.000Z</time>
      </trkpt>
      <trkpt lat="45.19669" lon="0.6963">
        <ele>132</ele>
        <time>2018-05-20T06:24:44.000Z</time>
      </trkpt>
      <trkpt lat="45.19678" lon="0.69625">
        <ele>132</ele>
        <time>2018-05-20T06:24:46.000Z</time>
      </trkpt>
      <trkpt lat="45.19688" lon="0.69621">
        <ele>133</ele>
        <time>2018-05-20T06:24:48.000Z</time>
      </trkpt>
      <trkpt lat="45.19697" lon="0.69616">
        <ele>133</ele>
        <time>2018-05-20T06:24:50.000Z</time>
      </trkpt>
      <trkpt lat="45.19709" lon="0.69611">
        <ele>134</ele>
        <time>2018-05-20T06:24:53.000Z</time>
      </trkpt>
      <trkpt lat="45.19719" lon="0.69606">
        <ele>133</ele>
        <time>2018-05-20T06:24:55.000Z</time>
      </trkpt>
      <trkpt lat="45.19729" lon="0.69601">
        <ele>133</ele>
        <time>2018-05-20T06:24:57.000Z</time>
      </trkpt>
      <trkpt lat="45.19747" lon="0.69593">
        <ele>131</ele>
        <time>2018-05-20T06:25:01.000Z</time>
      </trkpt>
      <trkpt lat="45.19758" lon="0.69589">
        <ele>129</ele>
        <time>2018-05-20T06:25:03.000Z</time>
      </trkpt>
      <trkpt lat="45.19775" lon="0.6958">
        <ele>130</ele>
        <time>2018-05-20T06:25:07.000Z</time>
      </trkpt>
      <trkpt lat="45.19791" lon="0.69569">
        <ele>130</ele>
        <time>2018-05-20T06:25:11.000Z</time>
      </trkpt>
      <trkpt lat="45.19801" lon="0.69564">
        <ele>130</ele>
        <time>2018-05-20T06:25:13.000Z</time>
      </trkpt>
      <trkpt lat="45.1981" lon="0.69559">
        <ele>130</ele>
        <time>2018-05-20T06:25:15.000Z</time>
      </trkpt>
      <trkpt lat="45.19822" lon="0.69556">
        <ele>130</ele>
        <time>2018-05-20T06:25:18.000Z</time>
      </trkpt>
      <trkpt lat="45.19832" lon="0.69549">
        <ele>130</ele>
        <time>2018-05-20T06:25:21.000Z</time>
      </trkpt>
      <trkpt lat="45.19841" lon="0.69543">
        <ele>130</ele>
        <time>2018-05-20T06:25:23.000Z</time>
      </trkpt>
      <trkpt lat="45.1985" lon="0.69536">
        <ele>131</ele>
        <time>2018-05-20T06:25:26.000Z</time>
      </trkpt>
      <trkpt lat="45.19865" lon="0.69526">
        <ele>131</ele>
        <time>2018-05-20T06:25:30.000Z</time>
      </trkpt>
      <trkpt lat="45.19873" lon="0.69519">
        <ele>131</ele>
        <time>2018-05-20T06:25:33.000Z</time>
      </trkpt>
      <trkpt lat="45.19872" lon="0.69536">
        <ele>130</ele>
        <time>2018-05-20T06:25:44.000Z</time>
      </trkpt>
      <trkpt lat="45.19869" lon="0.69559">
        <ele>124</ele>
        <time>2018-05-20T06:25:49.000Z</time>
      </trkpt>
      <trkpt lat="45.19869" lon="0.69572">
        <ele>124</ele>
        <time>2018-05-20T06:25:51.000Z</time>
      </trkpt>
      <trkpt lat="45.19862" lon="0.69593">
        <ele>123</ele>
        <time>2018-05-20T06:25:55.000Z</time>
      </trkpt>
      <trkpt lat="45.19859" lon="0.69608">
        <ele>124</ele>
        <time>2018-05-20T06:25:58.000Z</time>
      </trkpt>
      <trkpt lat="45.1986" lon="0.69626">
        <ele>122</ele>
        <time>2018-05-20T06:26:02.000Z</time>
      </trkpt>
      <trkpt lat="45.19856" lon="0.69647">
        <ele>123</ele>
        <time>2018-05-20T06:26:06.000Z</time>
      </trkpt>
      <trkpt lat="45.19851" lon="0.6967">
        <ele>122</ele>
        <time>2018-05-20T06:26:10.000Z</time>
      </trkpt>
      <trkpt lat="45.19843" lon="0.69692">
        <ele>120</ele>
        <time>2018-05-20T06:26:14.000Z</time>
      </trkpt>
      <trkpt lat="45.19843" lon="0.69711">
        <ele>123</ele>
        <time>2018-05-20T06:26:18.000Z</time>
      </trkpt>
      <trkpt lat="45.19849" lon="0.69731">
        <ele>122</ele>
        <time>2018-05-20T06:26:22.000Z</time>
      </trkpt>
      <trkpt lat="45.19854" lon="0.69745">
        <ele>123</ele>
        <time>2018-05-20T06:26:25.000Z</time>
      </trkpt>
      <trkpt lat="45.19862" lon="0.69763">
        <ele>127</ele>
        <time>2018-05-20T06:26:29.000Z</time>
      </trkpt>
      <trkpt lat="45.19869" lon="0.69781">
        <ele>127</ele>
        <time>2018-05-20T06:26:33.000Z</time>
      </trkpt>
      <trkpt lat="45.19873" lon="0.69793">
        <ele>129</ele>
        <time>2018-05-20T06:26:36.000Z</time>
      </trkpt>
      <trkpt lat="45.19882" lon="0.69805">
        <ele>133</ele>
        <time>2018-05-20T06:26:40.000Z</time>
      </trkpt>
      <trkpt lat="45.19892" lon="0.69817">
        <ele>132</ele>
        <time>2018-05-20T06:26:46.000Z</time>
      </trkpt>
      <trkpt lat="45.19902" lon="0.69805">
        <ele>132</ele>
        <time>2018-05-20T06:26:50.000Z</time>
      </trkpt>
      <trkpt lat="45.1991" lon="0.69794">
        <ele>132</ele>
        <time>2018-05-20T06:26:56.000Z</time>
      </trkpt>
      <trkpt lat="45.1992" lon="0.69783">
        <ele>133</ele>
        <time>2018-05-20T06:27:01.000Z</time>
      </trkpt>
      <trkpt lat="45.19929" lon="0.69778">
        <ele>134</ele>
        <time>2018-05-20T06:27:05.000Z</time>
      </trkpt>
      <trkpt lat="45.19938" lon="0.69784">
        <ele>132</ele>
        <time>2018-05-20T06:27:09.000Z</time>
      </trkpt>
      <trkpt lat="45.19941" lon="0.69798">
        <ele>136</ele>
        <time>2018-05-20T06:27:13.000Z</time>
      </trkpt>
      <trkpt lat="45.19949" lon="0.69806">
        <ele>134</ele>
        <time>2018-05-20T06:27:19.000Z</time>
      </trkpt>
      <trkpt lat="45.19962" lon="0.69811">
        <ele>132</ele>
        <time>2018-05-20T06:27:23.000Z</time>
      </trkpt>
      <trkpt lat="45.19974" lon="0.69816">
        <ele>130</ele>
        <time>2018-05-20T06:27:27.000Z</time>
      </trkpt>
      <trkpt lat="45.19984" lon="0.69828">
        <ele>131</ele>
        <time>2018-05-20T06:27:32.000Z</time>
      </trkpt>
      <trkpt lat="45.19991" lon="0.69836">
        <ele>132</ele>
        <time>2018-05-20T06:27:37.000Z</time>
      </trkpt>
      <trkpt lat="45.20001" lon="0.69832">
        <ele>133</ele>
        <time>2018-05-20T06:27:43.000Z</time>
      </trkpt>
      <trkpt lat="45.20009" lon="0.69842">
        <ele>133</ele>
        <time>2018-05-20T06:27:47.000Z</time>
      </trkpt>
      <trkpt lat="45.20017" lon="0.69855">
        <ele>132</ele>
        <time>2018-05-20T06:27:50.000Z</time>
      </trkpt>
      <trkpt lat="45.20027" lon="0.69859">
        <ele>134</ele>
        <time>2018-05-20T06:27:55.000Z</time>
      </trkpt>
      <trkpt lat="45.20035" lon="0.69852">
        <ele>135</ele>
        <time>2018-05-20T06:27:58.000Z</time>
      </trkpt>
      <trkpt lat="45.20045" lon="0.69841">
        <ele>134</ele>
        <time>2018-05-20T06:28:01.000Z</time>
      </trkpt>
      <trkpt lat="45.20054" lon="0.69835">
        <ele>133</ele>
        <time>2018-05-20T06:28:04.000Z</time>
      </trkpt>
      <trkpt lat="45.20062" lon="0.69829">
        <ele>133</ele>
        <time>2018-05-20T06:28:07.000Z</time>
      </trkpt>
      <trkpt lat="45.20071" lon="0.6982">
        <ele>134</ele>
        <time>2018-05-20T06:28:10.000Z</time>
      </trkpt>
      <trkpt lat="45.2008" lon="0.69811">
        <ele>133</ele>
        <time>2018-05-20T06:28:13.000Z</time>
      </trkpt>
      <trkpt lat="45.20087" lon="0.698">
        <ele>132</ele>
        <time>2018-05-20T06:28:16.000Z</time>
      </trkpt>
      <trkpt lat="45.20093" lon="0.69788">
        <ele>129</ele>
        <time>2018-05-20T06:28:19.000Z</time>
      </trkpt>
      <trkpt lat="45.20097" lon="0.69775">
        <ele>131</ele>
        <time>2018-05-20T06:28:24.000Z</time>
      </trkpt>
      <trkpt lat="45.20105" lon="0.69781">
        <ele>132</ele>
        <time>2018-05-20T06:28:27.000Z</time>
      </trkpt>
      <trkpt lat="45.20115" lon="0.69789">
        <ele>132</ele>
        <time>2018-05-20T06:28:30.000Z</time>
      </trkpt>
      <trkpt lat="45.20127" lon="0.69796">
        <ele>133</ele>
        <time>2018-05-20T06:28:33.000Z</time>
      </trkpt>
      <trkpt lat="45.20139" lon="0.69803">
        <ele>132</ele>
        <time>2018-05-20T06:28:36.000Z</time>
      </trkpt>
      <trkpt lat="45.20154" lon="0.69813">
        <ele>128</ele>
        <time>2018-05-20T06:28:40.000Z</time>
      </trkpt>
      <trkpt lat="45.20166" lon="0.6982">
        <ele>130</ele>
        <time>2018-05-20T06:28:43.000Z</time>
      </trkpt>
      <trkpt lat="45.20177" lon="0.69826">
        <ele>131</ele>
        <time>2018-05-20T06:28:46.000Z</time>
      </trkpt>
      <trkpt lat="45.20187" lon="0.69833">
        <ele>131</ele>
        <time>2018-05-20T06:28:49.000Z</time>
      </trkpt>
      <trkpt lat="45.20198" lon="0.6984">
        <ele>130</ele>
        <time>2018-05-20T06:28:52.000Z</time>
      </trkpt>
      <trkpt lat="45.2021" lon="0.69847">
        <ele>131</ele>
        <time>2018-05-20T06:28:55.000Z</time>
      </trkpt>
      <trkpt lat="45.2022" lon="0.69853">
        <ele>131</ele>
        <time>2018-05-20T06:28:58.000Z</time>
      </trkpt>
      <trkpt lat="45.20233" lon="0.69857">
        <ele>130</ele>
        <time>2018-05-20T06:29:01.000Z</time>
      </trkpt>
      <trkpt lat="45.20245" lon="0.69862">
        <ele>129</ele>
        <time>2018-05-20T06:29:04.000Z</time>
      </trkpt>
      <trkpt lat="45.20261" lon="0.69864">
        <ele>131</ele>
        <time>2018-05-20T06:29:08.000Z</time>
      </trkpt>
      <trkpt lat="45.20276" lon="0.69866">
        <ele>133</ele>
        <time>2018-05-20T06:29:12.000Z</time>
      </trkpt>
      <trkpt lat="45.20287" lon="0.69867">
        <ele>132</ele>
        <time>2018-05-20T06:29:15.000Z</time>
      </trkpt>
      <trkpt lat="45.20298" lon="0.6987">
        <ele>135</ele>
        <time>2018-05-20T06:29:18.000Z</time>
      </trkpt>
      <trkpt lat="45.20309" lon="0.69877">
        <ele>134</ele>
        <time>2018-05-20T06:29:21.000Z</time>
      </trkpt>
      <trkpt lat="45.20319" lon="0.69885">
        <ele>134</ele>
        <time>2018-05-20T06:29:24.000Z</time>
      </trkpt>
      <trkpt lat="45.20329" lon="0.69896">
        <ele>134</ele>
        <time>2018-05-20T06:29:27.000Z</time>
      </trkpt>
      <trkpt lat="45.20341" lon="0.69908">
        <ele>133</ele>
        <time>2018-05-20T06:29:31.000Z</time>
      </trkpt>
      <trkpt lat="45.20351" lon="0.69916">
        <ele>131</ele>
        <time>2018-05-20T06:29:34.000Z</time>
      </trkpt>
      <trkpt lat="45.20362" lon="0.69926">
        <ele>131</ele>
        <time>2018-05-20T06:29:38.000Z</time>
      </trkpt>
      <trkpt lat="45.20371" lon="0.69933">
        <ele>130</ele>
        <time>2018-05-20T06:29:41.000Z</time>
      </trkpt>
      <trkpt lat="45.2038" lon="0.69943">
        <ele>130</ele>
        <time>2018-05-20T06:29:45.000Z</time>
      </trkpt>
      <trkpt lat="45.20388" lon="0.69952">
        <ele>131</ele>
        <time>2018-05-20T06:29:49.000Z</time>
      </trkpt>
      <trkpt lat="45.20396" lon="0.6996">
        <ele>134</ele>
        <time>2018-05-20T06:29:53.000Z</time>
      </trkpt>
      <trkpt lat="45.20404" lon="0.69968">
        <ele>133</ele>
        <time>2018-05-20T06:29:57.000Z</time>
      </trkpt>
      <trkpt lat="45.20413" lon="0.69975">
        <ele>135</ele>
        <time>2018-05-20T06:30:02.000Z</time>
      </trkpt>
      <trkpt lat="45.20418" lon="0.69985">
        <ele>135</ele>
        <time>2018-05-20T06:30:07.000Z</time>
      </trkpt>
      <trkpt lat="45.20427" lon="0.69989">
        <ele>137</ele>
        <time>2018-05-20T06:30:13.000Z</time>
      </trkpt>
      <trkpt lat="45.20436" lon="0.69996">
        <ele>138</ele>
        <time>2018-05-20T06:30:17.000Z</time>
      </trkpt>
      <trkpt lat="45.20445" lon="0.70005">
        <ele>139</ele>
        <time>2018-05-20T06:30:22.000Z</time>
      </trkpt>
      <trkpt lat="45.20452" lon="0.70016">
        <ele>140</ele>
        <time>2018-05-20T06:30:27.000Z</time>
      </trkpt>
      <trkpt lat="45.20461" lon="0.70022">
        <ele>140</ele>
        <time>2018-05-20T06:30:32.000Z</time>
      </trkpt>
      <trkpt lat="45.20472" lon="0.70025">
        <ele>140</ele>
        <time>2018-05-20T06:30:37.000Z</time>
      </trkpt>
      <trkpt lat="45.20482" lon="0.70027">
        <ele>143</ele>
        <time>2018-05-20T06:30:41.000Z</time>
      </trkpt>
      <trkpt lat="45.20492" lon="0.70028">
        <ele>148</ele>
        <time>2018-05-20T06:30:46.000Z</time>
      </trkpt>
      <trkpt lat="45.20502" lon="0.70029">
        <ele>150</ele>
        <time>2018-05-20T06:30:50.000Z</time>
      </trkpt>
      <trkpt lat="45.20514" lon="0.7003">
        <ele>149</ele>
        <time>2018-05-20T06:30:55.000Z</time>
      </trkpt>
      <trkpt lat="45.20523" lon="0.70036">
        <ele>152</ele>
        <time>2018-05-20T06:31:03.000Z</time>
      </trkpt>
      <trkpt lat="45.20533" lon="0.70035">
        <ele>149</ele>
        <time>2018-05-20T06:31:10.000Z</time>
      </trkpt>
      <trkpt lat="45.20545" lon="0.70037">
        <ele>153</ele>
        <time>2018-05-20T06:31:15.000Z</time>
      </trkpt>
      <trkpt lat="45.20556" lon="0.70042">
        <ele>154</ele>
        <time>2018-05-20T06:31:19.000Z</time>
      </trkpt>
      <trkpt lat="45.20565" lon="0.70046">
        <ele>156</ele>
        <time>2018-05-20T06:31:26.000Z</time>
      </trkpt>
      <trkpt lat="45.20573" lon="0.70053">
        <ele>155</ele>
        <time>2018-05-20T06:31:30.000Z</time>
      </trkpt>
      <trkpt lat="45.20584" lon="0.70053">
        <ele>155</ele>
        <time>2018-05-20T06:31:34.000Z</time>
      </trkpt>
      <trkpt lat="45.20594" lon="0.70057">
        <ele>153</ele>
        <time>2018-05-20T06:31:39.000Z</time>
      </trkpt>
      <trkpt lat="45.20603" lon="0.70064">
        <ele>150</ele>
        <time>2018-05-20T06:31:44.000Z</time>
      </trkpt>
      <trkpt lat="45.20614" lon="0.70081">
        <ele>147</ele>
        <time>2018-05-20T06:31:51.000Z</time>
      </trkpt>
      <trkpt lat="45.20622" lon="0.70085">
        <ele>146</ele>
        <time>2018-05-20T06:31:55.000Z</time>
      </trkpt>
      <trkpt lat="45.20634" lon="0.70088">
        <ele>148</ele>
        <time>2018-05-20T06:31:59.000Z</time>
      </trkpt>
      <trkpt lat="45.20646" lon="0.70092">
        <ele>148</ele>
        <time>2018-05-20T06:32:03.000Z</time>
      </trkpt>
      <trkpt lat="45.20654" lon="0.70102">
        <ele>150</ele>
        <time>2018-05-20T06:32:08.000Z</time>
      </trkpt>
      <trkpt lat="45.20662" lon="0.70117">
        <ele>153</ele>
        <time>2018-05-20T06:32:14.000Z</time>
      </trkpt>
      <trkpt lat="45.20672" lon="0.70124">
        <ele>151</ele>
        <time>2018-05-20T06:32:22.000Z</time>
      </trkpt>
      <trkpt lat="45.20681" lon="0.70133">
        <ele>153</ele>
        <time>2018-05-20T06:32:28.000Z</time>
      </trkpt>
      <trkpt lat="45.20688" lon="0.70143">
        <ele>155</ele>
        <time>2018-05-20T06:32:35.000Z</time>
      </trkpt>
      <trkpt lat="45.207" lon="0.70157">
        <ele>157</ele>
        <time>2018-05-20T06:32:43.000Z</time>
      </trkpt>
      <trkpt lat="45.2071" lon="0.70163">
        <ele>159</ele>
        <time>2018-05-20T06:32:47.000Z</time>
      </trkpt>
      <trkpt lat="45.20722" lon="0.70172">
        <ele>159</ele>
        <time>2018-05-20T06:32:53.000Z</time>
      </trkpt>
      <trkpt lat="45.20731" lon="0.70176">
        <ele>161</ele>
        <time>2018-05-20T06:32:57.000Z</time>
      </trkpt>
      <trkpt lat="45.20738" lon="0.70187">
        <ele>164</ele>
        <time>2018-05-20T06:33:02.000Z</time>
      </trkpt>
      <trkpt lat="45.20742" lon="0.70198">
        <ele>164</ele>
        <time>2018-05-20T06:33:07.000Z</time>
      </trkpt>
      <trkpt lat="45.20751" lon="0.70207">
        <ele>168</ele>
        <time>2018-05-20T06:33:13.000Z</time>
      </trkpt>
      <trkpt lat="45.20762" lon="0.70213">
        <ele>166</ele>
        <time>2018-05-20T06:33:47.000Z</time>
      </trkpt>
      <trkpt lat="45.2077" lon="0.70223">
        <ele>167</ele>
        <time>2018-05-20T06:33:51.000Z</time>
      </trkpt>
      <trkpt lat="45.20778" lon="0.70232">
        <ele>166</ele>
        <time>2018-05-20T06:33:55.000Z</time>
      </trkpt>
      <trkpt lat="45.20787" lon="0.70243">
        <ele>166</ele>
        <time>2018-05-20T06:33:59.000Z</time>
      </trkpt>
      <trkpt lat="45.20794" lon="0.70254">
        <ele>168</ele>
        <time>2018-05-20T06:34:07.000Z</time>
      </trkpt>
      <trkpt lat="45.20799" lon="0.70264">
        <ele>172</ele>
        <time>2018-05-20T06:34:26.000Z</time>
      </trkpt>
      <trkpt lat="45.20808" lon="0.70271">
        <ele>177</ele>
        <time>2018-05-20T06:34:33.000Z</time>
      </trkpt>
      <trkpt lat="45.20816" lon="0.7028">
        <ele>178</ele>
        <time>2018-05-20T06:34:41.000Z</time>
      </trkpt>
      <trkpt lat="45.20822" lon="0.70293">
        <ele>177</ele>
        <time>2018-05-20T06:34:49.000Z</time>
      </trkpt>
      <trkpt lat="45.20829" lon="0.70301">
        <ele>176</ele>
        <time>2018-05-20T06:34:59.000Z</time>
      </trkpt>
      <trkpt lat="45.20833" lon="0.70313">
        <ele>180</ele>
        <time>2018-05-20T06:35:07.000Z</time>
      </trkpt>
      <trkpt lat="45.20841" lon="0.70324">
        <ele>177</ele>
        <time>2018-05-20T06:35:17.000Z</time>
      </trkpt>
      <trkpt lat="45.20843" lon="0.70337">
        <ele>176</ele>
        <time>2018-05-20T06:35:26.000Z</time>
      </trkpt>
      <trkpt lat="45.20848" lon="0.70349">
        <ele>182</ele>
        <time>2018-05-20T06:35:37.000Z</time>
      </trkpt>
      <trkpt lat="45.20854" lon="0.70358">
        <ele>192</ele>
        <time>2018-05-20T06:35:53.000Z</time>
      </trkpt>
      <trkpt lat="45.20856" lon="0.70372">
        <ele>188</ele>
        <time>2018-05-20T06:36:03.000Z</time>
      </trkpt>
      <trkpt lat="45.20855" lon="0.70386">
        <ele>190</ele>
        <time>2018-05-20T06:36:15.000Z</time>
      </trkpt>
      <trkpt lat="45.20853" lon="0.70402">
        <ele>192</ele>
        <time>2018-05-20T06:37:00.000Z</time>
      </trkpt>
      <trkpt lat="45.20852" lon="0.70418">
        <ele>193</ele>
        <time>2018-05-20T06:37:07.000Z</time>
      </trkpt>
      <trkpt lat="45.20858" lon="0.70433">
        <ele>195</ele>
        <time>2018-05-20T06:37:15.000Z</time>
      </trkpt>
      <trkpt lat="45.20857" lon="0.70448">
        <ele>197</ele>
        <time>2018-05-20T06:37:22.000Z</time>
      </trkpt>
      <trkpt lat="45.20858" lon="0.70461">
        <ele>200</ele>
        <time>2018-05-20T06:37:38.000Z</time>
      </trkpt>
      <trkpt lat="45.20857" lon="0.70474">
        <ele>201</ele>
        <time>2018-05-20T06:37:49.000Z</time>
      </trkpt>
      <trkpt lat="45.20854" lon="0.70489">
        <ele>203</ele>
        <time>2018-05-20T06:37:58.000Z</time>
      </trkpt>
      <trkpt lat="45.20845" lon="0.70495">
        <ele>204</ele>
        <time>2018-05-20T06:38:04.000Z</time>
      </trkpt>
      <trkpt lat="45.20842" lon="0.70507">
        <ele>207</ele>
        <time>2018-05-20T06:38:14.000Z</time>
      </trkpt>
      <trkpt lat="45.20845" lon="0.70521">
        <ele>205</ele>
        <time>2018-05-20T06:38:26.000Z</time>
      </trkpt>
      <trkpt lat="45.20839" lon="0.70533">
        <ele>208</ele>
        <time>2018-05-20T06:38:41.000Z</time>
      </trkpt>
      <trkpt lat="45.20834" lon="0.70544">
        <ele>206</ele>
        <time>2018-05-20T06:38:49.000Z</time>
      </trkpt>
      <trkpt lat="45.20837" lon="0.70558">
        <ele>211</ele>
        <time>2018-05-20T06:39:03.000Z</time>
      </trkpt>
      <trkpt lat="45.2083" lon="0.70567">
        <ele>210</ele>
        <time>2018-05-20T06:39:11.000Z</time>
      </trkpt>
      <trkpt lat="45.20828" lon="0.70581">
        <ele>215</ele>
        <time>2018-05-20T06:39:27.000Z</time>
      </trkpt>
      <trkpt lat="45.20826" lon="0.70593">
        <ele>217</ele>
        <time>2018-05-20T06:39:42.000Z</time>
      </trkpt>
      <trkpt lat="45.20823" lon="0.70605">
        <ele>216</ele>
        <time>2018-05-20T06:39:57.000Z</time>
      </trkpt>
      <trkpt lat="45.20815" lon="0.70615">
        <ele>219</ele>
        <time>2018-05-20T06:40:05.000Z</time>
      </trkpt>
      <trkpt lat="45.20811" lon="0.70628">
        <ele>227</ele>
        <time>2018-05-20T06:42:04.000Z</time>
      </trkpt>
      <trkpt lat="45.20805" lon="0.7064">
        <ele>227</ele>
        <time>2018-05-20T06:42:18.000Z</time>
      </trkpt>
      <trkpt lat="45.20796" lon="0.70651">
        <ele>231</ele>
        <time>2018-05-20T06:42:25.000Z</time>
      </trkpt>
      <trkpt lat="45.20788" lon="0.7066">
        <ele>233</ele>
        <time>2018-05-20T06:42:31.000Z</time>
      </trkpt>
      <trkpt lat="45.20778" lon="0.70663">
        <ele>232</ele>
        <time>2018-05-20T06:42:39.000Z</time>
      </trkpt>
      <trkpt lat="45.20771" lon="0.70674">
        <ele>233</ele>
        <time>2018-05-20T06:42:49.000Z</time>
      </trkpt>
      <trkpt lat="45.20763" lon="0.70681">
        <ele>235</ele>
        <time>2018-05-20T06:42:59.000Z</time>
      </trkpt>
      <trkpt lat="45.20755" lon="0.70686">
        <ele>235</ele>
        <time>2018-05-20T06:43:08.000Z</time>
      </trkpt>
      <trkpt lat="45.20747" lon="0.70694">
        <ele>235</ele>
        <time>2018-05-20T06:43:13.000Z</time>
      </trkpt>
      <trkpt lat="45.2074" lon="0.70705">
        <ele>234</ele>
        <time>2018-05-20T06:43:21.000Z</time>
      </trkpt>
      <trkpt lat="45.20738" lon="0.70719">
        <ele>233</ele>
        <time>2018-05-20T06:43:28.000Z</time>
      </trkpt>
      <trkpt lat="45.20735" lon="0.70732">
        <ele>233</ele>
        <time>2018-05-20T06:43:34.000Z</time>
      </trkpt>
      <trkpt lat="45.20732" lon="0.70744">
        <ele>230</ele>
        <time>2018-05-20T06:43:43.000Z</time>
      </trkpt>
      <trkpt lat="45.20739" lon="0.70757">
        <ele>228</ele>
        <time>2018-05-20T06:43:49.000Z</time>
      </trkpt>
      <trkpt lat="45.20746" lon="0.70768">
        <ele>227</ele>
        <time>2018-05-20T06:43:54.000Z</time>
      </trkpt>
      <trkpt lat="45.20752" lon="0.70778">
        <ele>227</ele>
        <time>2018-05-20T06:43:59.000Z</time>
      </trkpt>
      <trkpt lat="45.20756" lon="0.7079">
        <ele>229</ele>
        <time>2018-05-20T06:44:04.000Z</time>
      </trkpt>
      <trkpt lat="45.2076" lon="0.70803">
        <ele>230</ele>
        <time>2018-05-20T06:44:09.000Z</time>
      </trkpt>
      <trkpt lat="45.20765" lon="0.70815">
        <ele>232</ele>
        <time>2018-05-20T06:44:14.000Z</time>
      </trkpt>
      <trkpt lat="45.2077" lon="0.70826">
        <ele>233</ele>
        <time>2018-05-20T06:44:20.000Z</time>
      </trkpt>
      <trkpt lat="45.20776" lon="0.7084">
        <ele>237</ele>
        <time>2018-05-20T06:44:25.000Z</time>
      </trkpt>
      <trkpt lat="45.20782" lon="0.70853">
        <ele>236</ele>
        <time>2018-05-20T06:44:29.000Z</time>
      </trkpt>
      <trkpt lat="45.20788" lon="0.70864">
        <ele>237</ele>
        <time>2018-05-20T06:44:33.000Z</time>
      </trkpt>
      <trkpt lat="45.20794" lon="0.70875">
        <ele>192</ele>
        <time>2018-05-20T06:44:37.000Z</time>
      </trkpt>
      <trkpt lat="45.20797" lon="0.70891">
        <ele>215</ele>
        <time>2018-05-20T06:44:41.000Z</time>
      </trkpt>
      <trkpt lat="45.208" lon="0.70912">
        <ele>224</ele>
        <time>2018-05-20T06:44:45.000Z</time>
      </trkpt>
      <trkpt lat="45.20802" lon="0.70931">
        <ele>230</ele>
        <time>2018-05-20T06:44:49.000Z</time>
      </trkpt>
      <trkpt lat="45.208" lon="0.70945">
        <ele>230</ele>
        <time>2018-05-20T06:44:52.000Z</time>
      </trkpt>
      <trkpt lat="45.208" lon="0.70959">
        <ele>230</ele>
        <time>2018-05-20T06:44:56.000Z</time>
      </trkpt>
      <trkpt lat="45.20799" lon="0.70974">
        <ele>226</ele>
        <time>2018-05-20T06:45:00.000Z</time>
      </trkpt>
      <trkpt lat="45.20796" lon="0.70989">
        <ele>232</ele>
        <time>2018-05-20T06:45:03.000Z</time>
      </trkpt>
      <trkpt lat="45.20794" lon="0.71004">
        <ele>232</ele>
        <time>2018-05-20T06:45:06.000Z</time>
      </trkpt>
      <trkpt lat="45.20792" lon="0.71018">
        <ele>233</ele>
        <time>2018-05-20T06:45:09.000Z</time>
      </trkpt>
      <trkpt lat="45.20792" lon="0.71031">
        <ele>233</ele>
        <time>2018-05-20T06:45:12.000Z</time>
      </trkpt>
      <trkpt lat="45.20785" lon="0.7108">
        <ele>234</ele>
        <time>2018-05-20T06:45:23.000Z</time>
      </trkpt>
      <trkpt lat="45.20783" lon="0.71096">
        <ele>233</ele>
        <time>2018-05-20T06:45:26.000Z</time>
      </trkpt>
      <trkpt lat="45.20782" lon="0.71113">
        <ele>235</ele>
        <time>2018-05-20T06:45:29.000Z</time>
      </trkpt>
      <trkpt lat="45.20781" lon="0.71128">
        <ele>234</ele>
        <time>2018-05-20T06:45:32.000Z</time>
      </trkpt>
      <trkpt lat="45.2078" lon="0.71142">
        <ele>237</ele>
        <time>2018-05-20T06:45:34.000Z</time>
      </trkpt>
      <trkpt lat="45.20779" lon="0.71179">
        <ele>238</ele>
        <time>2018-05-20T06:45:37.000Z</time>
      </trkpt>
      <trkpt lat="45.20777" lon="0.71192">
        <ele>238</ele>
        <time>2018-05-20T06:45:39.000Z</time>
      </trkpt>
      <trkpt lat="45.20774" lon="0.71247">
        <ele>241</ele>
        <time>2018-05-20T06:45:45.000Z</time>
      </trkpt>
      <trkpt lat="45.20779" lon="0.71274">
        <ele>238</ele>
        <time>2018-05-20T06:45:49.000Z</time>
      </trkpt>
      <trkpt lat="45.2078" lon="0.71288">
        <ele>237</ele>
        <time>2018-05-20T06:45:51.000Z</time>
      </trkpt>
      <trkpt lat="45.20783" lon="0.71302">
        <ele>236</ele>
        <time>2018-05-20T06:45:53.000Z</time>
      </trkpt>
      <trkpt lat="45.20778" lon="0.71319">
        <ele>235</ele>
        <time>2018-05-20T06:45:57.000Z</time>
      </trkpt>
      <trkpt lat="45.20771" lon="0.71335">
        <ele>234</ele>
        <time>2018-05-20T06:46:00.000Z</time>
      </trkpt>
      <trkpt lat="45.20771" lon="0.7135">
        <ele>233</ele>
        <time>2018-05-20T06:46:04.000Z</time>
      </trkpt>
      <trkpt lat="45.20772" lon="0.71364">
        <ele>235</ele>
        <time>2018-05-20T06:46:07.000Z</time>
      </trkpt>
      <trkpt lat="45.20778" lon="0.71378">
        <ele>234</ele>
        <time>2018-05-20T06:46:10.000Z</time>
      </trkpt>
      <trkpt lat="45.20786" lon="0.71389">
        <ele>232</ele>
        <time>2018-05-20T06:46:13.000Z</time>
      </trkpt>
      <trkpt lat="45.20794" lon="0.71401">
        <ele>230</ele>
        <time>2018-05-20T06:46:16.000Z</time>
      </trkpt>
      <trkpt lat="45.20804" lon="0.71413">
        <ele>230</ele>
        <time>2018-05-20T06:46:20.000Z</time>
      </trkpt>
      <trkpt lat="45.20812" lon="0.71423">
        <ele>229</ele>
        <time>2018-05-20T06:46:23.000Z</time>
      </trkpt>
      <trkpt lat="45.20821" lon="0.71429">
        <ele>229</ele>
        <time>2018-05-20T06:46:26.000Z</time>
      </trkpt>
      <trkpt lat="45.20829" lon="0.7144">
        <ele>227</ele>
        <time>2018-05-20T06:46:30.000Z</time>
      </trkpt>
      <trkpt lat="45.20836" lon="0.71451">
        <ele>228</ele>
        <time>2018-05-20T06:46:33.000Z</time>
      </trkpt>
      <trkpt lat="45.20842" lon="0.71468">
        <ele>228</ele>
        <time>2018-05-20T06:46:37.000Z</time>
      </trkpt>
      <trkpt lat="45.20844" lon="0.71483">
        <ele>228</ele>
        <time>2018-05-20T06:46:40.000Z</time>
      </trkpt>
      <trkpt lat="45.20841" lon="0.71502">
        <ele>230</ele>
        <time>2018-05-20T06:46:44.000Z</time>
      </trkpt>
      <trkpt lat="45.20832" lon="0.71518">
        <ele>230</ele>
        <time>2018-05-20T06:46:48.000Z</time>
      </trkpt>
      <trkpt lat="45.20819" lon="0.71537">
        <ele>231</ele>
        <time>2018-05-20T06:46:54.000Z</time>
      </trkpt>
      <trkpt lat="45.2081" lon="0.71552">
        <ele>232</ele>
        <time>2018-05-20T06:46:59.000Z</time>
      </trkpt>
      <trkpt lat="45.20802" lon="0.71568">
        <ele>231</ele>
        <time>2018-05-20T06:47:04.000Z</time>
      </trkpt>
      <trkpt lat="45.20799" lon="0.71583">
        <ele>229</ele>
        <time>2018-05-20T06:47:08.000Z</time>
      </trkpt>
      <trkpt lat="45.20804" lon="0.71601">
        <ele>233</ele>
        <time>2018-05-20T06:47:13.000Z</time>
      </trkpt>
      <trkpt lat="45.20812" lon="0.71608">
        <ele>232</ele>
        <time>2018-05-20T06:47:15.000Z</time>
      </trkpt>
      <trkpt lat="45.20821" lon="0.71613">
        <ele>230</ele>
        <time>2018-05-20T06:47:17.000Z</time>
      </trkpt>
      <trkpt lat="45.20838" lon="0.71619">
        <ele>230</ele>
        <time>2018-05-20T06:47:21.000Z</time>
      </trkpt>
      <trkpt lat="45.20852" lon="0.71621">
        <ele>230</ele>
        <time>2018-05-20T06:47:25.000Z</time>
      </trkpt>
      <trkpt lat="45.20865" lon="0.71621">
        <ele>230</ele>
        <time>2018-05-20T06:47:29.000Z</time>
      </trkpt>
      <trkpt lat="45.20875" lon="0.71622">
        <ele>230</ele>
        <time>2018-05-20T06:47:32.000Z</time>
      </trkpt>
      <trkpt lat="45.20889" lon="0.71622">
        <ele>230</ele>
        <time>2018-05-20T06:47:36.000Z</time>
      </trkpt>
      <trkpt lat="45.209" lon="0.71623">
        <ele>232</ele>
        <time>2018-05-20T06:47:40.000Z</time>
      </trkpt>
      <trkpt lat="45.2091" lon="0.71621">
        <ele>231</ele>
        <time>2018-05-20T06:47:43.000Z</time>
      </trkpt>
      <trkpt lat="45.20919" lon="0.7162">
        <ele>231</ele>
        <time>2018-05-20T06:47:46.000Z</time>
      </trkpt>
      <trkpt lat="45.20929" lon="0.7162">
        <ele>231</ele>
        <time>2018-05-20T06:47:49.000Z</time>
      </trkpt>
      <trkpt lat="45.2094" lon="0.71621">
        <ele>229</ele>
        <time>2018-05-20T06:47:52.000Z</time>
      </trkpt>
      <trkpt lat="45.2095" lon="0.7162">
        <ele>230</ele>
        <time>2018-05-20T06:47:55.000Z</time>
      </trkpt>
      <trkpt lat="45.20961" lon="0.71619">
        <ele>229</ele>
        <time>2018-05-20T06:47:58.000Z</time>
      </trkpt>
      <trkpt lat="45.20971" lon="0.71619">
        <ele>231</ele>
        <time>2018-05-20T06:48:01.000Z</time>
      </trkpt>
      <trkpt lat="45.2098" lon="0.71619">
        <ele>232</ele>
        <time>2018-05-20T06:48:04.000Z</time>
      </trkpt>
      <trkpt lat="45.2099" lon="0.71618">
        <ele>232</ele>
        <time>2018-05-20T06:48:07.000Z</time>
      </trkpt>
      <trkpt lat="45.21001" lon="0.71617">
        <ele>230</ele>
        <time>2018-05-20T06:48:10.000Z</time>
      </trkpt>
      <trkpt lat="45.21012" lon="0.71615">
        <ele>230</ele>
        <time>2018-05-20T06:48:13.000Z</time>
      </trkpt>
      <trkpt lat="45.21022" lon="0.71614">
        <ele>228</ele>
        <time>2018-05-20T06:48:17.000Z</time>
      </trkpt>
      <trkpt lat="45.21034" lon="0.71611">
        <ele>228</ele>
        <time>2018-05-20T06:48:20.000Z</time>
      </trkpt>
      <trkpt lat="45.21045" lon="0.71605">
        <ele>229</ele>
        <time>2018-05-20T06:48:23.000Z</time>
      </trkpt>
      <trkpt lat="45.21055" lon="0.71601">
        <ele>229</ele>
        <time>2018-05-20T06:48:26.000Z</time>
      </trkpt>
      <trkpt lat="45.21063" lon="0.71595">
        <ele>230</ele>
        <time>2018-05-20T06:48:29.000Z</time>
      </trkpt>
      <trkpt lat="45.21071" lon="0.71586">
        <ele>230</ele>
        <time>2018-05-20T06:48:32.000Z</time>
      </trkpt>
      <trkpt lat="45.21078" lon="0.71578">
        <ele>232</ele>
        <time>2018-05-20T06:48:35.000Z</time>
      </trkpt>
      <trkpt lat="45.21088" lon="0.71571">
        <ele>233</ele>
        <time>2018-05-20T06:48:38.000Z</time>
      </trkpt>
      <trkpt lat="45.21098" lon="0.71566">
        <ele>235</ele>
        <time>2018-05-20T06:48:41.000Z</time>
      </trkpt>
      <trkpt lat="45.21109" lon="0.71559">
        <ele>236</ele>
        <time>2018-05-20T06:48:45.000Z</time>
      </trkpt>
      <trkpt lat="45.2112" lon="0.71552">
        <ele>238</ele>
        <time>2018-05-20T06:48:49.000Z</time>
      </trkpt>
      <trkpt lat="45.21133" lon="0.71549">
        <ele>240</ele>
        <time>2018-05-20T06:48:53.000Z</time>
      </trkpt>
      <trkpt lat="45.21146" lon="0.71547">
        <ele>241</ele>
        <time>2018-05-20T06:48:57.000Z</time>
      </trkpt>
      <trkpt lat="45.21159" lon="0.71547">
        <ele>240</ele>
        <time>2018-05-20T06:49:01.000Z</time>
      </trkpt>
      <trkpt lat="45.21169" lon="0.71548">
        <ele>237</ele>
        <time>2018-05-20T06:49:04.000Z</time>
      </trkpt>
      <trkpt lat="45.21185" lon="0.7155">
        <ele>237</ele>
        <time>2018-05-20T06:49:08.000Z</time>
      </trkpt>
      <trkpt lat="45.21196" lon="0.71554">
        <ele>239</ele>
        <time>2018-05-20T06:49:12.000Z</time>
      </trkpt>
      <trkpt lat="45.21207" lon="0.71554">
        <ele>238</ele>
        <time>2018-05-20T06:49:16.000Z</time>
      </trkpt>
      <trkpt lat="45.21216" lon="0.71557">
        <ele>236</ele>
        <time>2018-05-20T06:49:20.000Z</time>
      </trkpt>
      <trkpt lat="45.21225" lon="0.71563">
        <ele>236</ele>
        <time>2018-05-20T06:49:24.000Z</time>
      </trkpt>
      <trkpt lat="45.21235" lon="0.71569">
        <ele>240</ele>
        <time>2018-05-20T06:49:27.000Z</time>
      </trkpt>
      <trkpt lat="45.21246" lon="0.71578">
        <ele>242</ele>
        <time>2018-05-20T06:49:31.000Z</time>
      </trkpt>
      <trkpt lat="45.21262" lon="0.71586">
        <ele>239</ele>
        <time>2018-05-20T06:49:35.000Z</time>
      </trkpt>
      <trkpt lat="45.21273" lon="0.71595">
        <ele>239</ele>
        <time>2018-05-20T06:49:39.000Z</time>
      </trkpt>
      <trkpt lat="45.21289" lon="0.71604">
        <ele>239</ele>
        <time>2018-05-20T06:49:45.000Z</time>
      </trkpt>
      <trkpt lat="45.21301" lon="0.71604">
        <ele>236</ele>
        <time>2018-05-20T06:49:49.000Z</time>
      </trkpt>
      <trkpt lat="45.21314" lon="0.71609">
        <ele>235</ele>
        <time>2018-05-20T06:49:54.000Z</time>
      </trkpt>
      <trkpt lat="45.21324" lon="0.71613">
        <ele>238</ele>
        <time>2018-05-20T06:49:58.000Z</time>
      </trkpt>
      <trkpt lat="45.21335" lon="0.71616">
        <ele>236</ele>
        <time>2018-05-20T06:50:02.000Z</time>
      </trkpt>
      <trkpt lat="45.21346" lon="0.7162">
        <ele>237</ele>
        <time>2018-05-20T06:50:06.000Z</time>
      </trkpt>
      <trkpt lat="45.21358" lon="0.71622">
        <ele>237</ele>
        <time>2018-05-20T06:50:10.000Z</time>
      </trkpt>
      <trkpt lat="45.2137" lon="0.71621">
        <ele>236</ele>
        <time>2018-05-20T06:50:14.000Z</time>
      </trkpt>
      <trkpt lat="45.21385" lon="0.71623">
        <ele>237</ele>
        <time>2018-05-20T06:50:18.000Z</time>
      </trkpt>
      <trkpt lat="45.21392" lon="0.71634">
        <ele>238</ele>
        <time>2018-05-20T06:50:21.000Z</time>
      </trkpt>
      <trkpt lat="45.21392" lon="0.71651">
        <ele>239</ele>
        <time>2018-05-20T06:50:27.000Z</time>
      </trkpt>
      <trkpt lat="45.21392" lon="0.71664">
        <ele>240</ele>
        <time>2018-05-20T06:50:32.000Z</time>
      </trkpt>
      <trkpt lat="45.21392" lon="0.7168">
        <ele>243</ele>
        <time>2018-05-20T06:50:38.000Z</time>
      </trkpt>
      <trkpt lat="45.21392" lon="0.71699">
        <ele>244</ele>
        <time>2018-05-20T06:50:45.000Z</time>
      </trkpt>
      <trkpt lat="45.21394" lon="0.71713">
        <ele>243</ele>
        <time>2018-05-20T06:50:50.000Z</time>
      </trkpt>
      <trkpt lat="45.21396" lon="0.71726">
        <ele>243</ele>
        <time>2018-05-20T06:50:54.000Z</time>
      </trkpt>
      <trkpt lat="45.21398" lon="0.7174">
        <ele>245</ele>
        <time>2018-05-20T06:50:59.000Z</time>
      </trkpt>
      <trkpt lat="45.214" lon="0.71761">
        <ele>248</ele>
        <time>2018-05-20T06:51:06.000Z</time>
      </trkpt>
      <trkpt lat="45.21403" lon="0.7178">
        <ele>246</ele>
        <time>2018-05-20T06:51:12.000Z</time>
      </trkpt>
      <trkpt lat="45.21405" lon="0.71799">
        <ele>247</ele>
        <time>2018-05-20T06:51:17.000Z</time>
      </trkpt>
      <trkpt lat="45.21407" lon="0.71813">
        <ele>242</ele>
        <time>2018-05-20T06:51:21.000Z</time>
      </trkpt>
      <trkpt lat="45.21411" lon="0.71827">
        <ele>249</ele>
        <time>2018-05-20T06:51:25.000Z</time>
      </trkpt>
      <trkpt lat="45.21415" lon="0.71843">
        <ele>251</ele>
        <time>2018-05-20T06:51:29.000Z</time>
      </trkpt>
      <trkpt lat="45.21417" lon="0.71856">
        <ele>252</ele>
        <time>2018-05-20T06:51:32.000Z</time>
      </trkpt>
      <trkpt lat="45.21418" lon="0.71869">
        <ele>254</ele>
        <time>2018-05-20T06:51:35.000Z</time>
      </trkpt>
      <trkpt lat="45.21421" lon="0.71882">
        <ele>256</ele>
        <time>2018-05-20T06:51:38.000Z</time>
      </trkpt>
      <trkpt lat="45.21424" lon="0.71895">
        <ele>256</ele>
        <time>2018-05-20T06:51:41.000Z</time>
      </trkpt>
      <trkpt lat="45.21427" lon="0.71911">
        <ele>258</ele>
        <time>2018-05-20T06:51:45.000Z</time>
      </trkpt>
      <trkpt lat="45.2143" lon="0.71926">
        <ele>259</ele>
        <time>2018-05-20T06:51:49.000Z</time>
      </trkpt>
      <trkpt lat="45.21434" lon="0.71941">
        <ele>260</ele>
        <time>2018-05-20T06:51:53.000Z</time>
      </trkpt>
      <trkpt lat="45.21437" lon="0.71956">
        <ele>262</ele>
        <time>2018-05-20T06:51:57.000Z</time>
      </trkpt>
      <trkpt lat="45.2144" lon="0.7197">
        <ele>262</ele>
        <time>2018-05-20T06:52:01.000Z</time>
      </trkpt>
      <trkpt lat="45.21443" lon="0.71985">
        <ele>262</ele>
        <time>2018-05-20T06:52:05.000Z</time>
      </trkpt>
      <trkpt lat="45.21446" lon="0.71999">
        <ele>261</ele>
        <time>2018-05-20T06:52:09.000Z</time>
      </trkpt>
      <trkpt lat="45.21449" lon="0.72015">
        <ele>262</ele>
        <time>2018-05-20T06:52:13.000Z</time>
      </trkpt>
      <trkpt lat="45.21452" lon="0.72027">
        <ele>263</ele>
        <time>2018-05-20T06:52:16.000Z</time>
      </trkpt>
      <trkpt lat="45.21458" lon="0.72051">
        <ele>262</ele>
        <time>2018-05-20T06:52:21.000Z</time>
      </trkpt>
      <trkpt lat="45.21462" lon="0.72066">
        <ele>262</ele>
        <time>2018-05-20T06:52:24.000Z</time>
      </trkpt>
      <trkpt lat="45.21466" lon="0.72081">
        <ele>261</ele>
        <time>2018-05-20T06:52:27.000Z</time>
      </trkpt>
      <trkpt lat="45.2147" lon="0.72096">
        <ele>261</ele>
        <time>2018-05-20T06:52:30.000Z</time>
      </trkpt>
      <trkpt lat="45.21476" lon="0.72116">
        <ele>261</ele>
        <time>2018-05-20T06:52:34.000Z</time>
      </trkpt>
      <trkpt lat="45.21479" lon="0.72139">
        <ele>262</ele>
        <time>2018-05-20T06:52:38.000Z</time>
      </trkpt>
      <trkpt lat="45.2148" lon="0.72162">
        <ele>262</ele>
        <time>2018-05-20T06:52:42.000Z</time>
      </trkpt>
      <trkpt lat="45.21481" lon="0.72193">
        <ele>261</ele>
        <time>2018-05-20T06:52:47.000Z</time>
      </trkpt>
      <trkpt lat="45.21482" lon="0.72219">
        <ele>259</ele>
        <time>2018-05-20T06:52:51.000Z</time>
      </trkpt>
      <trkpt lat="45.21482" lon="0.72233">
        <ele>259</ele>
        <time>2018-05-20T06:52:53.000Z</time>
      </trkpt>
      <trkpt lat="45.21483" lon="0.72247">
        <ele>260</ele>
        <time>2018-05-20T06:52:55.000Z</time>
      </trkpt>
      <trkpt lat="45.21484" lon="0.72261">
        <ele>260</ele>
        <time>2018-05-20T06:52:57.000Z</time>
      </trkpt>
      <trkpt lat="45.21485" lon="0.72275">
        <ele>260</ele>
        <time>2018-05-20T06:52:59.000Z</time>
      </trkpt>
      <trkpt lat="45.21485" lon="0.72291">
        <ele>261</ele>
        <time>2018-05-20T06:53:01.000Z</time>
      </trkpt>
      <trkpt lat="45.21487" lon="0.72305">
        <ele>259</ele>
        <time>2018-05-20T06:53:03.000Z</time>
      </trkpt>
      <trkpt lat="45.21492" lon="0.72321">
        <ele>259</ele>
        <time>2018-05-20T06:53:05.000Z</time>
      </trkpt>
      <trkpt lat="45.215" lon="0.72337">
        <ele>259</ele>
        <time>2018-05-20T06:53:07.000Z</time>
      </trkpt>
      <trkpt lat="45.21507" lon="0.72351">
        <ele>259</ele>
        <time>2018-05-20T06:53:09.000Z</time>
      </trkpt>
      <trkpt lat="45.21513" lon="0.72366">
        <ele>257</ele>
        <time>2018-05-20T06:53:11.000Z</time>
      </trkpt>
      <trkpt lat="45.21519" lon="0.72381">
        <ele>255</ele>
        <time>2018-05-20T06:53:13.000Z</time>
      </trkpt>
      <trkpt lat="45.21524" lon="0.72397">
        <ele>255</ele>
        <time>2018-05-20T06:53:15.000Z</time>
      </trkpt>
      <trkpt lat="45.21528" lon="0.72422">
        <ele>255</ele>
        <time>2018-05-20T06:53:18.000Z</time>
      </trkpt>
      <trkpt lat="45.21528" lon="0.72437">
        <ele>254</ele>
        <time>2018-05-20T06:53:20.000Z</time>
      </trkpt>
      <trkpt lat="45.21525" lon="0.7245">
        <ele>257</ele>
        <time>2018-05-20T06:53:22.000Z</time>
      </trkpt>
      <trkpt lat="45.21524" lon="0.72466">
        <ele>255</ele>
        <time>2018-05-20T06:53:25.000Z</time>
      </trkpt>
      <trkpt lat="45.21523" lon="0.72481">
        <ele>262</ele>
        <time>2018-05-20T06:53:28.000Z</time>
      </trkpt>
      <trkpt lat="45.21521" lon="0.72494">
        <ele>258</ele>
        <time>2018-05-20T06:53:32.000Z</time>
      </trkpt>
      <trkpt lat="45.21523" lon="0.72508">
        <ele>254</ele>
        <time>2018-05-20T06:53:36.000Z</time>
      </trkpt>
      <trkpt lat="45.21526" lon="0.72524">
        <ele>255</ele>
        <time>2018-05-20T06:53:40.000Z</time>
      </trkpt>
      <trkpt lat="45.21528" lon="0.72541">
        <ele>253</ele>
        <time>2018-05-20T06:53:44.000Z</time>
      </trkpt>
      <trkpt lat="45.21529" lon="0.72556">
        <ele>253</ele>
        <time>2018-05-20T06:53:48.000Z</time>
      </trkpt>
      <trkpt lat="45.21528" lon="0.72571">
        <ele>253</ele>
        <time>2018-05-20T06:53:53.000Z</time>
      </trkpt>
      <trkpt lat="45.21529" lon="0.72584">
        <ele>255</ele>
        <time>2018-05-20T06:53:57.000Z</time>
      </trkpt>
      <trkpt lat="45.21528" lon="0.72599">
        <ele>255</ele>
        <time>2018-05-20T06:54:01.000Z</time>
      </trkpt>
      <trkpt lat="45.21529" lon="0.72613">
        <ele>257</ele>
        <time>2018-05-20T06:54:05.000Z</time>
      </trkpt>
      <trkpt lat="45.21535" lon="0.72623">
        <ele>259</ele>
        <time>2018-05-20T06:54:09.000Z</time>
      </trkpt>
      <trkpt lat="45.21546" lon="0.72632">
        <ele>255</ele>
        <time>2018-05-20T06:54:12.000Z</time>
      </trkpt>
      <trkpt lat="45.21558" lon="0.7264">
        <ele>256</ele>
        <time>2018-05-20T06:54:15.000Z</time>
      </trkpt>
      <trkpt lat="45.21567" lon="0.72644">
        <ele>255</ele>
        <time>2018-05-20T06:54:17.000Z</time>
      </trkpt>
      <trkpt lat="45.21579" lon="0.7265">
        <ele>259</ele>
        <time>2018-05-20T06:54:20.000Z</time>
      </trkpt>
      <trkpt lat="45.2159" lon="0.72653">
        <ele>258</ele>
        <time>2018-05-20T06:54:22.000Z</time>
      </trkpt>
      <trkpt lat="45.216" lon="0.72665">
        <ele>253</ele>
        <time>2018-05-20T06:54:25.000Z</time>
      </trkpt>
      <trkpt lat="45.21609" lon="0.72673">
        <ele>249</ele>
        <time>2018-05-20T06:54:27.000Z</time>
      </trkpt>
      <trkpt lat="45.21618" lon="0.72681">
        <ele>248</ele>
        <time>2018-05-20T06:54:29.000Z</time>
      </trkpt>
      <trkpt lat="45.21629" lon="0.72689">
        <ele>251</ele>
        <time>2018-05-20T06:54:31.000Z</time>
      </trkpt>
      <trkpt lat="45.21637" lon="0.72695">
        <ele>249</ele>
        <time>2018-05-20T06:54:33.000Z</time>
      </trkpt>
      <trkpt lat="45.21646" lon="0.72702">
        <ele>257</ele>
        <time>2018-05-20T06:54:35.000Z</time>
      </trkpt>
      <trkpt lat="45.21657" lon="0.72711">
        <ele>258</ele>
        <time>2018-05-20T06:54:38.000Z</time>
      </trkpt>
      <trkpt lat="45.21666" lon="0.72717">
        <ele>256</ele>
        <time>2018-05-20T06:54:40.000Z</time>
      </trkpt>
      <trkpt lat="45.21674" lon="0.72726">
        <ele>253</ele>
        <time>2018-05-20T06:54:42.000Z</time>
      </trkpt>
      <trkpt lat="45.21684" lon="0.72736">
        <ele>253</ele>
        <time>2018-05-20T06:54:45.000Z</time>
      </trkpt>
      <trkpt lat="45.21693" lon="0.72748">
        <ele>254</ele>
        <time>2018-05-20T06:54:48.000Z</time>
      </trkpt>
      <trkpt lat="45.217" lon="0.72757">
        <ele>253</ele>
        <time>2018-05-20T06:54:51.000Z</time>
      </trkpt>
      <trkpt lat="45.21708" lon="0.7277">
        <ele>252</ele>
        <time>2018-05-20T06:54:54.000Z</time>
      </trkpt>
      <trkpt lat="45.21716" lon="0.7278">
        <ele>252</ele>
        <time>2018-05-20T06:54:57.000Z</time>
      </trkpt>
      <trkpt lat="45.2173" lon="0.72791">
        <ele>253</ele>
        <time>2018-05-20T06:55:00.000Z</time>
      </trkpt>
      <trkpt lat="45.21743" lon="0.7281">
        <ele>257</ele>
        <time>2018-05-20T06:55:05.000Z</time>
      </trkpt>
      <trkpt lat="45.21756" lon="0.72812">
        <ele>257</ele>
        <time>2018-05-20T06:55:09.000Z</time>
      </trkpt>
      <trkpt lat="45.21769" lon="0.728">
        <ele>254</ele>
        <time>2018-05-20T06:55:14.000Z</time>
      </trkpt>
      <trkpt lat="45.2178" lon="0.7279">
        <ele>251</ele>
        <time>2018-05-20T06:55:19.000Z</time>
      </trkpt>
      <trkpt lat="45.21789" lon="0.72783">
        <ele>248</ele>
        <time>2018-05-20T06:55:25.000Z</time>
      </trkpt>
      <trkpt lat="45.21797" lon="0.72776">
        <ele>246</ele>
        <time>2018-05-20T06:55:29.000Z</time>
      </trkpt>
      <trkpt lat="45.21804" lon="0.72767">
        <ele>245</ele>
        <time>2018-05-20T06:55:32.000Z</time>
      </trkpt>
      <trkpt lat="45.21817" lon="0.72755">
        <ele>245</ele>
        <time>2018-05-20T06:55:36.000Z</time>
      </trkpt>
      <trkpt lat="45.21831" lon="0.72742">
        <ele>243</ele>
        <time>2018-05-20T06:55:40.000Z</time>
      </trkpt>
      <trkpt lat="45.21841" lon="0.72734">
        <ele>243</ele>
        <time>2018-05-20T06:55:43.000Z</time>
      </trkpt>
      <trkpt lat="45.21851" lon="0.72726">
        <ele>243</ele>
        <time>2018-05-20T06:55:46.000Z</time>
      </trkpt>
      <trkpt lat="45.21866" lon="0.72717">
        <ele>243</ele>
        <time>2018-05-20T06:55:50.000Z</time>
      </trkpt>
      <trkpt lat="45.21875" lon="0.72711">
        <ele>242</ele>
        <time>2018-05-20T06:55:53.000Z</time>
      </trkpt>
      <trkpt lat="45.21885" lon="0.72708">
        <ele>241</ele>
        <time>2018-05-20T06:55:57.000Z</time>
      </trkpt>
      <trkpt lat="45.21896" lon="0.72709">
        <ele>241</ele>
        <time>2018-05-20T06:56:01.000Z</time>
      </trkpt>
      <trkpt lat="45.21903" lon="0.72699">
        <ele>240</ele>
        <time>2018-05-20T06:56:05.000Z</time>
      </trkpt>
      <trkpt lat="45.21911" lon="0.7269">
        <ele>241</ele>
        <time>2018-05-20T06:56:09.000Z</time>
      </trkpt>
      <trkpt lat="45.21922" lon="0.72685">
        <ele>242</ele>
        <time>2018-05-20T06:56:13.000Z</time>
      </trkpt>
      <trkpt lat="45.21932" lon="0.72683">
        <ele>253</ele>
        <time>2018-05-20T06:56:18.000Z</time>
      </trkpt>
      <trkpt lat="45.21941" lon="0.72681">
        <ele>246</ele>
        <time>2018-05-20T06:56:22.000Z</time>
      </trkpt>
      <trkpt lat="45.21952" lon="0.72686">
        <ele>240</ele>
        <time>2018-05-20T06:56:28.000Z</time>
      </trkpt>
      <trkpt lat="45.21962" lon="0.72696">
        <ele>242</ele>
        <time>2018-05-20T06:56:33.000Z</time>
      </trkpt>
      <trkpt lat="45.21967" lon="0.72709">
        <ele>242</ele>
        <time>2018-05-20T06:56:37.000Z</time>
      </trkpt>
      <trkpt lat="45.21978" lon="0.72727">
        <ele>240</ele>
        <time>2018-05-20T06:56:41.000Z</time>
      </trkpt>
      <trkpt lat="45.21984" lon="0.72738">
        <ele>239</ele>
        <time>2018-05-20T06:56:43.000Z</time>
      </trkpt>
      <trkpt lat="45.21998" lon="0.72763">
        <ele>237</ele>
        <time>2018-05-20T06:56:47.000Z</time>
      </trkpt>
      <trkpt lat="45.22004" lon="0.72775">
        <ele>237</ele>
        <time>2018-05-20T06:56:49.000Z</time>
      </trkpt>
      <trkpt lat="45.22009" lon="0.72786">
        <ele>239</ele>
        <time>2018-05-20T06:56:51.000Z</time>
      </trkpt>
      <trkpt lat="45.22014" lon="0.72798">
        <ele>240</ele>
        <time>2018-05-20T06:56:53.000Z</time>
      </trkpt>
      <trkpt lat="45.22004" lon="0.72806">
        <ele>235</ele>
        <time>2018-05-20T06:57:34.000Z</time>
      </trkpt>
      <trkpt lat="45.21997" lon="0.72815">
        <ele>236</ele>
        <time>2018-05-20T06:57:40.000Z</time>
      </trkpt>
      <trkpt lat="45.21987" lon="0.72826">
        <ele>245</ele>
        <time>2018-05-20T06:57:46.000Z</time>
      </trkpt>
      <trkpt lat="45.21978" lon="0.72833">
        <ele>241</ele>
        <time>2018-05-20T06:57:50.000Z</time>
      </trkpt>
      <trkpt lat="45.2197" lon="0.72839">
        <ele>238</ele>
        <time>2018-05-20T06:57:54.000Z</time>
      </trkpt>
      <trkpt lat="45.2196" lon="0.72843">
        <ele>235</ele>
        <time>2018-05-20T06:57:58.000Z</time>
      </trkpt>
      <trkpt lat="45.21949" lon="0.72849">
        <ele>234</ele>
        <time>2018-05-20T06:58:02.000Z</time>
      </trkpt>
      <trkpt lat="45.21941" lon="0.72855">
        <ele>234</ele>
        <time>2018-05-20T06:58:06.000Z</time>
      </trkpt>
      <trkpt lat="45.21932" lon="0.72861">
        <ele>234</ele>
        <time>2018-05-20T06:58:10.000Z</time>
      </trkpt>
      <trkpt lat="45.21922" lon="0.72866">
        <ele>233</ele>
        <time>2018-05-20T06:58:14.000Z</time>
      </trkpt>
      <trkpt lat="45.21912" lon="0.72873">
        <ele>231</ele>
        <time>2018-05-20T06:58:18.000Z</time>
      </trkpt>
      <trkpt lat="45.21903" lon="0.7288">
        <ele>231</ele>
        <time>2018-05-20T06:58:22.000Z</time>
      </trkpt>
      <trkpt lat="45.21893" lon="0.72888">
        <ele>233</ele>
        <time>2018-05-20T06:58:26.000Z</time>
      </trkpt>
      <trkpt lat="45.21885" lon="0.72894">
        <ele>230</ele>
        <time>2018-05-20T06:58:30.000Z</time>
      </trkpt>
      <trkpt lat="45.21876" lon="0.729">
        <ele>228</ele>
        <time>2018-05-20T06:58:34.000Z</time>
      </trkpt>
      <trkpt lat="45.21868" lon="0.72907">
        <ele>224</ele>
        <time>2018-05-20T06:58:40.000Z</time>
      </trkpt>
      <trkpt lat="45.21868" lon="0.72925">
        <ele>226</ele>
        <time>2018-05-20T06:58:48.000Z</time>
      </trkpt>
      <trkpt lat="45.21875" lon="0.72938">
        <ele>223</ele>
        <time>2018-05-20T06:58:52.000Z</time>
      </trkpt>
      <trkpt lat="45.21881" lon="0.72949">
        <ele>223</ele>
        <time>2018-05-20T06:58:55.000Z</time>
      </trkpt>
      <trkpt lat="45.21886" lon="0.72959">
        <ele>223</ele>
        <time>2018-05-20T06:58:58.000Z</time>
      </trkpt>
      <trkpt lat="45.21893" lon="0.72972">
        <ele>221</ele>
        <time>2018-05-20T06:59:02.000Z</time>
      </trkpt>
      <trkpt lat="45.21903" lon="0.7299">
        <ele>222</ele>
        <time>2018-05-20T06:59:07.000Z</time>
      </trkpt>
      <trkpt lat="45.2191" lon="0.73005">
        <ele>221</ele>
        <time>2018-05-20T06:59:11.000Z</time>
      </trkpt>
      <trkpt lat="45.21917" lon="0.73019">
        <ele>220</ele>
        <time>2018-05-20T06:59:15.000Z</time>
      </trkpt>
      <trkpt lat="45.21925" lon="0.73033">
        <ele>220</ele>
        <time>2018-05-20T06:59:20.000Z</time>
      </trkpt>
      <trkpt lat="45.21931" lon="0.73048">
        <ele>219</ele>
        <time>2018-05-20T06:59:24.000Z</time>
      </trkpt>
      <trkpt lat="45.21936" lon="0.73059">
        <ele>218</ele>
        <time>2018-05-20T06:59:27.000Z</time>
      </trkpt>
      <trkpt lat="45.21943" lon="0.73077">
        <ele>217</ele>
        <time>2018-05-20T06:59:32.000Z</time>
      </trkpt>
      <trkpt lat="45.21949" lon="0.73089">
        <ele>218</ele>
        <time>2018-05-20T06:59:36.000Z</time>
      </trkpt>
      <trkpt lat="45.21956" lon="0.73103">
        <ele>218</ele>
        <time>2018-05-20T06:59:42.000Z</time>
      </trkpt>
      <trkpt lat="45.21964" lon="0.73116">
        <ele>219</ele>
        <time>2018-05-20T06:59:48.000Z</time>
      </trkpt>
      <trkpt lat="45.21972" lon="0.73129">
        <ele>220</ele>
        <time>2018-05-20T06:59:54.000Z</time>
      </trkpt>
      <trkpt lat="45.21967" lon="0.7314">
        <ele>223</ele>
        <time>2018-05-20T07:00:00.000Z</time>
      </trkpt>
      <trkpt lat="45.21958" lon="0.7315">
        <ele>223</ele>
        <time>2018-05-20T07:00:07.000Z</time>
      </trkpt>
      <trkpt lat="45.2195" lon="0.73158">
        <ele>224</ele>
        <time>2018-05-20T07:00:14.000Z</time>
      </trkpt>
      <trkpt lat="45.21942" lon="0.7317">
        <ele>223</ele>
        <time>2018-05-20T07:00:22.000Z</time>
      </trkpt>
      <trkpt lat="45.21933" lon="0.7318">
        <ele>224</ele>
        <time>2018-05-20T07:00:31.000Z</time>
      </trkpt>
      <trkpt lat="45.21927" lon="0.73192">
        <ele>225</ele>
        <time>2018-05-20T07:00:40.000Z</time>
      </trkpt>
      <trkpt lat="45.21917" lon="0.732">
        <ele>226</ele>
        <time>2018-05-20T07:00:48.000Z</time>
      </trkpt>
      <trkpt lat="45.2192" lon="0.73213">
        <ele>229</ele>
        <time>2018-05-20T07:00:56.000Z</time>
      </trkpt>
      <trkpt lat="45.21929" lon="0.73221">
        <ele>231</ele>
        <time>2018-05-20T07:01:01.000Z</time>
      </trkpt>
      <trkpt lat="45.21938" lon="0.7323">
        <ele>228</ele>
        <time>2018-05-20T07:01:05.000Z</time>
      </trkpt>
      <trkpt lat="45.21948" lon="0.73237">
        <ele>228</ele>
        <time>2018-05-20T07:01:09.000Z</time>
      </trkpt>
      <trkpt lat="45.21956" lon="0.73244">
        <ele>231</ele>
        <time>2018-05-20T07:01:13.000Z</time>
      </trkpt>
      <trkpt lat="45.21967" lon="0.7325">
        <ele>229</ele>
        <time>2018-05-20T07:01:18.000Z</time>
      </trkpt>
      <trkpt lat="45.21979" lon="0.73256">
        <ele>230</ele>
        <time>2018-05-20T07:01:23.000Z</time>
      </trkpt>
      <trkpt lat="45.21989" lon="0.73262">
        <ele>231</ele>
        <time>2018-05-20T07:01:28.000Z</time>
      </trkpt>
      <trkpt lat="45.21999" lon="0.73267">
        <ele>232</ele>
        <time>2018-05-20T07:01:32.000Z</time>
      </trkpt>
      <trkpt lat="45.22009" lon="0.73273">
        <ele>233</ele>
        <time>2018-05-20T07:01:36.000Z</time>
      </trkpt>
      <trkpt lat="45.22018" lon="0.73279">
        <ele>233</ele>
        <time>2018-05-20T07:01:40.000Z</time>
      </trkpt>
      <trkpt lat="45.22028" lon="0.73285">
        <ele>234</ele>
        <time>2018-05-20T07:01:44.000Z</time>
      </trkpt>
      <trkpt lat="45.22038" lon="0.73291">
        <ele>233</ele>
        <time>2018-05-20T07:01:49.000Z</time>
      </trkpt>
      <trkpt lat="45.22047" lon="0.73295">
        <ele>233</ele>
        <time>2018-05-20T07:01:53.000Z</time>
      </trkpt>
      <trkpt lat="45.22056" lon="0.73302">
        <ele>233</ele>
        <time>2018-05-20T07:01:57.000Z</time>
      </trkpt>
      <trkpt lat="45.22066" lon="0.73308">
        <ele>234</ele>
        <time>2018-05-20T07:02:01.000Z</time>
      </trkpt>
      <trkpt lat="45.22076" lon="0.73313">
        <ele>233</ele>
        <time>2018-05-20T07:02:04.000Z</time>
      </trkpt>
      <trkpt lat="45.22087" lon="0.73319">
        <ele>234</ele>
        <time>2018-05-20T07:02:07.000Z</time>
      </trkpt>
      <trkpt lat="45.22099" lon="0.73325">
        <ele>233</ele>
        <time>2018-05-20T07:02:10.000Z</time>
      </trkpt>
      <trkpt lat="45.22109" lon="0.7333">
        <ele>232</ele>
        <time>2018-05-20T07:02:13.000Z</time>
      </trkpt>
      <trkpt lat="45.22121" lon="0.73339">
        <ele>230</ele>
        <time>2018-05-20T07:02:16.000Z</time>
      </trkpt>
      <trkpt lat="45.2213" lon="0.73345">
        <ele>229</ele>
        <time>2018-05-20T07:02:18.000Z</time>
      </trkpt>
      <trkpt lat="45.22139" lon="0.7335">
        <ele>227</ele>
        <time>2018-05-20T07:02:20.000Z</time>
      </trkpt>
      <trkpt lat="45.22151" lon="0.73356">
        <ele>226</ele>
        <time>2018-05-20T07:02:22.000Z</time>
      </trkpt>
      <trkpt lat="45.22164" lon="0.73361">
        <ele>223</ele>
        <time>2018-05-20T07:02:24.000Z</time>
      </trkpt>
      <trkpt lat="45.22176" lon="0.73366">
        <ele>224</ele>
        <time>2018-05-20T07:02:26.000Z</time>
      </trkpt>
      <trkpt lat="45.22188" lon="0.73369">
        <ele>223</ele>
        <time>2018-05-20T07:02:28.000Z</time>
      </trkpt>
      <trkpt lat="45.22197" lon="0.73371">
        <ele>223</ele>
        <time>2018-05-20T07:02:30.000Z</time>
      </trkpt>
      <trkpt lat="45.2221" lon="0.7338">
        <ele>222</ele>
        <time>2018-05-20T07:02:32.000Z</time>
      </trkpt>
      <trkpt lat="45.22224" lon="0.73386">
        <ele>222</ele>
        <time>2018-05-20T07:02:34.000Z</time>
      </trkpt>
      <trkpt lat="45.22235" lon="0.73398">
        <ele>221</ele>
        <time>2018-05-20T07:02:36.000Z</time>
      </trkpt>
      <trkpt lat="45.22245" lon="0.73412">
        <ele>219</ele>
        <time>2018-05-20T07:02:38.000Z</time>
      </trkpt>
      <trkpt lat="45.22257" lon="0.73425">
        <ele>217</ele>
        <time>2018-05-20T07:02:40.000Z</time>
      </trkpt>
      <trkpt lat="45.22268" lon="0.73441">
        <ele>215</ele>
        <time>2018-05-20T07:02:42.000Z</time>
      </trkpt>
      <trkpt lat="45.22277" lon="0.73459">
        <ele>214</ele>
        <time>2018-05-20T07:02:44.000Z</time>
      </trkpt>
      <trkpt lat="45.22286" lon="0.73477">
        <ele>213</ele>
        <time>2018-05-20T07:02:46.000Z</time>
      </trkpt>
      <trkpt lat="45.22298" lon="0.7349">
        <ele>210</ele>
        <time>2018-05-20T07:02:48.000Z</time>
      </trkpt>
      <trkpt lat="45.22304" lon="0.73501">
        <ele>209</ele>
        <time>2018-05-20T07:02:50.000Z</time>
      </trkpt>
      <trkpt lat="45.22311" lon="0.73511">
        <ele>209</ele>
        <time>2018-05-20T07:02:54.000Z</time>
      </trkpt>
      <trkpt lat="45.22318" lon="0.7352">
        <ele>214</ele>
        <time>2018-05-20T07:03:06.000Z</time>
      </trkpt>
      <trkpt lat="45.22326" lon="0.73525">
        <ele>218</ele>
        <time>2018-05-20T07:03:17.000Z</time>
      </trkpt>
      <trkpt lat="45.22335" lon="0.73531">
        <ele>219</ele>
        <time>2018-05-20T07:03:28.000Z</time>
      </trkpt>
      <trkpt lat="45.22342" lon="0.73538">
        <ele>221</ele>
        <time>2018-05-20T07:03:39.000Z</time>
      </trkpt>
      <trkpt lat="45.2235" lon="0.73545">
        <ele>219</ele>
        <time>2018-05-20T07:03:50.000Z</time>
      </trkpt>
      <trkpt lat="45.22357" lon="0.73554">
        <ele>222</ele>
        <time>2018-05-20T07:04:02.000Z</time>
      </trkpt>
      <trkpt lat="45.22364" lon="0.73563">
        <ele>224</ele>
        <time>2018-05-20T07:04:13.000Z</time>
      </trkpt>
      <trkpt lat="45.22373" lon="0.7357">
        <ele>225</ele>
        <time>2018-05-20T07:04:24.000Z</time>
      </trkpt>
      <trkpt lat="45.22381" lon="0.73579">
        <ele>228</ele>
        <time>2018-05-20T07:04:37.000Z</time>
      </trkpt>
      <trkpt lat="45.22389" lon="0.73585">
        <ele>229</ele>
        <time>2018-05-20T07:04:51.000Z</time>
      </trkpt>
      <trkpt lat="45.22397" lon="0.73592">
        <ele>232</ele>
        <time>2018-05-20T07:05:03.000Z</time>
      </trkpt>
      <trkpt lat="45.22404" lon="0.736">
        <ele>235</ele>
        <time>2018-05-20T07:05:16.000Z</time>
      </trkpt>
      <trkpt lat="45.22412" lon="0.73607">
        <ele>235</ele>
        <time>2018-05-20T07:05:28.000Z</time>
      </trkpt>
      <trkpt lat="45.22419" lon="0.73616">
        <ele>239</ele>
        <time>2018-05-20T07:05:45.000Z</time>
      </trkpt>
      <trkpt lat="45.22427" lon="0.73622">
        <ele>240</ele>
        <time>2018-05-20T07:05:56.000Z</time>
      </trkpt>
      <trkpt lat="45.22435" lon="0.73629">
        <ele>242</ele>
        <time>2018-05-20T07:06:10.000Z</time>
      </trkpt>
      <trkpt lat="45.22444" lon="0.73637">
        <ele>240</ele>
        <time>2018-05-20T07:06:22.000Z</time>
      </trkpt>
      <trkpt lat="45.22455" lon="0.73645">
        <ele>243</ele>
        <time>2018-05-20T07:06:35.000Z</time>
      </trkpt>
      <trkpt lat="45.22464" lon="0.7365">
        <ele>238</ele>
        <time>2018-05-20T07:06:54.000Z</time>
      </trkpt>
      <trkpt lat="45.22473" lon="0.73658">
        <ele>246</ele>
        <time>2018-05-20T07:07:01.000Z</time>
      </trkpt>
      <trkpt lat="45.22483" lon="0.73662">
        <ele>241</ele>
        <time>2018-05-20T07:07:09.000Z</time>
      </trkpt>
      <trkpt lat="45.22492" lon="0.73666">
        <ele>240</ele>
        <time>2018-05-20T07:07:17.000Z</time>
      </trkpt>
      <trkpt lat="45.225" lon="0.73675">
        <ele>245</ele>
        <time>2018-05-20T07:09:01.000Z</time>
      </trkpt>
      <trkpt lat="45.22509" lon="0.7368">
        <ele>240</ele>
        <time>2018-05-20T07:09:04.000Z</time>
      </trkpt>
      <trkpt lat="45.22517" lon="0.73685">
        <ele>239</ele>
        <time>2018-05-20T07:09:06.000Z</time>
      </trkpt>
      <trkpt lat="45.2253" lon="0.7369">
        <ele>239</ele>
        <time>2018-05-20T07:09:08.000Z</time>
      </trkpt>
      <trkpt lat="45.22544" lon="0.73697">
        <ele>236</ele>
        <time>2018-05-20T07:09:12.000Z</time>
      </trkpt>
      <trkpt lat="45.22541" lon="0.7372">
        <ele>236</ele>
        <time>2018-05-20T07:09:16.000Z</time>
      </trkpt>
      <trkpt lat="45.22529" lon="0.73737">
        <ele>235</ele>
        <time>2018-05-20T07:09:20.000Z</time>
      </trkpt>
      <trkpt lat="45.2252" lon="0.73749">
        <ele>237</ele>
        <time>2018-05-20T07:09:23.000Z</time>
      </trkpt>
      <trkpt lat="45.22512" lon="0.7376">
        <ele>239</ele>
        <time>2018-05-20T07:09:26.000Z</time>
      </trkpt>
      <trkpt lat="45.22505" lon="0.73771">
        <ele>240</ele>
        <time>2018-05-20T07:09:29.000Z</time>
      </trkpt>
      <trkpt lat="45.22498" lon="0.73784">
        <ele>238</ele>
        <time>2018-05-20T07:09:32.000Z</time>
      </trkpt>
      <trkpt lat="45.22489" lon="0.73796">
        <ele>239</ele>
        <time>2018-05-20T07:09:35.000Z</time>
      </trkpt>
      <trkpt lat="45.22481" lon="0.73809">
        <ele>238</ele>
        <time>2018-05-20T07:09:38.000Z</time>
      </trkpt>
      <trkpt lat="45.22471" lon="0.73824">
        <ele>238</ele>
        <time>2018-05-20T07:09:42.000Z</time>
      </trkpt>
      <trkpt lat="45.22463" lon="0.73837">
        <ele>238</ele>
        <time>2018-05-20T07:09:46.000Z</time>
      </trkpt>
      <trkpt lat="45.22455" lon="0.7385">
        <ele>238</ele>
        <time>2018-05-20T07:09:50.000Z</time>
      </trkpt>
      <trkpt lat="45.22446" lon="0.73865">
        <ele>238</ele>
        <time>2018-05-20T07:09:55.000Z</time>
      </trkpt>
      <trkpt lat="45.22439" lon="0.73876">
        <ele>239</ele>
        <time>2018-05-20T07:09:59.000Z</time>
      </trkpt>
      <trkpt lat="45.22432" lon="0.73887">
        <ele>241</ele>
        <time>2018-05-20T07:10:04.000Z</time>
      </trkpt>
      <trkpt lat="45.22427" lon="0.73898">
        <ele>242</ele>
        <time>2018-05-20T07:10:09.000Z</time>
      </trkpt>
      <trkpt lat="45.22422" lon="0.73909">
        <ele>243</ele>
        <time>2018-05-20T07:10:15.000Z</time>
      </trkpt>
      <trkpt lat="45.22417" lon="0.73921">
        <ele>245</ele>
        <time>2018-05-20T07:10:22.000Z</time>
      </trkpt>
      <trkpt lat="45.22412" lon="0.73932">
        <ele>244</ele>
        <time>2018-05-20T07:10:29.000Z</time>
      </trkpt>
      <trkpt lat="45.22406" lon="0.73944">
        <ele>247</ele>
        <time>2018-05-20T07:10:37.000Z</time>
      </trkpt>
      <trkpt lat="45.22401" lon="0.73956">
        <ele>246</ele>
        <time>2018-05-20T07:10:46.000Z</time>
      </trkpt>
      <trkpt lat="45.22398" lon="0.73968">
        <ele>243</ele>
        <time>2018-05-20T07:10:55.000Z</time>
      </trkpt>
      <trkpt lat="45.22393" lon="0.7398">
        <ele>238</ele>
        <time>2018-05-20T07:11:04.000Z</time>
      </trkpt>
      <trkpt lat="45.22389" lon="0.73991">
        <ele>253</ele>
        <time>2018-05-20T07:11:13.000Z</time>
      </trkpt>
      <trkpt lat="45.22384" lon="0.74002">
        <ele>253</ele>
        <time>2018-05-20T07:11:21.000Z</time>
      </trkpt>
      <trkpt lat="45.22377" lon="0.74013">
        <ele>245</ele>
        <time>2018-05-20T07:11:31.000Z</time>
      </trkpt>
      <trkpt lat="45.2237" lon="0.74021">
        <ele>248</ele>
        <time>2018-05-20T07:11:42.000Z</time>
      </trkpt>
      <trkpt lat="45.22366" lon="0.74033">
        <ele>253</ele>
        <time>2018-05-20T07:11:50.000Z</time>
      </trkpt>
      <trkpt lat="45.2236" lon="0.74048">
        <ele>257</ele>
        <time>2018-05-20T07:12:00.000Z</time>
      </trkpt>
      <trkpt lat="45.22356" lon="0.7406">
        <ele>253</ele>
        <time>2018-05-20T07:12:09.000Z</time>
      </trkpt>
      <trkpt lat="45.22349" lon="0.74072">
        <ele>257</ele>
        <time>2018-05-20T07:12:20.000Z</time>
      </trkpt>
      <trkpt lat="45.22345" lon="0.74083">
        <ele>260</ele>
        <time>2018-05-20T07:12:30.000Z</time>
      </trkpt>
      <trkpt lat="45.22339" lon="0.74093">
        <ele>262</ele>
        <time>2018-05-20T07:12:39.000Z</time>
      </trkpt>
      <trkpt lat="45.22332" lon="0.74105">
        <ele>263</ele>
        <time>2018-05-20T07:12:48.000Z</time>
      </trkpt>
      <trkpt lat="45.22325" lon="0.74116">
        <ele>264</ele>
        <time>2018-05-20T07:12:59.000Z</time>
      </trkpt>
      <trkpt lat="45.22321" lon="0.7413">
        <ele>265</ele>
        <time>2018-05-20T07:13:09.000Z</time>
      </trkpt>
      <trkpt lat="45.22324" lon="0.74143">
        <ele>269</ele>
        <time>2018-05-20T07:13:15.000Z</time>
      </trkpt>
      <trkpt lat="45.22327" lon="0.74157">
        <ele>267</ele>
        <time>2018-05-20T07:13:20.000Z</time>
      </trkpt>
      <trkpt lat="45.22328" lon="0.74173">
        <ele>268</ele>
        <time>2018-05-20T07:13:25.000Z</time>
      </trkpt>
      <trkpt lat="45.22331" lon="0.7419">
        <ele>266</ele>
        <time>2018-05-20T07:13:29.000Z</time>
      </trkpt>
      <trkpt lat="45.22337" lon="0.74211">
        <ele>257</ele>
        <time>2018-05-20T07:13:35.000Z</time>
      </trkpt>
      <trkpt lat="45.22342" lon="0.74223">
        <ele>264</ele>
        <time>2018-05-20T07:13:59.000Z</time>
      </trkpt>
      <trkpt lat="45.22345" lon="0.74234">
        <ele>264</ele>
        <time>2018-05-20T07:14:02.000Z</time>
      </trkpt>
      <trkpt lat="45.22342" lon="0.74251">
        <ele>266</ele>
        <time>2018-05-20T07:14:06.000Z</time>
      </trkpt>
      <trkpt lat="45.22329" lon="0.74254">
        <ele>266</ele>
        <time>2018-05-20T07:14:08.000Z</time>
      </trkpt>
      <trkpt lat="45.2232" lon="0.7426">
        <ele>264</ele>
        <time>2018-05-20T07:14:10.000Z</time>
      </trkpt>
      <trkpt lat="45.22309" lon="0.7427">
        <ele>262</ele>
        <time>2018-05-20T07:14:12.000Z</time>
      </trkpt>
      <trkpt lat="45.22293" lon="0.74276">
        <ele>258</ele>
        <time>2018-05-20T07:14:15.000Z</time>
      </trkpt>
      <trkpt lat="45.22276" lon="0.74283">
        <ele>254</ele>
        <time>2018-05-20T07:14:18.000Z</time>
      </trkpt>
      <trkpt lat="45.22265" lon="0.74287">
        <ele>253</ele>
        <time>2018-05-20T07:14:20.000Z</time>
      </trkpt>
      <trkpt lat="45.22249" lon="0.74292">
        <ele>254</ele>
        <time>2018-05-20T07:14:23.000Z</time>
      </trkpt>
      <trkpt lat="45.22238" lon="0.74293">
        <ele>253</ele>
        <time>2018-05-20T07:14:25.000Z</time>
      </trkpt>
      <trkpt lat="45.22224" lon="0.74299">
        <ele>255</ele>
        <time>2018-05-20T07:14:28.000Z</time>
      </trkpt>
      <trkpt lat="45.22215" lon="0.74301">
        <ele>256</ele>
        <time>2018-05-20T07:14:30.000Z</time>
      </trkpt>
      <trkpt lat="45.22205" lon="0.74302">
        <ele>256</ele>
        <time>2018-05-20T07:14:33.000Z</time>
      </trkpt>
      <trkpt lat="45.22188" lon="0.74302">
        <ele>255</ele>
        <time>2018-05-20T07:14:37.000Z</time>
      </trkpt>
      <trkpt lat="45.22173" lon="0.74304">
        <ele>254</ele>
        <time>2018-05-20T07:14:41.000Z</time>
      </trkpt>
      <trkpt lat="45.22159" lon="0.74306">
        <ele>253</ele>
        <time>2018-05-20T07:14:45.000Z</time>
      </trkpt>
      <trkpt lat="45.22145" lon="0.74307">
        <ele>254</ele>
        <time>2018-05-20T07:14:49.000Z</time>
      </trkpt>
      <trkpt lat="45.22134" lon="0.74305">
        <ele>252</ele>
        <time>2018-05-20T07:14:53.000Z</time>
      </trkpt>
      <trkpt lat="45.22123" lon="0.74303">
        <ele>255</ele>
        <time>2018-05-20T07:14:57.000Z</time>
      </trkpt>
      <trkpt lat="45.22114" lon="0.74303">
        <ele>257</ele>
        <time>2018-05-20T07:15:01.000Z</time>
      </trkpt>
      <trkpt lat="45.22103" lon="0.74301">
        <ele>256</ele>
        <time>2018-05-20T07:15:06.000Z</time>
      </trkpt>
      <trkpt lat="45.22089" lon="0.74302">
        <ele>260</ele>
        <time>2018-05-20T07:15:12.000Z</time>
      </trkpt>
      <trkpt lat="45.22078" lon="0.74299">
        <ele>259</ele>
        <time>2018-05-20T07:15:16.000Z</time>
      </trkpt>
      <trkpt lat="45.22068" lon="0.74296">
        <ele>246</ele>
        <time>2018-05-20T07:15:20.000Z</time>
      </trkpt>
      <trkpt lat="45.22057" lon="0.7429">
        <ele>253</ele>
        <time>2018-05-20T07:15:24.000Z</time>
      </trkpt>
      <trkpt lat="45.22047" lon="0.74285">
        <ele>256</ele>
        <time>2018-05-20T07:15:27.000Z</time>
      </trkpt>
      <trkpt lat="45.22038" lon="0.74282">
        <ele>260</ele>
        <time>2018-05-20T07:15:30.000Z</time>
      </trkpt>
      <trkpt lat="45.22024" lon="0.74274">
        <ele>264</ele>
        <time>2018-05-20T07:15:34.000Z</time>
      </trkpt>
      <trkpt lat="45.2201" lon="0.74266">
        <ele>262</ele>
        <time>2018-05-20T07:15:38.000Z</time>
      </trkpt>
      <trkpt lat="45.21995" lon="0.74256">
        <ele>264</ele>
        <time>2018-05-20T07:15:42.000Z</time>
      </trkpt>
      <trkpt lat="45.21984" lon="0.74246">
        <ele>265</ele>
        <time>2018-05-20T07:15:45.000Z</time>
      </trkpt>
      <trkpt lat="45.21976" lon="0.74239">
        <ele>265</ele>
        <time>2018-05-20T07:15:48.000Z</time>
      </trkpt>
      <trkpt lat="45.21967" lon="0.74232">
        <ele>265</ele>
        <time>2018-05-20T07:15:52.000Z</time>
      </trkpt>
      <trkpt lat="45.21957" lon="0.74227">
        <ele>266</ele>
        <time>2018-05-20T07:15:56.000Z</time>
      </trkpt>
      <trkpt lat="45.21946" lon="0.74222">
        <ele>268</ele>
        <time>2018-05-20T07:15:59.000Z</time>
      </trkpt>
      <trkpt lat="45.21934" lon="0.74214">
        <ele>269</ele>
        <time>2018-05-20T07:16:02.000Z</time>
      </trkpt>
      <trkpt lat="45.21921" lon="0.7422">
        <ele>267</ele>
        <time>2018-05-20T07:16:06.000Z</time>
      </trkpt>
      <trkpt lat="45.2192" lon="0.74234">
        <ele>263</ele>
        <time>2018-05-20T07:16:09.000Z</time>
      </trkpt>
      <trkpt lat="45.21921" lon="0.74248">
        <ele>260</ele>
        <time>2018-05-20T07:16:15.000Z</time>
      </trkpt>
      <trkpt lat="45.2192" lon="0.74261">
        <ele>259</ele>
        <time>2018-05-20T07:16:21.000Z</time>
      </trkpt>
      <trkpt lat="45.21917" lon="0.74274">
        <ele>258</ele>
        <time>2018-05-20T07:16:28.000Z</time>
      </trkpt>
      <trkpt lat="45.21917" lon="0.74287">
        <ele>259</ele>
        <time>2018-05-20T07:16:36.000Z</time>
      </trkpt>
      <trkpt lat="45.21917" lon="0.74301">
        <ele>261</ele>
        <time>2018-05-20T07:16:44.000Z</time>
      </trkpt>
      <trkpt lat="45.21917" lon="0.74315">
        <ele>265</ele>
        <time>2018-05-20T07:16:51.000Z</time>
      </trkpt>
      <trkpt lat="45.21919" lon="0.74328">
        <ele>264</ele>
        <time>2018-05-20T07:16:57.000Z</time>
      </trkpt>
      <trkpt lat="45.2192" lon="0.74344">
        <ele>265</ele>
        <time>2018-05-20T07:17:03.000Z</time>
      </trkpt>
      <trkpt lat="45.21921" lon="0.74357">
        <ele>265</ele>
        <time>2018-05-20T07:17:08.000Z</time>
      </trkpt>
      <trkpt lat="45.21918" lon="0.74371">
        <ele>272</ele>
        <time>2018-05-20T07:17:12.000Z</time>
      </trkpt>
      <trkpt lat="45.21917" lon="0.74388">
        <ele>270</ele>
        <time>2018-05-20T07:17:17.000Z</time>
      </trkpt>
      <trkpt lat="45.21918" lon="0.74404">
        <ele>273</ele>
        <time>2018-05-20T07:17:22.000Z</time>
      </trkpt>
      <trkpt lat="45.21919" lon="0.74417">
        <ele>271</ele>
        <time>2018-05-20T07:17:26.000Z</time>
      </trkpt>
      <trkpt lat="45.21918" lon="0.74433">
        <ele>273</ele>
        <time>2018-05-20T07:17:30.000Z</time>
      </trkpt>
      <trkpt lat="45.21915" lon="0.74449">
        <ele>273</ele>
        <time>2018-05-20T07:17:34.000Z</time>
      </trkpt>
      <trkpt lat="45.21914" lon="0.7447">
        <ele>274</ele>
        <time>2018-05-20T07:17:39.000Z</time>
      </trkpt>
      <trkpt lat="45.21914" lon="0.74486">
        <ele>273</ele>
        <time>2018-05-20T07:17:43.000Z</time>
      </trkpt>
      <trkpt lat="45.21915" lon="0.74502">
        <ele>274</ele>
        <time>2018-05-20T07:17:47.000Z</time>
      </trkpt>
      <trkpt lat="45.21913" lon="0.74521">
        <ele>276</ele>
        <time>2018-05-20T07:17:52.000Z</time>
      </trkpt>
      <trkpt lat="45.21913" lon="0.74539">
        <ele>273</ele>
        <time>2018-05-20T07:17:58.000Z</time>
      </trkpt>
      <trkpt lat="45.21911" lon="0.74556">
        <ele>274</ele>
        <time>2018-05-20T07:18:03.000Z</time>
      </trkpt>
      <trkpt lat="45.21911" lon="0.7457">
        <ele>273</ele>
        <time>2018-05-20T07:18:07.000Z</time>
      </trkpt>
      <trkpt lat="45.21911" lon="0.7459">
        <ele>277</ele>
        <time>2018-05-20T07:18:13.000Z</time>
      </trkpt>
      <trkpt lat="45.2191" lon="0.74603">
        <ele>277</ele>
        <time>2018-05-20T07:18:17.000Z</time>
      </trkpt>
      <trkpt lat="45.21911" lon="0.74616">
        <ele>277</ele>
        <time>2018-05-20T07:18:21.000Z</time>
      </trkpt>
      <trkpt lat="45.21911" lon="0.74631">
        <ele>280</ele>
        <time>2018-05-20T07:18:26.000Z</time>
      </trkpt>
      <trkpt lat="45.21902" lon="0.74634">
        <ele>279</ele>
        <time>2018-05-20T07:18:45.000Z</time>
      </trkpt>
      <trkpt lat="45.21892" lon="0.74628">
        <ele>277</ele>
        <time>2018-05-20T07:18:50.000Z</time>
      </trkpt>
      <trkpt lat="45.21883" lon="0.74621">
        <ele>275</ele>
        <time>2018-05-20T07:18:53.000Z</time>
      </trkpt>
      <trkpt lat="45.21875" lon="0.74614">
        <ele>276</ele>
        <time>2018-05-20T07:18:56.000Z</time>
      </trkpt>
      <trkpt lat="45.21864" lon="0.74604">
        <ele>274</ele>
        <time>2018-05-20T07:18:59.000Z</time>
      </trkpt>
      <trkpt lat="45.21854" lon="0.74597">
        <ele>272</ele>
        <time>2018-05-20T07:19:02.000Z</time>
      </trkpt>
      <trkpt lat="45.21843" lon="0.74587">
        <ele>271</ele>
        <time>2018-05-20T07:19:05.000Z</time>
      </trkpt>
      <trkpt lat="45.21835" lon="0.7458">
        <ele>271</ele>
        <time>2018-05-20T07:19:07.000Z</time>
      </trkpt>
      <trkpt lat="45.21823" lon="0.74573">
        <ele>269</ele>
        <time>2018-05-20T07:19:10.000Z</time>
      </trkpt>
      <trkpt lat="45.21812" lon="0.74568">
        <ele>268</ele>
        <time>2018-05-20T07:19:12.000Z</time>
      </trkpt>
      <trkpt lat="45.21804" lon="0.74563">
        <ele>266</ele>
        <time>2018-05-20T07:19:14.000Z</time>
      </trkpt>
      <trkpt lat="45.21794" lon="0.74553">
        <ele>265</ele>
        <time>2018-05-20T07:19:17.000Z</time>
      </trkpt>
      <trkpt lat="45.21785" lon="0.74545">
        <ele>261</ele>
        <time>2018-05-20T07:19:20.000Z</time>
      </trkpt>
      <trkpt lat="45.21777" lon="0.74537">
        <ele>258</ele>
        <time>2018-05-20T07:19:23.000Z</time>
      </trkpt>
      <trkpt lat="45.21769" lon="0.74531">
        <ele>270</ele>
        <time>2018-05-20T07:19:27.000Z</time>
      </trkpt>
      <trkpt lat="45.21756" lon="0.74541">
        <ele>259</ele>
        <time>2018-05-20T07:19:34.000Z</time>
      </trkpt>
      <trkpt lat="45.2175" lon="0.74559">
        <ele>256</ele>
        <time>2018-05-20T07:19:38.000Z</time>
      </trkpt>
      <trkpt lat="45.21746" lon="0.74573">
        <ele>257</ele>
        <time>2018-05-20T07:19:41.000Z</time>
      </trkpt>
      <trkpt lat="45.21742" lon="0.74587">
        <ele>258</ele>
        <time>2018-05-20T07:19:44.000Z</time>
      </trkpt>
      <trkpt lat="45.21736" lon="0.74607">
        <ele>257</ele>
        <time>2018-05-20T07:19:48.000Z</time>
      </trkpt>
      <trkpt lat="45.2173" lon="0.74627">
        <ele>257</ele>
        <time>2018-05-20T07:19:52.000Z</time>
      </trkpt>
      <trkpt lat="45.21726" lon="0.74643">
        <ele>257</ele>
        <time>2018-05-20T07:19:55.000Z</time>
      </trkpt>
      <trkpt lat="45.21719" lon="0.74662">
        <ele>258</ele>
        <time>2018-05-20T07:19:59.000Z</time>
      </trkpt>
      <trkpt lat="45.21709" lon="0.74678">
        <ele>258</ele>
        <time>2018-05-20T07:20:03.000Z</time>
      </trkpt>
      <trkpt lat="45.21699" lon="0.74689">
        <ele>259</ele>
        <time>2018-05-20T07:20:06.000Z</time>
      </trkpt>
      <trkpt lat="45.21686" lon="0.74705">
        <ele>259</ele>
        <time>2018-05-20T07:20:10.000Z</time>
      </trkpt>
      <trkpt lat="45.21671" lon="0.74717">
        <ele>259</ele>
        <time>2018-05-20T07:20:14.000Z</time>
      </trkpt>
      <trkpt lat="45.21658" lon="0.74724">
        <ele>258</ele>
        <time>2018-05-20T07:20:17.000Z</time>
      </trkpt>
      <trkpt lat="45.21644" lon="0.74736">
        <ele>257</ele>
        <time>2018-05-20T07:20:20.000Z</time>
      </trkpt>
      <trkpt lat="45.21636" lon="0.74743">
        <ele>256</ele>
        <time>2018-05-20T07:20:22.000Z</time>
      </trkpt>
      <trkpt lat="45.21625" lon="0.74754">
        <ele>255</ele>
        <time>2018-05-20T07:20:25.000Z</time>
      </trkpt>
      <trkpt lat="45.21613" lon="0.74771">
        <ele>254</ele>
        <time>2018-05-20T07:20:29.000Z</time>
      </trkpt>
      <trkpt lat="45.21606" lon="0.74784">
        <ele>254</ele>
        <time>2018-05-20T07:20:32.000Z</time>
      </trkpt>
      <trkpt lat="45.21596" lon="0.74803">
        <ele>254</ele>
        <time>2018-05-20T07:20:36.000Z</time>
      </trkpt>
      <trkpt lat="45.21589" lon="0.74817">
        <ele>260</ele>
        <time>2018-05-20T07:20:39.000Z</time>
      </trkpt>
      <trkpt lat="45.21582" lon="0.74833">
        <ele>258</ele>
        <time>2018-05-20T07:20:42.000Z</time>
      </trkpt>
      <trkpt lat="45.21577" lon="0.74844">
        <ele>260</ele>
        <time>2018-05-20T07:20:44.000Z</time>
      </trkpt>
      <trkpt lat="45.21572" lon="0.74858">
        <ele>261</ele>
        <time>2018-05-20T07:20:47.000Z</time>
      </trkpt>
      <trkpt lat="45.21566" lon="0.74879">
        <ele>260</ele>
        <time>2018-05-20T07:20:51.000Z</time>
      </trkpt>
      <trkpt lat="45.21562" lon="0.74893">
        <ele>258</ele>
        <time>2018-05-20T07:20:54.000Z</time>
      </trkpt>
      <trkpt lat="45.21556" lon="0.74912">
        <ele>258</ele>
        <time>2018-05-20T07:20:58.000Z</time>
      </trkpt>
      <trkpt lat="45.2155" lon="0.74925">
        <ele>259</ele>
        <time>2018-05-20T07:21:01.000Z</time>
      </trkpt>
      <trkpt lat="45.21545" lon="0.74939">
        <ele>260</ele>
        <time>2018-05-20T07:21:04.000Z</time>
      </trkpt>
      <trkpt lat="45.21541" lon="0.74954">
        <ele>259</ele>
        <time>2018-05-20T07:21:07.000Z</time>
      </trkpt>
      <trkpt lat="45.21537" lon="0.74967">
        <ele>256</ele>
        <time>2018-05-20T07:21:10.000Z</time>
      </trkpt>
      <trkpt lat="45.21529" lon="0.74984">
        <ele>258</ele>
        <time>2018-05-20T07:21:14.000Z</time>
      </trkpt>
      <trkpt lat="45.21522" lon="0.74999">
        <ele>257</ele>
        <time>2018-05-20T07:21:18.000Z</time>
      </trkpt>
      <trkpt lat="45.21515" lon="0.75013">
        <ele>256</ele>
        <time>2018-05-20T07:21:22.000Z</time>
      </trkpt>
      <trkpt lat="45.21508" lon="0.75024">
        <ele>256</ele>
        <time>2018-05-20T07:21:25.000Z</time>
      </trkpt>
      <trkpt lat="45.21502" lon="0.75035">
        <ele>257</ele>
        <time>2018-05-20T07:21:28.000Z</time>
      </trkpt>
      <trkpt lat="45.21497" lon="0.75047">
        <ele>258</ele>
        <time>2018-05-20T07:21:31.000Z</time>
      </trkpt>
      <trkpt lat="45.21491" lon="0.75057">
        <ele>261</ele>
        <time>2018-05-20T07:21:34.000Z</time>
      </trkpt>
      <trkpt lat="45.21485" lon="0.75067">
        <ele>261</ele>
        <time>2018-05-20T07:21:37.000Z</time>
      </trkpt>
      <trkpt lat="45.21478" lon="0.75077">
        <ele>262</ele>
        <time>2018-05-20T07:21:41.000Z</time>
      </trkpt>
      <trkpt lat="45.21468" lon="0.75088">
        <ele>259</ele>
        <time>2018-05-20T07:21:47.000Z</time>
      </trkpt>
      <trkpt lat="45.21463" lon="0.75101">
        <ele>260</ele>
        <time>2018-05-20T07:21:52.000Z</time>
      </trkpt>
      <trkpt lat="45.21458" lon="0.75114">
        <ele>260</ele>
        <time>2018-05-20T07:21:57.000Z</time>
      </trkpt>
      <trkpt lat="45.21451" lon="0.75126">
        <ele>260</ele>
        <time>2018-05-20T07:22:02.000Z</time>
      </trkpt>
      <trkpt lat="45.21438" lon="0.75134">
        <ele>260</ele>
        <time>2018-05-20T07:22:08.000Z</time>
      </trkpt>
      <trkpt lat="45.21427" lon="0.75139">
        <ele>262</ele>
        <time>2018-05-20T07:22:13.000Z</time>
      </trkpt>
      <trkpt lat="45.21417" lon="0.75141">
        <ele>264</ele>
        <time>2018-05-20T07:22:17.000Z</time>
      </trkpt>
      <trkpt lat="45.21402" lon="0.75139">
        <ele>266</ele>
        <time>2018-05-20T07:22:22.000Z</time>
      </trkpt>
      <trkpt lat="45.2139" lon="0.75141">
        <ele>265</ele>
        <time>2018-05-20T07:22:26.000Z</time>
      </trkpt>
      <trkpt lat="45.21378" lon="0.75141">
        <ele>265</ele>
        <time>2018-05-20T07:22:30.000Z</time>
      </trkpt>
      <trkpt lat="45.21368" lon="0.75138">
        <ele>265</ele>
        <time>2018-05-20T07:22:33.000Z</time>
      </trkpt>
      <trkpt lat="45.21359" lon="0.75131">
        <ele>266</ele>
        <time>2018-05-20T07:22:36.000Z</time>
      </trkpt>
      <trkpt lat="45.21352" lon="0.75122">
        <ele>266</ele>
        <time>2018-05-20T07:22:39.000Z</time>
      </trkpt>
      <trkpt lat="45.21344" lon="0.75113">
        <ele>267</ele>
        <time>2018-05-20T07:22:42.000Z</time>
      </trkpt>
      <trkpt lat="45.21336" lon="0.75103">
        <ele>268</ele>
        <time>2018-05-20T07:22:45.000Z</time>
      </trkpt>
      <trkpt lat="45.21326" lon="0.75089">
        <ele>270</ele>
        <time>2018-05-20T07:22:49.000Z</time>
      </trkpt>
      <trkpt lat="45.21318" lon="0.75078">
        <ele>269</ele>
        <time>2018-05-20T07:22:52.000Z</time>
      </trkpt>
      <trkpt lat="45.2131" lon="0.75065">
        <ele>269</ele>
        <time>2018-05-20T07:22:55.000Z</time>
      </trkpt>
      <trkpt lat="45.21304" lon="0.75052">
        <ele>268</ele>
        <time>2018-05-20T07:22:58.000Z</time>
      </trkpt>
      <trkpt lat="45.21296" lon="0.75038">
        <ele>267</ele>
        <time>2018-05-20T07:23:01.000Z</time>
      </trkpt>
      <trkpt lat="45.21289" lon="0.75027">
        <ele>268</ele>
        <time>2018-05-20T07:23:04.000Z</time>
      </trkpt>
      <trkpt lat="45.2128" lon="0.75013">
        <ele>269</ele>
        <time>2018-05-20T07:23:08.000Z</time>
      </trkpt>
      <trkpt lat="45.21273" lon="0.75003">
        <ele>270</ele>
        <time>2018-05-20T07:23:12.000Z</time>
      </trkpt>
      <trkpt lat="45.21264" lon="0.7499">
        <ele>272</ele>
        <time>2018-05-20T07:23:17.000Z</time>
      </trkpt>
      <trkpt lat="45.21252" lon="0.74982">
        <ele>273</ele>
        <time>2018-05-20T07:23:22.000Z</time>
      </trkpt>
      <trkpt lat="45.21243" lon="0.74976">
        <ele>273</ele>
        <time>2018-05-20T07:23:26.000Z</time>
      </trkpt>
      <trkpt lat="45.21232" lon="0.7497">
        <ele>271</ele>
        <time>2018-05-20T07:23:30.000Z</time>
      </trkpt>
      <trkpt lat="45.21222" lon="0.74967">
        <ele>270</ele>
        <time>2018-05-20T07:23:33.000Z</time>
      </trkpt>
      <trkpt lat="45.2121" lon="0.74963">
        <ele>270</ele>
        <time>2018-05-20T07:23:36.000Z</time>
      </trkpt>
      <trkpt lat="45.21196" lon="0.74961">
        <ele>269</ele>
        <time>2018-05-20T07:23:39.000Z</time>
      </trkpt>
      <trkpt lat="45.21186" lon="0.7496">
        <ele>267</ele>
        <time>2018-05-20T07:23:41.000Z</time>
      </trkpt>
      <trkpt lat="45.21174" lon="0.74956">
        <ele>265</ele>
        <time>2018-05-20T07:23:44.000Z</time>
      </trkpt>
      <trkpt lat="45.21165" lon="0.74953">
        <ele>264</ele>
        <time>2018-05-20T07:23:46.000Z</time>
      </trkpt>
      <trkpt lat="45.21154" lon="0.74948">
        <ele>263</ele>
        <time>2018-05-20T07:23:48.000Z</time>
      </trkpt>
      <trkpt lat="45.21142" lon="0.74945">
        <ele>263</ele>
        <time>2018-05-20T07:23:50.000Z</time>
      </trkpt>
      <trkpt lat="45.21131" lon="0.74942">
        <ele>263</ele>
        <time>2018-05-20T07:23:52.000Z</time>
      </trkpt>
      <trkpt lat="45.21121" lon="0.74939">
        <ele>262</ele>
        <time>2018-05-20T07:23:54.000Z</time>
      </trkpt>
      <trkpt lat="45.21109" lon="0.74932">
        <ele>263</ele>
        <time>2018-05-20T07:23:56.000Z</time>
      </trkpt>
      <trkpt lat="45.21099" lon="0.74924">
        <ele>262</ele>
        <time>2018-05-20T07:23:58.000Z</time>
      </trkpt>
      <trkpt lat="45.21087" lon="0.74919">
        <ele>261</ele>
        <time>2018-05-20T07:24:00.000Z</time>
      </trkpt>
      <trkpt lat="45.21075" lon="0.74915">
        <ele>261</ele>
        <time>2018-05-20T07:24:02.000Z</time>
      </trkpt>
      <trkpt lat="45.21065" lon="0.74909">
        <ele>260</ele>
        <time>2018-05-20T07:24:04.000Z</time>
      </trkpt>
      <trkpt lat="45.21055" lon="0.74905">
        <ele>259</ele>
        <time>2018-05-20T07:24:06.000Z</time>
      </trkpt>
      <trkpt lat="45.21044" lon="0.74899">
        <ele>258</ele>
        <time>2018-05-20T07:24:08.000Z</time>
      </trkpt>
      <trkpt lat="45.21035" lon="0.74894">
        <ele>256</ele>
        <time>2018-05-20T07:24:10.000Z</time>
      </trkpt>
      <trkpt lat="45.21026" lon="0.74887">
        <ele>256</ele>
        <time>2018-05-20T07:24:12.000Z</time>
      </trkpt>
      <trkpt lat="45.21016" lon="0.74882">
        <ele>255</ele>
        <time>2018-05-20T07:24:14.000Z</time>
      </trkpt>
      <trkpt lat="45.21007" lon="0.74874">
        <ele>256</ele>
        <time>2018-05-20T07:24:16.000Z</time>
      </trkpt>
      <trkpt lat="45.20998" lon="0.74867">
        <ele>257</ele>
        <time>2018-05-20T07:24:18.000Z</time>
      </trkpt>
      <trkpt lat="45.20988" lon="0.74866">
        <ele>256</ele>
        <time>2018-05-20T07:24:20.000Z</time>
      </trkpt>
      <trkpt lat="45.20983" lon="0.74879">
        <ele>255</ele>
        <time>2018-05-20T07:24:22.000Z</time>
      </trkpt>
      <trkpt lat="45.20978" lon="0.74899">
        <ele>264</ele>
        <time>2018-05-20T07:24:26.000Z</time>
      </trkpt>
      <trkpt lat="45.20975" lon="0.74912">
        <ele>263</ele>
        <time>2018-05-20T07:24:29.000Z</time>
      </trkpt>
      <trkpt lat="45.20972" lon="0.74925">
        <ele>262</ele>
        <time>2018-05-20T07:24:32.000Z</time>
      </trkpt>
      <trkpt lat="45.20968" lon="0.74938">
        <ele>263</ele>
        <time>2018-05-20T07:24:35.000Z</time>
      </trkpt>
      <trkpt lat="45.20966" lon="0.74952">
        <ele>264</ele>
        <time>2018-05-20T07:24:38.000Z</time>
      </trkpt>
      <trkpt lat="45.20962" lon="0.74965">
        <ele>267</ele>
        <time>2018-05-20T07:24:41.000Z</time>
      </trkpt>
      <trkpt lat="45.20956" lon="0.74984">
        <ele>266</ele>
        <time>2018-05-20T07:24:45.000Z</time>
      </trkpt>
      <trkpt lat="45.20952" lon="0.74997">
        <ele>263</ele>
        <time>2018-05-20T07:24:47.000Z</time>
      </trkpt>
      <trkpt lat="45.20948" lon="0.75017">
        <ele>264</ele>
        <time>2018-05-20T07:24:50.000Z</time>
      </trkpt>
      <trkpt lat="45.20946" lon="0.75036">
        <ele>262</ele>
        <time>2018-05-20T07:24:53.000Z</time>
      </trkpt>
      <trkpt lat="45.20945" lon="0.75054">
        <ele>261</ele>
        <time>2018-05-20T07:24:56.000Z</time>
      </trkpt>
      <trkpt lat="45.20948" lon="0.75074">
        <ele>261</ele>
        <time>2018-05-20T07:25:00.000Z</time>
      </trkpt>
      <trkpt lat="45.20951" lon="0.75094">
        <ele>262</ele>
        <time>2018-05-20T07:25:04.000Z</time>
      </trkpt>
      <trkpt lat="45.20954" lon="0.75108">
        <ele>264</ele>
        <time>2018-05-20T07:25:07.000Z</time>
      </trkpt>
      <trkpt lat="45.20959" lon="0.75128">
        <ele>264</ele>
        <time>2018-05-20T07:25:11.000Z</time>
      </trkpt>
      <trkpt lat="45.20966" lon="0.75149">
        <ele>266</ele>
        <time>2018-05-20T07:25:15.000Z</time>
      </trkpt>
      <trkpt lat="45.2097" lon="0.75161">
        <ele>266</ele>
        <time>2018-05-20T07:25:17.000Z</time>
      </trkpt>
      <trkpt lat="45.20973" lon="0.75177">
        <ele>267</ele>
        <time>2018-05-20T07:25:19.000Z</time>
      </trkpt>
      <trkpt lat="45.20977" lon="0.75189">
        <ele>266</ele>
        <time>2018-05-20T07:25:21.000Z</time>
      </trkpt>
      <trkpt lat="45.20979" lon="0.75202">
        <ele>264</ele>
        <time>2018-05-20T07:25:23.000Z</time>
      </trkpt>
      <trkpt lat="45.20984" lon="0.75217">
        <ele>267</ele>
        <time>2018-05-20T07:25:26.000Z</time>
      </trkpt>
      <trkpt lat="45.20989" lon="0.7523">
        <ele>263</ele>
        <time>2018-05-20T07:25:29.000Z</time>
      </trkpt>
      <trkpt lat="45.20993" lon="0.75243">
        <ele>262</ele>
        <time>2018-05-20T07:25:32.000Z</time>
      </trkpt>
      <trkpt lat="45.20997" lon="0.75257">
        <ele>262</ele>
        <time>2018-05-20T07:25:35.000Z</time>
      </trkpt>
      <trkpt lat="45.21" lon="0.75269">
        <ele>261</ele>
        <time>2018-05-20T07:25:38.000Z</time>
      </trkpt>
      <trkpt lat="45.21003" lon="0.75283">
        <ele>262</ele>
        <time>2018-05-20T07:25:42.000Z</time>
      </trkpt>
      <trkpt lat="45.21007" lon="0.75297">
        <ele>259</ele>
        <time>2018-05-20T07:25:47.000Z</time>
      </trkpt>
      <trkpt lat="45.21015" lon="0.75306">
        <ele>259</ele>
        <time>2018-05-20T07:25:50.000Z</time>
      </trkpt>
      <trkpt lat="45.21024" lon="0.75313">
        <ele>259</ele>
        <time>2018-05-20T07:25:55.000Z</time>
      </trkpt>
      <trkpt lat="45.21034" lon="0.75321">
        <ele>261</ele>
        <time>2018-05-20T07:26:01.000Z</time>
      </trkpt>
      <trkpt lat="45.2104" lon="0.7533">
        <ele>260</ele>
        <time>2018-05-20T07:26:04.000Z</time>
      </trkpt>
      <trkpt lat="45.2105" lon="0.75342">
        <ele>264</ele>
        <time>2018-05-20T07:26:07.000Z</time>
      </trkpt>
      <trkpt lat="45.2106" lon="0.75353">
        <ele>262</ele>
        <time>2018-05-20T07:26:09.000Z</time>
      </trkpt>
      <trkpt lat="45.21072" lon="0.75362">
        <ele>263</ele>
        <time>2018-05-20T07:26:12.000Z</time>
      </trkpt>
      <trkpt lat="45.2108" lon="0.75369">
        <ele>264</ele>
        <time>2018-05-20T07:26:15.000Z</time>
      </trkpt>
      <trkpt lat="45.21088" lon="0.75377">
        <ele>262</ele>
        <time>2018-05-20T07:26:18.000Z</time>
      </trkpt>
      <trkpt lat="45.211" lon="0.75387">
        <ele>259</ele>
        <time>2018-05-20T07:26:21.000Z</time>
      </trkpt>
      <trkpt lat="45.2111" lon="0.75398">
        <ele>259</ele>
        <time>2018-05-20T07:26:24.000Z</time>
      </trkpt>
      <trkpt lat="45.21117" lon="0.75406">
        <ele>259</ele>
        <time>2018-05-20T07:26:27.000Z</time>
      </trkpt>
      <trkpt lat="45.21125" lon="0.75416">
        <ele>256</ele>
        <time>2018-05-20T07:26:31.000Z</time>
      </trkpt>
      <trkpt lat="45.21134" lon="0.75425">
        <ele>255</ele>
        <time>2018-05-20T07:26:34.000Z</time>
      </trkpt>
      <trkpt lat="45.21142" lon="0.75436">
        <ele>254</ele>
        <time>2018-05-20T07:26:37.000Z</time>
      </trkpt>
      <trkpt lat="45.21149" lon="0.75446">
        <ele>253</ele>
        <time>2018-05-20T07:26:39.000Z</time>
      </trkpt>
      <trkpt lat="45.21156" lon="0.75454">
        <ele>253</ele>
        <time>2018-05-20T07:26:41.000Z</time>
      </trkpt>
      <trkpt lat="45.21166" lon="0.75462">
        <ele>251</ele>
        <time>2018-05-20T07:26:43.000Z</time>
      </trkpt>
      <trkpt lat="45.21177" lon="0.7547">
        <ele>251</ele>
        <time>2018-05-20T07:26:46.000Z</time>
      </trkpt>
      <trkpt lat="45.21186" lon="0.75474">
        <ele>249</ele>
        <time>2018-05-20T07:26:48.000Z</time>
      </trkpt>
      <trkpt lat="45.21202" lon="0.75484">
        <ele>247</ele>
        <time>2018-05-20T07:26:51.000Z</time>
      </trkpt>
      <trkpt lat="45.2121" lon="0.75493">
        <ele>247</ele>
        <time>2018-05-20T07:26:53.000Z</time>
      </trkpt>
      <trkpt lat="45.21219" lon="0.75501">
        <ele>248</ele>
        <time>2018-05-20T07:26:55.000Z</time>
      </trkpt>
      <trkpt lat="45.2123" lon="0.75512">
        <ele>247</ele>
        <time>2018-05-20T07:26:57.000Z</time>
      </trkpt>
      <trkpt lat="45.21238" lon="0.75522">
        <ele>248</ele>
        <time>2018-05-20T07:26:59.000Z</time>
      </trkpt>
      <trkpt lat="45.21245" lon="0.75535">
        <ele>247</ele>
        <time>2018-05-20T07:27:02.000Z</time>
      </trkpt>
      <trkpt lat="45.21254" lon="0.75552">
        <ele>248</ele>
        <time>2018-05-20T07:27:06.000Z</time>
      </trkpt>
      <trkpt lat="45.21259" lon="0.75566">
        <ele>246</ele>
        <time>2018-05-20T07:27:10.000Z</time>
      </trkpt>
      <trkpt lat="45.21267" lon="0.75579">
        <ele>245</ele>
        <time>2018-05-20T07:27:14.000Z</time>
      </trkpt>
      <trkpt lat="45.21273" lon="0.75593">
        <ele>243</ele>
        <time>2018-05-20T07:27:18.000Z</time>
      </trkpt>
      <trkpt lat="45.21275" lon="0.75607">
        <ele>243</ele>
        <time>2018-05-20T07:27:21.000Z</time>
      </trkpt>
      <trkpt lat="45.21277" lon="0.75625">
        <ele>241</ele>
        <time>2018-05-20T07:27:24.000Z</time>
      </trkpt>
      <trkpt lat="45.21278" lon="0.75638">
        <ele>240</ele>
        <time>2018-05-20T07:27:26.000Z</time>
      </trkpt>
      <trkpt lat="45.21282" lon="0.7566">
        <ele>240</ele>
        <time>2018-05-20T07:27:29.000Z</time>
      </trkpt>
      <trkpt lat="45.21282" lon="0.75674">
        <ele>241</ele>
        <time>2018-05-20T07:27:31.000Z</time>
      </trkpt>
      <trkpt lat="45.21279" lon="0.75687">
        <ele>240</ele>
        <time>2018-05-20T07:27:33.000Z</time>
      </trkpt>
      <trkpt lat="45.21273" lon="0.75701">
        <ele>238</ele>
        <time>2018-05-20T07:27:35.000Z</time>
      </trkpt>
      <trkpt lat="45.2127" lon="0.75719">
        <ele>235</ele>
        <time>2018-05-20T07:27:38.000Z</time>
      </trkpt>
      <trkpt lat="45.2127" lon="0.75736">
        <ele>233</ele>
        <time>2018-05-20T07:27:40.000Z</time>
      </trkpt>
      <trkpt lat="45.21266" lon="0.75747">
        <ele>236</ele>
        <time>2018-05-20T07:27:42.000Z</time>
      </trkpt>
      <trkpt lat="45.21261" lon="0.75767">
        <ele>235</ele>
        <time>2018-05-20T07:27:45.000Z</time>
      </trkpt>
      <trkpt lat="45.21257" lon="0.75779">
        <ele>235</ele>
        <time>2018-05-20T07:27:47.000Z</time>
      </trkpt>
      <trkpt lat="45.21254" lon="0.758">
        <ele>232</ele>
        <time>2018-05-20T07:27:50.000Z</time>
      </trkpt>
      <trkpt lat="45.21241" lon="0.7583">
        <ele>235</ele>
        <time>2018-05-20T07:27:54.000Z</time>
      </trkpt>
      <trkpt lat="45.21232" lon="0.75851">
        <ele>239</ele>
        <time>2018-05-20T07:27:57.000Z</time>
      </trkpt>
      <trkpt lat="45.21227" lon="0.75867">
        <ele>241</ele>
        <time>2018-05-20T07:28:00.000Z</time>
      </trkpt>
      <trkpt lat="45.21222" lon="0.75888">
        <ele>243</ele>
        <time>2018-05-20T07:28:04.000Z</time>
      </trkpt>
      <trkpt lat="45.21214" lon="0.75907">
        <ele>246</ele>
        <time>2018-05-20T07:28:08.000Z</time>
      </trkpt>
      <trkpt lat="45.21208" lon="0.75924">
        <ele>245</ele>
        <time>2018-05-20T07:28:12.000Z</time>
      </trkpt>
      <trkpt lat="45.212" lon="0.75938">
        <ele>244</ele>
        <time>2018-05-20T07:28:17.000Z</time>
      </trkpt>
      <trkpt lat="45.21195" lon="0.7595">
        <ele>244</ele>
        <time>2018-05-20T07:28:21.000Z</time>
      </trkpt>
      <trkpt lat="45.21189" lon="0.75963">
        <ele>246</ele>
        <time>2018-05-20T07:28:25.000Z</time>
      </trkpt>
      <trkpt lat="45.21184" lon="0.75976">
        <ele>244</ele>
        <time>2018-05-20T07:28:29.000Z</time>
      </trkpt>
      <trkpt lat="45.21178" lon="0.75992">
        <ele>245</ele>
        <time>2018-05-20T07:28:34.000Z</time>
      </trkpt>
      <trkpt lat="45.21171" lon="0.76007">
        <ele>242</ele>
        <time>2018-05-20T07:28:39.000Z</time>
      </trkpt>
      <trkpt lat="45.21166" lon="0.76022">
        <ele>240</ele>
        <time>2018-05-20T07:28:43.000Z</time>
      </trkpt>
      <trkpt lat="45.21161" lon="0.76035">
        <ele>238</ele>
        <time>2018-05-20T07:28:46.000Z</time>
      </trkpt>
      <trkpt lat="45.21156" lon="0.76048">
        <ele>236</ele>
        <time>2018-05-20T07:28:49.000Z</time>
      </trkpt>
      <trkpt lat="45.2115" lon="0.76064">
        <ele>237</ele>
        <time>2018-05-20T07:28:53.000Z</time>
      </trkpt>
      <trkpt lat="45.21146" lon="0.76077">
        <ele>236</ele>
        <time>2018-05-20T07:28:56.000Z</time>
      </trkpt>
      <trkpt lat="45.21141" lon="0.76096">
        <ele>236</ele>
        <time>2018-05-20T07:29:00.000Z</time>
      </trkpt>
      <trkpt lat="45.21138" lon="0.76114">
        <ele>237</ele>
        <time>2018-05-20T07:29:04.000Z</time>
      </trkpt>
      <trkpt lat="45.21137" lon="0.76127">
        <ele>236</ele>
        <time>2018-05-20T07:29:07.000Z</time>
      </trkpt>
      <trkpt lat="45.21135" lon="0.76144">
        <ele>233</ele>
        <time>2018-05-20T07:29:11.000Z</time>
      </trkpt>
      <trkpt lat="45.21132" lon="0.76159">
        <ele>231</ele>
        <time>2018-05-20T07:29:15.000Z</time>
      </trkpt>
      <trkpt lat="45.2113" lon="0.76177">
        <ele>233</ele>
        <time>2018-05-20T07:29:19.000Z</time>
      </trkpt>
      <trkpt lat="45.21122" lon="0.76195">
        <ele>231</ele>
        <time>2018-05-20T07:29:24.000Z</time>
      </trkpt>
      <trkpt lat="45.21113" lon="0.76206">
        <ele>231</ele>
        <time>2018-05-20T07:29:27.000Z</time>
      </trkpt>
      <trkpt lat="45.211" lon="0.76221">
        <ele>232</ele>
        <time>2018-05-20T07:29:30.000Z</time>
      </trkpt>
      <trkpt lat="45.21091" lon="0.76234">
        <ele>234</ele>
        <time>2018-05-20T07:29:32.000Z</time>
      </trkpt>
      <trkpt lat="45.2108" lon="0.76253">
        <ele>236</ele>
        <time>2018-05-20T07:29:35.000Z</time>
      </trkpt>
      <trkpt lat="45.21075" lon="0.76265">
        <ele>236</ele>
        <time>2018-05-20T07:29:37.000Z</time>
      </trkpt>
      <trkpt lat="45.21068" lon="0.76279">
        <ele>233</ele>
        <time>2018-05-20T07:29:40.000Z</time>
      </trkpt>
      <trkpt lat="45.21062" lon="0.76292">
        <ele>234</ele>
        <time>2018-05-20T07:29:43.000Z</time>
      </trkpt>
      <trkpt lat="45.21055" lon="0.76307">
        <ele>234</ele>
        <time>2018-05-20T07:29:47.000Z</time>
      </trkpt>
      <trkpt lat="45.21046" lon="0.76326">
        <ele>232</ele>
        <time>2018-05-20T07:29:52.000Z</time>
      </trkpt>
      <trkpt lat="45.21039" lon="0.76343">
        <ele>232</ele>
        <time>2018-05-20T07:29:56.000Z</time>
      </trkpt>
      <trkpt lat="45.21034" lon="0.76355">
        <ele>231</ele>
        <time>2018-05-20T07:29:58.000Z</time>
      </trkpt>
      <trkpt lat="45.21027" lon="0.76369">
        <ele>232</ele>
        <time>2018-05-20T07:30:00.000Z</time>
      </trkpt>
      <trkpt lat="45.21021" lon="0.76383">
        <ele>230</ele>
        <time>2018-05-20T07:30:02.000Z</time>
      </trkpt>
      <trkpt lat="45.21014" lon="0.76399">
        <ele>229</ele>
        <time>2018-05-20T07:30:04.000Z</time>
      </trkpt>
      <trkpt lat="45.21005" lon="0.76412">
        <ele>229</ele>
        <time>2018-05-20T07:30:06.000Z</time>
      </trkpt>
      <trkpt lat="45.20993" lon="0.76431">
        <ele>229</ele>
        <time>2018-05-20T07:30:09.000Z</time>
      </trkpt>
      <trkpt lat="45.20981" lon="0.76445">
        <ele>229</ele>
        <time>2018-05-20T07:30:12.000Z</time>
      </trkpt>
      <trkpt lat="45.20966" lon="0.76454">
        <ele>227</ele>
        <time>2018-05-20T07:30:16.000Z</time>
      </trkpt>
      <trkpt lat="45.20951" lon="0.7646">
        <ele>227</ele>
        <time>2018-05-20T07:30:20.000Z</time>
      </trkpt>
      <trkpt lat="45.20938" lon="0.76457">
        <ele>227</ele>
        <time>2018-05-20T07:30:24.000Z</time>
      </trkpt>
      <trkpt lat="45.20922" lon="0.76454">
        <ele>229</ele>
        <time>2018-05-20T07:30:28.000Z</time>
      </trkpt>
      <trkpt lat="45.20906" lon="0.76448">
        <ele>230</ele>
        <time>2018-05-20T07:30:32.000Z</time>
      </trkpt>
      <trkpt lat="45.2089" lon="0.76442">
        <ele>229</ele>
        <time>2018-05-20T07:30:36.000Z</time>
      </trkpt>
      <trkpt lat="45.20876" lon="0.76436">
        <ele>229</ele>
        <time>2018-05-20T07:30:40.000Z</time>
      </trkpt>
      <trkpt lat="45.20867" lon="0.76433">
        <ele>231</ele>
        <time>2018-05-20T07:32:23.000Z</time>
      </trkpt>
      <trkpt lat="45.20857" lon="0.7643">
        <ele>232</ele>
        <time>2018-05-20T07:32:52.000Z</time>
      </trkpt>
      <trkpt lat="45.20846" lon="0.76426">
        <ele>231</ele>
        <time>2018-05-20T07:32:56.000Z</time>
      </trkpt>
      <trkpt lat="45.20832" lon="0.76425">
        <ele>229</ele>
        <time>2018-05-20T07:33:00.000Z</time>
      </trkpt>
      <trkpt lat="45.20821" lon="0.76424">
        <ele>227</ele>
        <time>2018-05-20T07:33:04.000Z</time>
      </trkpt>
      <trkpt lat="45.2081" lon="0.76424">
        <ele>227</ele>
        <time>2018-05-20T07:33:07.000Z</time>
      </trkpt>
      <trkpt lat="45.20796" lon="0.76425">
        <ele>234</ele>
        <time>2018-05-20T07:33:10.000Z</time>
      </trkpt>
      <trkpt lat="45.20784" lon="0.76433">
        <ele>228</ele>
        <time>2018-05-20T07:33:13.000Z</time>
      </trkpt>
      <trkpt lat="45.20776" lon="0.76445">
        <ele>228</ele>
        <time>2018-05-20T07:33:15.000Z</time>
      </trkpt>
      <trkpt lat="45.20769" lon="0.7646">
        <ele>225</ele>
        <time>2018-05-20T07:33:17.000Z</time>
      </trkpt>
      <trkpt lat="45.20761" lon="0.76471">
        <ele>223</ele>
        <time>2018-05-20T07:33:19.000Z</time>
      </trkpt>
      <trkpt lat="45.20755" lon="0.7649">
        <ele>223</ele>
        <time>2018-05-20T07:33:22.000Z</time>
      </trkpt>
      <trkpt lat="45.20757" lon="0.7652">
        <ele>221</ele>
        <time>2018-05-20T07:33:26.000Z</time>
      </trkpt>
      <trkpt lat="45.20756" lon="0.76536">
        <ele>220</ele>
        <time>2018-05-20T07:33:28.000Z</time>
      </trkpt>
      <trkpt lat="45.20749" lon="0.7655">
        <ele>217</ele>
        <time>2018-05-20T07:33:30.000Z</time>
      </trkpt>
      <trkpt lat="45.20738" lon="0.76557">
        <ele>214</ele>
        <time>2018-05-20T07:33:32.000Z</time>
      </trkpt>
      <trkpt lat="45.20722" lon="0.76557">
        <ele>213</ele>
        <time>2018-05-20T07:33:34.000Z</time>
      </trkpt>
      <trkpt lat="45.20691" lon="0.76565">
        <ele>209</ele>
        <time>2018-05-20T07:33:38.000Z</time>
      </trkpt>
      <trkpt lat="45.20682" lon="0.7657">
        <ele>208</ele>
        <time>2018-05-20T07:33:39.000Z</time>
      </trkpt>
      <trkpt lat="45.2066" lon="0.76589">
        <ele>206</ele>
        <time>2018-05-20T07:33:42.000Z</time>
      </trkpt>
      <trkpt lat="45.20649" lon="0.76597">
        <ele>206</ele>
        <time>2018-05-20T07:33:44.000Z</time>
      </trkpt>
      <trkpt lat="45.20641" lon="0.76609">
        <ele>205</ele>
        <time>2018-05-20T07:33:46.000Z</time>
      </trkpt>
      <trkpt lat="45.20641" lon="0.76625">
        <ele>203</ele>
        <time>2018-05-20T07:33:48.000Z</time>
      </trkpt>
      <trkpt lat="45.20646" lon="0.76639">
        <ele>201</ele>
        <time>2018-05-20T07:33:50.000Z</time>
      </trkpt>
      <trkpt lat="45.20659" lon="0.76651">
        <ele>198</ele>
        <time>2018-05-20T07:33:52.000Z</time>
      </trkpt>
      <trkpt lat="45.20672" lon="0.7667">
        <ele>194</ele>
        <time>2018-05-20T07:33:55.000Z</time>
      </trkpt>
      <trkpt lat="45.20672" lon="0.76689">
        <ele>196</ele>
        <time>2018-05-20T07:33:57.000Z</time>
      </trkpt>
      <trkpt lat="45.2066" lon="0.76699">
        <ele>196</ele>
        <time>2018-05-20T07:33:59.000Z</time>
      </trkpt>
      <trkpt lat="45.20649" lon="0.76699">
        <ele>199</ele>
        <time>2018-05-20T07:34:01.000Z</time>
      </trkpt>
      <trkpt lat="45.20631" lon="0.76692">
        <ele>195</ele>
        <time>2018-05-20T07:34:04.000Z</time>
      </trkpt>
      <trkpt lat="45.20616" lon="0.76691">
        <ele>191</ele>
        <time>2018-05-20T07:34:08.000Z</time>
      </trkpt>
      <trkpt lat="45.20608" lon="0.76697">
        <ele>190</ele>
        <time>2018-05-20T07:34:15.000Z</time>
      </trkpt>
      <trkpt lat="45.20615" lon="0.76709">
        <ele>183</ele>
        <time>2018-05-20T07:34:20.000Z</time>
      </trkpt>
      <trkpt lat="45.20623" lon="0.76721">
        <ele>179</ele>
        <time>2018-05-20T07:34:26.000Z</time>
      </trkpt>
      <trkpt lat="45.20633" lon="0.76729">
        <ele>175</ele>
        <time>2018-05-20T07:34:30.000Z</time>
      </trkpt>
      <trkpt lat="45.20641" lon="0.7674">
        <ele>172</ele>
        <time>2018-05-20T07:34:34.000Z</time>
      </trkpt>
      <trkpt lat="45.20651" lon="0.76752">
        <ele>172</ele>
        <time>2018-05-20T07:34:38.000Z</time>
      </trkpt>
      <trkpt lat="45.20658" lon="0.76763">
        <ele>173</ele>
        <time>2018-05-20T07:34:41.000Z</time>
      </trkpt>
      <trkpt lat="45.20667" lon="0.76776">
        <ele>174</ele>
        <time>2018-05-20T07:34:45.000Z</time>
      </trkpt>
      <trkpt lat="45.20675" lon="0.76791">
        <ele>175</ele>
        <time>2018-05-20T07:34:48.000Z</time>
      </trkpt>
      <trkpt lat="45.20683" lon="0.7681">
        <ele>177</ele>
        <time>2018-05-20T07:34:51.000Z</time>
      </trkpt>
      <trkpt lat="45.20688" lon="0.7682">
        <ele>178</ele>
        <time>2018-05-20T07:34:53.000Z</time>
      </trkpt>
      <trkpt lat="45.20694" lon="0.7683">
        <ele>173</ele>
        <time>2018-05-20T07:34:55.000Z</time>
      </trkpt>
      <trkpt lat="45.20697" lon="0.76847">
        <ele>172</ele>
        <time>2018-05-20T07:34:59.000Z</time>
      </trkpt>
      <trkpt lat="45.207" lon="0.76861">
        <ele>173</ele>
        <time>2018-05-20T07:35:02.000Z</time>
      </trkpt>
      <trkpt lat="45.20704" lon="0.76875">
        <ele>176</ele>
        <time>2018-05-20T07:35:05.000Z</time>
      </trkpt>
      <trkpt lat="45.20713" lon="0.76887">
        <ele>176</ele>
        <time>2018-05-20T07:35:08.000Z</time>
      </trkpt>
      <trkpt lat="45.20724" lon="0.76892">
        <ele>175</ele>
        <time>2018-05-20T07:35:11.000Z</time>
      </trkpt>
      <trkpt lat="45.20734" lon="0.76894">
        <ele>176</ele>
        <time>2018-05-20T07:35:14.000Z</time>
      </trkpt>
      <trkpt lat="45.20747" lon="0.76898">
        <ele>176</ele>
        <time>2018-05-20T07:35:17.000Z</time>
      </trkpt>
      <trkpt lat="45.20759" lon="0.76901">
        <ele>175</ele>
        <time>2018-05-20T07:35:19.000Z</time>
      </trkpt>
      <trkpt lat="45.20768" lon="0.76904">
        <ele>175</ele>
        <time>2018-05-20T07:35:21.000Z</time>
      </trkpt>
      <trkpt lat="45.20777" lon="0.76907">
        <ele>175</ele>
        <time>2018-05-20T07:35:23.000Z</time>
      </trkpt>
      <trkpt lat="45.20789" lon="0.76909">
        <ele>170</ele>
        <time>2018-05-20T07:35:27.000Z</time>
      </trkpt>
      <trkpt lat="45.208" lon="0.76911">
        <ele>170</ele>
        <time>2018-05-20T07:35:30.000Z</time>
      </trkpt>
      <trkpt lat="45.2081" lon="0.76908">
        <ele>170</ele>
        <time>2018-05-20T07:35:34.000Z</time>
      </trkpt>
      <trkpt lat="45.2082" lon="0.76909">
        <ele>170</ele>
        <time>2018-05-20T07:35:38.000Z</time>
      </trkpt>
      <trkpt lat="45.20831" lon="0.76911">
        <ele>169</ele>
        <time>2018-05-20T07:35:42.000Z</time>
      </trkpt>
      <trkpt lat="45.20841" lon="0.76913">
        <ele>172</ele>
        <time>2018-05-20T07:35:46.000Z</time>
      </trkpt>
      <trkpt lat="45.2085" lon="0.76917">
        <ele>167</ele>
        <time>2018-05-20T07:35:51.000Z</time>
      </trkpt>
      <trkpt lat="45.20861" lon="0.76919">
        <ele>167</ele>
        <time>2018-05-20T07:35:55.000Z</time>
      </trkpt>
      <trkpt lat="45.20871" lon="0.7692">
        <ele>169</ele>
        <time>2018-05-20T07:35:59.000Z</time>
      </trkpt>
      <trkpt lat="45.20881" lon="0.7692">
        <ele>183</ele>
        <time>2018-05-20T07:36:03.000Z</time>
      </trkpt>
      <trkpt lat="45.20891" lon="0.76919">
        <ele>182</ele>
        <time>2018-05-20T07:36:07.000Z</time>
      </trkpt>
      <trkpt lat="45.20901" lon="0.76918">
        <ele>176</ele>
        <time>2018-05-20T07:36:11.000Z</time>
      </trkpt>
      <trkpt lat="45.20914" lon="0.76921">
        <ele>172</ele>
        <time>2018-05-20T07:36:16.000Z</time>
      </trkpt>
      <trkpt lat="45.20925" lon="0.76923">
        <ele>172</ele>
        <time>2018-05-20T07:36:19.000Z</time>
      </trkpt>
      <trkpt lat="45.20941" lon="0.76927">
        <ele>175</ele>
        <time>2018-05-20T07:36:23.000Z</time>
      </trkpt>
      <trkpt lat="45.20951" lon="0.76928">
        <ele>173</ele>
        <time>2018-05-20T07:36:26.000Z</time>
      </trkpt>
      <trkpt lat="45.20965" lon="0.7693">
        <ele>173</ele>
        <time>2018-05-20T07:36:30.000Z</time>
      </trkpt>
      <trkpt lat="45.20979" lon="0.76933">
        <ele>176</ele>
        <time>2018-05-20T07:36:36.000Z</time>
      </trkpt>
      <trkpt lat="45.20989" lon="0.7693">
        <ele>173</ele>
        <time>2018-05-20T07:36:40.000Z</time>
      </trkpt>
      <trkpt lat="45.20998" lon="0.76926">
        <ele>172</ele>
        <time>2018-05-20T07:36:44.000Z</time>
      </trkpt>
      <trkpt lat="45.21012" lon="0.76921">
        <ele>170</ele>
        <time>2018-05-20T07:36:48.000Z</time>
      </trkpt>
      <trkpt lat="45.21021" lon="0.76916">
        <ele>170</ele>
        <time>2018-05-20T07:36:50.000Z</time>
      </trkpt>
      <trkpt lat="45.21029" lon="0.7691">
        <ele>170</ele>
        <time>2018-05-20T07:36:52.000Z</time>
      </trkpt>
      <trkpt lat="45.2104" lon="0.76905">
        <ele>171</ele>
        <time>2018-05-20T07:36:55.000Z</time>
      </trkpt>
      <trkpt lat="45.21051" lon="0.76902">
        <ele>178</ele>
        <time>2018-05-20T07:36:59.000Z</time>
      </trkpt>
      <trkpt lat="45.21062" lon="0.76904">
        <ele>176</ele>
        <time>2018-05-20T07:37:03.000Z</time>
      </trkpt>
      <trkpt lat="45.21073" lon="0.76908">
        <ele>175</ele>
        <time>2018-05-20T07:37:06.000Z</time>
      </trkpt>
      <trkpt lat="45.21083" lon="0.76915">
        <ele>174</ele>
        <time>2018-05-20T07:37:09.000Z</time>
      </trkpt>
      <trkpt lat="45.21092" lon="0.76923">
        <ele>174</ele>
        <time>2018-05-20T07:37:12.000Z</time>
      </trkpt>
      <trkpt lat="45.21102" lon="0.76931">
        <ele>173</ele>
        <time>2018-05-20T07:37:16.000Z</time>
      </trkpt>
      <trkpt lat="45.21112" lon="0.76939">
        <ele>171</ele>
        <time>2018-05-20T07:37:20.000Z</time>
      </trkpt>
      <trkpt lat="45.21121" lon="0.76946">
        <ele>170</ele>
        <time>2018-05-20T07:37:23.000Z</time>
      </trkpt>
      <trkpt lat="45.21133" lon="0.76958">
        <ele>170</ele>
        <time>2018-05-20T07:37:27.000Z</time>
      </trkpt>
      <trkpt lat="45.21142" lon="0.76967">
        <ele>172</ele>
        <time>2018-05-20T07:37:30.000Z</time>
      </trkpt>
      <trkpt lat="45.21146" lon="0.7698">
        <ele>175</ele>
        <time>2018-05-20T07:37:34.000Z</time>
      </trkpt>
      <trkpt lat="45.21154" lon="0.76991">
        <ele>177</ele>
        <time>2018-05-20T07:37:38.000Z</time>
      </trkpt>
      <trkpt lat="45.21165" lon="0.77003">
        <ele>177</ele>
        <time>2018-05-20T07:37:42.000Z</time>
      </trkpt>
      <trkpt lat="45.21175" lon="0.77014">
        <ele>177</ele>
        <time>2018-05-20T07:37:46.000Z</time>
      </trkpt>
      <trkpt lat="45.21183" lon="0.77023">
        <ele>176</ele>
        <time>2018-05-20T07:37:49.000Z</time>
      </trkpt>
      <trkpt lat="45.21192" lon="0.77035">
        <ele>173</ele>
        <time>2018-05-20T07:37:54.000Z</time>
      </trkpt>
      <trkpt lat="45.21201" lon="0.77041">
        <ele>176</ele>
        <time>2018-05-20T07:37:58.000Z</time>
      </trkpt>
      <trkpt lat="45.21208" lon="0.77052">
        <ele>174</ele>
        <time>2018-05-20T07:38:01.000Z</time>
      </trkpt>
      <trkpt lat="45.21216" lon="0.77069">
        <ele>171</ele>
        <time>2018-05-20T07:38:06.000Z</time>
      </trkpt>
      <trkpt lat="45.21222" lon="0.77079">
        <ele>173</ele>
        <time>2018-05-20T07:38:10.000Z</time>
      </trkpt>
      <trkpt lat="45.21229" lon="0.77089">
        <ele>175</ele>
        <time>2018-05-20T07:38:14.000Z</time>
      </trkpt>
      <trkpt lat="45.21234" lon="0.77104">
        <ele>175</ele>
        <time>2018-05-20T07:38:17.000Z</time>
      </trkpt>
      <trkpt lat="45.2124" lon="0.77114">
        <ele>176</ele>
        <time>2018-05-20T07:38:20.000Z</time>
      </trkpt>
      <trkpt lat="45.21248" lon="0.77127">
        <ele>176</ele>
        <time>2018-05-20T07:38:25.000Z</time>
      </trkpt>
      <trkpt lat="45.21257" lon="0.77137">
        <ele>176</ele>
        <time>2018-05-20T07:38:29.000Z</time>
      </trkpt>
      <trkpt lat="45.21264" lon="0.77145">
        <ele>178</ele>
        <time>2018-05-20T07:38:32.000Z</time>
      </trkpt>
      <trkpt lat="45.21272" lon="0.77152">
        <ele>179</ele>
        <time>2018-05-20T07:38:35.000Z</time>
      </trkpt>
      <trkpt lat="45.21283" lon="0.77156">
        <ele>180</ele>
        <time>2018-05-20T07:38:38.000Z</time>
      </trkpt>
      <trkpt lat="45.21291" lon="0.77161">
        <ele>179</ele>
        <time>2018-05-20T07:38:41.000Z</time>
      </trkpt>
      <trkpt lat="45.21303" lon="0.77166">
        <ele>179</ele>
        <time>2018-05-20T07:38:45.000Z</time>
      </trkpt>
      <trkpt lat="45.21313" lon="0.7717">
        <ele>179</ele>
        <time>2018-05-20T07:38:49.000Z</time>
      </trkpt>
      <trkpt lat="45.21323" lon="0.7717">
        <ele>178</ele>
        <time>2018-05-20T07:38:53.000Z</time>
      </trkpt>
      <trkpt lat="45.21334" lon="0.77169">
        <ele>179</ele>
        <time>2018-05-20T07:38:56.000Z</time>
      </trkpt>
      <trkpt lat="45.21345" lon="0.7717">
        <ele>178</ele>
        <time>2018-05-20T07:38:59.000Z</time>
      </trkpt>
      <trkpt lat="45.21357" lon="0.77171">
        <ele>179</ele>
        <time>2018-05-20T07:39:02.000Z</time>
      </trkpt>
      <trkpt lat="45.21368" lon="0.77173">
        <ele>179</ele>
        <time>2018-05-20T07:39:05.000Z</time>
      </trkpt>
      <trkpt lat="45.21379" lon="0.77177">
        <ele>179</ele>
        <time>2018-05-20T07:39:08.000Z</time>
      </trkpt>
      <trkpt lat="45.2139" lon="0.77179">
        <ele>181</ele>
        <time>2018-05-20T07:39:11.000Z</time>
      </trkpt>
      <trkpt lat="45.214" lon="0.77182">
        <ele>182</ele>
        <time>2018-05-20T07:39:14.000Z</time>
      </trkpt>
      <trkpt lat="45.2141" lon="0.77185">
        <ele>180</ele>
        <time>2018-05-20T07:39:17.000Z</time>
      </trkpt>
      <trkpt lat="45.2142" lon="0.77188">
        <ele>180</ele>
        <time>2018-05-20T07:39:20.000Z</time>
      </trkpt>
      <trkpt lat="45.21431" lon="0.77192">
        <ele>181</ele>
        <time>2018-05-20T07:39:23.000Z</time>
      </trkpt>
      <trkpt lat="45.21441" lon="0.77198">
        <ele>178</ele>
        <time>2018-05-20T07:39:26.000Z</time>
      </trkpt>
      <trkpt lat="45.21452" lon="0.77204">
        <ele>180</ele>
        <time>2018-05-20T07:39:29.000Z</time>
      </trkpt>
      <trkpt lat="45.21462" lon="0.77208">
        <ele>179</ele>
        <time>2018-05-20T07:39:32.000Z</time>
      </trkpt>
      <trkpt lat="45.21471" lon="0.77211">
        <ele>179</ele>
        <time>2018-05-20T07:39:35.000Z</time>
      </trkpt>
      <trkpt lat="45.21482" lon="0.77215">
        <ele>178</ele>
        <time>2018-05-20T07:39:38.000Z</time>
      </trkpt>
      <trkpt lat="45.21492" lon="0.7722">
        <ele>180</ele>
        <time>2018-05-20T07:39:41.000Z</time>
      </trkpt>
      <trkpt lat="45.21501" lon="0.77222">
        <ele>180</ele>
        <time>2018-05-20T07:39:44.000Z</time>
      </trkpt>
      <trkpt lat="45.21514" lon="0.77225">
        <ele>180</ele>
        <time>2018-05-20T07:39:48.000Z</time>
      </trkpt>
      <trkpt lat="45.21525" lon="0.77227">
        <ele>180</ele>
        <time>2018-05-20T07:39:52.000Z</time>
      </trkpt>
      <trkpt lat="45.21538" lon="0.77229">
        <ele>183</ele>
        <time>2018-05-20T07:39:56.000Z</time>
      </trkpt>
      <trkpt lat="45.21549" lon="0.77229">
        <ele>193</ele>
        <time>2018-05-20T07:39:59.000Z</time>
      </trkpt>
      <trkpt lat="45.21564" lon="0.77235">
        <ele>187</ele>
        <time>2018-05-20T07:40:04.000Z</time>
      </trkpt>
      <trkpt lat="45.2158" lon="0.77239">
        <ele>186</ele>
        <time>2018-05-20T07:40:08.000Z</time>
      </trkpt>
      <trkpt lat="45.21594" lon="0.77244">
        <ele>187</ele>
        <time>2018-05-20T07:40:12.000Z</time>
      </trkpt>
      <trkpt lat="45.21602" lon="0.77253">
        <ele>184</ele>
        <time>2018-05-20T07:40:15.000Z</time>
      </trkpt>
      <trkpt lat="45.2161" lon="0.77263">
        <ele>186</ele>
        <time>2018-05-20T07:40:18.000Z</time>
      </trkpt>
      <trkpt lat="45.21616" lon="0.77273">
        <ele>187</ele>
        <time>2018-05-20T07:40:21.000Z</time>
      </trkpt>
      <trkpt lat="45.21627" lon="0.77286">
        <ele>186</ele>
        <time>2018-05-20T07:40:26.000Z</time>
      </trkpt>
      <trkpt lat="45.21636" lon="0.77301">
        <ele>181</ele>
        <time>2018-05-20T07:40:30.000Z</time>
      </trkpt>
      <trkpt lat="45.21642" lon="0.77314">
        <ele>182</ele>
        <time>2018-05-20T07:40:34.000Z</time>
      </trkpt>
      <trkpt lat="45.21648" lon="0.77325">
        <ele>184</ele>
        <time>2018-05-20T07:40:37.000Z</time>
      </trkpt>
      <trkpt lat="45.21653" lon="0.77336">
        <ele>180</ele>
        <time>2018-05-20T07:40:40.000Z</time>
      </trkpt>
      <trkpt lat="45.21661" lon="0.77345">
        <ele>183</ele>
        <time>2018-05-20T07:40:44.000Z</time>
      </trkpt>
      <trkpt lat="45.21674" lon="0.7735">
        <ele>186</ele>
        <time>2018-05-20T07:40:48.000Z</time>
      </trkpt>
      <trkpt lat="45.21693" lon="0.7736">
        <ele>190</ele>
        <time>2018-05-20T07:40:54.000Z</time>
      </trkpt>
      <trkpt lat="45.21705" lon="0.77367">
        <ele>192</ele>
        <time>2018-05-20T07:40:58.000Z</time>
      </trkpt>
      <trkpt lat="45.21714" lon="0.77375">
        <ele>192</ele>
        <time>2018-05-20T07:41:03.000Z</time>
      </trkpt>
      <trkpt lat="45.21725" lon="0.77383">
        <ele>194</ele>
        <time>2018-05-20T07:41:07.000Z</time>
      </trkpt>
      <trkpt lat="45.21735" lon="0.77389">
        <ele>194</ele>
        <time>2018-05-20T07:41:11.000Z</time>
      </trkpt>
      <trkpt lat="45.21745" lon="0.77393">
        <ele>192</ele>
        <time>2018-05-20T07:41:14.000Z</time>
      </trkpt>
      <trkpt lat="45.21756" lon="0.77399">
        <ele>193</ele>
        <time>2018-05-20T07:41:19.000Z</time>
      </trkpt>
      <trkpt lat="45.21766" lon="0.77404">
        <ele>193</ele>
        <time>2018-05-20T07:41:22.000Z</time>
      </trkpt>
      <trkpt lat="45.21777" lon="0.77402">
        <ele>193</ele>
        <time>2018-05-20T07:41:28.000Z</time>
      </trkpt>
      <trkpt lat="45.21786" lon="0.77406">
        <ele>187</ele>
        <time>2018-05-20T07:41:34.000Z</time>
      </trkpt>
      <trkpt lat="45.21798" lon="0.7741">
        <ele>191</ele>
        <time>2018-05-20T07:41:39.000Z</time>
      </trkpt>
      <trkpt lat="45.21811" lon="0.77411">
        <ele>190</ele>
        <time>2018-05-20T07:41:43.000Z</time>
      </trkpt>
      <trkpt lat="45.21824" lon="0.77418">
        <ele>191</ele>
        <time>2018-05-20T07:41:48.000Z</time>
      </trkpt>
      <trkpt lat="45.21832" lon="0.77424">
        <ele>191</ele>
        <time>2018-05-20T07:41:51.000Z</time>
      </trkpt>
      <trkpt lat="45.21841" lon="0.77428">
        <ele>191</ele>
        <time>2018-05-20T07:41:54.000Z</time>
      </trkpt>
      <trkpt lat="45.21852" lon="0.77432">
        <ele>188</ele>
        <time>2018-05-20T07:41:59.000Z</time>
      </trkpt>
      <trkpt lat="45.21863" lon="0.77434">
        <ele>190</ele>
        <time>2018-05-20T07:42:03.000Z</time>
      </trkpt>
      <trkpt lat="45.21872" lon="0.77444">
        <ele>188</ele>
        <time>2018-05-20T07:42:07.000Z</time>
      </trkpt>
      <trkpt lat="45.21878" lon="0.77455">
        <ele>191</ele>
        <time>2018-05-20T07:42:11.000Z</time>
      </trkpt>
      <trkpt lat="45.21884" lon="0.77464">
        <ele>190</ele>
        <time>2018-05-20T07:42:14.000Z</time>
      </trkpt>
      <trkpt lat="45.21892" lon="0.77472">
        <ele>190</ele>
        <time>2018-05-20T07:42:17.000Z</time>
      </trkpt>
      <trkpt lat="45.219" lon="0.77485">
        <ele>190</ele>
        <time>2018-05-20T07:42:21.000Z</time>
      </trkpt>
      <trkpt lat="45.21904" lon="0.77499">
        <ele>190</ele>
        <time>2018-05-20T07:42:25.000Z</time>
      </trkpt>
      <trkpt lat="45.2191" lon="0.77514">
        <ele>191</ele>
        <time>2018-05-20T07:42:29.000Z</time>
      </trkpt>
      <trkpt lat="45.21919" lon="0.77523">
        <ele>190</ele>
        <time>2018-05-20T07:42:33.000Z</time>
      </trkpt>
      <trkpt lat="45.21925" lon="0.77533">
        <ele>191</ele>
        <time>2018-05-20T07:42:37.000Z</time>
      </trkpt>
      <trkpt lat="45.21933" lon="0.77542">
        <ele>194</ele>
        <time>2018-05-20T07:42:40.000Z</time>
      </trkpt>
      <trkpt lat="45.21942" lon="0.77553">
        <ele>200</ele>
        <time>2018-05-20T07:42:43.000Z</time>
      </trkpt>
      <trkpt lat="45.21949" lon="0.77562">
        <ele>197</ele>
        <time>2018-05-20T07:42:46.000Z</time>
      </trkpt>
      <trkpt lat="45.21957" lon="0.77573">
        <ele>198</ele>
        <time>2018-05-20T07:42:50.000Z</time>
      </trkpt>
      <trkpt lat="45.21966" lon="0.77586">
        <ele>198</ele>
        <time>2018-05-20T07:42:54.000Z</time>
      </trkpt>
      <trkpt lat="45.21973" lon="0.77599">
        <ele>197</ele>
        <time>2018-05-20T07:42:59.000Z</time>
      </trkpt>
      <trkpt lat="45.2198" lon="0.77608">
        <ele>195</ele>
        <time>2018-05-20T07:43:03.000Z</time>
      </trkpt>
      <trkpt lat="45.2199" lon="0.7762">
        <ele>195</ele>
        <time>2018-05-20T07:43:07.000Z</time>
      </trkpt>
      <trkpt lat="45.21995" lon="0.77637">
        <ele>195</ele>
        <time>2018-05-20T07:43:11.000Z</time>
      </trkpt>
      <trkpt lat="45.22003" lon="0.77653">
        <ele>193</ele>
        <time>2018-05-20T07:43:16.000Z</time>
      </trkpt>
      <trkpt lat="45.22006" lon="0.77669">
        <ele>223</ele>
        <time>2018-05-20T07:43:20.000Z</time>
      </trkpt>
      <trkpt lat="45.2201" lon="0.77684">
        <ele>210</ele>
        <time>2018-05-20T07:43:23.000Z</time>
      </trkpt>
      <trkpt lat="45.22013" lon="0.77698">
        <ele>202</ele>
        <time>2018-05-20T07:43:26.000Z</time>
      </trkpt>
      <trkpt lat="45.22014" lon="0.77711">
        <ele>198</ele>
        <time>2018-05-20T07:43:30.000Z</time>
      </trkpt>
      <trkpt lat="45.22019" lon="0.77724">
        <ele>198</ele>
        <time>2018-05-20T07:43:35.000Z</time>
      </trkpt>
      <trkpt lat="45.22026" lon="0.77732">
        <ele>196</ele>
        <time>2018-05-20T07:43:38.000Z</time>
      </trkpt>
      <trkpt lat="45.22036" lon="0.77739">
        <ele>192</ele>
        <time>2018-05-20T07:43:41.000Z</time>
      </trkpt>
      <trkpt lat="45.22045" lon="0.77744">
        <ele>190</ele>
        <time>2018-05-20T07:43:45.000Z</time>
      </trkpt>
      <trkpt lat="45.22053" lon="0.77751">
        <ele>187</ele>
        <time>2018-05-20T07:43:50.000Z</time>
      </trkpt>
      <trkpt lat="45.22062" lon="0.77757">
        <ele>188</ele>
        <time>2018-05-20T07:43:54.000Z</time>
      </trkpt>
      <trkpt lat="45.22072" lon="0.77763">
        <ele>190</ele>
        <time>2018-05-20T07:43:57.000Z</time>
      </trkpt>
      <trkpt lat="45.22083" lon="0.77764">
        <ele>192</ele>
        <time>2018-05-20T07:44:00.000Z</time>
      </trkpt>
      <trkpt lat="45.22092" lon="0.77762">
        <ele>194</ele>
        <time>2018-05-20T07:44:02.000Z</time>
      </trkpt>
      <trkpt lat="45.2211" lon="0.77757">
        <ele>197</ele>
        <time>2018-05-20T07:44:06.000Z</time>
      </trkpt>
      <trkpt lat="45.22121" lon="0.77757">
        <ele>199</ele>
        <time>2018-05-20T07:44:10.000Z</time>
      </trkpt>
      <trkpt lat="45.22132" lon="0.77762">
        <ele>199</ele>
        <time>2018-05-20T07:44:14.000Z</time>
      </trkpt>
      <trkpt lat="45.22143" lon="0.77766">
        <ele>201</ele>
        <time>2018-05-20T07:44:17.000Z</time>
      </trkpt>
      <trkpt lat="45.22153" lon="0.77769">
        <ele>202</ele>
        <time>2018-05-20T07:44:20.000Z</time>
      </trkpt>
      <trkpt lat="45.22162" lon="0.77774">
        <ele>203</ele>
        <time>2018-05-20T07:44:24.000Z</time>
      </trkpt>
      <trkpt lat="45.2217" lon="0.77782">
        <ele>203</ele>
        <time>2018-05-20T07:44:28.000Z</time>
      </trkpt>
      <trkpt lat="45.22178" lon="0.7779">
        <ele>202</ele>
        <time>2018-05-20T07:44:33.000Z</time>
      </trkpt>
      <trkpt lat="45.22191" lon="0.77795">
        <ele>204</ele>
        <time>2018-05-20T07:44:39.000Z</time>
      </trkpt>
      <trkpt lat="45.22201" lon="0.77799">
        <ele>205</ele>
        <time>2018-05-20T07:44:42.000Z</time>
      </trkpt>
      <trkpt lat="45.2221" lon="0.77804">
        <ele>201</ele>
        <time>2018-05-20T07:44:46.000Z</time>
      </trkpt>
      <trkpt lat="45.22221" lon="0.77813">
        <ele>203</ele>
        <time>2018-05-20T07:44:51.000Z</time>
      </trkpt>
      <trkpt lat="45.22229" lon="0.77821">
        <ele>202</ele>
        <time>2018-05-20T07:44:55.000Z</time>
      </trkpt>
      <trkpt lat="45.22238" lon="0.77828">
        <ele>204</ele>
        <time>2018-05-20T07:44:59.000Z</time>
      </trkpt>
      <trkpt lat="45.22249" lon="0.77829">
        <ele>204</ele>
        <time>2018-05-20T07:45:03.000Z</time>
      </trkpt>
      <trkpt lat="45.22262" lon="0.77833">
        <ele>201</ele>
        <time>2018-05-20T07:45:07.000Z</time>
      </trkpt>
      <trkpt lat="45.22272" lon="0.77834">
        <ele>202</ele>
        <time>2018-05-20T07:45:11.000Z</time>
      </trkpt>
      <trkpt lat="45.22286" lon="0.77843">
        <ele>203</ele>
        <time>2018-05-20T07:45:16.000Z</time>
      </trkpt>
      <trkpt lat="45.22295" lon="0.7785">
        <ele>201</ele>
        <time>2018-05-20T07:45:20.000Z</time>
      </trkpt>
      <trkpt lat="45.22307" lon="0.77854">
        <ele>201</ele>
        <time>2018-05-20T07:45:24.000Z</time>
      </trkpt>
      <trkpt lat="45.22316" lon="0.77856">
        <ele>202</ele>
        <time>2018-05-20T07:45:27.000Z</time>
      </trkpt>
      <trkpt lat="45.22327" lon="0.77857">
        <ele>205</ele>
        <time>2018-05-20T07:45:31.000Z</time>
      </trkpt>
      <trkpt lat="45.22336" lon="0.77857">
        <ele>204</ele>
        <time>2018-05-20T07:45:34.000Z</time>
      </trkpt>
      <trkpt lat="45.22345" lon="0.77855">
        <ele>202</ele>
        <time>2018-05-20T07:45:37.000Z</time>
      </trkpt>
      <trkpt lat="45.22356" lon="0.77854">
        <ele>204</ele>
        <time>2018-05-20T07:45:40.000Z</time>
      </trkpt>
      <trkpt lat="45.22365" lon="0.77854">
        <ele>206</ele>
        <time>2018-05-20T07:45:42.000Z</time>
      </trkpt>
      <trkpt lat="45.22376" lon="0.77853">
        <ele>203</ele>
        <time>2018-05-20T07:45:46.000Z</time>
      </trkpt>
      <trkpt lat="45.22387" lon="0.7786">
        <ele>201</ele>
        <time>2018-05-20T07:45:51.000Z</time>
      </trkpt>
      <trkpt lat="45.22398" lon="0.77867">
        <ele>201</ele>
        <time>2018-05-20T07:45:55.000Z</time>
      </trkpt>
      <trkpt lat="45.22407" lon="0.77872">
        <ele>200</ele>
        <time>2018-05-20T07:45:59.000Z</time>
      </trkpt>
      <trkpt lat="45.22414" lon="0.77881">
        <ele>200</ele>
        <time>2018-05-20T07:46:03.000Z</time>
      </trkpt>
      <trkpt lat="45.22421" lon="0.7789">
        <ele>200</ele>
        <time>2018-05-20T07:46:07.000Z</time>
      </trkpt>
      <trkpt lat="45.22429" lon="0.77905">
        <ele>201</ele>
        <time>2018-05-20T07:46:13.000Z</time>
      </trkpt>
      <trkpt lat="45.22438" lon="0.77917">
        <ele>202</ele>
        <time>2018-05-20T07:46:19.000Z</time>
      </trkpt>
      <trkpt lat="45.22448" lon="0.77924">
        <ele>201</ele>
        <time>2018-05-20T07:46:24.000Z</time>
      </trkpt>
      <trkpt lat="45.22457" lon="0.77929">
        <ele>201</ele>
        <time>2018-05-20T07:46:28.000Z</time>
      </trkpt>
      <trkpt lat="45.22466" lon="0.77934">
        <ele>203</ele>
        <time>2018-05-20T07:46:32.000Z</time>
      </trkpt>
      <trkpt lat="45.22477" lon="0.77937">
        <ele>204</ele>
        <time>2018-05-20T07:46:36.000Z</time>
      </trkpt>
      <trkpt lat="45.22487" lon="0.77941">
        <ele>205</ele>
        <time>2018-05-20T07:46:40.000Z</time>
      </trkpt>
      <trkpt lat="45.22497" lon="0.77945">
        <ele>204</ele>
        <time>2018-05-20T07:46:44.000Z</time>
      </trkpt>
      <trkpt lat="45.22508" lon="0.77949">
        <ele>205</ele>
        <time>2018-05-20T07:46:49.000Z</time>
      </trkpt>
      <trkpt lat="45.22518" lon="0.77954">
        <ele>203</ele>
        <time>2018-05-20T07:46:54.000Z</time>
      </trkpt>
      <trkpt lat="45.22527" lon="0.7796">
        <ele>202</ele>
        <time>2018-05-20T07:46:58.000Z</time>
      </trkpt>
      <trkpt lat="45.22536" lon="0.77962">
        <ele>199</ele>
        <time>2018-05-20T07:47:02.000Z</time>
      </trkpt>
      <trkpt lat="45.22546" lon="0.77967">
        <ele>199</ele>
        <time>2018-05-20T07:47:07.000Z</time>
      </trkpt>
      <trkpt lat="45.22554" lon="0.77976">
        <ele>202</ele>
        <time>2018-05-20T07:47:12.000Z</time>
      </trkpt>
      <trkpt lat="45.22562" lon="0.77986">
        <ele>201</ele>
        <time>2018-05-20T07:47:17.000Z</time>
      </trkpt>
      <trkpt lat="45.2257" lon="0.77995">
        <ele>204</ele>
        <time>2018-05-20T07:47:20.000Z</time>
      </trkpt>
      <trkpt lat="45.22578" lon="0.78003">
        <ele>202</ele>
        <time>2018-05-20T07:47:23.000Z</time>
      </trkpt>
      <trkpt lat="45.22585" lon="0.78012">
        <ele>203</ele>
        <time>2018-05-20T07:47:26.000Z</time>
      </trkpt>
      <trkpt lat="45.22595" lon="0.78023">
        <ele>202</ele>
        <time>2018-05-20T07:47:30.000Z</time>
      </trkpt>
      <trkpt lat="45.22605" lon="0.7804">
        <ele>207</ele>
        <time>2018-05-20T07:47:34.000Z</time>
      </trkpt>
      <trkpt lat="45.22609" lon="0.78055">
        <ele>208</ele>
        <time>2018-05-20T07:47:39.000Z</time>
      </trkpt>
      <trkpt lat="45.22614" lon="0.78069">
        <ele>213</ele>
        <time>2018-05-20T07:47:43.000Z</time>
      </trkpt>
      <trkpt lat="45.22623" lon="0.78084">
        <ele>207</ele>
        <time>2018-05-20T07:47:48.000Z</time>
      </trkpt>
      <trkpt lat="45.22632" lon="0.78093">
        <ele>208</ele>
        <time>2018-05-20T07:47:52.000Z</time>
      </trkpt>
      <trkpt lat="45.22643" lon="0.781">
        <ele>208</ele>
        <time>2018-05-20T07:47:56.000Z</time>
      </trkpt>
      <trkpt lat="45.22651" lon="0.78106">
        <ele>204</ele>
        <time>2018-05-20T07:48:00.000Z</time>
      </trkpt>
      <trkpt lat="45.2266" lon="0.7811">
        <ele>203</ele>
        <time>2018-05-20T07:48:04.000Z</time>
      </trkpt>
      <trkpt lat="45.22671" lon="0.78117">
        <ele>205</ele>
        <time>2018-05-20T07:48:08.000Z</time>
      </trkpt>
      <trkpt lat="45.22688" lon="0.78127">
        <ele>204</ele>
        <time>2018-05-20T07:48:14.000Z</time>
      </trkpt>
      <trkpt lat="45.22702" lon="0.78131">
        <ele>206</ele>
        <time>2018-05-20T07:48:19.000Z</time>
      </trkpt>
      <trkpt lat="45.22712" lon="0.7813">
        <ele>206</ele>
        <time>2018-05-20T07:48:23.000Z</time>
      </trkpt>
      <trkpt lat="45.22728" lon="0.78129">
        <ele>205</ele>
        <time>2018-05-20T07:48:29.000Z</time>
      </trkpt>
      <trkpt lat="45.22739" lon="0.78132">
        <ele>208</ele>
        <time>2018-05-20T07:48:35.000Z</time>
      </trkpt>
      <trkpt lat="45.22748" lon="0.78137">
        <ele>206</ele>
        <time>2018-05-20T07:48:39.000Z</time>
      </trkpt>
      <trkpt lat="45.22755" lon="0.78147">
        <ele>207</ele>
        <time>2018-05-20T07:48:44.000Z</time>
      </trkpt>
      <trkpt lat="45.22764" lon="0.78155">
        <ele>207</ele>
        <time>2018-05-20T07:48:48.000Z</time>
      </trkpt>
      <trkpt lat="45.22772" lon="0.78163">
        <ele>207</ele>
        <time>2018-05-20T07:48:53.000Z</time>
      </trkpt>
      <trkpt lat="45.22781" lon="0.78177">
        <ele>204</ele>
        <time>2018-05-20T07:48:59.000Z</time>
      </trkpt>
      <trkpt lat="45.22786" lon="0.78193">
        <ele>206</ele>
        <time>2018-05-20T07:49:04.000Z</time>
      </trkpt>
      <trkpt lat="45.22794" lon="0.78207">
        <ele>206</ele>
        <time>2018-05-20T07:49:10.000Z</time>
      </trkpt>
      <trkpt lat="45.22801" lon="0.78223">
        <ele>202</ele>
        <time>2018-05-20T07:49:16.000Z</time>
      </trkpt>
      <trkpt lat="45.22807" lon="0.78238">
        <ele>206</ele>
        <time>2018-05-20T07:49:20.000Z</time>
      </trkpt>
      <trkpt lat="45.22811" lon="0.78257">
        <ele>209</ele>
        <time>2018-05-20T07:49:25.000Z</time>
      </trkpt>
      <trkpt lat="45.22813" lon="0.78274">
        <ele>215</ele>
        <time>2018-05-20T07:49:30.000Z</time>
      </trkpt>
      <trkpt lat="45.22814" lon="0.78292">
        <ele>216</ele>
        <time>2018-05-20T07:49:34.000Z</time>
      </trkpt>
      <trkpt lat="45.22817" lon="0.78311">
        <ele>216</ele>
        <time>2018-05-20T07:49:40.000Z</time>
      </trkpt>
      <trkpt lat="45.2282" lon="0.78324">
        <ele>215</ele>
        <time>2018-05-20T07:49:44.000Z</time>
      </trkpt>
      <trkpt lat="45.22821" lon="0.7834">
        <ele>218</ele>
        <time>2018-05-20T07:49:48.000Z</time>
      </trkpt>
      <trkpt lat="45.22821" lon="0.78353">
        <ele>212</ele>
        <time>2018-05-20T07:49:52.000Z</time>
      </trkpt>
      <trkpt lat="45.22826" lon="0.78364">
        <ele>213</ele>
        <time>2018-05-20T07:49:56.000Z</time>
      </trkpt>
      <trkpt lat="45.22834" lon="0.78375">
        <ele>213</ele>
        <time>2018-05-20T07:50:00.000Z</time>
      </trkpt>
      <trkpt lat="45.22839" lon="0.78388">
        <ele>214</ele>
        <time>2018-05-20T07:50:04.000Z</time>
      </trkpt>
      <trkpt lat="45.22844" lon="0.784">
        <ele>214</ele>
        <time>2018-05-20T07:50:08.000Z</time>
      </trkpt>
      <trkpt lat="45.22847" lon="0.78413">
        <ele>217</ele>
        <time>2018-05-20T07:50:13.000Z</time>
      </trkpt>
      <trkpt lat="45.22854" lon="0.78426">
        <ele>218</ele>
        <time>2018-05-20T07:50:18.000Z</time>
      </trkpt>
      <trkpt lat="45.22857" lon="0.78439">
        <ele>217</ele>
        <time>2018-05-20T07:50:23.000Z</time>
      </trkpt>
      <trkpt lat="45.22858" lon="0.78451">
        <ele>223</ele>
        <time>2018-05-20T07:50:28.000Z</time>
      </trkpt>
      <trkpt lat="45.22864" lon="0.78465">
        <ele>218</ele>
        <time>2018-05-20T07:50:34.000Z</time>
      </trkpt>
      <trkpt lat="45.2287" lon="0.78478">
        <ele>216</ele>
        <time>2018-05-20T07:50:40.000Z</time>
      </trkpt>
      <trkpt lat="45.22875" lon="0.7849">
        <ele>217</ele>
        <time>2018-05-20T07:50:44.000Z</time>
      </trkpt>
      <trkpt lat="45.22879" lon="0.78507">
        <ele>215</ele>
        <time>2018-05-20T07:50:50.000Z</time>
      </trkpt>
      <trkpt lat="45.22882" lon="0.78521">
        <ele>214</ele>
        <time>2018-05-20T07:50:55.000Z</time>
      </trkpt>
      <trkpt lat="45.22887" lon="0.78532">
        <ele>213</ele>
        <time>2018-05-20T07:51:00.000Z</time>
      </trkpt>
      <trkpt lat="45.22894" lon="0.78541">
        <ele>214</ele>
        <time>2018-05-20T07:51:05.000Z</time>
      </trkpt>
      <trkpt lat="45.22901" lon="0.7855">
        <ele>215</ele>
        <time>2018-05-20T07:51:09.000Z</time>
      </trkpt>
      <trkpt lat="45.22907" lon="0.78561">
        <ele>221</ele>
        <time>2018-05-20T07:51:14.000Z</time>
      </trkpt>
      <trkpt lat="45.2291" lon="0.78577">
        <ele>219</ele>
        <time>2018-05-20T07:51:22.000Z</time>
      </trkpt>
      <trkpt lat="45.22918" lon="0.78588">
        <ele>219</ele>
        <time>2018-05-20T07:51:28.000Z</time>
      </trkpt>
      <trkpt lat="45.22924" lon="0.78597">
        <ele>219</ele>
        <time>2018-05-20T07:51:32.000Z</time>
      </trkpt>
      <trkpt lat="45.22932" lon="0.78607">
        <ele>222</ele>
        <time>2018-05-20T07:51:36.000Z</time>
      </trkpt>
      <trkpt lat="45.22946" lon="0.78613">
        <ele>215</ele>
        <time>2018-05-20T07:51:42.000Z</time>
      </trkpt>
      <trkpt lat="45.22955" lon="0.78607">
        <ele>217</ele>
        <time>2018-05-20T07:51:47.000Z</time>
      </trkpt>
      <trkpt lat="45.22965" lon="0.78604">
        <ele>219</ele>
        <time>2018-05-20T07:51:53.000Z</time>
      </trkpt>
      <trkpt lat="45.22976" lon="0.78609">
        <ele>217</ele>
        <time>2018-05-20T07:52:02.000Z</time>
      </trkpt>
      <trkpt lat="45.22984" lon="0.78619">
        <ele>217</ele>
        <time>2018-05-20T07:52:08.000Z</time>
      </trkpt>
      <trkpt lat="45.22992" lon="0.7863">
        <ele>219</ele>
        <time>2018-05-20T07:52:14.000Z</time>
      </trkpt>
      <trkpt lat="45.23" lon="0.7864">
        <ele>223</ele>
        <time>2018-05-20T07:52:20.000Z</time>
      </trkpt>
      <trkpt lat="45.23008" lon="0.7865">
        <ele>231</ele>
        <time>2018-05-20T07:52:24.000Z</time>
      </trkpt>
      <trkpt lat="45.23015" lon="0.78659">
        <ele>232</ele>
        <time>2018-05-20T07:52:28.000Z</time>
      </trkpt>
      <trkpt lat="45.23023" lon="0.78667">
        <ele>230</ele>
        <time>2018-05-20T07:52:31.000Z</time>
      </trkpt>
      <trkpt lat="45.23032" lon="0.78673">
        <ele>228</ele>
        <time>2018-05-20T07:52:35.000Z</time>
      </trkpt>
      <trkpt lat="45.2304" lon="0.78683">
        <ele>227</ele>
        <time>2018-05-20T07:52:41.000Z</time>
      </trkpt>
      <trkpt lat="45.23048" lon="0.78692">
        <ele>223</ele>
        <time>2018-05-20T07:52:46.000Z</time>
      </trkpt>
      <trkpt lat="45.23056" lon="0.78703">
        <ele>227</ele>
        <time>2018-05-20T07:52:51.000Z</time>
      </trkpt>
      <trkpt lat="45.23065" lon="0.78711">
        <ele>230</ele>
        <time>2018-05-20T07:52:55.000Z</time>
      </trkpt>
      <trkpt lat="45.23073" lon="0.78718">
        <ele>231</ele>
        <time>2018-05-20T07:52:59.000Z</time>
      </trkpt>
      <trkpt lat="45.23084" lon="0.78728">
        <ele>226</ele>
        <time>2018-05-20T07:53:05.000Z</time>
      </trkpt>
      <trkpt lat="45.23095" lon="0.78728">
        <ele>223</ele>
        <time>2018-05-20T07:53:09.000Z</time>
      </trkpt>
      <trkpt lat="45.23104" lon="0.78728">
        <ele>223</ele>
        <time>2018-05-20T07:53:13.000Z</time>
      </trkpt>
      <trkpt lat="45.23115" lon="0.78726">
        <ele>224</ele>
        <time>2018-05-20T07:53:19.000Z</time>
      </trkpt>
      <trkpt lat="45.23122" lon="0.78715">
        <ele>224</ele>
        <time>2018-05-20T07:53:32.000Z</time>
      </trkpt>
      <trkpt lat="45.2313" lon="0.78706">
        <ele>221</ele>
        <time>2018-05-20T07:54:55.000Z</time>
      </trkpt>
      <trkpt lat="45.23138" lon="0.78696">
        <ele>224</ele>
        <time>2018-05-20T07:54:59.000Z</time>
      </trkpt>
      <trkpt lat="45.23145" lon="0.78685">
        <ele>221</ele>
        <time>2018-05-20T07:55:03.000Z</time>
      </trkpt>
      <trkpt lat="45.23148" lon="0.78672">
        <ele>223</ele>
        <time>2018-05-20T07:55:07.000Z</time>
      </trkpt>
      <trkpt lat="45.23155" lon="0.78653">
        <ele>224</ele>
        <time>2018-05-20T07:55:13.000Z</time>
      </trkpt>
      <trkpt lat="45.2316" lon="0.78639">
        <ele>228</ele>
        <time>2018-05-20T07:55:17.000Z</time>
      </trkpt>
      <trkpt lat="45.23163" lon="0.78625">
        <ele>231</ele>
        <time>2018-05-20T07:55:22.000Z</time>
      </trkpt>
      <trkpt lat="45.23169" lon="0.78613">
        <ele>231</ele>
        <time>2018-05-20T07:55:26.000Z</time>
      </trkpt>
      <trkpt lat="45.23172" lon="0.78599">
        <ele>234</ele>
        <time>2018-05-20T07:55:30.000Z</time>
      </trkpt>
      <trkpt lat="45.23177" lon="0.78588">
        <ele>235</ele>
        <time>2018-05-20T07:55:36.000Z</time>
      </trkpt>
      <trkpt lat="45.23185" lon="0.78593">
        <ele>243</ele>
        <time>2018-05-20T07:57:26.000Z</time>
      </trkpt>
      <trkpt lat="45.23186" lon="0.78607">
        <ele>241</ele>
        <time>2018-05-20T07:57:30.000Z</time>
      </trkpt>
      <trkpt lat="45.23183" lon="0.78625">
        <ele>236</ele>
        <time>2018-05-20T07:57:34.000Z</time>
      </trkpt>
      <trkpt lat="45.23182" lon="0.7864">
        <ele>236</ele>
        <time>2018-05-20T07:57:38.000Z</time>
      </trkpt>
      <trkpt lat="45.23181" lon="0.78654">
        <ele>235</ele>
        <time>2018-05-20T07:57:42.000Z</time>
      </trkpt>
      <trkpt lat="45.2318" lon="0.78671">
        <ele>234</ele>
        <time>2018-05-20T07:57:47.000Z</time>
      </trkpt>
      <trkpt lat="45.23182" lon="0.78685">
        <ele>231</ele>
        <time>2018-05-20T07:57:52.000Z</time>
      </trkpt>
      <trkpt lat="45.23186" lon="0.78705">
        <ele>233</ele>
        <time>2018-05-20T07:58:00.000Z</time>
      </trkpt>
      <trkpt lat="45.2319" lon="0.78723">
        <ele>239</ele>
        <time>2018-05-20T07:58:08.000Z</time>
      </trkpt>
      <trkpt lat="45.23187" lon="0.78736">
        <ele>243</ele>
        <time>2018-05-20T07:58:15.000Z</time>
      </trkpt>
      <trkpt lat="45.23185" lon="0.78755">
        <ele>244</ele>
        <time>2018-05-20T07:58:26.000Z</time>
      </trkpt>
      <trkpt lat="45.23188" lon="0.7877">
        <ele>244</ele>
        <time>2018-05-20T07:58:33.000Z</time>
      </trkpt>
      <trkpt lat="45.23192" lon="0.78782">
        <ele>239</ele>
        <time>2018-05-20T07:58:39.000Z</time>
      </trkpt>
      <trkpt lat="45.23192" lon="0.78797">
        <ele>245</ele>
        <time>2018-05-20T07:58:47.000Z</time>
      </trkpt>
      <trkpt lat="45.23193" lon="0.7881">
        <ele>243</ele>
        <time>2018-05-20T07:58:53.000Z</time>
      </trkpt>
      <trkpt lat="45.23195" lon="0.78824">
        <ele>244</ele>
        <time>2018-05-20T07:59:01.000Z</time>
      </trkpt>
      <trkpt lat="45.23197" lon="0.78839">
        <ele>225</ele>
        <time>2018-05-20T07:59:07.000Z</time>
      </trkpt>
      <trkpt lat="45.23199" lon="0.78852">
        <ele>242</ele>
        <time>2018-05-20T07:59:13.000Z</time>
      </trkpt>
      <trkpt lat="45.23199" lon="0.78866">
        <ele>241</ele>
        <time>2018-05-20T07:59:18.000Z</time>
      </trkpt>
      <trkpt lat="45.23196" lon="0.78879">
        <ele>244</ele>
        <time>2018-05-20T07:59:24.000Z</time>
      </trkpt>
      <trkpt lat="45.23193" lon="0.78892">
        <ele>246</ele>
        <time>2018-05-20T07:59:31.000Z</time>
      </trkpt>
      <trkpt lat="45.23193" lon="0.78906">
        <ele>246</ele>
        <time>2018-05-20T07:59:38.000Z</time>
      </trkpt>
      <trkpt lat="45.23188" lon="0.78919">
        <ele>247</ele>
        <time>2018-05-20T07:59:43.000Z</time>
      </trkpt>
      <trkpt lat="45.23181" lon="0.7893">
        <ele>247</ele>
        <time>2018-05-20T07:59:47.000Z</time>
      </trkpt>
      <trkpt lat="45.23173" lon="0.78941">
        <ele>247</ele>
        <time>2018-05-20T07:59:51.000Z</time>
      </trkpt>
      <trkpt lat="45.23169" lon="0.78955">
        <ele>247</ele>
        <time>2018-05-20T07:59:55.000Z</time>
      </trkpt>
      <trkpt lat="45.23172" lon="0.78969">
        <ele>247</ele>
        <time>2018-05-20T07:59:59.000Z</time>
      </trkpt>
      <trkpt lat="45.23176" lon="0.78982">
        <ele>250</ele>
        <time>2018-05-20T08:00:04.000Z</time>
      </trkpt>
      <trkpt lat="45.23178" lon="0.78997">
        <ele>252</ele>
        <time>2018-05-20T08:00:10.000Z</time>
      </trkpt>
      <trkpt lat="45.23182" lon="0.7901">
        <ele>254</ele>
        <time>2018-05-20T08:00:16.000Z</time>
      </trkpt>
      <trkpt lat="45.23184" lon="0.79023">
        <ele>252</ele>
        <time>2018-05-20T08:00:21.000Z</time>
      </trkpt>
      <trkpt lat="45.23187" lon="0.79037">
        <ele>252</ele>
        <time>2018-05-20T08:00:26.000Z</time>
      </trkpt>
      <trkpt lat="45.23188" lon="0.79051">
        <ele>250</ele>
        <time>2018-05-20T08:00:30.000Z</time>
      </trkpt>
      <trkpt lat="45.23191" lon="0.79065">
        <ele>251</ele>
        <time>2018-05-20T08:00:34.000Z</time>
      </trkpt>
      <trkpt lat="45.23194" lon="0.7908">
        <ele>249</ele>
        <time>2018-05-20T08:00:38.000Z</time>
      </trkpt>
      <trkpt lat="45.23194" lon="0.79094">
        <ele>248</ele>
        <time>2018-05-20T08:00:42.000Z</time>
      </trkpt>
      <trkpt lat="45.23195" lon="0.79111">
        <ele>248</ele>
        <time>2018-05-20T08:00:46.000Z</time>
      </trkpt>
      <trkpt lat="45.23192" lon="0.79125">
        <ele>247</ele>
        <time>2018-05-20T08:00:49.000Z</time>
      </trkpt>
      <trkpt lat="45.2319" lon="0.7914">
        <ele>249</ele>
        <time>2018-05-20T08:00:52.000Z</time>
      </trkpt>
      <trkpt lat="45.23188" lon="0.79156">
        <ele>250</ele>
        <time>2018-05-20T08:00:55.000Z</time>
      </trkpt>
      <trkpt lat="45.23187" lon="0.7917">
        <ele>252</ele>
        <time>2018-05-20T08:00:58.000Z</time>
      </trkpt>
      <trkpt lat="45.23186" lon="0.79184">
        <ele>250</ele>
        <time>2018-05-20T08:01:01.000Z</time>
      </trkpt>
      <trkpt lat="45.23185" lon="0.79199">
        <ele>253</ele>
        <time>2018-05-20T08:01:04.000Z</time>
      </trkpt>
      <trkpt lat="45.23185" lon="0.79213">
        <ele>252</ele>
        <time>2018-05-20T08:01:06.000Z</time>
      </trkpt>
      <trkpt lat="45.23183" lon="0.79234">
        <ele>251</ele>
        <time>2018-05-20T08:01:09.000Z</time>
      </trkpt>
      <trkpt lat="45.23181" lon="0.79251">
        <ele>252</ele>
        <time>2018-05-20T08:01:11.000Z</time>
      </trkpt>
      <trkpt lat="45.23182" lon="0.79268">
        <ele>252</ele>
        <time>2018-05-20T08:01:13.000Z</time>
      </trkpt>
      <trkpt lat="45.2318" lon="0.79287">
        <ele>250</ele>
        <time>2018-05-20T08:01:15.000Z</time>
      </trkpt>
      <trkpt lat="45.23179" lon="0.79306">
        <ele>250</ele>
        <time>2018-05-20T08:01:17.000Z</time>
      </trkpt>
      <trkpt lat="45.23181" lon="0.79327">
        <ele>249</ele>
        <time>2018-05-20T08:01:19.000Z</time>
      </trkpt>
      <trkpt lat="45.23183" lon="0.79343">
        <ele>247</ele>
        <time>2018-05-20T08:01:21.000Z</time>
      </trkpt>
      <trkpt lat="45.23186" lon="0.79359">
        <ele>245</ele>
        <time>2018-05-20T08:01:23.000Z</time>
      </trkpt>
      <trkpt lat="45.2319" lon="0.79372">
        <ele>246</ele>
        <time>2018-05-20T08:01:25.000Z</time>
      </trkpt>
      <trkpt lat="45.23194" lon="0.79391">
        <ele>247</ele>
        <time>2018-05-20T08:01:28.000Z</time>
      </trkpt>
      <trkpt lat="45.23199" lon="0.79406">
        <ele>245</ele>
        <time>2018-05-20T08:01:31.000Z</time>
      </trkpt>
      <trkpt lat="45.23202" lon="0.79419">
        <ele>246</ele>
        <time>2018-05-20T08:01:35.000Z</time>
      </trkpt>
      <trkpt lat="45.23208" lon="0.79432">
        <ele>247</ele>
        <time>2018-05-20T08:01:40.000Z</time>
      </trkpt>
      <trkpt lat="45.23211" lon="0.79445">
        <ele>249</ele>
        <time>2018-05-20T08:01:44.000Z</time>
      </trkpt>
      <trkpt lat="45.23215" lon="0.7946">
        <ele>252</ele>
        <time>2018-05-20T08:01:49.000Z</time>
      </trkpt>
      <trkpt lat="45.23216" lon="0.79473">
        <ele>251</ele>
        <time>2018-05-20T08:01:54.000Z</time>
      </trkpt>
      <trkpt lat="45.23212" lon="0.79489">
        <ele>249</ele>
        <time>2018-05-20T08:02:03.000Z</time>
      </trkpt>
      <trkpt lat="45.23212" lon="0.79503">
        <ele>249</ele>
        <time>2018-05-20T08:02:09.000Z</time>
      </trkpt>
      <trkpt lat="45.23212" lon="0.79516">
        <ele>251</ele>
        <time>2018-05-20T08:02:15.000Z</time>
      </trkpt>
      <trkpt lat="45.23213" lon="0.7953">
        <ele>254</ele>
        <time>2018-05-20T08:02:20.000Z</time>
      </trkpt>
      <trkpt lat="45.23209" lon="0.79546">
        <ele>252</ele>
        <time>2018-05-20T08:02:28.000Z</time>
      </trkpt>
      <trkpt lat="45.23206" lon="0.79566">
        <ele>250</ele>
        <time>2018-05-20T08:02:33.000Z</time>
      </trkpt>
      <trkpt lat="45.23206" lon="0.79585">
        <ele>252</ele>
        <time>2018-05-20T08:02:37.000Z</time>
      </trkpt>
      <trkpt lat="45.23206" lon="0.79612">
        <ele>249</ele>
        <time>2018-05-20T08:02:43.000Z</time>
      </trkpt>
      <trkpt lat="45.23207" lon="0.79625">
        <ele>247</ele>
        <time>2018-05-20T08:02:46.000Z</time>
      </trkpt>
      <trkpt lat="45.23207" lon="0.79639">
        <ele>248</ele>
        <time>2018-05-20T08:02:49.000Z</time>
      </trkpt>
      <trkpt lat="45.23207" lon="0.79654">
        <ele>250</ele>
        <time>2018-05-20T08:02:52.000Z</time>
      </trkpt>
      <trkpt lat="45.23203" lon="0.79668">
        <ele>247</ele>
        <time>2018-05-20T08:02:56.000Z</time>
      </trkpt>
      <trkpt lat="45.23195" lon="0.79675">
        <ele>252</ele>
        <time>2018-05-20T08:03:02.000Z</time>
      </trkpt>
      <trkpt lat="45.23186" lon="0.79678">
        <ele>251</ele>
        <time>2018-05-20T08:03:09.000Z</time>
      </trkpt>
      <trkpt lat="45.23176" lon="0.7968">
        <ele>256</ele>
        <time>2018-05-20T08:03:15.000Z</time>
      </trkpt>
      <trkpt lat="45.23165" lon="0.79682">
        <ele>227</ele>
        <time>2018-05-20T08:03:22.000Z</time>
      </trkpt>
      <trkpt lat="45.23156" lon="0.7969">
        <ele>247</ele>
        <time>2018-05-20T08:03:31.000Z</time>
      </trkpt>
      <trkpt lat="45.23146" lon="0.79692">
        <ele>250</ele>
        <time>2018-05-20T08:03:37.000Z</time>
      </trkpt>
      <trkpt lat="45.23136" lon="0.79697">
        <ele>250</ele>
        <time>2018-05-20T08:03:42.000Z</time>
      </trkpt>
      <trkpt lat="45.23126" lon="0.79701">
        <ele>202</ele>
        <time>2018-05-20T08:03:48.000Z</time>
      </trkpt>
      <trkpt lat="45.23116" lon="0.79706">
        <ele>235</ele>
        <time>2018-05-20T08:03:54.000Z</time>
      </trkpt>
      <trkpt lat="45.23106" lon="0.79709">
        <ele>251</ele>
        <time>2018-05-20T08:03:59.000Z</time>
      </trkpt>
      <trkpt lat="45.23098" lon="0.79715">
        <ele>251</ele>
        <time>2018-05-20T08:04:03.000Z</time>
      </trkpt>
      <trkpt lat="45.2309" lon="0.79722">
        <ele>252</ele>
        <time>2018-05-20T08:04:07.000Z</time>
      </trkpt>
      <trkpt lat="45.23084" lon="0.79732">
        <ele>253</ele>
        <time>2018-05-20T08:04:11.000Z</time>
      </trkpt>
      <trkpt lat="45.23082" lon="0.79747">
        <ele>251</ele>
        <time>2018-05-20T08:04:16.000Z</time>
      </trkpt>
      <trkpt lat="45.23079" lon="0.7976">
        <ele>249</ele>
        <time>2018-05-20T08:04:20.000Z</time>
      </trkpt>
      <trkpt lat="45.23074" lon="0.79773">
        <ele>247</ele>
        <time>2018-05-20T08:04:24.000Z</time>
      </trkpt>
      <trkpt lat="45.2307" lon="0.79789">
        <ele>248</ele>
        <time>2018-05-20T08:04:30.000Z</time>
      </trkpt>
      <trkpt lat="45.23063" lon="0.79805">
        <ele>247</ele>
        <time>2018-05-20T08:04:36.000Z</time>
      </trkpt>
      <trkpt lat="45.23049" lon="0.79826">
        <ele>246</ele>
        <time>2018-05-20T08:04:44.000Z</time>
      </trkpt>
      <trkpt lat="45.23043" lon="0.79838">
        <ele>246</ele>
        <time>2018-05-20T08:04:47.000Z</time>
      </trkpt>
      <trkpt lat="45.23038" lon="0.7985">
        <ele>246</ele>
        <time>2018-05-20T08:04:51.000Z</time>
      </trkpt>
      <trkpt lat="45.23034" lon="0.79863">
        <ele>244</ele>
        <time>2018-05-20T08:04:56.000Z</time>
      </trkpt>
      <trkpt lat="45.23027" lon="0.79877">
        <ele>245</ele>
        <time>2018-05-20T08:05:00.000Z</time>
      </trkpt>
      <trkpt lat="45.23023" lon="0.79888">
        <ele>243</ele>
        <time>2018-05-20T08:05:03.000Z</time>
      </trkpt>
      <trkpt lat="45.23018" lon="0.79902">
        <ele>244</ele>
        <time>2018-05-20T08:05:06.000Z</time>
      </trkpt>
      <trkpt lat="45.23011" lon="0.79917">
        <ele>242</ele>
        <time>2018-05-20T08:05:09.000Z</time>
      </trkpt>
      <trkpt lat="45.23006" lon="0.79931">
        <ele>243</ele>
        <time>2018-05-20T08:05:12.000Z</time>
      </trkpt>
      <trkpt lat="45.23003" lon="0.79947">
        <ele>243</ele>
        <time>2018-05-20T08:05:15.000Z</time>
      </trkpt>
      <trkpt lat="45.22998" lon="0.79963">
        <ele>240</ele>
        <time>2018-05-20T08:05:18.000Z</time>
      </trkpt>
      <trkpt lat="45.22994" lon="0.79978">
        <ele>238</ele>
        <time>2018-05-20T08:05:21.000Z</time>
      </trkpt>
      <trkpt lat="45.22993" lon="0.79991">
        <ele>236</ele>
        <time>2018-05-20T08:05:24.000Z</time>
      </trkpt>
      <trkpt lat="45.2299" lon="0.80006">
        <ele>238</ele>
        <time>2018-05-20T08:05:28.000Z</time>
      </trkpt>
      <trkpt lat="45.22985" lon="0.80021">
        <ele>241</ele>
        <time>2018-05-20T08:05:33.000Z</time>
      </trkpt>
      <trkpt lat="45.22982" lon="0.80035">
        <ele>246</ele>
        <time>2018-05-20T08:05:37.000Z</time>
      </trkpt>
      <trkpt lat="45.22981" lon="0.80048">
        <ele>244</ele>
        <time>2018-05-20T08:05:41.000Z</time>
      </trkpt>
      <trkpt lat="45.22981" lon="0.80062">
        <ele>241</ele>
        <time>2018-05-20T08:05:44.000Z</time>
      </trkpt>
      <trkpt lat="45.22982" lon="0.80077">
        <ele>242</ele>
        <time>2018-05-20T08:05:47.000Z</time>
      </trkpt>
      <trkpt lat="45.22981" lon="0.80094">
        <ele>240</ele>
        <time>2018-05-20T08:05:52.000Z</time>
      </trkpt>
      <trkpt lat="45.22981" lon="0.80113">
        <ele>244</ele>
        <time>2018-05-20T08:05:58.000Z</time>
      </trkpt>
      <trkpt lat="45.22979" lon="0.80131">
        <ele>245</ele>
        <time>2018-05-20T08:06:04.000Z</time>
      </trkpt>
      <trkpt lat="45.22978" lon="0.80145">
        <ele>239</ele>
        <time>2018-05-20T08:06:08.000Z</time>
      </trkpt>
      <trkpt lat="45.22977" lon="0.80165">
        <ele>234</ele>
        <time>2018-05-20T08:06:13.000Z</time>
      </trkpt>
      <trkpt lat="45.22975" lon="0.80183">
        <ele>234</ele>
        <time>2018-05-20T08:06:18.000Z</time>
      </trkpt>
      <trkpt lat="45.22974" lon="0.80203">
        <ele>235</ele>
        <time>2018-05-20T08:06:23.000Z</time>
      </trkpt>
      <trkpt lat="45.22973" lon="0.80217">
        <ele>234</ele>
        <time>2018-05-20T08:06:27.000Z</time>
      </trkpt>
      <trkpt lat="45.22971" lon="0.80232">
        <ele>238</ele>
        <time>2018-05-20T08:06:31.000Z</time>
      </trkpt>
      <trkpt lat="45.22965" lon="0.80253">
        <ele>237</ele>
        <time>2018-05-20T08:06:36.000Z</time>
      </trkpt>
      <trkpt lat="45.22959" lon="0.80271">
        <ele>240</ele>
        <time>2018-05-20T08:06:41.000Z</time>
      </trkpt>
      <trkpt lat="45.22953" lon="0.80289">
        <ele>239</ele>
        <time>2018-05-20T08:06:46.000Z</time>
      </trkpt>
      <trkpt lat="45.22945" lon="0.80305">
        <ele>240</ele>
        <time>2018-05-20T08:06:51.000Z</time>
      </trkpt>
      <trkpt lat="45.22941" lon="0.80316">
        <ele>241</ele>
        <time>2018-05-20T08:06:55.000Z</time>
      </trkpt>
      <trkpt lat="45.22934" lon="0.8033">
        <ele>240</ele>
        <time>2018-05-20T08:06:59.000Z</time>
      </trkpt>
      <trkpt lat="45.22929" lon="0.80341">
        <ele>238</ele>
        <time>2018-05-20T08:07:02.000Z</time>
      </trkpt>
      <trkpt lat="45.22924" lon="0.80353">
        <ele>238</ele>
        <time>2018-05-20T08:07:05.000Z</time>
      </trkpt>
      <trkpt lat="45.2292" lon="0.80367">
        <ele>235</ele>
        <time>2018-05-20T08:07:09.000Z</time>
      </trkpt>
      <trkpt lat="45.22915" lon="0.8038">
        <ele>236</ele>
        <time>2018-05-20T08:07:13.000Z</time>
      </trkpt>
      <trkpt lat="45.22909" lon="0.8039">
        <ele>236</ele>
        <time>2018-05-20T08:07:16.000Z</time>
      </trkpt>
      <trkpt lat="45.22904" lon="0.80405">
        <ele>235</ele>
        <time>2018-05-20T08:07:20.000Z</time>
      </trkpt>
      <trkpt lat="45.22899" lon="0.80417">
        <ele>237</ele>
        <time>2018-05-20T08:07:23.000Z</time>
      </trkpt>
      <trkpt lat="45.22893" lon="0.80429">
        <ele>236</ele>
        <time>2018-05-20T08:07:27.000Z</time>
      </trkpt>
      <trkpt lat="45.22888" lon="0.8044">
        <ele>237</ele>
        <time>2018-05-20T08:07:30.000Z</time>
      </trkpt>
      <trkpt lat="45.22883" lon="0.80454">
        <ele>237</ele>
        <time>2018-05-20T08:07:33.000Z</time>
      </trkpt>
      <trkpt lat="45.22879" lon="0.80466">
        <ele>236</ele>
        <time>2018-05-20T08:07:36.000Z</time>
      </trkpt>
      <trkpt lat="45.22876" lon="0.80481">
        <ele>230</ele>
        <time>2018-05-20T08:07:40.000Z</time>
      </trkpt>
      <trkpt lat="45.22869" lon="0.80497">
        <ele>230</ele>
        <time>2018-05-20T08:07:46.000Z</time>
      </trkpt>
      <trkpt lat="45.22863" lon="0.80508">
        <ele>227</ele>
        <time>2018-05-20T08:07:49.000Z</time>
      </trkpt>
      <trkpt lat="45.22852" lon="0.80522">
        <ele>209</ele>
        <time>2018-05-20T08:07:53.000Z</time>
      </trkpt>
      <trkpt lat="45.22845" lon="0.80536">
        <ele>218</ele>
        <time>2018-05-20T08:07:56.000Z</time>
      </trkpt>
      <trkpt lat="45.22834" lon="0.80551">
        <ele>222</ele>
        <time>2018-05-20T08:07:59.000Z</time>
      </trkpt>
      <trkpt lat="45.22826" lon="0.80565">
        <ele>222</ele>
        <time>2018-05-20T08:08:02.000Z</time>
      </trkpt>
      <trkpt lat="45.22821" lon="0.80577">
        <ele>222</ele>
        <time>2018-05-20T08:08:04.000Z</time>
      </trkpt>
      <trkpt lat="45.22811" lon="0.8059">
        <ele>224</ele>
        <time>2018-05-20T08:08:06.000Z</time>
      </trkpt>
      <trkpt lat="45.22802" lon="0.80601">
        <ele>226</ele>
        <time>2018-05-20T08:08:08.000Z</time>
      </trkpt>
      <trkpt lat="45.22795" lon="0.80615">
        <ele>228</ele>
        <time>2018-05-20T08:08:10.000Z</time>
      </trkpt>
      <trkpt lat="45.22788" lon="0.80626">
        <ele>227</ele>
        <time>2018-05-20T08:08:12.000Z</time>
      </trkpt>
      <trkpt lat="45.2278" lon="0.80632">
        <ele>225</ele>
        <time>2018-05-20T08:08:14.000Z</time>
      </trkpt>
      <trkpt lat="45.22766" lon="0.80645">
        <ele>225</ele>
        <time>2018-05-20T08:08:17.000Z</time>
      </trkpt>
      <trkpt lat="45.22756" lon="0.80648">
        <ele>222</ele>
        <time>2018-05-20T08:08:19.000Z</time>
      </trkpt>
      <trkpt lat="45.22744" lon="0.80652">
        <ele>223</ele>
        <time>2018-05-20T08:08:22.000Z</time>
      </trkpt>
      <trkpt lat="45.22733" lon="0.8066">
        <ele>223</ele>
        <time>2018-05-20T08:08:24.000Z</time>
      </trkpt>
      <trkpt lat="45.22722" lon="0.80665">
        <ele>219</ele>
        <time>2018-05-20T08:08:26.000Z</time>
      </trkpt>
      <trkpt lat="45.22709" lon="0.80671">
        <ele>217</ele>
        <time>2018-05-20T08:08:28.000Z</time>
      </trkpt>
      <trkpt lat="45.22698" lon="0.80675">
        <ele>219</ele>
        <time>2018-05-20T08:08:30.000Z</time>
      </trkpt>
      <trkpt lat="45.22685" lon="0.80679">
        <ele>218</ele>
        <time>2018-05-20T08:08:32.000Z</time>
      </trkpt>
      <trkpt lat="45.22675" lon="0.80684">
        <ele>216</ele>
        <time>2018-05-20T08:08:34.000Z</time>
      </trkpt>
      <trkpt lat="45.22662" lon="0.8069">
        <ele>214</ele>
        <time>2018-05-20T08:08:36.000Z</time>
      </trkpt>
      <trkpt lat="45.22651" lon="0.80694">
        <ele>214</ele>
        <time>2018-05-20T08:08:38.000Z</time>
      </trkpt>
      <trkpt lat="45.22639" lon="0.80699">
        <ele>212</ele>
        <time>2018-05-20T08:08:40.000Z</time>
      </trkpt>
      <trkpt lat="45.22627" lon="0.80703">
        <ele>210</ele>
        <time>2018-05-20T08:08:42.000Z</time>
      </trkpt>
      <trkpt lat="45.22615" lon="0.80706">
        <ele>209</ele>
        <time>2018-05-20T08:08:44.000Z</time>
      </trkpt>
      <trkpt lat="45.22604" lon="0.8071">
        <ele>209</ele>
        <time>2018-05-20T08:08:46.000Z</time>
      </trkpt>
      <trkpt lat="45.22592" lon="0.80712">
        <ele>208</ele>
        <time>2018-05-20T08:08:48.000Z</time>
      </trkpt>
      <trkpt lat="45.22574" lon="0.80712">
        <ele>207</ele>
        <time>2018-05-20T08:08:51.000Z</time>
      </trkpt>
      <trkpt lat="45.22562" lon="0.80711">
        <ele>206</ele>
        <time>2018-05-20T08:08:53.000Z</time>
      </trkpt>
      <trkpt lat="45.22551" lon="0.8071">
        <ele>205</ele>
        <time>2018-05-20T08:08:55.000Z</time>
      </trkpt>
      <trkpt lat="45.22535" lon="0.80705">
        <ele>206</ele>
        <time>2018-05-20T08:08:58.000Z</time>
      </trkpt>
      <trkpt lat="45.22519" lon="0.80701">
        <ele>207</ele>
        <time>2018-05-20T08:09:01.000Z</time>
      </trkpt>
      <trkpt lat="45.22505" lon="0.80697">
        <ele>203</ele>
        <time>2018-05-20T08:09:04.000Z</time>
      </trkpt>
      <trkpt lat="45.22488" lon="0.80692">
        <ele>201</ele>
        <time>2018-05-20T08:09:08.000Z</time>
      </trkpt>
      <trkpt lat="45.22476" lon="0.80687">
        <ele>200</ele>
        <time>2018-05-20T08:09:11.000Z</time>
      </trkpt>
      <trkpt lat="45.22465" lon="0.80681">
        <ele>198</ele>
        <time>2018-05-20T08:09:14.000Z</time>
      </trkpt>
      <trkpt lat="45.22453" lon="0.80675">
        <ele>197</ele>
        <time>2018-05-20T08:09:17.000Z</time>
      </trkpt>
      <trkpt lat="45.22443" lon="0.80667">
        <ele>195</ele>
        <time>2018-05-20T08:09:20.000Z</time>
      </trkpt>
      <trkpt lat="45.22434" lon="0.80662">
        <ele>195</ele>
        <time>2018-05-20T08:09:22.000Z</time>
      </trkpt>
      <trkpt lat="45.22422" lon="0.80655">
        <ele>194</ele>
        <time>2018-05-20T08:09:25.000Z</time>
      </trkpt>
      <trkpt lat="45.22411" lon="0.80651">
        <ele>193</ele>
        <time>2018-05-20T08:09:28.000Z</time>
      </trkpt>
      <trkpt lat="45.22401" lon="0.8065">
        <ele>191</ele>
        <time>2018-05-20T08:09:32.000Z</time>
      </trkpt>
      <trkpt lat="45.22392" lon="0.80642">
        <ele>189</ele>
        <time>2018-05-20T08:26:10.000Z</time>
      </trkpt>
      <trkpt lat="45.22381" lon="0.80646">
        <ele>190</ele>
        <time>2018-05-20T08:31:50.000Z</time>
      </trkpt>
      <trkpt lat="45.22372" lon="0.80645">
        <ele>188</ele>
        <time>2018-05-20T08:31:53.000Z</time>
      </trkpt>
      <trkpt lat="45.22361" lon="0.80646">
        <ele>186</ele>
        <time>2018-05-20T08:31:56.000Z</time>
      </trkpt>
      <trkpt lat="45.22348" lon="0.80647">
        <ele>183</ele>
        <time>2018-05-20T08:31:59.000Z</time>
      </trkpt>
      <trkpt lat="45.22335" lon="0.8065">
        <ele>180</ele>
        <time>2018-05-20T08:32:02.000Z</time>
      </trkpt>
      <trkpt lat="45.22326" lon="0.80652">
        <ele>185</ele>
        <time>2018-05-20T08:32:04.000Z</time>
      </trkpt>
      <trkpt lat="45.22312" lon="0.80655">
        <ele>183</ele>
        <time>2018-05-20T08:32:07.000Z</time>
      </trkpt>
      <trkpt lat="45.22302" lon="0.80662">
        <ele>179</ele>
        <time>2018-05-20T08:32:09.000Z</time>
      </trkpt>
      <trkpt lat="45.22294" lon="0.80669">
        <ele>181</ele>
        <time>2018-05-20T08:32:11.000Z</time>
      </trkpt>
      <trkpt lat="45.22284" lon="0.80676">
        <ele>175</ele>
        <time>2018-05-20T08:32:14.000Z</time>
      </trkpt>
      <trkpt lat="45.22278" lon="0.80694">
        <ele>172</ele>
        <time>2018-05-20T08:32:17.000Z</time>
      </trkpt>
      <trkpt lat="45.22274" lon="0.80711">
        <ele>170</ele>
        <time>2018-05-20T08:32:20.000Z</time>
      </trkpt>
      <trkpt lat="45.22266" lon="0.80719">
        <ele>170</ele>
        <time>2018-05-20T08:32:22.000Z</time>
      </trkpt>
      <trkpt lat="45.22257" lon="0.80723">
        <ele>168</ele>
        <time>2018-05-20T08:32:24.000Z</time>
      </trkpt>
      <trkpt lat="45.22247" lon="0.80722">
        <ele>171</ele>
        <time>2018-05-20T08:32:28.000Z</time>
      </trkpt>
      <trkpt lat="45.22237" lon="0.80724">
        <ele>171</ele>
        <time>2018-05-20T08:32:35.000Z</time>
      </trkpt>
      <trkpt lat="45.22228" lon="0.80726">
        <ele>171</ele>
        <time>2018-05-20T08:32:38.000Z</time>
      </trkpt>
      <trkpt lat="45.22216" lon="0.80727">
        <ele>171</ele>
        <time>2018-05-20T08:32:41.000Z</time>
      </trkpt>
      <trkpt lat="45.22205" lon="0.80728">
        <ele>172</ele>
        <time>2018-05-20T08:32:44.000Z</time>
      </trkpt>
      <trkpt lat="45.22192" lon="0.80729">
        <ele>171</ele>
        <time>2018-05-20T08:32:47.000Z</time>
      </trkpt>
      <trkpt lat="45.22175" lon="0.80736">
        <ele>169</ele>
        <time>2018-05-20T08:32:51.000Z</time>
      </trkpt>
      <trkpt lat="45.22162" lon="0.80743">
        <ele>168</ele>
        <time>2018-05-20T08:32:54.000Z</time>
      </trkpt>
      <trkpt lat="45.22147" lon="0.80754">
        <ele>170</ele>
        <time>2018-05-20T08:32:58.000Z</time>
      </trkpt>
      <trkpt lat="45.22138" lon="0.8076">
        <ele>170</ele>
        <time>2018-05-20T08:33:00.000Z</time>
      </trkpt>
      <trkpt lat="45.22126" lon="0.80768">
        <ele>171</ele>
        <time>2018-05-20T08:33:03.000Z</time>
      </trkpt>
      <trkpt lat="45.22118" lon="0.80773">
        <ele>170</ele>
        <time>2018-05-20T08:33:06.000Z</time>
      </trkpt>
      <trkpt lat="45.22105" lon="0.80782">
        <ele>174</ele>
        <time>2018-05-20T08:33:10.000Z</time>
      </trkpt>
      <trkpt lat="45.22096" lon="0.8079">
        <ele>173</ele>
        <time>2018-05-20T08:33:13.000Z</time>
      </trkpt>
      <trkpt lat="45.22088" lon="0.80795">
        <ele>173</ele>
        <time>2018-05-20T08:33:16.000Z</time>
      </trkpt>
      <trkpt lat="45.22078" lon="0.80802">
        <ele>172</ele>
        <time>2018-05-20T08:33:20.000Z</time>
      </trkpt>
      <trkpt lat="45.22069" lon="0.80809">
        <ele>170</ele>
        <time>2018-05-20T08:33:23.000Z</time>
      </trkpt>
      <trkpt lat="45.2206" lon="0.80816">
        <ele>170</ele>
        <time>2018-05-20T08:33:26.000Z</time>
      </trkpt>
      <trkpt lat="45.22051" lon="0.80824">
        <ele>168</ele>
        <time>2018-05-20T08:33:29.000Z</time>
      </trkpt>
      <trkpt lat="45.22039" lon="0.80831">
        <ele>166</ele>
        <time>2018-05-20T08:33:32.000Z</time>
      </trkpt>
      <trkpt lat="45.22029" lon="0.80838">
        <ele>168</ele>
        <time>2018-05-20T08:33:35.000Z</time>
      </trkpt>
      <trkpt lat="45.22017" lon="0.80845">
        <ele>173</ele>
        <time>2018-05-20T08:33:38.000Z</time>
      </trkpt>
      <trkpt lat="45.22005" lon="0.80853">
        <ele>173</ele>
        <time>2018-05-20T08:33:41.000Z</time>
      </trkpt>
      <trkpt lat="45.21994" lon="0.8086">
        <ele>171</ele>
        <time>2018-05-20T08:33:44.000Z</time>
      </trkpt>
      <trkpt lat="45.21982" lon="0.8087">
        <ele>170</ele>
        <time>2018-05-20T08:33:47.000Z</time>
      </trkpt>
      <trkpt lat="45.21974" lon="0.80878">
        <ele>177</ele>
        <time>2018-05-20T08:33:49.000Z</time>
      </trkpt>
      <trkpt lat="45.21964" lon="0.8089">
        <ele>170</ele>
        <time>2018-05-20T08:33:52.000Z</time>
      </trkpt>
      <trkpt lat="45.21951" lon="0.80896">
        <ele>163</ele>
        <time>2018-05-20T08:33:56.000Z</time>
      </trkpt>
      <trkpt lat="45.2193" lon="0.8091">
        <ele>159</ele>
        <time>2018-05-20T08:34:01.000Z</time>
      </trkpt>
      <trkpt lat="45.2192" lon="0.80915">
        <ele>159</ele>
        <time>2018-05-20T08:34:03.000Z</time>
      </trkpt>
      <trkpt lat="45.21908" lon="0.80923">
        <ele>165</ele>
        <time>2018-05-20T08:34:06.000Z</time>
      </trkpt>
      <trkpt lat="45.21896" lon="0.80928">
        <ele>170</ele>
        <time>2018-05-20T08:34:09.000Z</time>
      </trkpt>
      <trkpt lat="45.21884" lon="0.80926">
        <ele>166</ele>
        <time>2018-05-20T08:34:12.000Z</time>
      </trkpt>
      <trkpt lat="45.21874" lon="0.80928">
        <ele>165</ele>
        <time>2018-05-20T08:34:16.000Z</time>
      </trkpt>
      <trkpt lat="45.21865" lon="0.80932">
        <ele>165</ele>
        <time>2018-05-20T08:34:19.000Z</time>
      </trkpt>
      <trkpt lat="45.21853" lon="0.80935">
        <ele>164</ele>
        <time>2018-05-20T08:34:22.000Z</time>
      </trkpt>
      <trkpt lat="45.21844" lon="0.80939">
        <ele>165</ele>
        <time>2018-05-20T08:34:24.000Z</time>
      </trkpt>
      <trkpt lat="45.21832" lon="0.80941">
        <ele>163</ele>
        <time>2018-05-20T08:34:27.000Z</time>
      </trkpt>
      <trkpt lat="45.21822" lon="0.80944">
        <ele>163</ele>
        <time>2018-05-20T08:34:29.000Z</time>
      </trkpt>
      <trkpt lat="45.21811" lon="0.80949">
        <ele>161</ele>
        <time>2018-05-20T08:34:32.000Z</time>
      </trkpt>
      <trkpt lat="45.21793" lon="0.80956">
        <ele>161</ele>
        <time>2018-05-20T08:34:37.000Z</time>
      </trkpt>
      <trkpt lat="45.21781" lon="0.80959">
        <ele>161</ele>
        <time>2018-05-20T08:34:40.000Z</time>
      </trkpt>
      <trkpt lat="45.2177" lon="0.80962">
        <ele>160</ele>
        <time>2018-05-20T08:34:43.000Z</time>
      </trkpt>
      <trkpt lat="45.21759" lon="0.80966">
        <ele>159</ele>
        <time>2018-05-20T08:34:46.000Z</time>
      </trkpt>
      <trkpt lat="45.21747" lon="0.80972">
        <ele>166</ele>
        <time>2018-05-20T08:34:49.000Z</time>
      </trkpt>
      <trkpt lat="45.21736" lon="0.80978">
        <ele>159</ele>
        <time>2018-05-20T08:34:52.000Z</time>
      </trkpt>
      <trkpt lat="45.21724" lon="0.80981">
        <ele>156</ele>
        <time>2018-05-20T08:34:55.000Z</time>
      </trkpt>
      <trkpt lat="45.21715" lon="0.80984">
        <ele>156</ele>
        <time>2018-05-20T08:34:57.000Z</time>
      </trkpt>
      <trkpt lat="45.21703" lon="0.80987">
        <ele>155</ele>
        <time>2018-05-20T08:35:00.000Z</time>
      </trkpt>
      <trkpt lat="45.21694" lon="0.80988">
        <ele>156</ele>
        <time>2018-05-20T08:35:02.000Z</time>
      </trkpt>
      <trkpt lat="45.21681" lon="0.8099">
        <ele>156</ele>
        <time>2018-05-20T08:35:05.000Z</time>
      </trkpt>
      <trkpt lat="45.21671" lon="0.80991">
        <ele>153</ele>
        <time>2018-05-20T08:35:08.000Z</time>
      </trkpt>
      <trkpt lat="45.2166" lon="0.80991">
        <ele>155</ele>
        <time>2018-05-20T08:35:11.000Z</time>
      </trkpt>
      <trkpt lat="45.21648" lon="0.80994">
        <ele>151</ele>
        <time>2018-05-20T08:35:14.000Z</time>
      </trkpt>
      <trkpt lat="45.21637" lon="0.80998">
        <ele>154</ele>
        <time>2018-05-20T08:35:17.000Z</time>
      </trkpt>
      <trkpt lat="45.21625" lon="0.81003">
        <ele>153</ele>
        <time>2018-05-20T08:35:20.000Z</time>
      </trkpt>
      <trkpt lat="45.21615" lon="0.81009">
        <ele>152</ele>
        <time>2018-05-20T08:35:23.000Z</time>
      </trkpt>
      <trkpt lat="45.21605" lon="0.81014">
        <ele>151</ele>
        <time>2018-05-20T08:35:26.000Z</time>
      </trkpt>
      <trkpt lat="45.21596" lon="0.8102">
        <ele>152</ele>
        <time>2018-05-20T08:35:29.000Z</time>
      </trkpt>
      <trkpt lat="45.21585" lon="0.81023">
        <ele>152</ele>
        <time>2018-05-20T08:35:33.000Z</time>
      </trkpt>
      <trkpt lat="45.21574" lon="0.81028">
        <ele>151</ele>
        <time>2018-05-20T08:35:36.000Z</time>
      </trkpt>
      <trkpt lat="45.21562" lon="0.81032">
        <ele>152</ele>
        <time>2018-05-20T08:35:38.000Z</time>
      </trkpt>
      <trkpt lat="45.21553" lon="0.81034">
        <ele>155</ele>
        <time>2018-05-20T08:35:40.000Z</time>
      </trkpt>
      <trkpt lat="45.21542" lon="0.81041">
        <ele>155</ele>
        <time>2018-05-20T08:35:42.000Z</time>
      </trkpt>
      <trkpt lat="45.21531" lon="0.81046">
        <ele>157</ele>
        <time>2018-05-20T08:35:44.000Z</time>
      </trkpt>
      <trkpt lat="45.21521" lon="0.81051">
        <ele>155</ele>
        <time>2018-05-20T08:35:46.000Z</time>
      </trkpt>
      <trkpt lat="45.2151" lon="0.81059">
        <ele>155</ele>
        <time>2018-05-20T08:35:48.000Z</time>
      </trkpt>
      <trkpt lat="45.215" lon="0.8106">
        <ele>157</ele>
        <time>2018-05-20T08:35:50.000Z</time>
      </trkpt>
      <trkpt lat="45.21489" lon="0.81059">
        <ele>156</ele>
        <time>2018-05-20T08:35:52.000Z</time>
      </trkpt>
      <trkpt lat="45.21479" lon="0.81061">
        <ele>155</ele>
        <time>2018-05-20T08:35:54.000Z</time>
      </trkpt>
      <trkpt lat="45.21468" lon="0.81064">
        <ele>154</ele>
        <time>2018-05-20T08:35:56.000Z</time>
      </trkpt>
      <trkpt lat="45.21453" lon="0.81072">
        <ele>151</ele>
        <time>2018-05-20T08:35:59.000Z</time>
      </trkpt>
      <trkpt lat="45.21443" lon="0.81077">
        <ele>151</ele>
        <time>2018-05-20T08:36:01.000Z</time>
      </trkpt>
      <trkpt lat="45.21433" lon="0.81079">
        <ele>152</ele>
        <time>2018-05-20T08:36:03.000Z</time>
      </trkpt>
      <trkpt lat="45.21417" lon="0.81088">
        <ele>154</ele>
        <time>2018-05-20T08:36:06.000Z</time>
      </trkpt>
      <trkpt lat="45.21406" lon="0.81089">
        <ele>152</ele>
        <time>2018-05-20T08:36:09.000Z</time>
      </trkpt>
      <trkpt lat="45.21391" lon="0.81094">
        <ele>151</ele>
        <time>2018-05-20T08:36:13.000Z</time>
      </trkpt>
      <trkpt lat="45.21377" lon="0.81093">
        <ele>152</ele>
        <time>2018-05-20T08:36:16.000Z</time>
      </trkpt>
      <trkpt lat="45.21368" lon="0.81094">
        <ele>153</ele>
        <time>2018-05-20T08:36:18.000Z</time>
      </trkpt>
      <trkpt lat="45.21354" lon="0.81094">
        <ele>152</ele>
        <time>2018-05-20T08:36:21.000Z</time>
      </trkpt>
      <trkpt lat="45.21344" lon="0.81094">
        <ele>154</ele>
        <time>2018-05-20T08:36:23.000Z</time>
      </trkpt>
      <trkpt lat="45.21331" lon="0.81093">
        <ele>150</ele>
        <time>2018-05-20T08:36:26.000Z</time>
      </trkpt>
      <trkpt lat="45.21321" lon="0.81092">
        <ele>147</ele>
        <time>2018-05-20T08:36:28.000Z</time>
      </trkpt>
      <trkpt lat="45.21309" lon="0.81095">
        <ele>147</ele>
        <time>2018-05-20T08:36:31.000Z</time>
      </trkpt>
      <trkpt lat="45.21298" lon="0.81096">
        <ele>147</ele>
        <time>2018-05-20T08:36:34.000Z</time>
      </trkpt>
      <trkpt lat="45.21288" lon="0.81098">
        <ele>147</ele>
        <time>2018-05-20T08:36:36.000Z</time>
      </trkpt>
      <trkpt lat="45.21275" lon="0.81098">
        <ele>148</ele>
        <time>2018-05-20T08:36:39.000Z</time>
      </trkpt>
      <trkpt lat="45.2126" lon="0.811">
        <ele>150</ele>
        <time>2018-05-20T08:36:43.000Z</time>
      </trkpt>
      <trkpt lat="45.21249" lon="0.81099">
        <ele>150</ele>
        <time>2018-05-20T08:36:46.000Z</time>
      </trkpt>
      <trkpt lat="45.2124" lon="0.81097">
        <ele>146</ele>
        <time>2018-05-20T08:36:48.000Z</time>
      </trkpt>
      <trkpt lat="45.2123" lon="0.81091">
        <ele>147</ele>
        <time>2018-05-20T08:36:50.000Z</time>
      </trkpt>
      <trkpt lat="45.2122" lon="0.81088">
        <ele>149</ele>
        <time>2018-05-20T08:36:52.000Z</time>
      </trkpt>
      <trkpt lat="45.21208" lon="0.81086">
        <ele>148</ele>
        <time>2018-05-20T08:36:54.000Z</time>
      </trkpt>
      <trkpt lat="45.21194" lon="0.81083">
        <ele>148</ele>
        <time>2018-05-20T08:36:56.000Z</time>
      </trkpt>
      <trkpt lat="45.21169" lon="0.8108">
        <ele>147</ele>
        <time>2018-05-20T08:37:00.000Z</time>
      </trkpt>
      <trkpt lat="45.21156" lon="0.81076">
        <ele>147</ele>
        <time>2018-05-20T08:37:02.000Z</time>
      </trkpt>
      <trkpt lat="45.21143" lon="0.8107">
        <ele>144</ele>
        <time>2018-05-20T08:37:04.000Z</time>
      </trkpt>
      <trkpt lat="45.21132" lon="0.81068">
        <ele>145</ele>
        <time>2018-05-20T08:37:06.000Z</time>
      </trkpt>
      <trkpt lat="45.21121" lon="0.81067">
        <ele>145</ele>
        <time>2018-05-20T08:37:08.000Z</time>
      </trkpt>
      <trkpt lat="45.2111" lon="0.81064">
        <ele>143</ele>
        <time>2018-05-20T08:37:10.000Z</time>
      </trkpt>
      <trkpt lat="45.21099" lon="0.81061">
        <ele>143</ele>
        <time>2018-05-20T08:37:12.000Z</time>
      </trkpt>
      <trkpt lat="45.21088" lon="0.81061">
        <ele>143</ele>
        <time>2018-05-20T08:37:14.000Z</time>
      </trkpt>
      <trkpt lat="45.21078" lon="0.81063">
        <ele>143</ele>
        <time>2018-05-20T08:37:16.000Z</time>
      </trkpt>
      <trkpt lat="45.21066" lon="0.81062">
        <ele>141</ele>
        <time>2018-05-20T08:37:19.000Z</time>
      </trkpt>
      <trkpt lat="45.21054" lon="0.81063">
        <ele>142</ele>
        <time>2018-05-20T08:37:22.000Z</time>
      </trkpt>
      <trkpt lat="45.21043" lon="0.81062">
        <ele>142</ele>
        <time>2018-05-20T08:37:25.000Z</time>
      </trkpt>
      <trkpt lat="45.21032" lon="0.81064">
        <ele>144</ele>
        <time>2018-05-20T08:37:28.000Z</time>
      </trkpt>
      <trkpt lat="45.21023" lon="0.81065">
        <ele>147</ele>
        <time>2018-05-20T08:37:31.000Z</time>
      </trkpt>
      <trkpt lat="45.21013" lon="0.81065">
        <ele>151</ele>
        <time>2018-05-20T08:37:34.000Z</time>
      </trkpt>
      <trkpt lat="45.21001" lon="0.81065">
        <ele>151</ele>
        <time>2018-05-20T08:37:37.000Z</time>
      </trkpt>
      <trkpt lat="45.20984" lon="0.81065">
        <ele>150</ele>
        <time>2018-05-20T08:37:40.000Z</time>
      </trkpt>
      <trkpt lat="45.20974" lon="0.81064">
        <ele>152</ele>
        <time>2018-05-20T08:37:42.000Z</time>
      </trkpt>
      <trkpt lat="45.20964" lon="0.81062">
        <ele>152</ele>
        <time>2018-05-20T08:37:47.000Z</time>
      </trkpt>
      <trkpt lat="45.20955" lon="0.81064">
        <ele>154</ele>
        <time>2018-05-20T08:37:52.000Z</time>
      </trkpt>
      <trkpt lat="45.20945" lon="0.81063">
        <ele>156</ele>
        <time>2018-05-20T08:37:57.000Z</time>
      </trkpt>
      <trkpt lat="45.20935" lon="0.81064">
        <ele>157</ele>
        <time>2018-05-20T08:38:03.000Z</time>
      </trkpt>
      <trkpt lat="45.20924" lon="0.81065">
        <ele>159</ele>
        <time>2018-05-20T08:38:08.000Z</time>
      </trkpt>
      <trkpt lat="45.20915" lon="0.81063">
        <ele>161</ele>
        <time>2018-05-20T08:38:12.000Z</time>
      </trkpt>
      <trkpt lat="45.20904" lon="0.81064">
        <ele>163</ele>
        <time>2018-05-20T08:38:17.000Z</time>
      </trkpt>
      <trkpt lat="45.20893" lon="0.81062">
        <ele>163</ele>
        <time>2018-05-20T08:38:22.000Z</time>
      </trkpt>
      <trkpt lat="45.20883" lon="0.81064">
        <ele>161</ele>
        <time>2018-05-20T08:38:26.000Z</time>
      </trkpt>
      <trkpt lat="45.20873" lon="0.81065">
        <ele>164</ele>
        <time>2018-05-20T08:38:31.000Z</time>
      </trkpt>
      <trkpt lat="45.20863" lon="0.81064">
        <ele>165</ele>
        <time>2018-05-20T08:38:36.000Z</time>
      </trkpt>
      <trkpt lat="45.20852" lon="0.81068">
        <ele>168</ele>
        <time>2018-05-20T08:38:40.000Z</time>
      </trkpt>
      <trkpt lat="45.20842" lon="0.81068">
        <ele>170</ele>
        <time>2018-05-20T08:38:44.000Z</time>
      </trkpt>
      <trkpt lat="45.20831" lon="0.81068">
        <ele>168</ele>
        <time>2018-05-20T08:38:49.000Z</time>
      </trkpt>
      <trkpt lat="45.20822" lon="0.81069">
        <ele>168</ele>
        <time>2018-05-20T08:38:53.000Z</time>
      </trkpt>
      <trkpt lat="45.20812" lon="0.81063">
        <ele>167</ele>
        <time>2018-05-20T08:38:57.000Z</time>
      </trkpt>
      <trkpt lat="45.20805" lon="0.81056">
        <ele>164</ele>
        <time>2018-05-20T08:39:00.000Z</time>
      </trkpt>
      <trkpt lat="45.20798" lon="0.81046">
        <ele>165</ele>
        <time>2018-05-20T08:39:04.000Z</time>
      </trkpt>
      <trkpt lat="45.20792" lon="0.81033">
        <ele>165</ele>
        <time>2018-05-20T08:39:09.000Z</time>
      </trkpt>
      <trkpt lat="45.20787" lon="0.8102">
        <ele>163</ele>
        <time>2018-05-20T08:39:12.000Z</time>
      </trkpt>
      <trkpt lat="45.20781" lon="0.81003">
        <ele>163</ele>
        <time>2018-05-20T08:39:15.000Z</time>
      </trkpt>
      <trkpt lat="45.2078" lon="0.80978">
        <ele>163</ele>
        <time>2018-05-20T08:39:18.000Z</time>
      </trkpt>
      <trkpt lat="45.20778" lon="0.80961">
        <ele>164</ele>
        <time>2018-05-20T08:39:20.000Z</time>
      </trkpt>
      <trkpt lat="45.20776" lon="0.80942">
        <ele>164</ele>
        <time>2018-05-20T08:39:22.000Z</time>
      </trkpt>
      <trkpt lat="45.20771" lon="0.80922">
        <ele>161</ele>
        <time>2018-05-20T08:39:24.000Z</time>
      </trkpt>
      <trkpt lat="45.20758" lon="0.80902">
        <ele>160</ele>
        <time>2018-05-20T08:39:26.000Z</time>
      </trkpt>
      <trkpt lat="45.20746" lon="0.80882">
        <ele>159</ele>
        <time>2018-05-20T08:39:28.000Z</time>
      </trkpt>
      <trkpt lat="45.20735" lon="0.80859">
        <ele>159</ele>
        <time>2018-05-20T08:39:30.000Z</time>
      </trkpt>
      <trkpt lat="45.20726" lon="0.80834">
        <ele>158</ele>
        <time>2018-05-20T08:39:32.000Z</time>
      </trkpt>
      <trkpt lat="45.20723" lon="0.80809">
        <ele>156</ele>
        <time>2018-05-20T08:39:34.000Z</time>
      </trkpt>
      <trkpt lat="45.20714" lon="0.80791">
        <ele>156</ele>
        <time>2018-05-20T08:39:36.000Z</time>
      </trkpt>
      <trkpt lat="45.20701" lon="0.80776">
        <ele>156</ele>
        <time>2018-05-20T08:39:38.000Z</time>
      </trkpt>
      <trkpt lat="45.20692" lon="0.80771">
        <ele>155</ele>
        <time>2018-05-20T08:39:39.000Z</time>
      </trkpt>
      <trkpt lat="45.20675" lon="0.80769">
        <ele>154</ele>
        <time>2018-05-20T08:39:41.000Z</time>
      </trkpt>
      <trkpt lat="45.2065" lon="0.80773">
        <ele>151</ele>
        <time>2018-05-20T08:39:44.000Z</time>
      </trkpt>
      <trkpt lat="45.20631" lon="0.80778">
        <ele>150</ele>
        <time>2018-05-20T08:39:46.000Z</time>
      </trkpt>
      <trkpt lat="45.20614" lon="0.80783">
        <ele>150</ele>
        <time>2018-05-20T08:39:48.000Z</time>
      </trkpt>
      <trkpt lat="45.20591" lon="0.80789">
        <ele>148</ele>
        <time>2018-05-20T08:39:51.000Z</time>
      </trkpt>
      <trkpt lat="45.20575" lon="0.80791">
        <ele>144</ele>
        <time>2018-05-20T08:39:56.000Z</time>
      </trkpt>
      <trkpt lat="45.20565" lon="0.80782">
        <ele>146</ele>
        <time>2018-05-20T08:40:01.000Z</time>
      </trkpt>
      <trkpt lat="45.20556" lon="0.80756">
        <ele>148</ele>
        <time>2018-05-20T08:40:06.000Z</time>
      </trkpt>
      <trkpt lat="45.20551" lon="0.80744">
        <ele>147</ele>
        <time>2018-05-20T08:40:08.000Z</time>
      </trkpt>
      <trkpt lat="45.20547" lon="0.80729">
        <ele>147</ele>
        <time>2018-05-20T08:40:10.000Z</time>
      </trkpt>
      <trkpt lat="45.20539" lon="0.80712">
        <ele>149</ele>
        <time>2018-05-20T08:40:13.000Z</time>
      </trkpt>
      <trkpt lat="45.20534" lon="0.807">
        <ele>150</ele>
        <time>2018-05-20T08:40:15.000Z</time>
      </trkpt>
      <trkpt lat="45.20528" lon="0.80684">
        <ele>149</ele>
        <time>2018-05-20T08:40:18.000Z</time>
      </trkpt>
      <trkpt lat="45.2052" lon="0.80664">
        <ele>150</ele>
        <time>2018-05-20T08:40:22.000Z</time>
      </trkpt>
      <trkpt lat="45.20514" lon="0.80652">
        <ele>149</ele>
        <time>2018-05-20T08:40:24.000Z</time>
      </trkpt>
      <trkpt lat="45.20502" lon="0.80633">
        <ele>149</ele>
        <time>2018-05-20T08:40:28.000Z</time>
      </trkpt>
      <trkpt lat="45.20496" lon="0.80622">
        <ele>148</ele>
        <time>2018-05-20T08:40:30.000Z</time>
      </trkpt>
      <trkpt lat="45.20488" lon="0.8061">
        <ele>148</ele>
        <time>2018-05-20T08:40:32.000Z</time>
      </trkpt>
      <trkpt lat="45.20483" lon="0.806">
        <ele>147</ele>
        <time>2018-05-20T08:40:34.000Z</time>
      </trkpt>
      <trkpt lat="45.20476" lon="0.80583">
        <ele>146</ele>
        <time>2018-05-20T08:40:37.000Z</time>
      </trkpt>
      <trkpt lat="45.2047" lon="0.80572">
        <ele>146</ele>
        <time>2018-05-20T08:40:39.000Z</time>
      </trkpt>
      <trkpt lat="45.20461" lon="0.80554">
        <ele>147</ele>
        <time>2018-05-20T08:40:42.000Z</time>
      </trkpt>
      <trkpt lat="45.20456" lon="0.80542">
        <ele>146</ele>
        <time>2018-05-20T08:40:44.000Z</time>
      </trkpt>
      <trkpt lat="45.20452" lon="0.8053">
        <ele>147</ele>
        <time>2018-05-20T08:40:46.000Z</time>
      </trkpt>
      <trkpt lat="45.20445" lon="0.80512">
        <ele>148</ele>
        <time>2018-05-20T08:40:49.000Z</time>
      </trkpt>
      <trkpt lat="45.20436" lon="0.80492">
        <ele>147</ele>
        <time>2018-05-20T08:40:53.000Z</time>
      </trkpt>
      <trkpt lat="45.20432" lon="0.80479">
        <ele>148</ele>
        <time>2018-05-20T08:40:55.000Z</time>
      </trkpt>
      <trkpt lat="45.20427" lon="0.80463">
        <ele>148</ele>
        <time>2018-05-20T08:40:58.000Z</time>
      </trkpt>
      <trkpt lat="45.20421" lon="0.8045">
        <ele>147</ele>
        <time>2018-05-20T08:41:01.000Z</time>
      </trkpt>
      <trkpt lat="45.20416" lon="0.80432">
        <ele>146</ele>
        <time>2018-05-20T08:41:04.000Z</time>
      </trkpt>
      <trkpt lat="45.20412" lon="0.8042">
        <ele>146</ele>
        <time>2018-05-20T08:41:06.000Z</time>
      </trkpt>
      <trkpt lat="45.20409" lon="0.80407">
        <ele>184</ele>
        <time>2018-05-20T08:41:08.000Z</time>
      </trkpt>
      <trkpt lat="45.204" lon="0.80386">
        <ele>159</ele>
        <time>2018-05-20T08:41:12.000Z</time>
      </trkpt>
      <trkpt lat="45.20395" lon="0.80371">
        <ele>154</ele>
        <time>2018-05-20T08:41:15.000Z</time>
      </trkpt>
      <trkpt lat="45.2039" lon="0.80351">
        <ele>147</ele>
        <time>2018-05-20T08:41:19.000Z</time>
      </trkpt>
      <trkpt lat="45.20385" lon="0.80327">
        <ele>145</ele>
        <time>2018-05-20T08:41:23.000Z</time>
      </trkpt>
      <trkpt lat="45.20387" lon="0.80304">
        <ele>167</ele>
        <time>2018-05-20T08:41:27.000Z</time>
      </trkpt>
      <trkpt lat="45.2039" lon="0.80289">
        <ele>153</ele>
        <time>2018-05-20T08:41:30.000Z</time>
      </trkpt>
      <trkpt lat="45.20397" lon="0.80271">
        <ele>150</ele>
        <time>2018-05-20T08:41:34.000Z</time>
      </trkpt>
      <trkpt lat="45.20409" lon="0.80258">
        <ele>148</ele>
        <time>2018-05-20T08:41:38.000Z</time>
      </trkpt>
      <trkpt lat="45.20418" lon="0.80251">
        <ele>145</ele>
        <time>2018-05-20T08:41:41.000Z</time>
      </trkpt>
      <trkpt lat="45.20429" lon="0.80244">
        <ele>144</ele>
        <time>2018-05-20T08:41:44.000Z</time>
      </trkpt>
      <trkpt lat="45.20439" lon="0.80236">
        <ele>143</ele>
        <time>2018-05-20T08:41:47.000Z</time>
      </trkpt>
      <trkpt lat="45.20446" lon="0.80223">
        <ele>141</ele>
        <time>2018-05-20T08:41:50.000Z</time>
      </trkpt>
      <trkpt lat="45.2045" lon="0.80207">
        <ele>142</ele>
        <time>2018-05-20T08:41:53.000Z</time>
      </trkpt>
      <trkpt lat="45.20452" lon="0.8019">
        <ele>142</ele>
        <time>2018-05-20T08:41:56.000Z</time>
      </trkpt>
      <trkpt lat="45.20453" lon="0.80172">
        <ele>143</ele>
        <time>2018-05-20T08:41:59.000Z</time>
      </trkpt>
      <trkpt lat="45.20452" lon="0.80155">
        <ele>144</ele>
        <time>2018-05-20T08:42:02.000Z</time>
      </trkpt>
      <trkpt lat="45.20451" lon="0.80133">
        <ele>143</ele>
        <time>2018-05-20T08:42:06.000Z</time>
      </trkpt>
      <trkpt lat="45.20449" lon="0.8011">
        <ele>145</ele>
        <time>2018-05-20T08:42:10.000Z</time>
      </trkpt>
      <trkpt lat="45.20449" lon="0.8008">
        <ele>147</ele>
        <time>2018-05-20T08:42:15.000Z</time>
      </trkpt>
      <trkpt lat="45.20448" lon="0.80057">
        <ele>146</ele>
        <time>2018-05-20T08:42:19.000Z</time>
      </trkpt>
      <trkpt lat="45.20449" lon="0.80039">
        <ele>145</ele>
        <time>2018-05-20T08:42:22.000Z</time>
      </trkpt>
      <trkpt lat="45.20451" lon="0.80021">
        <ele>145</ele>
        <time>2018-05-20T08:42:25.000Z</time>
      </trkpt>
      <trkpt lat="45.20457" lon="0.79997">
        <ele>145</ele>
        <time>2018-05-20T08:42:29.000Z</time>
      </trkpt>
      <trkpt lat="45.2046" lon="0.79984">
        <ele>146</ele>
        <time>2018-05-20T08:42:31.000Z</time>
      </trkpt>
      <trkpt lat="45.20462" lon="0.79972">
        <ele>147</ele>
        <time>2018-05-20T08:42:33.000Z</time>
      </trkpt>
      <trkpt lat="45.20465" lon="0.79959">
        <ele>147</ele>
        <time>2018-05-20T08:42:35.000Z</time>
      </trkpt>
      <trkpt lat="45.20469" lon="0.79941">
        <ele>147</ele>
        <time>2018-05-20T08:42:38.000Z</time>
      </trkpt>
      <trkpt lat="45.2047" lon="0.79928">
        <ele>147</ele>
        <time>2018-05-20T08:42:40.000Z</time>
      </trkpt>
      <trkpt lat="45.20473" lon="0.79897">
        <ele>146</ele>
        <time>2018-05-20T08:42:45.000Z</time>
      </trkpt>
      <trkpt lat="45.20469" lon="0.79873">
        <ele>144</ele>
        <time>2018-05-20T08:42:49.000Z</time>
      </trkpt>
      <trkpt lat="45.20466" lon="0.79853">
        <ele>144</ele>
        <time>2018-05-20T08:42:52.000Z</time>
      </trkpt>
      <trkpt lat="45.20464" lon="0.7984">
        <ele>145</ele>
        <time>2018-05-20T08:42:54.000Z</time>
      </trkpt>
      <trkpt lat="45.20459" lon="0.7982">
        <ele>144</ele>
        <time>2018-05-20T08:42:57.000Z</time>
      </trkpt>
      <trkpt lat="45.20458" lon="0.79806">
        <ele>144</ele>
        <time>2018-05-20T08:42:59.000Z</time>
      </trkpt>
      <trkpt lat="45.20459" lon="0.79793">
        <ele>144</ele>
        <time>2018-05-20T08:43:01.000Z</time>
      </trkpt>
      <trkpt lat="45.20458" lon="0.79779">
        <ele>143</ele>
        <time>2018-05-20T08:43:03.000Z</time>
      </trkpt>
      <trkpt lat="45.2046" lon="0.79758">
        <ele>144</ele>
        <time>2018-05-20T08:43:06.000Z</time>
      </trkpt>
      <trkpt lat="45.20459" lon="0.79735">
        <ele>142</ele>
        <time>2018-05-20T08:43:10.000Z</time>
      </trkpt>
      <trkpt lat="45.20455" lon="0.79713">
        <ele>143</ele>
        <time>2018-05-20T08:43:14.000Z</time>
      </trkpt>
      <trkpt lat="45.20452" lon="0.79699">
        <ele>142</ele>
        <time>2018-05-20T08:43:17.000Z</time>
      </trkpt>
      <trkpt lat="45.20447" lon="0.79679">
        <ele>142</ele>
        <time>2018-05-20T08:43:21.000Z</time>
      </trkpt>
      <trkpt lat="45.20444" lon="0.79659">
        <ele>144</ele>
        <time>2018-05-20T08:43:25.000Z</time>
      </trkpt>
      <trkpt lat="45.20442" lon="0.79646">
        <ele>208</ele>
        <time>2018-05-20T08:43:28.000Z</time>
      </trkpt>
      <trkpt lat="45.20447" lon="0.79634">
        <ele>192</ele>
        <time>2018-05-20T08:43:31.000Z</time>
      </trkpt>
      <trkpt lat="45.20456" lon="0.79631">
        <ele>166</ele>
        <time>2018-05-20T08:43:34.000Z</time>
      </trkpt>
      <trkpt lat="45.20472" lon="0.79627">
        <ele>149</ele>
        <time>2018-05-20T08:43:38.000Z</time>
      </trkpt>
      <trkpt lat="45.20486" lon="0.79625">
        <ele>143</ele>
        <time>2018-05-20T08:43:42.000Z</time>
      </trkpt>
      <trkpt lat="45.20496" lon="0.79621">
        <ele>145</ele>
        <time>2018-05-20T08:43:45.000Z</time>
      </trkpt>
      <trkpt lat="45.20507" lon="0.79617">
        <ele>142</ele>
        <time>2018-05-20T08:43:49.000Z</time>
      </trkpt>
      <trkpt lat="45.20516" lon="0.79614">
        <ele>142</ele>
        <time>2018-05-20T08:43:52.000Z</time>
      </trkpt>
      <trkpt lat="45.20524" lon="0.796">
        <ele>143</ele>
        <time>2018-05-20T08:43:57.000Z</time>
      </trkpt>
      <trkpt lat="45.2052" lon="0.79582">
        <ele>144</ele>
        <time>2018-05-20T08:44:00.000Z</time>
      </trkpt>
      <trkpt lat="45.20515" lon="0.79561">
        <ele>145</ele>
        <time>2018-05-20T08:44:04.000Z</time>
      </trkpt>
      <trkpt lat="45.20512" lon="0.79547">
        <ele>144</ele>
        <time>2018-05-20T08:44:07.000Z</time>
      </trkpt>
      <trkpt lat="45.2051" lon="0.79533">
        <ele>144</ele>
        <time>2018-05-20T08:44:10.000Z</time>
      </trkpt>
      <trkpt lat="45.20507" lon="0.7952">
        <ele>146</ele>
        <time>2018-05-20T08:44:13.000Z</time>
      </trkpt>
      <trkpt lat="45.20503" lon="0.79503">
        <ele>145</ele>
        <time>2018-05-20T08:44:17.000Z</time>
      </trkpt>
      <trkpt lat="45.20499" lon="0.79485">
        <ele>145</ele>
        <time>2018-05-20T08:44:21.000Z</time>
      </trkpt>
      <trkpt lat="45.2051" lon="0.79473">
        <ele>144</ele>
        <time>2018-05-20T08:44:26.000Z</time>
      </trkpt>
      <trkpt lat="45.20522" lon="0.79469">
        <ele>140</ele>
        <time>2018-05-20T08:44:30.000Z</time>
      </trkpt>
      <trkpt lat="45.20531" lon="0.79465">
        <ele>140</ele>
        <time>2018-05-20T08:44:33.000Z</time>
      </trkpt>
      <trkpt lat="45.2054" lon="0.7946">
        <ele>140</ele>
        <time>2018-05-20T08:44:36.000Z</time>
      </trkpt>
      <trkpt lat="45.2055" lon="0.79456">
        <ele>192</ele>
        <time>2018-05-20T08:44:40.000Z</time>
      </trkpt>
      <trkpt lat="45.20561" lon="0.79451">
        <ele>154</ele>
        <time>2018-05-20T08:44:45.000Z</time>
      </trkpt>
      <trkpt lat="45.20571" lon="0.79444">
        <ele>147</ele>
        <time>2018-05-20T08:44:49.000Z</time>
      </trkpt>
      <trkpt lat="45.20583" lon="0.7944">
        <ele>147</ele>
        <time>2018-05-20T08:44:53.000Z</time>
      </trkpt>
      <trkpt lat="45.20594" lon="0.79434">
        <ele>146</ele>
        <time>2018-05-20T08:44:57.000Z</time>
      </trkpt>
      <trkpt lat="45.20604" lon="0.79428">
        <ele>145</ele>
        <time>2018-05-20T08:45:01.000Z</time>
      </trkpt>
      <trkpt lat="45.20615" lon="0.79419">
        <ele>144</ele>
        <time>2018-05-20T08:45:07.000Z</time>
      </trkpt>
      <trkpt lat="45.20614" lon="0.79397">
        <ele>147</ele>
        <time>2018-05-20T08:45:12.000Z</time>
      </trkpt>
      <trkpt lat="45.20614" lon="0.79377">
        <ele>146</ele>
        <time>2018-05-20T08:45:16.000Z</time>
      </trkpt>
      <trkpt lat="45.20615" lon="0.79362">
        <ele>146</ele>
        <time>2018-05-20T08:45:19.000Z</time>
      </trkpt>
      <trkpt lat="45.20615" lon="0.79342">
        <ele>147</ele>
        <time>2018-05-20T08:45:24.000Z</time>
      </trkpt>
      <trkpt lat="45.20614" lon="0.79326">
        <ele>147</ele>
        <time>2018-05-20T08:45:29.000Z</time>
      </trkpt>
      <trkpt lat="45.20616" lon="0.79309">
        <ele>144</ele>
        <time>2018-05-20T08:45:34.000Z</time>
      </trkpt>
      <trkpt lat="45.20614" lon="0.79293">
        <ele>214</ele>
        <time>2018-05-20T08:45:38.000Z</time>
      </trkpt>
      <trkpt lat="45.20614" lon="0.79279">
        <ele>146</ele>
        <time>2018-05-20T08:45:43.000Z</time>
      </trkpt>
      <trkpt lat="45.20614" lon="0.79266">
        <ele>149</ele>
        <time>2018-05-20T08:45:47.000Z</time>
      </trkpt>
      <trkpt lat="45.20613" lon="0.79252">
        <ele>148</ele>
        <time>2018-05-20T08:45:52.000Z</time>
      </trkpt>
      <trkpt lat="45.20607" lon="0.79237">
        <ele>146</ele>
        <time>2018-05-20T08:45:56.000Z</time>
      </trkpt>
      <trkpt lat="45.20602" lon="0.79224">
        <ele>145</ele>
        <time>2018-05-20T08:45:59.000Z</time>
      </trkpt>
      <trkpt lat="45.20599" lon="0.79208">
        <ele>146</ele>
        <time>2018-05-20T08:46:02.000Z</time>
      </trkpt>
      <trkpt lat="45.20598" lon="0.79188">
        <ele>146</ele>
        <time>2018-05-20T08:46:04.000Z</time>
      </trkpt>
      <trkpt lat="45.20592" lon="0.79169">
        <ele>148</ele>
        <time>2018-05-20T08:46:08.000Z</time>
      </trkpt>
      <trkpt lat="45.20589" lon="0.79153">
        <ele>151</ele>
        <time>2018-05-20T08:46:12.000Z</time>
      </trkpt>
      <trkpt lat="45.2058" lon="0.79136">
        <ele>154</ele>
        <time>2018-05-20T08:46:16.000Z</time>
      </trkpt>
      <trkpt lat="45.20567" lon="0.79125">
        <ele>153</ele>
        <time>2018-05-20T08:46:21.000Z</time>
      </trkpt>
      <trkpt lat="45.20557" lon="0.79115">
        <ele>151</ele>
        <time>2018-05-20T08:46:25.000Z</time>
      </trkpt>
      <trkpt lat="45.20545" lon="0.79101">
        <ele>152</ele>
        <time>2018-05-20T08:46:30.000Z</time>
      </trkpt>
      <trkpt lat="45.20546" lon="0.79088">
        <ele>150</ele>
        <time>2018-05-20T08:46:34.000Z</time>
      </trkpt>
      <trkpt lat="45.20552" lon="0.79074">
        <ele>148</ele>
        <time>2018-05-20T08:46:38.000Z</time>
      </trkpt>
      <trkpt lat="45.20556" lon="0.7906">
        <ele>149</ele>
        <time>2018-05-20T08:46:42.000Z</time>
      </trkpt>
      <trkpt lat="45.2056" lon="0.79048">
        <ele>150</ele>
        <time>2018-05-20T08:46:45.000Z</time>
      </trkpt>
      <trkpt lat="45.20565" lon="0.7903">
        <ele>151</ele>
        <time>2018-05-20T08:46:51.000Z</time>
      </trkpt>
      <trkpt lat="45.20567" lon="0.79011">
        <ele>153</ele>
        <time>2018-05-20T08:46:55.000Z</time>
      </trkpt>
      <trkpt lat="45.2057" lon="0.78993">
        <ele>153</ele>
        <time>2018-05-20T08:46:59.000Z</time>
      </trkpt>
      <trkpt lat="45.20573" lon="0.7897">
        <ele>155</ele>
        <time>2018-05-20T08:47:04.000Z</time>
      </trkpt>
      <trkpt lat="45.20574" lon="0.78955">
        <ele>155</ele>
        <time>2018-05-20T08:47:07.000Z</time>
      </trkpt>
      <trkpt lat="45.20578" lon="0.78939">
        <ele>154</ele>
        <time>2018-05-20T08:47:10.000Z</time>
      </trkpt>
      <trkpt lat="45.20581" lon="0.78924">
        <ele>154</ele>
        <time>2018-05-20T08:47:13.000Z</time>
      </trkpt>
      <trkpt lat="45.20583" lon="0.7891">
        <ele>155</ele>
        <time>2018-05-20T08:47:16.000Z</time>
      </trkpt>
      <trkpt lat="45.20586" lon="0.78894">
        <ele>155</ele>
        <time>2018-05-20T08:47:20.000Z</time>
      </trkpt>
      <trkpt lat="45.20589" lon="0.78879">
        <ele>156</ele>
        <time>2018-05-20T08:47:24.000Z</time>
      </trkpt>
      <trkpt lat="45.20591" lon="0.78865">
        <ele>155</ele>
        <time>2018-05-20T08:47:27.000Z</time>
      </trkpt>
      <trkpt lat="45.20593" lon="0.7885">
        <ele>156</ele>
        <time>2018-05-20T08:47:30.000Z</time>
      </trkpt>
      <trkpt lat="45.20595" lon="0.78837">
        <ele>156</ele>
        <time>2018-05-20T08:47:33.000Z</time>
      </trkpt>
      <trkpt lat="45.20596" lon="0.78822">
        <ele>157</ele>
        <time>2018-05-20T08:47:37.000Z</time>
      </trkpt>
      <trkpt lat="45.20596" lon="0.78809">
        <ele>159</ele>
        <time>2018-05-20T08:47:40.000Z</time>
      </trkpt>
      <trkpt lat="45.20595" lon="0.78796">
        <ele>162</ele>
        <time>2018-05-20T08:47:44.000Z</time>
      </trkpt>
      <trkpt lat="45.20594" lon="0.78783">
        <ele>162</ele>
        <time>2018-05-20T08:47:52.000Z</time>
      </trkpt>
      <trkpt lat="45.20595" lon="0.78768">
        <ele>163</ele>
        <time>2018-05-20T08:47:58.000Z</time>
      </trkpt>
      <trkpt lat="45.20597" lon="0.78751">
        <ele>164</ele>
        <time>2018-05-20T08:48:05.000Z</time>
      </trkpt>
      <trkpt lat="45.20598" lon="0.78736">
        <ele>164</ele>
        <time>2018-05-20T08:48:10.000Z</time>
      </trkpt>
      <trkpt lat="45.20597" lon="0.7872">
        <ele>164</ele>
        <time>2018-05-20T08:48:16.000Z</time>
      </trkpt>
      <trkpt lat="45.20594" lon="0.78703">
        <ele>165</ele>
        <time>2018-05-20T08:48:21.000Z</time>
      </trkpt>
      <trkpt lat="45.20594" lon="0.7869">
        <ele>165</ele>
        <time>2018-05-20T08:48:25.000Z</time>
      </trkpt>
      <trkpt lat="45.20594" lon="0.78676">
        <ele>164</ele>
        <time>2018-05-20T08:48:29.000Z</time>
      </trkpt>
      <trkpt lat="45.20595" lon="0.78662">
        <ele>164</ele>
        <time>2018-05-20T08:48:33.000Z</time>
      </trkpt>
      <trkpt lat="45.20592" lon="0.78646">
        <ele>164</ele>
        <time>2018-05-20T08:48:38.000Z</time>
      </trkpt>
      <trkpt lat="45.2059" lon="0.78633">
        <ele>168</ele>
        <time>2018-05-20T08:48:41.000Z</time>
      </trkpt>
      <trkpt lat="45.2059" lon="0.78614">
        <ele>166</ele>
        <time>2018-05-20T08:48:45.000Z</time>
      </trkpt>
      <trkpt lat="45.20589" lon="0.786">
        <ele>166</ele>
        <time>2018-05-20T08:48:48.000Z</time>
      </trkpt>
      <trkpt lat="45.20588" lon="0.78586">
        <ele>167</ele>
        <time>2018-05-20T08:48:51.000Z</time>
      </trkpt>
      <trkpt lat="45.20586" lon="0.78573">
        <ele>168</ele>
        <time>2018-05-20T08:48:54.000Z</time>
      </trkpt>
      <trkpt lat="45.20583" lon="0.78561">
        <ele>168</ele>
        <time>2018-05-20T08:48:57.000Z</time>
      </trkpt>
      <trkpt lat="45.20579" lon="0.78548">
        <ele>169</ele>
        <time>2018-05-20T08:49:01.000Z</time>
      </trkpt>
      <trkpt lat="45.20575" lon="0.78533">
        <ele>171</ele>
        <time>2018-05-20T08:49:05.000Z</time>
      </trkpt>
      <trkpt lat="45.20575" lon="0.78517">
        <ele>168</ele>
        <time>2018-05-20T08:49:10.000Z</time>
      </trkpt>
      <trkpt lat="45.20575" lon="0.78504">
        <ele>169</ele>
        <time>2018-05-20T08:49:14.000Z</time>
      </trkpt>
      <trkpt lat="45.20573" lon="0.78489">
        <ele>165</ele>
        <time>2018-05-20T08:49:19.000Z</time>
      </trkpt>
      <trkpt lat="45.2057" lon="0.78475">
        <ele>167</ele>
        <time>2018-05-20T08:49:24.000Z</time>
      </trkpt>
      <trkpt lat="45.20566" lon="0.78462">
        <ele>167</ele>
        <time>2018-05-20T08:49:27.000Z</time>
      </trkpt>
      <trkpt lat="45.20565" lon="0.78445">
        <ele>171</ele>
        <time>2018-05-20T08:49:30.000Z</time>
      </trkpt>
      <trkpt lat="45.20564" lon="0.78429">
        <ele>171</ele>
        <time>2018-05-20T08:49:33.000Z</time>
      </trkpt>
      <trkpt lat="45.20562" lon="0.78414">
        <ele>171</ele>
        <time>2018-05-20T08:49:36.000Z</time>
      </trkpt>
      <trkpt lat="45.20559" lon="0.78399">
        <ele>171</ele>
        <time>2018-05-20T08:49:39.000Z</time>
      </trkpt>
      <trkpt lat="45.20554" lon="0.78386">
        <ele>173</ele>
        <time>2018-05-20T08:49:42.000Z</time>
      </trkpt>
      <trkpt lat="45.20549" lon="0.78374">
        <ele>173</ele>
        <time>2018-05-20T08:49:45.000Z</time>
      </trkpt>
      <trkpt lat="45.20544" lon="0.78363">
        <ele>174</ele>
        <time>2018-05-20T08:49:48.000Z</time>
      </trkpt>
      <trkpt lat="45.20538" lon="0.78351">
        <ele>175</ele>
        <time>2018-05-20T08:49:52.000Z</time>
      </trkpt>
      <trkpt lat="45.20531" lon="0.7834">
        <ele>175</ele>
        <time>2018-05-20T08:49:58.000Z</time>
      </trkpt>
      <trkpt lat="45.20524" lon="0.78326">
        <ele>173</ele>
        <time>2018-05-20T08:50:04.000Z</time>
      </trkpt>
      <trkpt lat="45.20517" lon="0.78313">
        <ele>175</ele>
        <time>2018-05-20T08:50:10.000Z</time>
      </trkpt>
      <trkpt lat="45.20509" lon="0.78304">
        <ele>176</ele>
        <time>2018-05-20T08:50:15.000Z</time>
      </trkpt>
      <trkpt lat="45.205" lon="0.78294">
        <ele>179</ele>
        <time>2018-05-20T08:50:21.000Z</time>
      </trkpt>
      <trkpt lat="45.20487" lon="0.78284">
        <ele>178</ele>
        <time>2018-05-20T08:50:25.000Z</time>
      </trkpt>
      <trkpt lat="45.20475" lon="0.78279">
        <ele>178</ele>
        <time>2018-05-20T08:50:28.000Z</time>
      </trkpt>
      <trkpt lat="45.20465" lon="0.78285">
        <ele>176</ele>
        <time>2018-05-20T08:50:30.000Z</time>
      </trkpt>
      <trkpt lat="45.20455" lon="0.78289">
        <ele>173</ele>
        <time>2018-05-20T08:50:32.000Z</time>
      </trkpt>
      <trkpt lat="45.20441" lon="0.7829">
        <ele>169</ele>
        <time>2018-05-20T08:50:34.000Z</time>
      </trkpt>
      <trkpt lat="45.20427" lon="0.78285">
        <ele>167</ele>
        <time>2018-05-20T08:50:36.000Z</time>
      </trkpt>
      <trkpt lat="45.20413" lon="0.78279">
        <ele>166</ele>
        <time>2018-05-20T08:50:38.000Z</time>
      </trkpt>
      <trkpt lat="45.204" lon="0.7827">
        <ele>166</ele>
        <time>2018-05-20T08:50:40.000Z</time>
      </trkpt>
      <trkpt lat="45.20385" lon="0.7826">
        <ele>167</ele>
        <time>2018-05-20T08:50:42.000Z</time>
      </trkpt>
      <trkpt lat="45.20372" lon="0.78249">
        <ele>165</ele>
        <time>2018-05-20T08:50:44.000Z</time>
      </trkpt>
      <trkpt lat="45.20356" lon="0.78238">
        <ele>165</ele>
        <time>2018-05-20T08:50:46.000Z</time>
      </trkpt>
      <trkpt lat="45.20346" lon="0.78226">
        <ele>165</ele>
        <time>2018-05-20T08:50:48.000Z</time>
      </trkpt>
      <trkpt lat="45.20327" lon="0.78215">
        <ele>163</ele>
        <time>2018-05-20T08:50:51.000Z</time>
      </trkpt>
      <trkpt lat="45.20318" lon="0.78206">
        <ele>163</ele>
        <time>2018-05-20T08:50:53.000Z</time>
      </trkpt>
      <trkpt lat="45.20308" lon="0.78203">
        <ele>163</ele>
        <time>2018-05-20T08:50:55.000Z</time>
      </trkpt>
      <trkpt lat="45.20293" lon="0.78205">
        <ele>161</ele>
        <time>2018-05-20T08:50:58.000Z</time>
      </trkpt>
      <trkpt lat="45.20281" lon="0.78208">
        <ele>159</ele>
        <time>2018-05-20T08:51:01.000Z</time>
      </trkpt>
      <trkpt lat="45.20263" lon="0.78196">
        <ele>159</ele>
        <time>2018-05-20T08:51:06.000Z</time>
      </trkpt>
      <trkpt lat="45.20248" lon="0.7818">
        <ele>157</ele>
        <time>2018-05-20T08:51:10.000Z</time>
      </trkpt>
      <trkpt lat="45.20237" lon="0.78168">
        <ele>156</ele>
        <time>2018-05-20T08:51:13.000Z</time>
      </trkpt>
      <trkpt lat="45.20229" lon="0.7816">
        <ele>157</ele>
        <time>2018-05-20T08:51:15.000Z</time>
      </trkpt>
      <trkpt lat="45.20221" lon="0.78149">
        <ele>158</ele>
        <time>2018-05-20T08:51:17.000Z</time>
      </trkpt>
      <trkpt lat="45.20214" lon="0.7814">
        <ele>156</ele>
        <time>2018-05-20T08:51:19.000Z</time>
      </trkpt>
      <trkpt lat="45.20206" lon="0.7813">
        <ele>152</ele>
        <time>2018-05-20T08:51:21.000Z</time>
      </trkpt>
      <trkpt lat="45.20196" lon="0.78123">
        <ele>151</ele>
        <time>2018-05-20T08:51:23.000Z</time>
      </trkpt>
      <trkpt lat="45.20185" lon="0.78115">
        <ele>152</ele>
        <time>2018-05-20T08:51:25.000Z</time>
      </trkpt>
      <trkpt lat="45.20177" lon="0.78108">
        <ele>151</ele>
        <time>2018-05-20T08:51:27.000Z</time>
      </trkpt>
      <trkpt lat="45.20166" lon="0.78097">
        <ele>149</ele>
        <time>2018-05-20T08:51:30.000Z</time>
      </trkpt>
      <trkpt lat="45.20156" lon="0.78089">
        <ele>150</ele>
        <time>2018-05-20T08:51:32.000Z</time>
      </trkpt>
      <trkpt lat="45.20147" lon="0.78081">
        <ele>149</ele>
        <time>2018-05-20T08:51:35.000Z</time>
      </trkpt>
      <trkpt lat="45.2014" lon="0.78071">
        <ele>149</ele>
        <time>2018-05-20T08:51:38.000Z</time>
      </trkpt>
      <trkpt lat="45.20132" lon="0.78061">
        <ele>147</ele>
        <time>2018-05-20T08:51:43.000Z</time>
      </trkpt>
      <trkpt lat="45.20124" lon="0.78055">
        <ele>145</ele>
        <time>2018-05-20T08:51:49.000Z</time>
      </trkpt>
      <trkpt lat="45.20116" lon="0.78047">
        <ele>142</ele>
        <time>2018-05-20T08:51:54.000Z</time>
      </trkpt>
      <trkpt lat="45.20108" lon="0.78039">
        <ele>150</ele>
        <time>2018-05-20T08:51:58.000Z</time>
      </trkpt>
      <trkpt lat="45.20099" lon="0.78028">
        <ele>149</ele>
        <time>2018-05-20T08:52:03.000Z</time>
      </trkpt>
      <trkpt lat="45.20094" lon="0.78015">
        <ele>144</ele>
        <time>2018-05-20T08:52:07.000Z</time>
      </trkpt>
      <trkpt lat="45.20087" lon="0.78005">
        <ele>146</ele>
        <time>2018-05-20T08:52:10.000Z</time>
      </trkpt>
      <trkpt lat="45.20079" lon="0.77996">
        <ele>146</ele>
        <time>2018-05-20T08:52:13.000Z</time>
      </trkpt>
      <trkpt lat="45.20072" lon="0.77986">
        <ele>145</ele>
        <time>2018-05-20T08:52:16.000Z</time>
      </trkpt>
      <trkpt lat="45.20065" lon="0.77974">
        <ele>147</ele>
        <time>2018-05-20T08:52:20.000Z</time>
      </trkpt>
      <trkpt lat="45.20057" lon="0.77965">
        <ele>147</ele>
        <time>2018-05-20T08:52:24.000Z</time>
      </trkpt>
      <trkpt lat="45.2005" lon="0.77954">
        <ele>148</ele>
        <time>2018-05-20T08:52:29.000Z</time>
      </trkpt>
      <trkpt lat="45.20044" lon="0.77941">
        <ele>146</ele>
        <time>2018-05-20T08:52:34.000Z</time>
      </trkpt>
      <trkpt lat="45.20038" lon="0.77928">
        <ele>145</ele>
        <time>2018-05-20T08:52:39.000Z</time>
      </trkpt>
      <trkpt lat="45.2003" lon="0.77917">
        <ele>147</ele>
        <time>2018-05-20T08:52:45.000Z</time>
      </trkpt>
      <trkpt lat="45.20025" lon="0.77906">
        <ele>147</ele>
        <time>2018-05-20T08:52:51.000Z</time>
      </trkpt>
      <trkpt lat="45.20017" lon="0.77897">
        <ele>146</ele>
        <time>2018-05-20T08:52:56.000Z</time>
      </trkpt>
      <trkpt lat="45.20009" lon="0.77887">
        <ele>148</ele>
        <time>2018-05-20T08:53:02.000Z</time>
      </trkpt>
      <trkpt lat="45.20004" lon="0.77876">
        <ele>145</ele>
        <time>2018-05-20T08:53:07.000Z</time>
      </trkpt>
      <trkpt lat="45.19997" lon="0.77867">
        <ele>145</ele>
        <time>2018-05-20T08:53:12.000Z</time>
      </trkpt>
      <trkpt lat="45.19989" lon="0.77856">
        <ele>146</ele>
        <time>2018-05-20T08:53:18.000Z</time>
      </trkpt>
      <trkpt lat="45.19979" lon="0.77847">
        <ele>148</ele>
        <time>2018-05-20T08:53:26.000Z</time>
      </trkpt>
      <trkpt lat="45.19971" lon="0.77837">
        <ele>144</ele>
        <time>2018-05-20T08:53:30.000Z</time>
      </trkpt>
      <trkpt lat="45.19962" lon="0.77824">
        <ele>144</ele>
        <time>2018-05-20T08:53:34.000Z</time>
      </trkpt>
      <trkpt lat="45.19952" lon="0.77808">
        <ele>139</ele>
        <time>2018-05-20T08:53:39.000Z</time>
      </trkpt>
      <trkpt lat="45.19944" lon="0.77797">
        <ele>141</ele>
        <time>2018-05-20T08:53:43.000Z</time>
      </trkpt>
      <trkpt lat="45.19936" lon="0.7779">
        <ele>142</ele>
        <time>2018-05-20T08:53:45.000Z</time>
      </trkpt>
      <trkpt lat="45.19926" lon="0.77778">
        <ele>143</ele>
        <time>2018-05-20T08:53:48.000Z</time>
      </trkpt>
      <trkpt lat="45.19917" lon="0.77767">
        <ele>143</ele>
        <time>2018-05-20T08:53:49.000Z</time>
      </trkpt>
      <trkpt lat="45.19909" lon="0.77753">
        <ele>144</ele>
        <time>2018-05-20T08:53:52.000Z</time>
      </trkpt>
      <trkpt lat="45.19901" lon="0.77747">
        <ele>148</ele>
        <time>2018-05-20T08:53:55.000Z</time>
      </trkpt>
      <trkpt lat="45.19888" lon="0.77741">
        <ele>147</ele>
        <time>2018-05-20T08:53:59.000Z</time>
      </trkpt>
      <trkpt lat="45.19879" lon="0.77737">
        <ele>148</ele>
        <time>2018-05-20T08:54:02.000Z</time>
      </trkpt>
      <trkpt lat="45.19869" lon="0.77736">
        <ele>149</ele>
        <time>2018-05-20T08:54:10.000Z</time>
      </trkpt>
      <trkpt lat="45.19858" lon="0.77732">
        <ele>146</ele>
        <time>2018-05-20T08:54:13.000Z</time>
      </trkpt>
      <trkpt lat="45.19849" lon="0.7773">
        <ele>145</ele>
        <time>2018-05-20T08:54:15.000Z</time>
      </trkpt>
      <trkpt lat="45.1984" lon="0.77729">
        <ele>145</ele>
        <time>2018-05-20T08:54:17.000Z</time>
      </trkpt>
      <trkpt lat="45.1983" lon="0.77729">
        <ele>146</ele>
        <time>2018-05-20T08:54:19.000Z</time>
      </trkpt>
      <trkpt lat="45.19814" lon="0.77728">
        <ele>150</ele>
        <time>2018-05-20T08:54:22.000Z</time>
      </trkpt>
      <trkpt lat="45.19801" lon="0.77725">
        <ele>148</ele>
        <time>2018-05-20T08:54:26.000Z</time>
      </trkpt>
      <trkpt lat="45.19793" lon="0.77734">
        <ele>147</ele>
        <time>2018-05-20T08:54:29.000Z</time>
      </trkpt>
      <trkpt lat="45.19784" lon="0.7774">
        <ele>145</ele>
        <time>2018-05-20T08:54:32.000Z</time>
      </trkpt>
      <trkpt lat="45.19764" lon="0.77739">
        <ele>145</ele>
        <time>2018-05-20T08:54:36.000Z</time>
      </trkpt>
      <trkpt lat="45.19753" lon="0.7774">
        <ele>145</ele>
        <time>2018-05-20T08:54:38.000Z</time>
      </trkpt>
      <trkpt lat="45.19733" lon="0.7774">
        <ele>144</ele>
        <time>2018-05-20T08:54:41.000Z</time>
      </trkpt>
      <trkpt lat="45.1972" lon="0.77735">
        <ele>142</ele>
        <time>2018-05-20T08:54:43.000Z</time>
      </trkpt>
      <trkpt lat="45.19693" lon="0.7773">
        <ele>142</ele>
        <time>2018-05-20T08:54:47.000Z</time>
      </trkpt>
      <trkpt lat="45.19682" lon="0.77728">
        <ele>142</ele>
        <time>2018-05-20T08:54:49.000Z</time>
      </trkpt>
      <trkpt lat="45.19669" lon="0.77729">
        <ele>142</ele>
        <time>2018-05-20T08:54:52.000Z</time>
      </trkpt>
      <trkpt lat="45.1966" lon="0.77733">
        <ele>142</ele>
        <time>2018-05-20T08:54:56.000Z</time>
      </trkpt>
      <trkpt lat="45.19648" lon="0.77738">
        <ele>143</ele>
        <time>2018-05-20T08:55:01.000Z</time>
      </trkpt>
      <trkpt lat="45.19637" lon="0.77741">
        <ele>145</ele>
        <time>2018-05-20T08:55:05.000Z</time>
      </trkpt>
      <trkpt lat="45.19626" lon="0.77744">
        <ele>146</ele>
        <time>2018-05-20T08:55:10.000Z</time>
      </trkpt>
      <trkpt lat="45.19614" lon="0.77747">
        <ele>145</ele>
        <time>2018-05-20T08:55:15.000Z</time>
      </trkpt>
      <trkpt lat="45.19603" lon="0.77749">
        <ele>144</ele>
        <time>2018-05-20T08:55:19.000Z</time>
      </trkpt>
      <trkpt lat="45.19591" lon="0.7775">
        <ele>144</ele>
        <time>2018-05-20T08:55:25.000Z</time>
      </trkpt>
      <trkpt lat="45.19579" lon="0.77752">
        <ele>144</ele>
        <time>2018-05-20T08:55:33.000Z</time>
      </trkpt>
      <trkpt lat="45.19568" lon="0.77751">
        <ele>143</ele>
        <time>2018-05-20T08:55:39.000Z</time>
      </trkpt>
      <trkpt lat="45.19558" lon="0.77752">
        <ele>141</ele>
        <time>2018-05-20T08:55:44.000Z</time>
      </trkpt>
      <trkpt lat="45.19545" lon="0.77756">
        <ele>141</ele>
        <time>2018-05-20T08:55:49.000Z</time>
      </trkpt>
      <trkpt lat="45.19535" lon="0.77758">
        <ele>141</ele>
        <time>2018-05-20T08:55:54.000Z</time>
      </trkpt>
      <trkpt lat="45.19526" lon="0.77759">
        <ele>141</ele>
        <time>2018-05-20T08:56:01.000Z</time>
      </trkpt>
      <trkpt lat="45.19516" lon="0.77762">
        <ele>140</ele>
        <time>2018-05-20T08:56:09.000Z</time>
      </trkpt>
      <trkpt lat="45.19507" lon="0.77765">
        <ele>141</ele>
        <time>2018-05-20T08:56:17.000Z</time>
      </trkpt>
      <trkpt lat="45.19495" lon="0.77762">
        <ele>141</ele>
        <time>2018-05-20T08:56:24.000Z</time>
      </trkpt>
      <trkpt lat="45.19492" lon="0.77748">
        <ele>141</ele>
        <time>2018-05-20T08:56:28.000Z</time>
      </trkpt>
      <trkpt lat="45.19489" lon="0.77731">
        <ele>142</ele>
        <time>2018-05-20T08:56:32.000Z</time>
      </trkpt>
      <trkpt lat="45.19486" lon="0.77715">
        <ele>142</ele>
        <time>2018-05-20T08:56:36.000Z</time>
      </trkpt>
      <trkpt lat="45.19477" lon="0.77708">
        <ele>141</ele>
        <time>2018-05-20T08:56:41.000Z</time>
      </trkpt>
      <trkpt lat="45.19466" lon="0.77705">
        <ele>141</ele>
        <time>2018-05-20T08:56:45.000Z</time>
      </trkpt>
      <trkpt lat="45.1946" lon="0.77689">
        <ele>143</ele>
        <time>2018-05-20T08:56:49.000Z</time>
      </trkpt>
      <trkpt lat="45.19458" lon="0.77674">
        <ele>142</ele>
        <time>2018-05-20T08:56:52.000Z</time>
      </trkpt>
      <trkpt lat="45.19454" lon="0.77656">
        <ele>142</ele>
        <time>2018-05-20T08:56:56.000Z</time>
      </trkpt>
      <trkpt lat="45.19451" lon="0.7764">
        <ele>141</ele>
        <time>2018-05-20T08:57:00.000Z</time>
      </trkpt>
      <trkpt lat="45.19447" lon="0.77627">
        <ele>140</ele>
        <time>2018-05-20T08:57:06.000Z</time>
      </trkpt>
      <trkpt lat="45.19443" lon="0.77608">
        <ele>138</ele>
        <time>2018-05-20T08:57:11.000Z</time>
      </trkpt>
      <trkpt lat="45.19441" lon="0.77588">
        <ele>138</ele>
        <time>2018-05-20T08:57:15.000Z</time>
      </trkpt>
      <trkpt lat="45.19439" lon="0.77573">
        <ele>140</ele>
        <time>2018-05-20T08:57:18.000Z</time>
      </trkpt>
      <trkpt lat="45.19434" lon="0.77562">
        <ele>139</ele>
        <time>2018-05-20T08:57:21.000Z</time>
      </trkpt>
      <trkpt lat="45.19424" lon="0.77553">
        <ele>141</ele>
        <time>2018-05-20T08:57:24.000Z</time>
      </trkpt>
      <trkpt lat="45.19412" lon="0.77543">
        <ele>139</ele>
        <time>2018-05-20T08:57:28.000Z</time>
      </trkpt>
      <trkpt lat="45.19401" lon="0.7753">
        <ele>141</ele>
        <time>2018-05-20T08:57:32.000Z</time>
      </trkpt>
      <trkpt lat="45.19397" lon="0.77517">
        <ele>145</ele>
        <time>2018-05-20T08:57:36.000Z</time>
      </trkpt>
      <trkpt lat="45.19388" lon="0.77509">
        <ele>143</ele>
        <time>2018-05-20T08:57:40.000Z</time>
      </trkpt>
      <trkpt lat="45.19377" lon="0.77506">
        <ele>143</ele>
        <time>2018-05-20T08:57:43.000Z</time>
      </trkpt>
      <trkpt lat="45.19366" lon="0.77496">
        <ele>144</ele>
        <time>2018-05-20T08:57:46.000Z</time>
      </trkpt>
      <trkpt lat="45.19355" lon="0.77482">
        <ele>144</ele>
        <time>2018-05-20T08:57:49.000Z</time>
      </trkpt>
      <trkpt lat="45.19349" lon="0.77473">
        <ele>144</ele>
        <time>2018-05-20T08:57:51.000Z</time>
      </trkpt>
      <trkpt lat="45.19342" lon="0.77464">
        <ele>144</ele>
        <time>2018-05-20T08:57:53.000Z</time>
      </trkpt>
      <trkpt lat="45.19333" lon="0.77452">
        <ele>144</ele>
        <time>2018-05-20T08:57:56.000Z</time>
      </trkpt>
      <trkpt lat="45.19324" lon="0.7744">
        <ele>143</ele>
        <time>2018-05-20T08:57:59.000Z</time>
      </trkpt>
      <trkpt lat="45.19311" lon="0.77424">
        <ele>143</ele>
        <time>2018-05-20T08:58:03.000Z</time>
      </trkpt>
      <trkpt lat="45.19305" lon="0.77415">
        <ele>144</ele>
        <time>2018-05-20T08:58:05.000Z</time>
      </trkpt>
      <trkpt lat="45.19295" lon="0.77402">
        <ele>144</ele>
        <time>2018-05-20T08:58:08.000Z</time>
      </trkpt>
      <trkpt lat="45.19285" lon="0.77389">
        <ele>144</ele>
        <time>2018-05-20T08:58:11.000Z</time>
      </trkpt>
      <trkpt lat="45.19277" lon="0.77375">
        <ele>143</ele>
        <time>2018-05-20T08:58:14.000Z</time>
      </trkpt>
      <trkpt lat="45.1927" lon="0.77366">
        <ele>143</ele>
        <time>2018-05-20T08:58:16.000Z</time>
      </trkpt>
      <trkpt lat="45.19255" lon="0.77351">
        <ele>143</ele>
        <time>2018-05-20T08:58:20.000Z</time>
      </trkpt>
      <trkpt lat="45.19243" lon="0.77332">
        <ele>143</ele>
        <time>2018-05-20T08:58:24.000Z</time>
      </trkpt>
      <trkpt lat="45.19236" lon="0.77323">
        <ele>143</ele>
        <time>2018-05-20T08:58:26.000Z</time>
      </trkpt>
      <trkpt lat="45.19228" lon="0.77314">
        <ele>142</ele>
        <time>2018-05-20T08:58:28.000Z</time>
      </trkpt>
      <trkpt lat="45.19221" lon="0.77305">
        <ele>144</ele>
        <time>2018-05-20T08:58:30.000Z</time>
      </trkpt>
      <trkpt lat="45.1921" lon="0.77289">
        <ele>143</ele>
        <time>2018-05-20T08:58:33.000Z</time>
      </trkpt>
      <trkpt lat="45.19202" lon="0.77276">
        <ele>144</ele>
        <time>2018-05-20T08:58:35.000Z</time>
      </trkpt>
      <trkpt lat="45.19193" lon="0.77265">
        <ele>144</ele>
        <time>2018-05-20T08:58:37.000Z</time>
      </trkpt>
      <trkpt lat="45.19181" lon="0.77249">
        <ele>144</ele>
        <time>2018-05-20T08:58:40.000Z</time>
      </trkpt>
      <trkpt lat="45.19172" lon="0.77235">
        <ele>143</ele>
        <time>2018-05-20T08:58:43.000Z</time>
      </trkpt>
      <trkpt lat="45.19164" lon="0.77225">
        <ele>143</ele>
        <time>2018-05-20T08:58:45.000Z</time>
      </trkpt>
      <trkpt lat="45.19154" lon="0.77211">
        <ele>142</ele>
        <time>2018-05-20T08:58:48.000Z</time>
      </trkpt>
      <trkpt lat="45.19145" lon="0.772">
        <ele>141</ele>
        <time>2018-05-20T08:58:50.000Z</time>
      </trkpt>
      <trkpt lat="45.19138" lon="0.77191">
        <ele>140</ele>
        <time>2018-05-20T08:58:52.000Z</time>
      </trkpt>
      <trkpt lat="45.19128" lon="0.7718">
        <ele>141</ele>
        <time>2018-05-20T08:58:55.000Z</time>
      </trkpt>
      <trkpt lat="45.19121" lon="0.77171">
        <ele>142</ele>
        <time>2018-05-20T08:58:57.000Z</time>
      </trkpt>
      <trkpt lat="45.19117" lon="0.77157">
        <ele>138</ele>
        <time>2018-05-20T08:58:59.000Z</time>
      </trkpt>
      <trkpt lat="45.19111" lon="0.77147">
        <ele>139</ele>
        <time>2018-05-20T08:59:01.000Z</time>
      </trkpt>
      <trkpt lat="45.19106" lon="0.77136">
        <ele>139</ele>
        <time>2018-05-20T08:59:03.000Z</time>
      </trkpt>
      <trkpt lat="45.19099" lon="0.77126">
        <ele>140</ele>
        <time>2018-05-20T08:59:05.000Z</time>
      </trkpt>
      <trkpt lat="45.19093" lon="0.77115">
        <ele>140</ele>
        <time>2018-05-20T08:59:07.000Z</time>
      </trkpt>
      <trkpt lat="45.19088" lon="0.77102">
        <ele>142</ele>
        <time>2018-05-20T08:59:09.000Z</time>
      </trkpt>
      <trkpt lat="45.19082" lon="0.7709">
        <ele>143</ele>
        <time>2018-05-20T08:59:11.000Z</time>
      </trkpt>
      <trkpt lat="45.19074" lon="0.77072">
        <ele>141</ele>
        <time>2018-05-20T08:59:14.000Z</time>
      </trkpt>
      <trkpt lat="45.19068" lon="0.77056">
        <ele>143</ele>
        <time>2018-05-20T08:59:16.000Z</time>
      </trkpt>
      <trkpt lat="45.19062" lon="0.77042">
        <ele>143</ele>
        <time>2018-05-20T08:59:18.000Z</time>
      </trkpt>
      <trkpt lat="45.19054" lon="0.77024">
        <ele>140</ele>
        <time>2018-05-20T08:59:21.000Z</time>
      </trkpt>
      <trkpt lat="45.19049" lon="0.77011">
        <ele>139</ele>
        <time>2018-05-20T08:59:23.000Z</time>
      </trkpt>
      <trkpt lat="45.19044" lon="0.76998">
        <ele>139</ele>
        <time>2018-05-20T08:59:25.000Z</time>
      </trkpt>
      <trkpt lat="45.19037" lon="0.76978">
        <ele>139</ele>
        <time>2018-05-20T08:59:28.000Z</time>
      </trkpt>
      <trkpt lat="45.19029" lon="0.76959">
        <ele>138</ele>
        <time>2018-05-20T08:59:31.000Z</time>
      </trkpt>
      <trkpt lat="45.19025" lon="0.76946">
        <ele>171</ele>
        <time>2018-05-20T08:59:33.000Z</time>
      </trkpt>
      <trkpt lat="45.19019" lon="0.76931">
        <ele>159</ele>
        <time>2018-05-20T08:59:35.000Z</time>
      </trkpt>
      <trkpt lat="45.19014" lon="0.76909">
        <ele>149</ele>
        <time>2018-05-20T08:59:38.000Z</time>
      </trkpt>
      <trkpt lat="45.1901" lon="0.76896">
        <ele>145</ele>
        <time>2018-05-20T08:59:40.000Z</time>
      </trkpt>
      <trkpt lat="45.19006" lon="0.76882">
        <ele>144</ele>
        <time>2018-05-20T08:59:42.000Z</time>
      </trkpt>
      <trkpt lat="45.19003" lon="0.76866">
        <ele>138</ele>
        <time>2018-05-20T08:59:44.000Z</time>
      </trkpt>
      <trkpt lat="45.18998" lon="0.76853">
        <ele>138</ele>
        <time>2018-05-20T08:59:46.000Z</time>
      </trkpt>
      <trkpt lat="45.18995" lon="0.76839">
        <ele>140</ele>
        <time>2018-05-20T08:59:48.000Z</time>
      </trkpt>
      <trkpt lat="45.18989" lon="0.76817">
        <ele>139</ele>
        <time>2018-05-20T08:59:51.000Z</time>
      </trkpt>
      <trkpt lat="45.18985" lon="0.76803">
        <ele>138</ele>
        <time>2018-05-20T08:59:53.000Z</time>
      </trkpt>
      <trkpt lat="45.1898" lon="0.76784">
        <ele>141</ele>
        <time>2018-05-20T08:59:55.000Z</time>
      </trkpt>
      <trkpt lat="45.18975" lon="0.76763">
        <ele>141</ele>
        <time>2018-05-20T08:59:58.000Z</time>
      </trkpt>
      <trkpt lat="45.18971" lon="0.76741">
        <ele>142</ele>
        <time>2018-05-20T09:00:01.000Z</time>
      </trkpt>
      <trkpt lat="45.18965" lon="0.76717">
        <ele>142</ele>
        <time>2018-05-20T09:00:04.000Z</time>
      </trkpt>
      <trkpt lat="45.18958" lon="0.76684">
        <ele>139</ele>
        <time>2018-05-20T09:00:09.000Z</time>
      </trkpt>
      <trkpt lat="45.18955" lon="0.76669">
        <ele>140</ele>
        <time>2018-05-20T09:00:11.000Z</time>
      </trkpt>
      <trkpt lat="45.1895" lon="0.76645">
        <ele>142</ele>
        <time>2018-05-20T09:00:14.000Z</time>
      </trkpt>
      <trkpt lat="45.18946" lon="0.76631">
        <ele>143</ele>
        <time>2018-05-20T09:00:16.000Z</time>
      </trkpt>
      <trkpt lat="45.18942" lon="0.76617">
        <ele>142</ele>
        <time>2018-05-20T09:00:18.000Z</time>
      </trkpt>
      <trkpt lat="45.18938" lon="0.76603">
        <ele>143</ele>
        <time>2018-05-20T09:00:20.000Z</time>
      </trkpt>
      <trkpt lat="45.18934" lon="0.7659">
        <ele>144</ele>
        <time>2018-05-20T09:00:22.000Z</time>
      </trkpt>
      <trkpt lat="45.18929" lon="0.76573">
        <ele>143</ele>
        <time>2018-05-20T09:00:25.000Z</time>
      </trkpt>
      <trkpt lat="45.18923" lon="0.76555">
        <ele>144</ele>
        <time>2018-05-20T09:00:28.000Z</time>
      </trkpt>
      <trkpt lat="45.18914" lon="0.76526">
        <ele>145</ele>
        <time>2018-05-20T09:00:33.000Z</time>
      </trkpt>
      <trkpt lat="45.1891" lon="0.76505">
        <ele>144</ele>
        <time>2018-05-20T09:00:37.000Z</time>
      </trkpt>
      <trkpt lat="45.18911" lon="0.7649">
        <ele>145</ele>
        <time>2018-05-20T09:00:40.000Z</time>
      </trkpt>
      <trkpt lat="45.18914" lon="0.76474">
        <ele>145</ele>
        <time>2018-05-20T09:00:43.000Z</time>
      </trkpt>
      <trkpt lat="45.18919" lon="0.76459">
        <ele>146</ele>
        <time>2018-05-20T09:00:46.000Z</time>
      </trkpt>
      <trkpt lat="45.18922" lon="0.76444">
        <ele>147</ele>
        <time>2018-05-20T09:00:49.000Z</time>
      </trkpt>
      <trkpt lat="45.1892" lon="0.76415">
        <ele>148</ele>
        <time>2018-05-20T09:00:54.000Z</time>
      </trkpt>
      <trkpt lat="45.18906" lon="0.76399">
        <ele>148</ele>
        <time>2018-05-20T09:00:58.000Z</time>
      </trkpt>
      <trkpt lat="45.18893" lon="0.76395">
        <ele>148</ele>
        <time>2018-05-20T09:01:01.000Z</time>
      </trkpt>
      <trkpt lat="45.18883" lon="0.76395">
        <ele>149</ele>
        <time>2018-05-20T09:01:03.000Z</time>
      </trkpt>
      <trkpt lat="45.1887" lon="0.76399">
        <ele>148</ele>
        <time>2018-05-20T09:01:06.000Z</time>
      </trkpt>
      <trkpt lat="45.1886" lon="0.76398">
        <ele>148</ele>
        <time>2018-05-20T09:01:08.000Z</time>
      </trkpt>
      <trkpt lat="45.18853" lon="0.76389">
        <ele>147</ele>
        <time>2018-05-20T09:01:10.000Z</time>
      </trkpt>
      <trkpt lat="45.18848" lon="0.76376">
        <ele>147</ele>
        <time>2018-05-20T09:01:12.000Z</time>
      </trkpt>
      <trkpt lat="45.18841" lon="0.76353">
        <ele>145</ele>
        <time>2018-05-20T09:01:16.000Z</time>
      </trkpt>
      <trkpt lat="45.18834" lon="0.76325">
        <ele>146</ele>
        <time>2018-05-20T09:01:21.000Z</time>
      </trkpt>
      <trkpt lat="45.1883" lon="0.76308">
        <ele>148</ele>
        <time>2018-05-20T09:01:24.000Z</time>
      </trkpt>
      <trkpt lat="45.18827" lon="0.76288">
        <ele>149</ele>
        <time>2018-05-20T09:01:28.000Z</time>
      </trkpt>
      <trkpt lat="45.18822" lon="0.76268">
        <ele>148</ele>
        <time>2018-05-20T09:01:33.000Z</time>
      </trkpt>
      <trkpt lat="45.18818" lon="0.76248">
        <ele>149</ele>
        <time>2018-05-20T09:01:37.000Z</time>
      </trkpt>
      <trkpt lat="45.18813" lon="0.76226">
        <ele>150</ele>
        <time>2018-05-20T09:01:41.000Z</time>
      </trkpt>
      <trkpt lat="45.18811" lon="0.76212">
        <ele>151</ele>
        <time>2018-05-20T09:01:44.000Z</time>
      </trkpt>
      <trkpt lat="45.18806" lon="0.76196">
        <ele>149</ele>
        <time>2018-05-20T09:01:48.000Z</time>
      </trkpt>
      <trkpt lat="45.188" lon="0.76176">
        <ele>149</ele>
        <time>2018-05-20T09:01:52.000Z</time>
      </trkpt>
      <trkpt lat="45.18796" lon="0.76157">
        <ele>147</ele>
        <time>2018-05-20T09:01:56.000Z</time>
      </trkpt>
      <trkpt lat="45.18791" lon="0.76139">
        <ele>145</ele>
        <time>2018-05-20T09:02:00.000Z</time>
      </trkpt>
      <trkpt lat="45.18783" lon="0.76125">
        <ele>145</ele>
        <time>2018-05-20T09:02:04.000Z</time>
      </trkpt>
      <trkpt lat="45.18771" lon="0.76122">
        <ele>149</ele>
        <time>2018-05-20T09:02:09.000Z</time>
      </trkpt>
      <trkpt lat="45.18755" lon="0.76132">
        <ele>147</ele>
        <time>2018-05-20T09:02:14.000Z</time>
      </trkpt>
      <trkpt lat="45.18742" lon="0.76132">
        <ele>149</ele>
        <time>2018-05-20T09:02:17.000Z</time>
      </trkpt>
      <trkpt lat="45.18736" lon="0.76123">
        <ele>148</ele>
        <time>2018-05-20T09:02:19.000Z</time>
      </trkpt>
      <trkpt lat="45.18729" lon="0.76112">
        <ele>148</ele>
        <time>2018-05-20T09:02:21.000Z</time>
      </trkpt>
      <trkpt lat="45.18724" lon="0.76089">
        <ele>145</ele>
        <time>2018-05-20T09:02:24.000Z</time>
      </trkpt>
      <trkpt lat="45.18723" lon="0.76076">
        <ele>143</ele>
        <time>2018-05-20T09:02:26.000Z</time>
      </trkpt>
      <trkpt lat="45.18716" lon="0.76055">
        <ele>141</ele>
        <time>2018-05-20T09:02:30.000Z</time>
      </trkpt>
      <trkpt lat="45.18707" lon="0.76049">
        <ele>140</ele>
        <time>2018-05-20T09:02:33.000Z</time>
      </trkpt>
      <trkpt lat="45.18692" lon="0.76053">
        <ele>141</ele>
        <time>2018-05-20T09:02:36.000Z</time>
      </trkpt>
      <trkpt lat="45.18678" lon="0.76047">
        <ele>140</ele>
        <time>2018-05-20T09:02:40.000Z</time>
      </trkpt>
      <trkpt lat="45.18665" lon="0.76047">
        <ele>137</ele>
        <time>2018-05-20T09:02:44.000Z</time>
      </trkpt>
      <trkpt lat="45.18655" lon="0.76044">
        <ele>136</ele>
        <time>2018-05-20T09:02:47.000Z</time>
      </trkpt>
      <trkpt lat="45.18644" lon="0.76043">
        <ele>137</ele>
        <time>2018-05-20T09:02:50.000Z</time>
      </trkpt>
      <trkpt lat="45.18629" lon="0.76044">
        <ele>137</ele>
        <time>2018-05-20T09:02:54.000Z</time>
      </trkpt>
      <trkpt lat="45.18618" lon="0.76036">
        <ele>138</ele>
        <time>2018-05-20T09:02:58.000Z</time>
      </trkpt>
      <trkpt lat="45.1861" lon="0.76026">
        <ele>137</ele>
        <time>2018-05-20T09:03:01.000Z</time>
      </trkpt>
      <trkpt lat="45.18604" lon="0.76014">
        <ele>139</ele>
        <time>2018-05-20T09:03:04.000Z</time>
      </trkpt>
      <trkpt lat="45.18597" lon="0.76001">
        <ele>139</ele>
        <time>2018-05-20T09:03:07.000Z</time>
      </trkpt>
      <trkpt lat="45.18587" lon="0.75983">
        <ele>139</ele>
        <time>2018-05-20T09:03:11.000Z</time>
      </trkpt>
      <trkpt lat="45.18578" lon="0.75964">
        <ele>139</ele>
        <time>2018-05-20T09:03:15.000Z</time>
      </trkpt>
      <trkpt lat="45.18569" lon="0.75942">
        <ele>136</ele>
        <time>2018-05-20T09:03:19.000Z</time>
      </trkpt>
      <trkpt lat="45.18564" lon="0.75931">
        <ele>137</ele>
        <time>2018-05-20T09:03:21.000Z</time>
      </trkpt>
      <trkpt lat="45.18556" lon="0.75915">
        <ele>136</ele>
        <time>2018-05-20T09:03:24.000Z</time>
      </trkpt>
      <trkpt lat="45.18545" lon="0.75895">
        <ele>136</ele>
        <time>2018-05-20T09:03:28.000Z</time>
      </trkpt>
      <trkpt lat="45.18537" lon="0.75879">
        <ele>137</ele>
        <time>2018-05-20T09:03:30.000Z</time>
      </trkpt>
      <trkpt lat="45.18533" lon="0.75867">
        <ele>138</ele>
        <time>2018-05-20T09:03:32.000Z</time>
      </trkpt>
      <trkpt lat="45.18527" lon="0.75841">
        <ele>137</ele>
        <time>2018-05-20T09:03:36.000Z</time>
      </trkpt>
      <trkpt lat="45.18523" lon="0.75827">
        <ele>136</ele>
        <time>2018-05-20T09:03:38.000Z</time>
      </trkpt>
      <trkpt lat="45.18516" lon="0.75805">
        <ele>137</ele>
        <time>2018-05-20T09:03:41.000Z</time>
      </trkpt>
      <trkpt lat="45.18511" lon="0.75792">
        <ele>136</ele>
        <time>2018-05-20T09:03:43.000Z</time>
      </trkpt>
      <trkpt lat="45.18506" lon="0.75778">
        <ele>136</ele>
        <time>2018-05-20T09:03:45.000Z</time>
      </trkpt>
      <trkpt lat="45.185" lon="0.75767">
        <ele>134</ele>
        <time>2018-05-20T09:03:47.000Z</time>
      </trkpt>
      <trkpt lat="45.18493" lon="0.75758">
        <ele>135</ele>
        <time>2018-05-20T09:03:49.000Z</time>
      </trkpt>
      <trkpt lat="45.18487" lon="0.75749">
        <ele>136</ele>
        <time>2018-05-20T09:03:51.000Z</time>
      </trkpt>
      <trkpt lat="45.1848" lon="0.75739">
        <ele>137</ele>
        <time>2018-05-20T09:03:53.000Z</time>
      </trkpt>
      <trkpt lat="45.18469" lon="0.75723">
        <ele>138</ele>
        <time>2018-05-20T09:03:56.000Z</time>
      </trkpt>
      <trkpt lat="45.18464" lon="0.75713">
        <ele>137</ele>
        <time>2018-05-20T09:03:58.000Z</time>
      </trkpt>
      <trkpt lat="45.18457" lon="0.75703">
        <ele>137</ele>
        <time>2018-05-20T09:04:00.000Z</time>
      </trkpt>
      <trkpt lat="45.18451" lon="0.75693">
        <ele>136</ele>
        <time>2018-05-20T09:04:02.000Z</time>
      </trkpt>
      <trkpt lat="45.18443" lon="0.75684">
        <ele>136</ele>
        <time>2018-05-20T09:04:04.000Z</time>
      </trkpt>
      <trkpt lat="45.18429" lon="0.75664">
        <ele>137</ele>
        <time>2018-05-20T09:04:08.000Z</time>
      </trkpt>
      <trkpt lat="45.18422" lon="0.75654">
        <ele>137</ele>
        <time>2018-05-20T09:04:10.000Z</time>
      </trkpt>
      <trkpt lat="45.18411" lon="0.7564">
        <ele>138</ele>
        <time>2018-05-20T09:04:13.000Z</time>
      </trkpt>
      <trkpt lat="45.18402" lon="0.75627">
        <ele>138</ele>
        <time>2018-05-20T09:04:16.000Z</time>
      </trkpt>
      <trkpt lat="45.1839" lon="0.75611">
        <ele>138</ele>
        <time>2018-05-20T09:04:19.000Z</time>
      </trkpt>
      <trkpt lat="45.1838" lon="0.75599">
        <ele>137</ele>
        <time>2018-05-20T09:04:22.000Z</time>
      </trkpt>
      <trkpt lat="45.18369" lon="0.75586">
        <ele>137</ele>
        <time>2018-05-20T09:04:25.000Z</time>
      </trkpt>
      <trkpt lat="45.18358" lon="0.75571">
        <ele>136</ele>
        <time>2018-05-20T09:04:28.000Z</time>
      </trkpt>
      <trkpt lat="45.18353" lon="0.7556">
        <ele>136</ele>
        <time>2018-05-20T09:04:30.000Z</time>
      </trkpt>
      <trkpt lat="45.18342" lon="0.75544">
        <ele>137</ele>
        <time>2018-05-20T09:04:33.000Z</time>
      </trkpt>
      <trkpt lat="45.18335" lon="0.75533">
        <ele>136</ele>
        <time>2018-05-20T09:04:35.000Z</time>
      </trkpt>
      <trkpt lat="45.18327" lon="0.75522">
        <ele>137</ele>
        <time>2018-05-20T09:04:37.000Z</time>
      </trkpt>
      <trkpt lat="45.18321" lon="0.7551">
        <ele>137</ele>
        <time>2018-05-20T09:04:39.000Z</time>
      </trkpt>
      <trkpt lat="45.18315" lon="0.75499">
        <ele>137</ele>
        <time>2018-05-20T09:04:41.000Z</time>
      </trkpt>
      <trkpt lat="45.18308" lon="0.75489">
        <ele>136</ele>
        <time>2018-05-20T09:04:43.000Z</time>
      </trkpt>
      <trkpt lat="45.183" lon="0.75473">
        <ele>135</ele>
        <time>2018-05-20T09:04:46.000Z</time>
      </trkpt>
      <trkpt lat="45.18295" lon="0.75462">
        <ele>132</ele>
        <time>2018-05-20T09:04:48.000Z</time>
      </trkpt>
      <trkpt lat="45.18288" lon="0.75451">
        <ele>133</ele>
        <time>2018-05-20T09:04:50.000Z</time>
      </trkpt>
      <trkpt lat="45.18282" lon="0.75439">
        <ele>134</ele>
        <time>2018-05-20T09:04:52.000Z</time>
      </trkpt>
      <trkpt lat="45.18271" lon="0.75415">
        <ele>135</ele>
        <time>2018-05-20T09:04:56.000Z</time>
      </trkpt>
      <trkpt lat="45.18265" lon="0.75402">
        <ele>136</ele>
        <time>2018-05-20T09:04:58.000Z</time>
      </trkpt>
      <trkpt lat="45.18258" lon="0.75383">
        <ele>137</ele>
        <time>2018-05-20T09:05:01.000Z</time>
      </trkpt>
      <trkpt lat="45.18255" lon="0.7537">
        <ele>137</ele>
        <time>2018-05-20T09:05:03.000Z</time>
      </trkpt>
      <trkpt lat="45.18251" lon="0.75351">
        <ele>138</ele>
        <time>2018-05-20T09:05:07.000Z</time>
      </trkpt>
      <trkpt lat="45.1825" lon="0.75336">
        <ele>135</ele>
        <time>2018-05-20T09:05:09.000Z</time>
      </trkpt>
      <trkpt lat="45.1825" lon="0.75313">
        <ele>135</ele>
        <time>2018-05-20T09:05:13.000Z</time>
      </trkpt>
      <trkpt lat="45.18248" lon="0.75286">
        <ele>134</ele>
        <time>2018-05-20T09:05:16.000Z</time>
      </trkpt>
      <trkpt lat="45.18247" lon="0.75268">
        <ele>187</ele>
        <time>2018-05-20T09:05:18.000Z</time>
      </trkpt>
      <trkpt lat="45.18248" lon="0.75245">
        <ele>157</ele>
        <time>2018-05-20T09:05:21.000Z</time>
      </trkpt>
      <trkpt lat="45.18252" lon="0.75231">
        <ele>146</ele>
        <time>2018-05-20T09:05:23.000Z</time>
      </trkpt>
      <trkpt lat="45.18255" lon="0.75204">
        <ele>143</ele>
        <time>2018-05-20T09:05:26.000Z</time>
      </trkpt>
      <trkpt lat="45.18255" lon="0.7519">
        <ele>142</ele>
        <time>2018-05-20T09:05:28.000Z</time>
      </trkpt>
      <trkpt lat="45.18262" lon="0.75167">
        <ele>140</ele>
        <time>2018-05-20T09:05:32.000Z</time>
      </trkpt>
      <trkpt lat="45.18264" lon="0.75146">
        <ele>138</ele>
        <time>2018-05-20T09:05:36.000Z</time>
      </trkpt>
      <trkpt lat="45.18269" lon="0.75134">
        <ele>136</ele>
        <time>2018-05-20T09:05:38.000Z</time>
      </trkpt>
      <trkpt lat="45.18274" lon="0.75115">
        <ele>135</ele>
        <time>2018-05-20T09:05:42.000Z</time>
      </trkpt>
      <trkpt lat="45.18279" lon="0.75099">
        <ele>134</ele>
        <time>2018-05-20T09:05:45.000Z</time>
      </trkpt>
      <trkpt lat="45.18285" lon="0.75085">
        <ele>132</ele>
        <time>2018-05-20T09:05:48.000Z</time>
      </trkpt>
      <trkpt lat="45.18293" lon="0.75064">
        <ele>182</ele>
        <time>2018-05-20T09:05:52.000Z</time>
      </trkpt>
      <trkpt lat="45.18298" lon="0.75045">
        <ele>149</ele>
        <time>2018-05-20T09:05:56.000Z</time>
      </trkpt>
      <trkpt lat="45.18305" lon="0.75033">
        <ele>192</ele>
        <time>2018-05-20T09:05:58.000Z</time>
      </trkpt>
      <trkpt lat="45.18312" lon="0.7502">
        <ele>200</ele>
        <time>2018-05-20T09:06:00.000Z</time>
      </trkpt>
      <trkpt lat="45.18326" lon="0.74994">
        <ele>158</ele>
        <time>2018-05-20T09:06:04.000Z</time>
      </trkpt>
      <trkpt lat="45.18343" lon="0.74971">
        <ele>140</ele>
        <time>2018-05-20T09:06:08.000Z</time>
      </trkpt>
      <trkpt lat="45.18351" lon="0.74961">
        <ele>139</ele>
        <time>2018-05-20T09:06:10.000Z</time>
      </trkpt>
      <trkpt lat="45.18366" lon="0.74941">
        <ele>133</ele>
        <time>2018-05-20T09:06:14.000Z</time>
      </trkpt>
      <trkpt lat="45.18378" lon="0.74926">
        <ele>133</ele>
        <time>2018-05-20T09:06:17.000Z</time>
      </trkpt>
      <trkpt lat="45.18385" lon="0.74917">
        <ele>133</ele>
        <time>2018-05-20T09:06:19.000Z</time>
      </trkpt>
      <trkpt lat="45.18397" lon="0.74898">
        <ele>132</ele>
        <time>2018-05-20T09:06:23.000Z</time>
      </trkpt>
      <trkpt lat="45.18404" lon="0.74889">
        <ele>133</ele>
        <time>2018-05-20T09:06:25.000Z</time>
      </trkpt>
      <trkpt lat="45.18412" lon="0.74879">
        <ele>134</ele>
        <time>2018-05-20T09:06:27.000Z</time>
      </trkpt>
      <trkpt lat="45.18424" lon="0.74868">
        <ele>134</ele>
        <time>2018-05-20T09:06:30.000Z</time>
      </trkpt>
      <trkpt lat="45.18432" lon="0.74859">
        <ele>135</ele>
        <time>2018-05-20T09:06:32.000Z</time>
      </trkpt>
      <trkpt lat="45.18447" lon="0.74852">
        <ele>133</ele>
        <time>2018-05-20T09:06:36.000Z</time>
      </trkpt>
      <trkpt lat="45.18457" lon="0.74846">
        <ele>131</ele>
        <time>2018-05-20T09:06:39.000Z</time>
      </trkpt>
      <trkpt lat="45.18469" lon="0.74842">
        <ele>132</ele>
        <time>2018-05-20T09:06:42.000Z</time>
      </trkpt>
      <trkpt lat="45.18478" lon="0.74834">
        <ele>131</ele>
        <time>2018-05-20T09:06:45.000Z</time>
      </trkpt>
      <trkpt lat="45.18493" lon="0.74826">
        <ele>132</ele>
        <time>2018-05-20T09:06:49.000Z</time>
      </trkpt>
      <trkpt lat="45.18504" lon="0.74819">
        <ele>133</ele>
        <time>2018-05-20T09:06:51.000Z</time>
      </trkpt>
      <trkpt lat="45.18522" lon="0.74809">
        <ele>134</ele>
        <time>2018-05-20T09:06:55.000Z</time>
      </trkpt>
      <trkpt lat="45.18536" lon="0.74802">
        <ele>135</ele>
        <time>2018-05-20T09:06:58.000Z</time>
      </trkpt>
      <trkpt lat="45.18547" lon="0.74796">
        <ele>135</ele>
        <time>2018-05-20T09:07:01.000Z</time>
      </trkpt>
      <trkpt lat="45.18557" lon="0.74787">
        <ele>136</ele>
        <time>2018-05-20T09:07:05.000Z</time>
      </trkpt>
      <trkpt lat="45.18564" lon="0.74776">
        <ele>135</ele>
        <time>2018-05-20T09:07:09.000Z</time>
      </trkpt>
      <trkpt lat="45.18575" lon="0.74766">
        <ele>135</ele>
        <time>2018-05-20T09:07:13.000Z</time>
      </trkpt>
      <trkpt lat="45.1859" lon="0.74757">
        <ele>134</ele>
        <time>2018-05-20T09:07:17.000Z</time>
      </trkpt>
      <trkpt lat="45.18601" lon="0.74748">
        <ele>135</ele>
        <time>2018-05-20T09:07:20.000Z</time>
      </trkpt>
      <trkpt lat="45.1861" lon="0.74737">
        <ele>136</ele>
        <time>2018-05-20T09:07:23.000Z</time>
      </trkpt>
      <trkpt lat="45.1862" lon="0.74723">
        <ele>136</ele>
        <time>2018-05-20T09:07:26.000Z</time>
      </trkpt>
      <trkpt lat="45.18628" lon="0.74713">
        <ele>136</ele>
        <time>2018-05-20T09:07:29.000Z</time>
      </trkpt>
      <trkpt lat="45.18638" lon="0.74701">
        <ele>136</ele>
        <time>2018-05-20T09:07:32.000Z</time>
      </trkpt>
      <trkpt lat="45.18645" lon="0.74691">
        <ele>136</ele>
        <time>2018-05-20T09:07:34.000Z</time>
      </trkpt>
      <trkpt lat="45.18652" lon="0.74682">
        <ele>136</ele>
        <time>2018-05-20T09:07:36.000Z</time>
      </trkpt>
      <trkpt lat="45.18658" lon="0.74666">
        <ele>136</ele>
        <time>2018-05-20T09:07:40.000Z</time>
      </trkpt>
      <trkpt lat="45.18662" lon="0.74654">
        <ele>136</ele>
        <time>2018-05-20T09:07:42.000Z</time>
      </trkpt>
      <trkpt lat="45.18671" lon="0.7464">
        <ele>136</ele>
        <time>2018-05-20T09:07:45.000Z</time>
      </trkpt>
      <trkpt lat="45.18677" lon="0.74626">
        <ele>133</ele>
        <time>2018-05-20T09:07:48.000Z</time>
      </trkpt>
      <trkpt lat="45.18687" lon="0.7461">
        <ele>132</ele>
        <time>2018-05-20T09:07:51.000Z</time>
      </trkpt>
      <trkpt lat="45.18695" lon="0.746">
        <ele>132</ele>
        <time>2018-05-20T09:07:53.000Z</time>
      </trkpt>
      <trkpt lat="45.18705" lon="0.74581">
        <ele>134</ele>
        <time>2018-05-20T09:07:56.000Z</time>
      </trkpt>
      <trkpt lat="45.18712" lon="0.7457">
        <ele>136</ele>
        <time>2018-05-20T09:07:58.000Z</time>
      </trkpt>
      <trkpt lat="45.18717" lon="0.74557">
        <ele>135</ele>
        <time>2018-05-20T09:08:00.000Z</time>
      </trkpt>
      <trkpt lat="45.18724" lon="0.74539">
        <ele>137</ele>
        <time>2018-05-20T09:08:03.000Z</time>
      </trkpt>
      <trkpt lat="45.18733" lon="0.74517">
        <ele>139</ele>
        <time>2018-05-20T09:08:07.000Z</time>
      </trkpt>
      <trkpt lat="45.18737" lon="0.74503">
        <ele>138</ele>
        <time>2018-05-20T09:08:09.000Z</time>
      </trkpt>
      <trkpt lat="45.18745" lon="0.74481">
        <ele>136</ele>
        <time>2018-05-20T09:08:13.000Z</time>
      </trkpt>
      <trkpt lat="45.18749" lon="0.74469">
        <ele>136</ele>
        <time>2018-05-20T09:08:16.000Z</time>
      </trkpt>
      <trkpt lat="45.18758" lon="0.7445">
        <ele>136</ele>
        <time>2018-05-20T09:08:19.000Z</time>
      </trkpt>
      <trkpt lat="45.18763" lon="0.74432">
        <ele>137</ele>
        <time>2018-05-20T09:08:23.000Z</time>
      </trkpt>
      <trkpt lat="45.18769" lon="0.74416">
        <ele>137</ele>
        <time>2018-05-20T09:08:26.000Z</time>
      </trkpt>
      <trkpt lat="45.18774" lon="0.74401">
        <ele>135</ele>
        <time>2018-05-20T09:08:29.000Z</time>
      </trkpt>
      <trkpt lat="45.18778" lon="0.74387">
        <ele>136</ele>
        <time>2018-05-20T09:08:32.000Z</time>
      </trkpt>
      <trkpt lat="45.18782" lon="0.74373">
        <ele>135</ele>
        <time>2018-05-20T09:08:35.000Z</time>
      </trkpt>
      <trkpt lat="45.18787" lon="0.74357">
        <ele>135</ele>
        <time>2018-05-20T09:08:39.000Z</time>
      </trkpt>
      <trkpt lat="45.1879" lon="0.74343">
        <ele>136</ele>
        <time>2018-05-20T09:08:42.000Z</time>
      </trkpt>
      <trkpt lat="45.18793" lon="0.7433">
        <ele>136</ele>
        <time>2018-05-20T09:08:45.000Z</time>
      </trkpt>
      <trkpt lat="45.18797" lon="0.74314">
        <ele>138</ele>
        <time>2018-05-20T09:08:49.000Z</time>
      </trkpt>
      <trkpt lat="45.18801" lon="0.74302">
        <ele>137</ele>
        <time>2018-05-20T09:08:52.000Z</time>
      </trkpt>
      <trkpt lat="45.1881" lon="0.74292">
        <ele>138</ele>
        <time>2018-05-20T09:08:56.000Z</time>
      </trkpt>
      <trkpt lat="45.18819" lon="0.74288">
        <ele>137</ele>
        <time>2018-05-20T09:08:59.000Z</time>
      </trkpt>
      <trkpt lat="45.1883" lon="0.74268">
        <ele>139</ele>
        <time>2018-05-20T09:09:04.000Z</time>
      </trkpt>
      <trkpt lat="45.18836" lon="0.74254">
        <ele>139</ele>
        <time>2018-05-20T09:09:07.000Z</time>
      </trkpt>
      <trkpt lat="45.18845" lon="0.74236">
        <ele>138</ele>
        <time>2018-05-20T09:09:11.000Z</time>
      </trkpt>
      <trkpt lat="45.18854" lon="0.74209">
        <ele>134</ele>
        <time>2018-05-20T09:09:16.000Z</time>
      </trkpt>
      <trkpt lat="45.18857" lon="0.74191">
        <ele>133</ele>
        <time>2018-05-20T09:09:19.000Z</time>
      </trkpt>
      <trkpt lat="45.18859" lon="0.74177">
        <ele>133</ele>
        <time>2018-05-20T09:09:21.000Z</time>
      </trkpt>
      <trkpt lat="45.18863" lon="0.74155">
        <ele>133</ele>
        <time>2018-05-20T09:09:25.000Z</time>
      </trkpt>
      <trkpt lat="45.18868" lon="0.74136">
        <ele>133</ele>
        <time>2018-05-20T09:09:28.000Z</time>
      </trkpt>
      <trkpt lat="45.1887" lon="0.74123">
        <ele>133</ele>
        <time>2018-05-20T09:09:30.000Z</time>
      </trkpt>
      <trkpt lat="45.18873" lon="0.74109">
        <ele>134</ele>
        <time>2018-05-20T09:09:32.000Z</time>
      </trkpt>
      <trkpt lat="45.18876" lon="0.74096">
        <ele>133</ele>
        <time>2018-05-20T09:09:34.000Z</time>
      </trkpt>
      <trkpt lat="45.18878" lon="0.74083">
        <ele>133</ele>
        <time>2018-05-20T09:09:36.000Z</time>
      </trkpt>
      <trkpt lat="45.18881" lon="0.74069">
        <ele>133</ele>
        <time>2018-05-20T09:09:38.000Z</time>
      </trkpt>
      <trkpt lat="45.18883" lon="0.74052">
        <ele>132</ele>
        <time>2018-05-20T09:09:41.000Z</time>
      </trkpt>
      <trkpt lat="45.18881" lon="0.74032">
        <ele>131</ele>
        <time>2018-05-20T09:09:46.000Z</time>
      </trkpt>
      <trkpt lat="45.18873" lon="0.74018">
        <ele>131</ele>
        <time>2018-05-20T09:09:50.000Z</time>
      </trkpt>
      <trkpt lat="45.18866" lon="0.74007">
        <ele>132</ele>
        <time>2018-05-20T09:09:53.000Z</time>
      </trkpt>
      <trkpt lat="45.18859" lon="0.73996">
        <ele>132</ele>
        <time>2018-05-20T09:09:56.000Z</time>
      </trkpt>
      <trkpt lat="45.18852" lon="0.73983">
        <ele>133</ele>
        <time>2018-05-20T09:09:59.000Z</time>
      </trkpt>
      <trkpt lat="45.18842" lon="0.73972">
        <ele>130</ele>
        <time>2018-05-20T09:10:02.000Z</time>
      </trkpt>
      <trkpt lat="45.18834" lon="0.73964">
        <ele>129</ele>
        <time>2018-05-20T09:10:04.000Z</time>
      </trkpt>
      <trkpt lat="45.18827" lon="0.73956">
        <ele>129</ele>
        <time>2018-05-20T09:10:06.000Z</time>
      </trkpt>
      <trkpt lat="45.18819" lon="0.73942">
        <ele>128</ele>
        <time>2018-05-20T09:10:09.000Z</time>
      </trkpt>
      <trkpt lat="45.18817" lon="0.7393">
        <ele>127</ele>
        <time>2018-05-20T09:10:11.000Z</time>
      </trkpt>
      <trkpt lat="45.18815" lon="0.73917">
        <ele>128</ele>
        <time>2018-05-20T09:10:13.000Z</time>
      </trkpt>
      <trkpt lat="45.18812" lon="0.73904">
        <ele>129</ele>
        <time>2018-05-20T09:10:15.000Z</time>
      </trkpt>
      <trkpt lat="45.18808" lon="0.73889">
        <ele>129</ele>
        <time>2018-05-20T09:10:17.000Z</time>
      </trkpt>
      <trkpt lat="45.18807" lon="0.73874">
        <ele>128</ele>
        <time>2018-05-20T09:10:19.000Z</time>
      </trkpt>
      <trkpt lat="45.18804" lon="0.73858">
        <ele>130</ele>
        <time>2018-05-20T09:10:21.000Z</time>
      </trkpt>
      <trkpt lat="45.18803" lon="0.73843">
        <ele>129</ele>
        <time>2018-05-20T09:10:24.000Z</time>
      </trkpt>
      <trkpt lat="45.188" lon="0.73827">
        <ele>129</ele>
        <time>2018-05-20T09:10:26.000Z</time>
      </trkpt>
      <trkpt lat="45.18802" lon="0.73814">
        <ele>129</ele>
        <time>2018-05-20T09:10:28.000Z</time>
      </trkpt>
      <trkpt lat="45.18806" lon="0.73799">
        <ele>130</ele>
        <time>2018-05-20T09:10:30.000Z</time>
      </trkpt>
      <trkpt lat="45.18811" lon="0.73784">
        <ele>130</ele>
        <time>2018-05-20T09:10:32.000Z</time>
      </trkpt>
      <trkpt lat="45.18814" lon="0.73771">
        <ele>130</ele>
        <time>2018-05-20T09:10:34.000Z</time>
      </trkpt>
      <trkpt lat="45.18815" lon="0.73755">
        <ele>131</ele>
        <time>2018-05-20T09:10:37.000Z</time>
      </trkpt>
      <trkpt lat="45.18819" lon="0.7374">
        <ele>131</ele>
        <time>2018-05-20T09:10:39.000Z</time>
      </trkpt>
      <trkpt lat="45.18823" lon="0.73723">
        <ele>132</ele>
        <time>2018-05-20T09:10:42.000Z</time>
      </trkpt>
      <trkpt lat="45.18824" lon="0.7371">
        <ele>132</ele>
        <time>2018-05-20T09:10:45.000Z</time>
      </trkpt>
      <trkpt lat="45.18829" lon="0.73698">
        <ele>131</ele>
        <time>2018-05-20T09:10:48.000Z</time>
      </trkpt>
      <trkpt lat="45.18831" lon="0.73685">
        <ele>133</ele>
        <time>2018-05-20T09:10:51.000Z</time>
      </trkpt>
      <trkpt lat="45.18835" lon="0.7367">
        <ele>133</ele>
        <time>2018-05-20T09:10:54.000Z</time>
      </trkpt>
      <trkpt lat="45.1884" lon="0.73657">
        <ele>133</ele>
        <time>2018-05-20T09:10:57.000Z</time>
      </trkpt>
      <trkpt lat="45.18843" lon="0.73644">
        <ele>135</ele>
        <time>2018-05-20T09:11:01.000Z</time>
      </trkpt>
      <trkpt lat="45.18834" lon="0.73637">
        <ele>136</ele>
        <time>2018-05-20T09:11:05.000Z</time>
      </trkpt>
      <trkpt lat="45.18826" lon="0.73632">
        <ele>137</ele>
        <time>2018-05-20T09:11:10.000Z</time>
      </trkpt>
      <trkpt lat="45.18817" lon="0.73629">
        <ele>135</ele>
        <time>2018-05-20T09:11:15.000Z</time>
      </trkpt>
      <trkpt lat="45.18808" lon="0.73622">
        <ele>133</ele>
        <time>2018-05-20T09:11:20.000Z</time>
      </trkpt>
      <trkpt lat="45.18811" lon="0.73602">
        <ele>131</ele>
        <time>2018-05-20T09:11:23.000Z</time>
      </trkpt>
      <trkpt lat="45.18813" lon="0.73577">
        <ele>131</ele>
        <time>2018-05-20T09:11:26.000Z</time>
      </trkpt>
      <trkpt lat="45.18816" lon="0.73562">
        <ele>131</ele>
        <time>2018-05-20T09:11:28.000Z</time>
      </trkpt>
      <trkpt lat="45.18818" lon="0.73548">
        <ele>131</ele>
        <time>2018-05-20T09:11:30.000Z</time>
      </trkpt>
      <trkpt lat="45.18821" lon="0.73527">
        <ele>132</ele>
        <time>2018-05-20T09:11:33.000Z</time>
      </trkpt>
      <trkpt lat="45.18824" lon="0.73505">
        <ele>131</ele>
        <time>2018-05-20T09:11:36.000Z</time>
      </trkpt>
      <trkpt lat="45.18824" lon="0.73489">
        <ele>132</ele>
        <time>2018-05-20T09:11:39.000Z</time>
      </trkpt>
      <trkpt lat="45.18827" lon="0.73473">
        <ele>129</ele>
        <time>2018-05-20T09:11:43.000Z</time>
      </trkpt>
      <trkpt lat="45.1883" lon="0.73458">
        <ele>131</ele>
        <time>2018-05-20T09:11:47.000Z</time>
      </trkpt>
      <trkpt lat="45.18832" lon="0.73439">
        <ele>131</ele>
        <time>2018-05-20T09:11:51.000Z</time>
      </trkpt>
      <trkpt lat="45.18832" lon="0.73415">
        <ele>131</ele>
        <time>2018-05-20T09:11:55.000Z</time>
      </trkpt>
      <trkpt lat="45.18832" lon="0.73395">
        <ele>133</ele>
        <time>2018-05-20T09:11:58.000Z</time>
      </trkpt>
      <trkpt lat="45.18831" lon="0.73376">
        <ele>132</ele>
        <time>2018-05-20T09:12:01.000Z</time>
      </trkpt>
      <trkpt lat="45.18829" lon="0.73357">
        <ele>131</ele>
        <time>2018-05-20T09:12:04.000Z</time>
      </trkpt>
      <trkpt lat="45.18827" lon="0.73334">
        <ele>129</ele>
        <time>2018-05-20T09:12:08.000Z</time>
      </trkpt>
      <trkpt lat="45.18827" lon="0.73318">
        <ele>130</ele>
        <time>2018-05-20T09:12:11.000Z</time>
      </trkpt>
      <trkpt lat="45.18826" lon="0.73297">
        <ele>131</ele>
        <time>2018-05-20T09:12:15.000Z</time>
      </trkpt>
      <trkpt lat="45.18824" lon="0.73275">
        <ele>130</ele>
        <time>2018-05-20T09:12:19.000Z</time>
      </trkpt>
      <trkpt lat="45.18823" lon="0.73258">
        <ele>132</ele>
        <time>2018-05-20T09:12:22.000Z</time>
      </trkpt>
      <trkpt lat="45.1882" lon="0.73233">
        <ele>133</ele>
        <time>2018-05-20T09:12:26.000Z</time>
      </trkpt>
      <trkpt lat="45.18819" lon="0.73217">
        <ele>135</ele>
        <time>2018-05-20T09:12:29.000Z</time>
      </trkpt>
      <trkpt lat="45.18817" lon="0.73201">
        <ele>135</ele>
        <time>2018-05-20T09:12:32.000Z</time>
      </trkpt>
      <trkpt lat="45.18813" lon="0.73182">
        <ele>134</ele>
        <time>2018-05-20T09:12:36.000Z</time>
      </trkpt>
      <trkpt lat="45.18811" lon="0.73166">
        <ele>134</ele>
        <time>2018-05-20T09:12:40.000Z</time>
      </trkpt>
      <trkpt lat="45.18809" lon="0.73153">
        <ele>134</ele>
        <time>2018-05-20T09:12:43.000Z</time>
      </trkpt>
      <trkpt lat="45.18807" lon="0.73134">
        <ele>133</ele>
        <time>2018-05-20T09:12:47.000Z</time>
      </trkpt>
      <trkpt lat="45.18803" lon="0.73118">
        <ele>133</ele>
        <time>2018-05-20T09:12:50.000Z</time>
      </trkpt>
      <trkpt lat="45.18794" lon="0.73094">
        <ele>135</ele>
        <time>2018-05-20T09:12:55.000Z</time>
      </trkpt>
      <trkpt lat="45.18787" lon="0.7308">
        <ele>135</ele>
        <time>2018-05-20T09:12:58.000Z</time>
      </trkpt>
      <trkpt lat="45.18779" lon="0.73067">
        <ele>135</ele>
        <time>2018-05-20T09:13:01.000Z</time>
      </trkpt>
      <trkpt lat="45.18771" lon="0.73056">
        <ele>135</ele>
        <time>2018-05-20T09:13:04.000Z</time>
      </trkpt>
      <trkpt lat="45.18764" lon="0.73046">
        <ele>133</ele>
        <time>2018-05-20T09:13:07.000Z</time>
      </trkpt>
      <trkpt lat="45.18758" lon="0.73036">
        <ele>132</ele>
        <time>2018-05-20T09:13:10.000Z</time>
      </trkpt>
      <trkpt lat="45.1875" lon="0.73024">
        <ele>130</ele>
        <time>2018-05-20T09:13:13.000Z</time>
      </trkpt>
      <trkpt lat="45.18742" lon="0.73011">
        <ele>132</ele>
        <time>2018-05-20T09:13:16.000Z</time>
      </trkpt>
      <trkpt lat="45.18736" lon="0.72998">
        <ele>133</ele>
        <time>2018-05-20T09:13:19.000Z</time>
      </trkpt>
      <trkpt lat="45.18729" lon="0.72988">
        <ele>134</ele>
        <time>2018-05-20T09:13:22.000Z</time>
      </trkpt>
      <trkpt lat="45.18723" lon="0.72976">
        <ele>134</ele>
        <time>2018-05-20T09:13:25.000Z</time>
      </trkpt>
      <trkpt lat="45.18716" lon="0.72965">
        <ele>132</ele>
        <time>2018-05-20T09:13:28.000Z</time>
      </trkpt>
      <trkpt lat="45.18709" lon="0.72953">
        <ele>132</ele>
        <time>2018-05-20T09:13:31.000Z</time>
      </trkpt>
      <trkpt lat="45.18702" lon="0.72941">
        <ele>131</ele>
        <time>2018-05-20T09:13:34.000Z</time>
      </trkpt>
      <trkpt lat="45.18695" lon="0.72929">
        <ele>133</ele>
        <time>2018-05-20T09:13:36.000Z</time>
      </trkpt>
      <trkpt lat="45.18684" lon="0.72913">
        <ele>133</ele>
        <time>2018-05-20T09:13:40.000Z</time>
      </trkpt>
      <trkpt lat="45.18675" lon="0.72898">
        <ele>133</ele>
        <time>2018-05-20T09:13:44.000Z</time>
      </trkpt>
      <trkpt lat="45.18667" lon="0.72883">
        <ele>132</ele>
        <time>2018-05-20T09:13:48.000Z</time>
      </trkpt>
      <trkpt lat="45.1866" lon="0.72867">
        <ele>133</ele>
        <time>2018-05-20T09:13:52.000Z</time>
      </trkpt>
      <trkpt lat="45.18652" lon="0.72854">
        <ele>133</ele>
        <time>2018-05-20T09:13:55.000Z</time>
      </trkpt>
      <trkpt lat="45.18642" lon="0.7284">
        <ele>130</ele>
        <time>2018-05-20T09:13:59.000Z</time>
      </trkpt>
      <trkpt lat="45.18635" lon="0.7283">
        <ele>130</ele>
        <time>2018-05-20T09:14:02.000Z</time>
      </trkpt>
      <trkpt lat="45.18628" lon="0.7282">
        <ele>131</ele>
        <time>2018-05-20T09:14:05.000Z</time>
      </trkpt>
      <trkpt lat="45.1862" lon="0.72807">
        <ele>132</ele>
        <time>2018-05-20T09:14:09.000Z</time>
      </trkpt>
      <trkpt lat="45.18608" lon="0.72793">
        <ele>133</ele>
        <time>2018-05-20T09:14:14.000Z</time>
      </trkpt>
      <trkpt lat="45.18599" lon="0.7278">
        <ele>134</ele>
        <time>2018-05-20T09:14:18.000Z</time>
      </trkpt>
      <trkpt lat="45.18589" lon="0.72766">
        <ele>133</ele>
        <time>2018-05-20T09:14:22.000Z</time>
      </trkpt>
      <trkpt lat="45.18578" lon="0.72752">
        <ele>135</ele>
        <time>2018-05-20T09:14:26.000Z</time>
      </trkpt>
      <trkpt lat="45.18568" lon="0.7274">
        <ele>135</ele>
        <time>2018-05-20T09:14:31.000Z</time>
      </trkpt>
      <trkpt lat="45.18558" lon="0.72729">
        <ele>136</ele>
        <time>2018-05-20T09:14:35.000Z</time>
      </trkpt>
      <trkpt lat="45.18551" lon="0.72721">
        <ele>185</ele>
        <time>2018-05-20T09:14:38.000Z</time>
      </trkpt>
      <trkpt lat="45.18543" lon="0.72709">
        <ele>165</ele>
        <time>2018-05-20T09:14:41.000Z</time>
      </trkpt>
      <trkpt lat="45.18535" lon="0.72699">
        <ele>152</ele>
        <time>2018-05-20T09:14:44.000Z</time>
      </trkpt>
      <trkpt lat="45.18525" lon="0.72684">
        <ele>144</ele>
        <time>2018-05-20T09:14:48.000Z</time>
      </trkpt>
      <trkpt lat="45.18515" lon="0.72669">
        <ele>139</ele>
        <time>2018-05-20T09:14:52.000Z</time>
      </trkpt>
      <trkpt lat="45.18503" lon="0.72654">
        <ele>135</ele>
        <time>2018-05-20T09:14:56.000Z</time>
      </trkpt>
      <trkpt lat="45.18485" lon="0.72639">
        <ele>136</ele>
        <time>2018-05-20T09:15:01.000Z</time>
      </trkpt>
      <trkpt lat="45.18473" lon="0.72625">
        <ele>139</ele>
        <time>2018-05-20T09:15:05.000Z</time>
      </trkpt>
      <trkpt lat="45.18462" lon="0.72619">
        <ele>137</ele>
        <time>2018-05-20T09:15:08.000Z</time>
      </trkpt>
      <trkpt lat="45.18448" lon="0.72608">
        <ele>136</ele>
        <time>2018-05-20T09:15:12.000Z</time>
      </trkpt>
      <trkpt lat="45.18437" lon="0.72598">
        <ele>137</ele>
        <time>2018-05-20T09:15:15.000Z</time>
      </trkpt>
      <trkpt lat="45.18426" lon="0.72588">
        <ele>135</ele>
        <time>2018-05-20T09:15:18.000Z</time>
      </trkpt>
      <trkpt lat="45.18414" lon="0.72578">
        <ele>136</ele>
        <time>2018-05-20T09:15:21.000Z</time>
      </trkpt>
      <trkpt lat="45.18401" lon="0.72565">
        <ele>136</ele>
        <time>2018-05-20T09:15:25.000Z</time>
      </trkpt>
      <trkpt lat="45.18388" lon="0.72555">
        <ele>137</ele>
        <time>2018-05-20T09:15:29.000Z</time>
      </trkpt>
      <trkpt lat="45.18381" lon="0.72547">
        <ele>135</ele>
        <time>2018-05-20T09:15:32.000Z</time>
      </trkpt>
      <trkpt lat="45.18372" lon="0.72531">
        <ele>135</ele>
        <time>2018-05-20T09:15:36.000Z</time>
      </trkpt>
      <trkpt lat="45.18359" lon="0.72522">
        <ele>135</ele>
        <time>2018-05-20T09:15:40.000Z</time>
      </trkpt>
      <trkpt lat="45.18349" lon="0.72514">
        <ele>135</ele>
        <time>2018-05-20T09:15:44.000Z</time>
      </trkpt>
      <trkpt lat="45.18336" lon="0.72505">
        <ele>135</ele>
        <time>2018-05-20T09:15:48.000Z</time>
      </trkpt>
      <trkpt lat="45.18327" lon="0.72501">
        <ele>136</ele>
        <time>2018-05-20T09:15:51.000Z</time>
      </trkpt>
      <trkpt lat="45.18317" lon="0.72502">
        <ele>134</ele>
        <time>2018-05-20T09:15:54.000Z</time>
      </trkpt>
      <trkpt lat="45.18306" lon="0.72498">
        <ele>134</ele>
        <time>2018-05-20T09:15:57.000Z</time>
      </trkpt>
      <trkpt lat="45.18295" lon="0.72494">
        <ele>134</ele>
        <time>2018-05-20T09:16:00.000Z</time>
      </trkpt>
      <trkpt lat="45.18278" lon="0.72487">
        <ele>134</ele>
        <time>2018-05-20T09:16:04.000Z</time>
      </trkpt>
      <trkpt lat="45.18266" lon="0.72481">
        <ele>134</ele>
        <time>2018-05-20T09:16:07.000Z</time>
      </trkpt>
      <trkpt lat="45.18249" lon="0.72475">
        <ele>132</ele>
        <time>2018-05-20T09:16:11.000Z</time>
      </trkpt>
      <trkpt lat="45.1824" lon="0.72471">
        <ele>133</ele>
        <time>2018-05-20T09:16:13.000Z</time>
      </trkpt>
      <trkpt lat="45.18224" lon="0.72463">
        <ele>130</ele>
        <time>2018-05-20T09:16:17.000Z</time>
      </trkpt>
      <trkpt lat="45.18211" lon="0.72461">
        <ele>130</ele>
        <time>2018-05-20T09:16:20.000Z</time>
      </trkpt>
      <trkpt lat="45.18202" lon="0.72462">
        <ele>130</ele>
        <time>2018-05-20T09:16:22.000Z</time>
      </trkpt>
      <trkpt lat="45.18186" lon="0.72455">
        <ele>131</ele>
        <time>2018-05-20T09:16:25.000Z</time>
      </trkpt>
      <trkpt lat="45.18174" lon="0.72449">
        <ele>131</ele>
        <time>2018-05-20T09:16:28.000Z</time>
      </trkpt>
      <trkpt lat="45.18166" lon="0.72442">
        <ele>132</ele>
        <time>2018-05-20T09:16:30.000Z</time>
      </trkpt>
      <trkpt lat="45.18157" lon="0.72438">
        <ele>131</ele>
        <time>2018-05-20T09:16:32.000Z</time>
      </trkpt>
      <trkpt lat="45.18148" lon="0.72432">
        <ele>133</ele>
        <time>2018-05-20T09:16:34.000Z</time>
      </trkpt>
      <trkpt lat="45.18135" lon="0.72425">
        <ele>134</ele>
        <time>2018-05-20T09:16:37.000Z</time>
      </trkpt>
      <trkpt lat="45.18126" lon="0.72422">
        <ele>132</ele>
        <time>2018-05-20T09:16:39.000Z</time>
      </trkpt>
      <trkpt lat="45.18111" lon="0.72415">
        <ele>134</ele>
        <time>2018-05-20T09:16:43.000Z</time>
      </trkpt>
      <trkpt lat="45.18101" lon="0.72409">
        <ele>134</ele>
        <time>2018-05-20T09:16:46.000Z</time>
      </trkpt>
      <trkpt lat="45.18091" lon="0.72403">
        <ele>135</ele>
        <time>2018-05-20T09:16:50.000Z</time>
      </trkpt>
      <trkpt lat="45.18084" lon="0.72395">
        <ele>135</ele>
        <time>2018-05-20T09:16:55.000Z</time>
      </trkpt>
      <trkpt lat="45.18073" lon="0.72392">
        <ele>131</ele>
        <time>2018-05-20T09:17:00.000Z</time>
      </trkpt>
      <trkpt lat="45.18061" lon="0.72389">
        <ele>131</ele>
        <time>2018-05-20T09:17:04.000Z</time>
      </trkpt>
      <trkpt lat="45.18052" lon="0.72382">
        <ele>132</ele>
        <time>2018-05-20T09:17:07.000Z</time>
      </trkpt>
      <trkpt lat="45.18042" lon="0.72373">
        <ele>133</ele>
        <time>2018-05-20T09:17:10.000Z</time>
      </trkpt>
      <trkpt lat="45.18032" lon="0.72365">
        <ele>133</ele>
        <time>2018-05-20T09:17:14.000Z</time>
      </trkpt>
      <trkpt lat="45.18027" lon="0.72355">
        <ele>136</ele>
        <time>2018-05-20T09:17:16.000Z</time>
      </trkpt>
      <trkpt lat="45.18018" lon="0.72342">
        <ele>137</ele>
        <time>2018-05-20T09:17:18.000Z</time>
      </trkpt>
      <trkpt lat="45.18007" lon="0.72336">
        <ele>134</ele>
        <time>2018-05-20T09:17:20.000Z</time>
      </trkpt>
      <trkpt lat="45.17997" lon="0.7233">
        <ele>134</ele>
        <time>2018-05-20T09:17:22.000Z</time>
      </trkpt>
      <trkpt lat="45.17986" lon="0.72325">
        <ele>134</ele>
        <time>2018-05-20T09:17:24.000Z</time>
      </trkpt>
      <trkpt lat="45.17977" lon="0.72321">
        <ele>133</ele>
        <time>2018-05-20T09:17:26.000Z</time>
      </trkpt>
      <trkpt lat="45.17967" lon="0.72316">
        <ele>134</ele>
        <time>2018-05-20T09:17:28.000Z</time>
      </trkpt>
      <trkpt lat="45.17955" lon="0.7231">
        <ele>133</ele>
        <time>2018-05-20T09:17:31.000Z</time>
      </trkpt>
      <trkpt lat="45.17946" lon="0.72306">
        <ele>133</ele>
        <time>2018-05-20T09:17:33.000Z</time>
      </trkpt>
      <trkpt lat="45.17937" lon="0.72303">
        <ele>133</ele>
        <time>2018-05-20T09:17:35.000Z</time>
      </trkpt>
      <trkpt lat="45.17927" lon="0.72296">
        <ele>132</ele>
        <time>2018-05-20T09:17:37.000Z</time>
      </trkpt>
      <trkpt lat="45.17918" lon="0.72292">
        <ele>133</ele>
        <time>2018-05-20T09:17:39.000Z</time>
      </trkpt>
      <trkpt lat="45.17907" lon="0.72284">
        <ele>135</ele>
        <time>2018-05-20T09:17:42.000Z</time>
      </trkpt>
      <trkpt lat="45.17894" lon="0.72279">
        <ele>133</ele>
        <time>2018-05-20T09:17:46.000Z</time>
      </trkpt>
      <trkpt lat="45.17884" lon="0.72272">
        <ele>134</ele>
        <time>2018-05-20T09:17:51.000Z</time>
      </trkpt>
      <trkpt lat="45.17873" lon="0.72272">
        <ele>132</ele>
        <time>2018-05-20T09:17:57.000Z</time>
      </trkpt>
      <trkpt lat="45.17861" lon="0.72275">
        <ele>132</ele>
        <time>2018-05-20T09:18:03.000Z</time>
      </trkpt>
      <trkpt lat="45.17859" lon="0.72292">
        <ele>133</ele>
        <time>2018-05-20T09:18:07.000Z</time>
      </trkpt>
      <trkpt lat="45.17857" lon="0.72308">
        <ele>134</ele>
        <time>2018-05-20T09:18:11.000Z</time>
      </trkpt>
      <trkpt lat="45.17855" lon="0.72293">
        <ele>136</ele>
        <time>2018-05-20T09:18:24.000Z</time>
      </trkpt>
      <trkpt lat="45.17856" lon="0.72278">
        <ele>136</ele>
        <time>2018-05-20T09:18:28.000Z</time>
      </trkpt>
      <trkpt lat="45.17858" lon="0.72265">
        <ele>137</ele>
        <time>2018-05-20T09:18:32.000Z</time>
      </trkpt>
      <trkpt lat="45.17859" lon="0.72252">
        <ele>137</ele>
        <time>2018-05-20T09:18:36.000Z</time>
      </trkpt>
      <trkpt lat="45.1786" lon="0.72238">
        <ele>138</ele>
        <time>2018-05-20T09:18:40.000Z</time>
      </trkpt>
      <trkpt lat="45.17863" lon="0.72222">
        <ele>137</ele>
        <time>2018-05-20T09:18:45.000Z</time>
      </trkpt>
      <trkpt lat="45.17863" lon="0.72207">
        <ele>137</ele>
        <time>2018-05-20T09:18:49.000Z</time>
      </trkpt>
      <trkpt lat="45.17856" lon="0.722">
        <ele>136</ele>
        <time>2018-05-20T09:18:52.000Z</time>
      </trkpt>
      <trkpt lat="45.1784" lon="0.72194">
        <ele>133</ele>
        <time>2018-05-20T09:18:56.000Z</time>
      </trkpt>
      <trkpt lat="45.1783" lon="0.72187">
        <ele>135</ele>
        <time>2018-05-20T09:18:59.000Z</time>
      </trkpt>
      <trkpt lat="45.17816" lon="0.72179">
        <ele>134</ele>
        <time>2018-05-20T09:19:03.000Z</time>
      </trkpt>
      <trkpt lat="45.17807" lon="0.72176">
        <ele>133</ele>
        <time>2018-05-20T09:19:05.000Z</time>
      </trkpt>
      <trkpt lat="45.17797" lon="0.72173">
        <ele>134</ele>
        <time>2018-05-20T09:19:07.000Z</time>
      </trkpt>
      <trkpt lat="45.17786" lon="0.72172">
        <ele>134</ele>
        <time>2018-05-20T09:19:10.000Z</time>
      </trkpt>
      <trkpt lat="45.17775" lon="0.72168">
        <ele>131</ele>
        <time>2018-05-20T09:19:13.000Z</time>
      </trkpt>
      <trkpt lat="45.17763" lon="0.72166">
        <ele>134</ele>
        <time>2018-05-20T09:19:16.000Z</time>
      </trkpt>
      <trkpt lat="45.17748" lon="0.72157">
        <ele>134</ele>
        <time>2018-05-20T09:19:20.000Z</time>
      </trkpt>
      <trkpt lat="45.17735" lon="0.72147">
        <ele>134</ele>
        <time>2018-05-20T09:19:24.000Z</time>
      </trkpt>
      <trkpt lat="45.17728" lon="0.7214">
        <ele>135</ele>
        <time>2018-05-20T09:19:27.000Z</time>
      </trkpt>
      <trkpt lat="45.17718" lon="0.72131">
        <ele>135</ele>
        <time>2018-05-20T09:19:32.000Z</time>
      </trkpt>
      <trkpt lat="45.17706" lon="0.72119">
        <ele>136</ele>
        <time>2018-05-20T09:19:36.000Z</time>
      </trkpt>
      <trkpt lat="45.17696" lon="0.72112">
        <ele>135</ele>
        <time>2018-05-20T09:19:39.000Z</time>
      </trkpt>
      <trkpt lat="45.17685" lon="0.72102">
        <ele>135</ele>
        <time>2018-05-20T09:19:42.000Z</time>
      </trkpt>
      <trkpt lat="45.1768" lon="0.72086">
        <ele>135</ele>
        <time>2018-05-20T09:19:45.000Z</time>
      </trkpt>
      <trkpt lat="45.17677" lon="0.72071">
        <ele>136</ele>
        <time>2018-05-20T09:19:48.000Z</time>
      </trkpt>
      <trkpt lat="45.17669" lon="0.72055">
        <ele>139</ele>
        <time>2018-05-20T09:19:53.000Z</time>
      </trkpt>
      <trkpt lat="45.17657" lon="0.72052">
        <ele>137</ele>
        <time>2018-05-20T09:19:57.000Z</time>
      </trkpt>
      <trkpt lat="45.17646" lon="0.72057">
        <ele>137</ele>
        <time>2018-05-20T09:20:01.000Z</time>
      </trkpt>
      <trkpt lat="45.17639" lon="0.72068">
        <ele>137</ele>
        <time>2018-05-20T09:20:04.000Z</time>
      </trkpt>
      <trkpt lat="45.17635" lon="0.72082">
        <ele>136</ele>
        <time>2018-05-20T09:20:07.000Z</time>
      </trkpt>
      <trkpt lat="45.17627" lon="0.72091">
        <ele>135</ele>
        <time>2018-05-20T09:20:10.000Z</time>
      </trkpt>
      <trkpt lat="45.1761" lon="0.7208">
        <ele>132</ele>
        <time>2018-05-20T09:20:15.000Z</time>
      </trkpt>
      <trkpt lat="45.17601" lon="0.72069">
        <ele>133</ele>
        <time>2018-05-20T09:20:18.000Z</time>
      </trkpt>
      <trkpt lat="45.17585" lon="0.72056">
        <ele>132</ele>
        <time>2018-05-20T09:20:22.000Z</time>
      </trkpt>
      <trkpt lat="45.17574" lon="0.72044">
        <ele>131</ele>
        <time>2018-05-20T09:20:25.000Z</time>
      </trkpt>
      <trkpt lat="45.17566" lon="0.72032">
        <ele>132</ele>
        <time>2018-05-20T09:20:27.000Z</time>
      </trkpt>
      <trkpt lat="45.17559" lon="0.72022">
        <ele>131</ele>
        <time>2018-05-20T09:20:29.000Z</time>
      </trkpt>
      <trkpt lat="45.1755" lon="0.72007">
        <ele>131</ele>
        <time>2018-05-20T09:20:32.000Z</time>
      </trkpt>
      <trkpt lat="45.17541" lon="0.71992">
        <ele>132</ele>
        <time>2018-05-20T09:20:35.000Z</time>
      </trkpt>
      <trkpt lat="45.17532" lon="0.71971">
        <ele>132</ele>
        <time>2018-05-20T09:20:39.000Z</time>
      </trkpt>
      <trkpt lat="45.17526" lon="0.71952">
        <ele>131</ele>
        <time>2018-05-20T09:20:43.000Z</time>
      </trkpt>
      <trkpt lat="45.17522" lon="0.71938">
        <ele>130</ele>
        <time>2018-05-20T09:20:46.000Z</time>
      </trkpt>
      <trkpt lat="45.17519" lon="0.71919">
        <ele>130</ele>
        <time>2018-05-20T09:20:50.000Z</time>
      </trkpt>
      <trkpt lat="45.17514" lon="0.71895">
        <ele>131</ele>
        <time>2018-05-20T09:20:54.000Z</time>
      </trkpt>
      <trkpt lat="45.17512" lon="0.7187">
        <ele>131</ele>
        <time>2018-05-20T09:20:58.000Z</time>
      </trkpt>
      <trkpt lat="45.1751" lon="0.71851">
        <ele>131</ele>
        <time>2018-05-20T09:21:01.000Z</time>
      </trkpt>
      <trkpt lat="45.17508" lon="0.71834">
        <ele>131</ele>
        <time>2018-05-20T09:21:04.000Z</time>
      </trkpt>
      <trkpt lat="45.17507" lon="0.71817">
        <ele>132</ele>
        <time>2018-05-20T09:21:07.000Z</time>
      </trkpt>
      <trkpt lat="45.17505" lon="0.71798">
        <ele>133</ele>
        <time>2018-05-20T09:21:10.000Z</time>
      </trkpt>
      <trkpt lat="45.17505" lon="0.7178">
        <ele>133</ele>
        <time>2018-05-20T09:21:13.000Z</time>
      </trkpt>
      <trkpt lat="45.17503" lon="0.71757">
        <ele>131</ele>
        <time>2018-05-20T09:21:17.000Z</time>
      </trkpt>
      <trkpt lat="45.17501" lon="0.71737">
        <ele>130</ele>
        <time>2018-05-20T09:21:21.000Z</time>
      </trkpt>
      <trkpt lat="45.175" lon="0.71719">
        <ele>130</ele>
        <time>2018-05-20T09:21:24.000Z</time>
      </trkpt>
      <trkpt lat="45.17498" lon="0.71702">
        <ele>128</ele>
        <time>2018-05-20T09:21:27.000Z</time>
      </trkpt>
      <trkpt lat="45.17495" lon="0.71674">
        <ele>130</ele>
        <time>2018-05-20T09:21:31.000Z</time>
      </trkpt>
      <trkpt lat="45.17495" lon="0.71661">
        <ele>131</ele>
        <time>2018-05-20T09:21:33.000Z</time>
      </trkpt>
      <trkpt lat="45.17493" lon="0.71639">
        <ele>134</ele>
        <time>2018-05-20T09:21:36.000Z</time>
      </trkpt>
      <trkpt lat="45.17493" lon="0.71622">
        <ele>134</ele>
        <time>2018-05-20T09:21:39.000Z</time>
      </trkpt>
      <trkpt lat="45.17494" lon="0.71602">
        <ele>134</ele>
        <time>2018-05-20T09:21:43.000Z</time>
      </trkpt>
      <trkpt lat="45.17497" lon="0.71582">
        <ele>133</ele>
        <time>2018-05-20T09:21:47.000Z</time>
      </trkpt>
      <trkpt lat="45.17498" lon="0.71565">
        <ele>132</ele>
        <time>2018-05-20T09:21:50.000Z</time>
      </trkpt>
      <trkpt lat="45.17499" lon="0.71552">
        <ele>131</ele>
        <time>2018-05-20T09:21:52.000Z</time>
      </trkpt>
      <trkpt lat="45.17502" lon="0.71528">
        <ele>131</ele>
        <time>2018-05-20T09:21:55.000Z</time>
      </trkpt>
      <trkpt lat="45.17506" lon="0.71513">
        <ele>132</ele>
        <time>2018-05-20T09:21:57.000Z</time>
      </trkpt>
      <trkpt lat="45.17508" lon="0.71499">
        <ele>133</ele>
        <time>2018-05-20T09:21:59.000Z</time>
      </trkpt>
      <trkpt lat="45.17511" lon="0.71488">
        <ele>133</ele>
        <time>2018-05-20T09:22:01.000Z</time>
      </trkpt>
      <trkpt lat="45.17514" lon="0.7147">
        <ele>134</ele>
        <time>2018-05-20T09:22:04.000Z</time>
      </trkpt>
      <trkpt lat="45.17518" lon="0.71457">
        <ele>131</ele>
        <time>2018-05-20T09:22:07.000Z</time>
      </trkpt>
      <trkpt lat="45.17521" lon="0.71443">
        <ele>132</ele>
        <time>2018-05-20T09:22:10.000Z</time>
      </trkpt>
      <trkpt lat="45.17526" lon="0.71431">
        <ele>129</ele>
        <time>2018-05-20T09:22:13.000Z</time>
      </trkpt>
      <trkpt lat="45.17529" lon="0.7142">
        <ele>130</ele>
        <time>2018-05-20T09:22:16.000Z</time>
      </trkpt>
      <trkpt lat="45.17534" lon="0.71405">
        <ele>131</ele>
        <time>2018-05-20T09:22:19.000Z</time>
      </trkpt>
      <trkpt lat="45.17537" lon="0.7139">
        <ele>131</ele>
        <time>2018-05-20T09:22:22.000Z</time>
      </trkpt>
      <trkpt lat="45.17541" lon="0.71374">
        <ele>131</ele>
        <time>2018-05-20T09:22:25.000Z</time>
      </trkpt>
      <trkpt lat="45.17546" lon="0.71357">
        <ele>131</ele>
        <time>2018-05-20T09:22:28.000Z</time>
      </trkpt>
      <trkpt lat="45.1755" lon="0.71342">
        <ele>131</ele>
        <time>2018-05-20T09:22:31.000Z</time>
      </trkpt>
      <trkpt lat="45.17553" lon="0.71325">
        <ele>132</ele>
        <time>2018-05-20T09:22:34.000Z</time>
      </trkpt>
      <trkpt lat="45.17555" lon="0.71309">
        <ele>132</ele>
        <time>2018-05-20T09:22:37.000Z</time>
      </trkpt>
      <trkpt lat="45.17561" lon="0.71293">
        <ele>132</ele>
        <time>2018-05-20T09:22:40.000Z</time>
      </trkpt>
      <trkpt lat="45.17565" lon="0.71276">
        <ele>131</ele>
        <time>2018-05-20T09:22:43.000Z</time>
      </trkpt>
      <trkpt lat="45.17568" lon="0.71264">
        <ele>132</ele>
        <time>2018-05-20T09:22:45.000Z</time>
      </trkpt>
      <trkpt lat="45.17572" lon="0.71245">
        <ele>131</ele>
        <time>2018-05-20T09:22:48.000Z</time>
      </trkpt>
      <trkpt lat="45.17577" lon="0.71231">
        <ele>132</ele>
        <time>2018-05-20T09:22:50.000Z</time>
      </trkpt>
      <trkpt lat="45.17581" lon="0.71214">
        <ele>132</ele>
        <time>2018-05-20T09:22:53.000Z</time>
      </trkpt>
      <trkpt lat="45.17584" lon="0.71197">
        <ele>132</ele>
        <time>2018-05-20T09:22:56.000Z</time>
      </trkpt>
      <trkpt lat="45.17588" lon="0.7118">
        <ele>132</ele>
        <time>2018-05-20T09:22:59.000Z</time>
      </trkpt>
      <trkpt lat="45.17592" lon="0.71168">
        <ele>133</ele>
        <time>2018-05-20T09:23:01.000Z</time>
      </trkpt>
      <trkpt lat="45.17597" lon="0.7115">
        <ele>132</ele>
        <time>2018-05-20T09:23:04.000Z</time>
      </trkpt>
      <trkpt lat="45.176" lon="0.71134">
        <ele>130</ele>
        <time>2018-05-20T09:23:07.000Z</time>
      </trkpt>
      <trkpt lat="45.17603" lon="0.71118">
        <ele>129</ele>
        <time>2018-05-20T09:23:10.000Z</time>
      </trkpt>
      <trkpt lat="45.17609" lon="0.71098">
        <ele>130</ele>
        <time>2018-05-20T09:23:15.000Z</time>
      </trkpt>
      <trkpt lat="45.17615" lon="0.71082">
        <ele>131</ele>
        <time>2018-05-20T09:23:19.000Z</time>
      </trkpt>
      <trkpt lat="45.17619" lon="0.71071">
        <ele>132</ele>
        <time>2018-05-20T09:23:22.000Z</time>
      </trkpt>
      <trkpt lat="45.17624" lon="0.71057">
        <ele>130</ele>
        <time>2018-05-20T09:23:25.000Z</time>
      </trkpt>
      <trkpt lat="45.17629" lon="0.7104">
        <ele>128</ele>
        <time>2018-05-20T09:23:29.000Z</time>
      </trkpt>
      <trkpt lat="45.17635" lon="0.71025">
        <ele>127</ele>
        <time>2018-05-20T09:23:33.000Z</time>
      </trkpt>
      <trkpt lat="45.17642" lon="0.71012">
        <ele>129</ele>
        <time>2018-05-20T09:23:37.000Z</time>
      </trkpt>
      <trkpt lat="45.17649" lon="0.70999">
        <ele>129</ele>
        <time>2018-05-20T09:23:43.000Z</time>
      </trkpt>
      <trkpt lat="45.17654" lon="0.70987">
        <ele>129</ele>
        <time>2018-05-20T09:23:47.000Z</time>
      </trkpt>
      <trkpt lat="45.17661" lon="0.70973">
        <ele>129</ele>
        <time>2018-05-20T09:23:51.000Z</time>
      </trkpt>
      <trkpt lat="45.17675" lon="0.70951">
        <ele>129</ele>
        <time>2018-05-20T09:23:56.000Z</time>
      </trkpt>
      <trkpt lat="45.17683" lon="0.70939">
        <ele>130</ele>
        <time>2018-05-20T09:23:59.000Z</time>
      </trkpt>
      <trkpt lat="45.17691" lon="0.70928">
        <ele>131</ele>
        <time>2018-05-20T09:24:02.000Z</time>
      </trkpt>
      <trkpt lat="45.17699" lon="0.70916">
        <ele>130</ele>
        <time>2018-05-20T09:24:05.000Z</time>
      </trkpt>
      <trkpt lat="45.17712" lon="0.70902">
        <ele>129</ele>
        <time>2018-05-20T09:24:09.000Z</time>
      </trkpt>
      <trkpt lat="45.17719" lon="0.70894">
        <ele>129</ele>
        <time>2018-05-20T09:24:11.000Z</time>
      </trkpt>
      <trkpt lat="45.17726" lon="0.70885">
        <ele>128</ele>
        <time>2018-05-20T09:24:13.000Z</time>
      </trkpt>
      <trkpt lat="45.17743" lon="0.70866">
        <ele>130</ele>
        <time>2018-05-20T09:24:18.000Z</time>
      </trkpt>
      <trkpt lat="45.1775" lon="0.70859">
        <ele>132</ele>
        <time>2018-05-20T09:24:20.000Z</time>
      </trkpt>
      <trkpt lat="45.17759" lon="0.70853">
        <ele>132</ele>
        <time>2018-05-20T09:24:22.000Z</time>
      </trkpt>
      <trkpt lat="45.17766" lon="0.70846">
        <ele>133</ele>
        <time>2018-05-20T09:24:24.000Z</time>
      </trkpt>
      <trkpt lat="45.17777" lon="0.70837">
        <ele>130</ele>
        <time>2018-05-20T09:24:27.000Z</time>
      </trkpt>
      <trkpt lat="45.17785" lon="0.70829">
        <ele>130</ele>
        <time>2018-05-20T09:24:30.000Z</time>
      </trkpt>
      <trkpt lat="45.17797" lon="0.70818">
        <ele>129</ele>
        <time>2018-05-20T09:24:35.000Z</time>
      </trkpt>
      <trkpt lat="45.1781" lon="0.70808">
        <ele>129</ele>
        <time>2018-05-20T09:24:40.000Z</time>
      </trkpt>
      <trkpt lat="45.17821" lon="0.70799">
        <ele>128</ele>
        <time>2018-05-20T09:24:43.000Z</time>
      </trkpt>
      <trkpt lat="45.17831" lon="0.7079">
        <ele>128</ele>
        <time>2018-05-20T09:24:46.000Z</time>
      </trkpt>
      <trkpt lat="45.17846" lon="0.70777">
        <ele>128</ele>
        <time>2018-05-20T09:24:50.000Z</time>
      </trkpt>
      <trkpt lat="45.1786" lon="0.70766">
        <ele>129</ele>
        <time>2018-05-20T09:24:54.000Z</time>
      </trkpt>
      <trkpt lat="45.1787" lon="0.70759">
        <ele>129</ele>
        <time>2018-05-20T09:24:57.000Z</time>
      </trkpt>
      <trkpt lat="45.17881" lon="0.70751">
        <ele>127</ele>
        <time>2018-05-20T09:25:00.000Z</time>
      </trkpt>
      <trkpt lat="45.17892" lon="0.70741">
        <ele>127</ele>
        <time>2018-05-20T09:25:03.000Z</time>
      </trkpt>
      <trkpt lat="45.17906" lon="0.70729">
        <ele>128</ele>
        <time>2018-05-20T09:25:07.000Z</time>
      </trkpt>
      <trkpt lat="45.17916" lon="0.70722">
        <ele>130</ele>
        <time>2018-05-20T09:25:09.000Z</time>
      </trkpt>
      <trkpt lat="45.17924" lon="0.70715">
        <ele>130</ele>
        <time>2018-05-20T09:25:11.000Z</time>
      </trkpt>
      <trkpt lat="45.17936" lon="0.70705">
        <ele>131</ele>
        <time>2018-05-20T09:25:14.000Z</time>
      </trkpt>
      <trkpt lat="45.17949" lon="0.70695">
        <ele>131</ele>
        <time>2018-05-20T09:25:17.000Z</time>
      </trkpt>
      <trkpt lat="45.17958" lon="0.70687">
        <ele>131</ele>
        <time>2018-05-20T09:25:19.000Z</time>
      </trkpt>
      <trkpt lat="45.17972" lon="0.70676">
        <ele>133</ele>
        <time>2018-05-20T09:25:22.000Z</time>
      </trkpt>
      <trkpt lat="45.17981" lon="0.70669">
        <ele>134</ele>
        <time>2018-05-20T09:25:24.000Z</time>
      </trkpt>
      <trkpt lat="45.17989" lon="0.70663">
        <ele>134</ele>
        <time>2018-05-20T09:25:26.000Z</time>
      </trkpt>
      <trkpt lat="45.17999" lon="0.70654">
        <ele>134</ele>
        <time>2018-05-20T09:25:29.000Z</time>
      </trkpt>
      <trkpt lat="45.18012" lon="0.70644">
        <ele>135</ele>
        <time>2018-05-20T09:25:32.000Z</time>
      </trkpt>
      <trkpt lat="45.18022" lon="0.70635">
        <ele>134</ele>
        <time>2018-05-20T09:25:35.000Z</time>
      </trkpt>
      <trkpt lat="45.18034" lon="0.70625">
        <ele>133</ele>
        <time>2018-05-20T09:25:39.000Z</time>
      </trkpt>
      <trkpt lat="45.18045" lon="0.70616">
        <ele>132</ele>
        <time>2018-05-20T09:25:43.000Z</time>
      </trkpt>
      <trkpt lat="45.18062" lon="0.70604">
        <ele>131</ele>
        <time>2018-05-20T09:25:47.000Z</time>
      </trkpt>
      <trkpt lat="45.18072" lon="0.70593">
        <ele>130</ele>
        <time>2018-05-20T09:25:49.000Z</time>
      </trkpt>
      <trkpt lat="45.1808" lon="0.70586">
        <ele>130</ele>
        <time>2018-05-20T09:25:51.000Z</time>
      </trkpt>
      <trkpt lat="45.18092" lon="0.70578">
        <ele>131</ele>
        <time>2018-05-20T09:25:54.000Z</time>
      </trkpt>
      <trkpt lat="45.18102" lon="0.70568">
        <ele>131</ele>
        <time>2018-05-20T09:25:57.000Z</time>
      </trkpt>
      <trkpt lat="45.18114" lon="0.70558">
        <ele>131</ele>
        <time>2018-05-20T09:26:00.000Z</time>
      </trkpt>
      <trkpt lat="45.18122" lon="0.7055">
        <ele>131</ele>
        <time>2018-05-20T09:26:02.000Z</time>
      </trkpt>
      <trkpt lat="45.1813" lon="0.70543">
        <ele>131</ele>
        <time>2018-05-20T09:26:04.000Z</time>
      </trkpt>
      <trkpt lat="45.18145" lon="0.7053">
        <ele>129</ele>
        <time>2018-05-20T09:26:08.000Z</time>
      </trkpt>
      <trkpt lat="45.18158" lon="0.7052">
        <ele>131</ele>
        <time>2018-05-20T09:26:11.000Z</time>
      </trkpt>
      <trkpt lat="45.18167" lon="0.70513">
        <ele>131</ele>
        <time>2018-05-20T09:26:13.000Z</time>
      </trkpt>
      <trkpt lat="45.18175" lon="0.70506">
        <ele>132</ele>
        <time>2018-05-20T09:26:15.000Z</time>
      </trkpt>
      <trkpt lat="45.18186" lon="0.70496">
        <ele>133</ele>
        <time>2018-05-20T09:26:18.000Z</time>
      </trkpt>
      <trkpt lat="45.18194" lon="0.7049">
        <ele>133</ele>
        <time>2018-05-20T09:26:20.000Z</time>
      </trkpt>
      <trkpt lat="45.18203" lon="0.70483">
        <ele>133</ele>
        <time>2018-05-20T09:26:22.000Z</time>
      </trkpt>
      <trkpt lat="45.18213" lon="0.70476">
        <ele>133</ele>
        <time>2018-05-20T09:26:24.000Z</time>
      </trkpt>
      <trkpt lat="45.18221" lon="0.70469">
        <ele>133</ele>
        <time>2018-05-20T09:26:26.000Z</time>
      </trkpt>
      <trkpt lat="45.18234" lon="0.70459">
        <ele>134</ele>
        <time>2018-05-20T09:26:29.000Z</time>
      </trkpt>
      <trkpt lat="45.18242" lon="0.70451">
        <ele>134</ele>
        <time>2018-05-20T09:26:31.000Z</time>
      </trkpt>
      <trkpt lat="45.1825" lon="0.70444">
        <ele>134</ele>
        <time>2018-05-20T09:26:33.000Z</time>
      </trkpt>
      <trkpt lat="45.18259" lon="0.70437">
        <ele>134</ele>
        <time>2018-05-20T09:26:35.000Z</time>
      </trkpt>
      <trkpt lat="45.18267" lon="0.70429">
        <ele>134</ele>
        <time>2018-05-20T09:26:37.000Z</time>
      </trkpt>
      <trkpt lat="45.18275" lon="0.70422">
        <ele>135</ele>
        <time>2018-05-20T09:26:39.000Z</time>
      </trkpt>
      <trkpt lat="45.18285" lon="0.70413">
        <ele>135</ele>
        <time>2018-05-20T09:26:42.000Z</time>
      </trkpt>
      <trkpt lat="45.18294" lon="0.70405">
        <ele>136</ele>
        <time>2018-05-20T09:26:45.000Z</time>
      </trkpt>
      <trkpt lat="45.18303" lon="0.70399">
        <ele>136</ele>
        <time>2018-05-20T09:26:48.000Z</time>
      </trkpt>
      <trkpt lat="45.18312" lon="0.7039">
        <ele>136</ele>
        <time>2018-05-20T09:26:51.000Z</time>
      </trkpt>
      <trkpt lat="45.18319" lon="0.70381">
        <ele>135</ele>
        <time>2018-05-20T09:26:54.000Z</time>
      </trkpt>
      <trkpt lat="45.18326" lon="0.70371">
        <ele>135</ele>
        <time>2018-05-20T09:26:57.000Z</time>
      </trkpt>
      <trkpt lat="45.18333" lon="0.70359">
        <ele>135</ele>
        <time>2018-05-20T09:27:01.000Z</time>
      </trkpt>
      <trkpt lat="45.18343" lon="0.70357">
        <ele>135</ele>
        <time>2018-05-20T09:27:05.000Z</time>
      </trkpt>
      <trkpt lat="45.18351" lon="0.70365">
        <ele>135</ele>
        <time>2018-05-20T09:27:09.000Z</time>
      </trkpt>
      <trkpt lat="45.18358" lon="0.70373">
        <ele>132</ele>
        <time>2018-05-20T09:27:14.000Z</time>
      </trkpt>
      <trkpt lat="45.18366" lon="0.70385">
        <ele>131</ele>
        <time>2018-05-20T09:27:18.000Z</time>
      </trkpt>
      <trkpt lat="45.18381" lon="0.70381">
        <ele>132</ele>
        <time>2018-05-20T09:27:22.000Z</time>
      </trkpt>
      <trkpt lat="45.18388" lon="0.70374">
        <ele>132</ele>
        <time>2018-05-20T09:27:24.000Z</time>
      </trkpt>
      <trkpt lat="45.18398" lon="0.70362">
        <ele>133</ele>
        <time>2018-05-20T09:27:27.000Z</time>
      </trkpt>
      <trkpt lat="45.18406" lon="0.70352">
        <ele>133</ele>
        <time>2018-05-20T09:27:30.000Z</time>
      </trkpt>
      <trkpt lat="45.18413" lon="0.70343">
        <ele>133</ele>
        <time>2018-05-20T09:27:33.000Z</time>
      </trkpt>
      <trkpt lat="45.18422" lon="0.70331">
        <ele>132</ele>
        <time>2018-05-20T09:27:36.000Z</time>
      </trkpt>
      <trkpt lat="45.18432" lon="0.7032">
        <ele>132</ele>
        <time>2018-05-20T09:27:39.000Z</time>
      </trkpt>
      <trkpt lat="45.18439" lon="0.70311">
        <ele>133</ele>
        <time>2018-05-20T09:27:41.000Z</time>
      </trkpt>
      <trkpt lat="45.18449" lon="0.70298">
        <ele>135</ele>
        <time>2018-05-20T09:27:44.000Z</time>
      </trkpt>
      <trkpt lat="45.18458" lon="0.70286">
        <ele>136</ele>
        <time>2018-05-20T09:27:47.000Z</time>
      </trkpt>
      <trkpt lat="45.18467" lon="0.70273">
        <ele>137</ele>
        <time>2018-05-20T09:27:50.000Z</time>
      </trkpt>
      <trkpt lat="45.18478" lon="0.70259">
        <ele>137</ele>
        <time>2018-05-20T09:27:54.000Z</time>
      </trkpt>
      <trkpt lat="45.18485" lon="0.70246">
        <ele>133</ele>
        <time>2018-05-20T09:27:59.000Z</time>
      </trkpt>
      <trkpt lat="45.1849" lon="0.70235">
        <ele>130</ele>
        <time>2018-05-20T09:28:04.000Z</time>
      </trkpt>
      <trkpt lat="45.18496" lon="0.70222">
        <ele>131</ele>
        <time>2018-05-20T09:28:08.000Z</time>
      </trkpt>
      <trkpt lat="45.18505" lon="0.70206">
        <ele>132</ele>
        <time>2018-05-20T09:28:12.000Z</time>
      </trkpt>
      <trkpt lat="45.18512" lon="0.70192">
        <ele>132</ele>
        <time>2018-05-20T09:28:15.000Z</time>
      </trkpt>
      <trkpt lat="45.1852" lon="0.70171">
        <ele>155</ele>
        <time>2018-05-20T09:28:19.000Z</time>
      </trkpt>
      <trkpt lat="45.18525" lon="0.70148">
        <ele>140</ele>
        <time>2018-05-20T09:28:23.000Z</time>
      </trkpt>
      <trkpt lat="45.18531" lon="0.70134">
        <ele>135</ele>
        <time>2018-05-20T09:28:26.000Z</time>
      </trkpt>
      <trkpt lat="45.18535" lon="0.70122">
        <ele>131</ele>
        <time>2018-05-20T09:28:28.000Z</time>
      </trkpt>
      <trkpt lat="45.18543" lon="0.70107">
        <ele>131</ele>
        <time>2018-05-20T09:28:31.000Z</time>
      </trkpt>
      <trkpt lat="45.1855" lon="0.70097">
        <ele>131</ele>
        <time>2018-05-20T09:28:33.000Z</time>
      </trkpt>
      <trkpt lat="45.18559" lon="0.70088">
        <ele>132</ele>
        <time>2018-05-20T09:28:35.000Z</time>
      </trkpt>
      <trkpt lat="45.1857" lon="0.70077">
        <ele>132</ele>
        <time>2018-05-20T09:28:38.000Z</time>
      </trkpt>
      <trkpt lat="45.18578" lon="0.7007">
        <ele>132</ele>
        <time>2018-05-20T09:28:40.000Z</time>
      </trkpt>
      <trkpt lat="45.18592" lon="0.70057">
        <ele>131</ele>
        <time>2018-05-20T09:28:43.000Z</time>
      </trkpt>
      <trkpt lat="45.18602" lon="0.70049">
        <ele>131</ele>
        <time>2018-05-20T09:28:45.000Z</time>
      </trkpt>
      <trkpt lat="45.18616" lon="0.70041">
        <ele>130</ele>
        <time>2018-05-20T09:28:48.000Z</time>
      </trkpt>
      <trkpt lat="45.18625" lon="0.70035">
        <ele>130</ele>
        <time>2018-05-20T09:28:50.000Z</time>
      </trkpt>
      <trkpt lat="45.18638" lon="0.70029">
        <ele>129</ele>
        <time>2018-05-20T09:28:53.000Z</time>
      </trkpt>
      <trkpt lat="45.18648" lon="0.70023">
        <ele>129</ele>
        <time>2018-05-20T09:28:55.000Z</time>
      </trkpt>
      <trkpt lat="45.18658" lon="0.7002">
        <ele>129</ele>
        <time>2018-05-20T09:28:57.000Z</time>
      </trkpt>
      <trkpt lat="45.18668" lon="0.70016">
        <ele>129</ele>
        <time>2018-05-20T09:28:59.000Z</time>
      </trkpt>
      <trkpt lat="45.18678" lon="0.70013">
        <ele>130</ele>
        <time>2018-05-20T09:29:01.000Z</time>
      </trkpt>
      <trkpt lat="45.18692" lon="0.7001">
        <ele>129</ele>
        <time>2018-05-20T09:29:04.000Z</time>
      </trkpt>
      <trkpt lat="45.18702" lon="0.70007">
        <ele>130</ele>
        <time>2018-05-20T09:29:06.000Z</time>
      </trkpt>
      <trkpt lat="45.18712" lon="0.70004">
        <ele>130</ele>
        <time>2018-05-20T09:29:08.000Z</time>
      </trkpt>
      <trkpt lat="45.18723" lon="0.70002">
        <ele>131</ele>
        <time>2018-05-20T09:29:10.000Z</time>
      </trkpt>
      <trkpt lat="45.18734" lon="0.70001">
        <ele>131</ele>
        <time>2018-05-20T09:29:12.000Z</time>
      </trkpt>
      <trkpt lat="45.18743" lon="0.69997">
        <ele>131</ele>
        <time>2018-05-20T09:29:14.000Z</time>
      </trkpt>
      <trkpt lat="45.18753" lon="0.69995">
        <ele>133</ele>
        <time>2018-05-20T09:29:16.000Z</time>
      </trkpt>
      <trkpt lat="45.18762" lon="0.69993">
        <ele>132</ele>
        <time>2018-05-20T09:29:18.000Z</time>
      </trkpt>
      <trkpt lat="45.18773" lon="0.6999">
        <ele>133</ele>
        <time>2018-05-20T09:29:20.000Z</time>
      </trkpt>
      <trkpt lat="45.18782" lon="0.69989">
        <ele>131</ele>
        <time>2018-05-20T09:29:22.000Z</time>
      </trkpt>
      <trkpt lat="45.18792" lon="0.69987">
        <ele>131</ele>
        <time>2018-05-20T09:29:24.000Z</time>
      </trkpt>
      <trkpt lat="45.18802" lon="0.69986">
        <ele>130</ele>
        <time>2018-05-20T09:29:26.000Z</time>
      </trkpt>
      <trkpt lat="45.18811" lon="0.69985">
        <ele>130</ele>
        <time>2018-05-20T09:29:28.000Z</time>
      </trkpt>
      <trkpt lat="45.18821" lon="0.69983">
        <ele>131</ele>
        <time>2018-05-20T09:29:30.000Z</time>
      </trkpt>
      <trkpt lat="45.18831" lon="0.69981">
        <ele>131</ele>
        <time>2018-05-20T09:29:32.000Z</time>
      </trkpt>
      <trkpt lat="45.1884" lon="0.6998">
        <ele>132</ele>
        <time>2018-05-20T09:29:34.000Z</time>
      </trkpt>
      <trkpt lat="45.1885" lon="0.69978">
        <ele>132</ele>
        <time>2018-05-20T09:29:36.000Z</time>
      </trkpt>
      <trkpt lat="45.1886" lon="0.69974">
        <ele>132</ele>
        <time>2018-05-20T09:29:38.000Z</time>
      </trkpt>
      <trkpt lat="45.18869" lon="0.69971">
        <ele>131</ele>
        <time>2018-05-20T09:29:40.000Z</time>
      </trkpt>
      <trkpt lat="45.18879" lon="0.69966">
        <ele>131</ele>
        <time>2018-05-20T09:29:42.000Z</time>
      </trkpt>
      <trkpt lat="45.18888" lon="0.69963">
        <ele>132</ele>
        <time>2018-05-20T09:29:44.000Z</time>
      </trkpt>
      <trkpt lat="45.18898" lon="0.69959">
        <ele>131</ele>
        <time>2018-05-20T09:29:46.000Z</time>
      </trkpt>
      <trkpt lat="45.18908" lon="0.69955">
        <ele>131</ele>
        <time>2018-05-20T09:29:48.000Z</time>
      </trkpt>
      <trkpt lat="45.18918" lon="0.69951">
        <ele>131</ele>
        <time>2018-05-20T09:29:50.000Z</time>
      </trkpt>
      <trkpt lat="45.18927" lon="0.69946">
        <ele>132</ele>
        <time>2018-05-20T09:29:52.000Z</time>
      </trkpt>
      <trkpt lat="45.1894" lon="0.69942">
        <ele>132</ele>
        <time>2018-05-20T09:29:55.000Z</time>
      </trkpt>
      <trkpt lat="45.18951" lon="0.69937">
        <ele>133</ele>
        <time>2018-05-20T09:29:58.000Z</time>
      </trkpt>
      <trkpt lat="45.1896" lon="0.69933">
        <ele>132</ele>
        <time>2018-05-20T09:30:01.000Z</time>
      </trkpt>
      <trkpt lat="45.18971" lon="0.69928">
        <ele>131</ele>
        <time>2018-05-20T09:30:04.000Z</time>
      </trkpt>
      <trkpt lat="45.18984" lon="0.69924">
        <ele>131</ele>
        <time>2018-05-20T09:30:08.000Z</time>
      </trkpt>
      <trkpt lat="45.18996" lon="0.6992">
        <ele>129</ele>
        <time>2018-05-20T09:30:12.000Z</time>
      </trkpt>
      <trkpt lat="45.19007" lon="0.69916">
        <ele>129</ele>
        <time>2018-05-20T09:30:17.000Z</time>
      </trkpt>
      <trkpt lat="45.19018" lon="0.69911">
        <ele>128</ele>
        <time>2018-05-20T09:30:21.000Z</time>
      </trkpt>
      <trkpt lat="45.19027" lon="0.69907">
        <ele>128</ele>
        <time>2018-05-20T09:30:24.000Z</time>
      </trkpt>
      <trkpt lat="45.1904" lon="0.69903">
        <ele>128</ele>
        <time>2018-05-20T09:30:28.000Z</time>
      </trkpt>
      <trkpt lat="45.19051" lon="0.699">
        <ele>129</ele>
        <time>2018-05-20T09:30:32.000Z</time>
      </trkpt>
      <trkpt lat="45.1906" lon="0.69897">
        <ele>130</ele>
        <time>2018-05-20T09:30:36.000Z</time>
      </trkpt>
      <trkpt lat="45.19069" lon="0.69893">
        <ele>128</ele>
        <time>2018-05-20T09:30:40.000Z</time>
      </trkpt>
      <trkpt lat="45.1908" lon="0.69886">
        <ele>128</ele>
        <time>2018-05-20T09:30:44.000Z</time>
      </trkpt>
      <trkpt lat="45.1909" lon="0.69883">
        <ele>126</ele>
        <time>2018-05-20T09:30:47.000Z</time>
      </trkpt>
      <trkpt lat="45.19107" lon="0.69877">
        <ele>126</ele>
        <time>2018-05-20T09:30:51.000Z</time>
      </trkpt>
      <trkpt lat="45.19123" lon="0.69872">
        <ele>127</ele>
        <time>2018-05-20T09:30:55.000Z</time>
      </trkpt>
      <trkpt lat="45.19132" lon="0.69869">
        <ele>129</ele>
        <time>2018-05-20T09:30:57.000Z</time>
      </trkpt>
      <trkpt lat="45.19145" lon="0.69864">
        <ele>129</ele>
        <time>2018-05-20T09:31:00.000Z</time>
      </trkpt>
      <trkpt lat="45.19154" lon="0.69861">
        <ele>129</ele>
        <time>2018-05-20T09:31:02.000Z</time>
      </trkpt>
      <trkpt lat="45.19166" lon="0.69858">
        <ele>129</ele>
        <time>2018-05-20T09:31:05.000Z</time>
      </trkpt>
      <trkpt lat="45.19177" lon="0.69854">
        <ele>129</ele>
        <time>2018-05-20T09:31:08.000Z</time>
      </trkpt>
      <trkpt lat="45.19188" lon="0.69849">
        <ele>129</ele>
        <time>2018-05-20T09:31:12.000Z</time>
      </trkpt>
      <trkpt lat="45.19198" lon="0.69845">
        <ele>129</ele>
        <time>2018-05-20T09:31:16.000Z</time>
      </trkpt>
      <trkpt lat="45.19207" lon="0.69844">
        <ele>131</ele>
        <time>2018-05-20T09:32:15.000Z</time>
      </trkpt>
      <trkpt lat="45.1922" lon="0.69841">
        <ele>131</ele>
        <time>2018-05-20T09:32:25.000Z</time>
      </trkpt>
      <trkpt lat="45.19229" lon="0.69836">
        <ele>132</ele>
        <time>2018-05-20T09:32:29.000Z</time>
      </trkpt>
      <trkpt lat="45.19241" lon="0.69831">
        <ele>133</ele>
        <time>2018-05-20T09:32:34.000Z</time>
      </trkpt>
      <trkpt lat="45.19252" lon="0.69824">
        <ele>134</ele>
        <time>2018-05-20T09:32:40.000Z</time>
      </trkpt>
      <trkpt lat="45.19255" lon="0.69809">
        <ele>134</ele>
        <time>2018-05-20T09:32:45.000Z</time>
      </trkpt>
      <trkpt lat="45.19252" lon="0.69797">
        <ele>134</ele>
        <time>2018-05-20T09:32:48.000Z</time>
      </trkpt>
      <trkpt lat="45.19248" lon="0.69785">
        <ele>134</ele>
        <time>2018-05-20T09:32:51.000Z</time>
      </trkpt>
      <trkpt lat="45.19245" lon="0.69769">
        <ele>135</ele>
        <time>2018-05-20T09:32:55.000Z</time>
      </trkpt>
      <trkpt lat="45.19241" lon="0.69749">
        <ele>136</ele>
        <time>2018-05-20T09:33:00.000Z</time>
      </trkpt>
      <trkpt lat="45.19239" lon="0.69736">
        <ele>136</ele>
        <time>2018-05-20T09:33:03.000Z</time>
      </trkpt>
      <trkpt lat="45.19236" lon="0.69716">
        <ele>134</ele>
        <time>2018-05-20T09:33:07.000Z</time>
      </trkpt>
      <trkpt lat="45.19232" lon="0.69696">
        <ele>134</ele>
        <time>2018-05-20T09:33:10.000Z</time>
      </trkpt>
      <trkpt lat="45.19225" lon="0.69682">
        <ele>135</ele>
        <time>2018-05-20T09:33:13.000Z</time>
      </trkpt>
      <trkpt lat="45.19218" lon="0.69673">
        <ele>134</ele>
        <time>2018-05-20T09:33:16.000Z</time>
      </trkpt>
      <trkpt lat="45.19208" lon="0.69664">
        <ele>135</ele>
        <time>2018-05-20T09:33:22.000Z</time>
      </trkpt>
      <trkpt lat="45.19199" lon="0.69654">
        <ele>134</ele>
        <time>2018-05-20T09:33:29.000Z</time>
      </trkpt>
      <trkpt lat="45.19191" lon="0.69647">
        <ele>133</ele>
        <time>2018-05-20T09:33:35.000Z</time>
      </trkpt>
      <trkpt lat="45.19181" lon="0.69641">
        <ele>133</ele>
        <time>2018-05-20T09:33:41.000Z</time>
      </trkpt>
      <trkpt lat="45.1917" lon="0.69637">
        <ele>133</ele>
        <time>2018-05-20T09:33:47.000Z</time>
      </trkpt>
      <trkpt lat="45.19158" lon="0.69635">
        <ele>135</ele>
        <time>2018-05-20T09:33:55.000Z</time>
      </trkpt>
      <trkpt lat="45.19146" lon="0.69637">
        <ele>136</ele>
        <time>2018-05-20T09:34:01.000Z</time>
      </trkpt>
      <trkpt lat="45.19135" lon="0.69638">
        <ele>139</ele>
        <time>2018-05-20T09:34:06.000Z</time>
      </trkpt>
      <trkpt lat="45.19124" lon="0.69639">
        <ele>137</ele>
        <time>2018-05-20T09:34:12.000Z</time>
      </trkpt>
      <trkpt lat="45.19114" lon="0.69643">
        <ele>133</ele>
        <time>2018-05-20T09:34:18.000Z</time>
      </trkpt>
      <trkpt lat="45.19104" lon="0.69648">
        <ele>134</ele>
        <time>2018-05-20T09:34:24.000Z</time>
      </trkpt>
      <trkpt lat="45.19093" lon="0.6965">
        <ele>139</ele>
        <time>2018-05-20T09:34:31.000Z</time>
      </trkpt>
      <trkpt lat="45.19081" lon="0.69651">
        <ele>136</ele>
        <time>2018-05-20T09:34:37.000Z</time>
      </trkpt>
      <trkpt lat="45.19069" lon="0.69649">
        <ele>136</ele>
        <time>2018-05-20T09:34:44.000Z</time>
      </trkpt>
      <trkpt lat="45.19058" lon="0.69648">
        <ele>138</ele>
        <time>2018-05-20T09:34:49.000Z</time>
      </trkpt>
      <trkpt lat="45.19048" lon="0.69647">
        <ele>140</ele>
        <time>2018-05-20T09:34:55.000Z</time>
      </trkpt>
      <trkpt lat="45.19038" lon="0.69645">
        <ele>142</ele>
        <time>2018-05-20T09:35:01.000Z</time>
      </trkpt>
      <trkpt lat="45.19029" lon="0.69642">
        <ele>142</ele>
        <time>2018-05-20T09:35:06.000Z</time>
      </trkpt>
      <trkpt lat="45.19017" lon="0.69639">
        <ele>144</ele>
        <time>2018-05-20T09:35:12.000Z</time>
      </trkpt>
      <trkpt lat="45.19008" lon="0.69636">
        <ele>149</ele>
        <time>2018-05-20T09:35:17.000Z</time>
      </trkpt>
      <trkpt lat="45.19004" lon="0.69625">
        <ele>152</ele>
        <time>2018-05-20T09:35:24.000Z</time>
      </trkpt>
      <trkpt lat="45.19008" lon="0.6961">
        <ele>151</ele>
        <time>2018-05-20T09:35:31.000Z</time>
      </trkpt>
      <trkpt lat="45.19014" lon="0.69599">
        <ele>150</ele>
        <time>2018-05-20T09:35:36.000Z</time>
      </trkpt>
      <trkpt lat="45.19022" lon="0.6959">
        <ele>150</ele>
        <time>2018-05-20T09:35:41.000Z</time>
      </trkpt>
      <trkpt lat="45.19031" lon="0.69581">
        <ele>152</ele>
        <time>2018-05-20T09:35:46.000Z</time>
      </trkpt>
      <trkpt lat="45.19041" lon="0.69574">
        <ele>151</ele>
        <time>2018-05-20T09:35:50.000Z</time>
      </trkpt>
      <trkpt lat="45.19048" lon="0.69567">
        <ele>151</ele>
        <time>2018-05-20T09:35:53.000Z</time>
      </trkpt>
      <trkpt lat="45.19056" lon="0.69559">
        <ele>151</ele>
        <time>2018-05-20T09:35:56.000Z</time>
      </trkpt>
      <trkpt lat="45.19067" lon="0.69548">
        <ele>151</ele>
        <time>2018-05-20T09:36:00.000Z</time>
      </trkpt>
      <trkpt lat="45.19075" lon="0.69539">
        <ele>150</ele>
        <time>2018-05-20T09:36:03.000Z</time>
      </trkpt>
      <trkpt lat="45.19083" lon="0.69529">
        <ele>148</ele>
        <time>2018-05-20T09:36:06.000Z</time>
      </trkpt>
      <trkpt lat="45.19095" lon="0.69515">
        <ele>149</ele>
        <time>2018-05-20T09:36:10.000Z</time>
      </trkpt>
      <trkpt lat="45.19103" lon="0.69506">
        <ele>149</ele>
        <time>2018-05-20T09:36:13.000Z</time>
      </trkpt>
      <trkpt lat="45.1911" lon="0.69495">
        <ele>151</ele>
        <time>2018-05-20T09:36:16.000Z</time>
      </trkpt>
      <trkpt lat="45.19116" lon="0.69484">
        <ele>151</ele>
        <time>2018-05-20T09:36:19.000Z</time>
      </trkpt>
      <trkpt lat="45.19122" lon="0.69472">
        <ele>151</ele>
        <time>2018-05-20T09:36:22.000Z</time>
      </trkpt>
      <trkpt lat="45.19122" lon="0.69457">
        <ele>149</ele>
        <time>2018-05-20T09:36:25.000Z</time>
      </trkpt>
      <trkpt lat="45.19115" lon="0.69446">
        <ele>148</ele>
        <time>2018-05-20T09:36:28.000Z</time>
      </trkpt>
      <trkpt lat="45.19112" lon="0.69433">
        <ele>147</ele>
        <time>2018-05-20T09:36:33.000Z</time>
      </trkpt>
    </trkseg>
  </trk>
</gpx>